<?xml version='1.0' encoding='UTF-8'?><gpx version="1.1" creator="JPX - https://github.com/jenetics/jpx" xmlns="http://www.topografix.com/GPX/1/1"><trk><trkseg><trkpt lat="45.1275317" lon="7.4927833"><ele>362.0</ele><time>2026-05-03T11:59:25.711Z</time></trkpt><trkpt lat="45.1274683" lon="7.4927683"><ele>362.0</ele><time>2026-05-03T11:59:34.239Z</time></trkpt><trkpt lat="45.1275217" lon="7.4928283"><ele>362.0</ele><time>2026-05-03T12:00:14.238Z</time></trkpt><trkpt lat="45.1275783" lon="7.4929467"><ele>362.0</ele><time>2026-05-03T12:00:16.239Z</time></trkpt><trkpt lat="45.12762" lon="7.4931067"><ele>362.0</ele><time>2026-05-03T12:00:18.238Z</time></trkpt><trkpt lat="45.1276133" lon="7.49327"><ele>361.83333333333337</ele><time>2026-05-03T12:00:20.239Z</time></trkpt><trkpt lat="45.127615" lon="7.4934467"><ele>361.6666666666667</ele><time>2026-05-03T12:00:22.239Z</time></trkpt><trkpt lat="45.1276383" lon="7.49353"><ele>361.5</ele><time>2026-05-03T12:00:23.239Z</time></trkpt><trkpt lat="45.127695" lon="7.4935967"><ele>361.3333333333333</ele><time>2026-05-03T12:00:24.239Z</time></trkpt><trkpt lat="45.1277817" lon="7.4936383"><ele>361.16666666666663</ele><time>2026-05-03T12:00:25.239Z</time></trkpt><trkpt lat="45.1278517" lon="7.493645"><ele>361.0</ele><time>2026-05-03T12:00:26.239Z</time></trkpt><trkpt lat="45.1279283" lon="7.4936217"><ele>361.0</ele><time>2026-05-03T12:00:27.239Z</time></trkpt><trkpt lat="45.1280017" lon="7.4936183"><ele>361.0</ele><time>2026-05-03T12:00:28.239Z</time></trkpt><trkpt lat="45.1280667" lon="7.49365"><ele>361.0</ele><time>2026-05-03T12:00:29.239Z</time></trkpt><trkpt lat="45.1281117" lon="7.4937167"><ele>361.0</ele><time>2026-05-03T12:00:30.239Z</time></trkpt><trkpt lat="45.1281417" lon="7.4938017"><ele>361.0</ele><time>2026-05-03T12:00:31.239Z</time></trkpt><trkpt lat="45.128175" lon="7.4939033"><ele>361.0</ele><time>2026-05-03T12:00:32.239Z</time></trkpt><trkpt lat="45.128255" lon="7.4940733"><ele>360.5714285714286</ele><time>2026-05-03T12:00:34.239Z</time></trkpt><trkpt lat="45.128305" lon="7.49415"><ele>360.1428571428571</ele><time>2026-05-03T12:00:35.239Z</time></trkpt><trkpt lat="45.12836" lon="7.4942267"><ele>359.7142857142857</ele><time>2026-05-03T12:00:36.239Z</time></trkpt><trkpt lat="45.12841" lon="7.4943067"><ele>359.28571428571433</ele><time>2026-05-03T12:00:37.239Z</time></trkpt><trkpt lat="45.12847" lon="7.4943767"><ele>358.8571428571429</ele><time>2026-05-03T12:00:38.239Z</time></trkpt><trkpt lat="45.1285333" lon="7.4944367"><ele>358.42857142857144</ele><time>2026-05-03T12:00:39.239Z</time></trkpt><trkpt lat="45.1285817" lon="7.4944983"><ele>358.0</ele><time>2026-05-03T12:00:40.239Z</time></trkpt><trkpt lat="45.1286233" lon="7.4945767"><ele>358.00000000000006</ele><time>2026-05-03T12:00:41.239Z</time></trkpt><trkpt lat="45.1286517" lon="7.49467"><ele>358.0</ele><time>2026-05-03T12:00:42.239Z</time></trkpt><trkpt lat="45.1286767" lon="7.49477"><ele>358.0</ele><time>2026-05-03T12:00:43.239Z</time></trkpt><trkpt lat="45.1287033" lon="7.494865"><ele>358.0</ele><time>2026-05-03T12:00:44.239Z</time></trkpt><trkpt lat="45.1287267" lon="7.494955"><ele>358.0</ele><time>2026-05-03T12:00:45.239Z</time></trkpt><trkpt lat="45.1287533" lon="7.4950383"><ele>358.00000000000006</ele><time>2026-05-03T12:00:46.239Z</time></trkpt><trkpt lat="45.128775" lon="7.49513"><ele>358.0</ele><time>2026-05-03T12:00:47.239Z</time></trkpt><trkpt lat="45.1288233" lon="7.4952167"><ele>358.0</ele><time>2026-05-03T12:00:48.239Z</time></trkpt><trkpt lat="45.12889" lon="7.49531"><ele>358.0</ele><time>2026-05-03T12:00:49.239Z</time></trkpt><trkpt lat="45.1289617" lon="7.4954033"><ele>358.0</ele><time>2026-05-03T12:00:50.239Z</time></trkpt><trkpt lat="45.12904" lon="7.4954933"><ele>358.0</ele><time>2026-05-03T12:00:51.239Z</time></trkpt><trkpt lat="45.12912" lon="7.49558"><ele>358.0</ele><time>2026-05-03T12:00:52.239Z</time></trkpt><trkpt lat="45.1291933" lon="7.495675"><ele>356.4</ele><time>2026-05-03T12:00:53.239Z</time></trkpt><trkpt lat="45.1292583" lon="7.4957817"><ele>354.79999999999995</ele><time>2026-05-03T12:00:54.239Z</time></trkpt><trkpt lat="45.1293183" lon="7.4958867"><ele>353.2</ele><time>2026-05-03T12:00:55.239Z</time></trkpt><trkpt lat="45.129395" lon="7.4959633"><ele>351.6</ele><time>2026-05-03T12:00:56.239Z</time></trkpt><trkpt lat="45.1294817" lon="7.49602"><ele>350.0</ele><time>2026-05-03T12:00:57.239Z</time></trkpt><trkpt lat="45.1295733" lon="7.4960583"><ele>350.0</ele><time>2026-05-03T12:00:58.239Z</time></trkpt><trkpt lat="45.1296633" lon="7.4960917"><ele>350.0</ele><time>2026-05-03T12:00:59.239Z</time></trkpt><trkpt lat="45.12976" lon="7.496135"><ele>350.0</ele><time>2026-05-03T12:01:00.239Z</time></trkpt><trkpt lat="45.1298383" lon="7.4962033"><ele>350.0</ele><time>2026-05-03T12:01:01.239Z</time></trkpt><trkpt lat="45.12992" lon="7.4962867"><ele>350.0</ele><time>2026-05-03T12:01:02.239Z</time></trkpt><trkpt lat="45.1299983" lon="7.4963883"><ele>349.6</ele><time>2026-05-03T12:01:03.239Z</time></trkpt><trkpt lat="45.1300783" lon="7.49649"><ele>349.2</ele><time>2026-05-03T12:01:04.239Z</time></trkpt><trkpt lat="45.1301583" lon="7.496595"><ele>348.79999999999995</ele><time>2026-05-03T12:01:05.239Z</time></trkpt><trkpt lat="45.1302467" lon="7.4966917"><ele>348.4</ele><time>2026-05-03T12:01:06.239Z</time></trkpt><trkpt lat="45.1303367" lon="7.496785"><ele>348.0</ele><time>2026-05-03T12:01:07.239Z</time></trkpt><trkpt lat="45.1304333" lon="7.496865"><ele>348.0</ele><time>2026-05-03T12:01:08.238Z</time></trkpt><trkpt lat="45.13053" lon="7.4969467"><ele>348.0</ele><time>2026-05-03T12:01:09.239Z</time></trkpt><trkpt lat="45.1306267" lon="7.497025"><ele>348.0</ele><time>2026-05-03T12:01:10.238Z</time></trkpt><trkpt lat="45.1307183" lon="7.4971"><ele>348.0</ele><time>2026-05-03T12:01:11.239Z</time></trkpt><trkpt lat="45.1308067" lon="7.49718"><ele>348.0</ele><time>2026-05-03T12:01:12.239Z</time></trkpt><trkpt lat="45.1308883" lon="7.4972767"><ele>347.25</ele><time>2026-05-03T12:01:13.239Z</time></trkpt><trkpt lat="45.130965" lon="7.4973917"><ele>346.5</ele><time>2026-05-03T12:01:14.239Z</time></trkpt><trkpt lat="45.13103" lon="7.497525"><ele>345.75</ele><time>2026-05-03T12:01:15.238Z</time></trkpt><trkpt lat="45.1310983" lon="7.4976633"><ele>345.0</ele><time>2026-05-03T12:01:16.239Z</time></trkpt><trkpt lat="45.1311617" lon="7.4978"><ele>345.0</ele><time>2026-05-03T12:01:17.238Z</time></trkpt><trkpt lat="45.13122" lon="7.49793"><ele>345.0</ele><time>2026-05-03T12:01:18.239Z</time></trkpt><trkpt lat="45.131275" lon="7.4980633"><ele>345.0</ele><time>2026-05-03T12:01:19.239Z</time></trkpt><trkpt lat="45.131325" lon="7.498185"><ele>345.0</ele><time>2026-05-03T12:01:20.239Z</time></trkpt><trkpt lat="45.1313733" lon="7.4983"><ele>345.0</ele><time>2026-05-03T12:01:21.239Z</time></trkpt><trkpt lat="45.1314233" lon="7.49841"><ele>345.0</ele><time>2026-05-03T12:01:22.239Z</time></trkpt><trkpt lat="45.13147" lon="7.4985167"><ele>345.0</ele><time>2026-05-03T12:01:23.239Z</time></trkpt><trkpt lat="45.1315167" lon="7.4986333"><ele>345.0</ele><time>2026-05-03T12:01:24.239Z</time></trkpt><trkpt lat="45.1315633" lon="7.4987467"><ele>345.0</ele><time>2026-05-03T12:01:25.239Z</time></trkpt><trkpt lat="45.1316133" lon="7.4988567"><ele>345.0</ele><time>2026-05-03T12:01:26.239Z</time></trkpt><trkpt lat="45.1316583" lon="7.4989633"><ele>345.0</ele><time>2026-05-03T12:01:27.239Z</time></trkpt><trkpt lat="45.1317017" lon="7.4990583"><ele>345.0</ele><time>2026-05-03T12:01:28.238Z</time></trkpt><trkpt lat="45.131735" lon="7.4991483"><ele>345.0</ele><time>2026-05-03T12:01:29.239Z</time></trkpt><trkpt lat="45.1317583" lon="7.4992333"><ele>345.0</ele><time>2026-05-03T12:01:30.239Z</time></trkpt><trkpt lat="45.1317817" lon="7.49939"><ele>345.0</ele><time>2026-05-03T12:01:32.238Z</time></trkpt><trkpt lat="45.13177" lon="7.4995467"><ele>345.0</ele><time>2026-05-03T12:01:34.239Z</time></trkpt><trkpt lat="45.13176" lon="7.499635"><ele>344.6666666666667</ele><time>2026-05-03T12:01:35.239Z</time></trkpt><trkpt lat="45.131755" lon="7.4997333"><ele>344.3333333333333</ele><time>2026-05-03T12:01:36.239Z</time></trkpt><trkpt lat="45.1317467" lon="7.4998417"><ele>344.0</ele><time>2026-05-03T12:01:37.239Z</time></trkpt><trkpt lat="45.131755" lon="7.5000267"><ele>343.66666666666663</ele><time>2026-05-03T12:01:39.239Z</time></trkpt><trkpt lat="45.131775" lon="7.5001267"><ele>343.3333333333333</ele><time>2026-05-03T12:01:40.239Z</time></trkpt><trkpt lat="45.1317967" lon="7.5002267"><ele>343.0</ele><time>2026-05-03T12:01:41.238Z</time></trkpt><trkpt lat="45.1318233" lon="7.5003233"><ele>342.7142857142857</ele><time>2026-05-03T12:01:42.238Z</time></trkpt><trkpt lat="45.1318517" lon="7.50042"><ele>342.42857142857144</ele><time>2026-05-03T12:01:43.239Z</time></trkpt><trkpt lat="45.131875" lon="7.500515"><ele>342.1428571428571</ele><time>2026-05-03T12:01:44.239Z</time></trkpt><trkpt lat="45.1318983" lon="7.5006067"><ele>341.8571428571429</ele><time>2026-05-03T12:01:45.239Z</time></trkpt><trkpt lat="45.1319267" lon="7.5006917"><ele>341.57142857142856</ele><time>2026-05-03T12:01:46.238Z</time></trkpt><trkpt lat="45.1319667" lon="7.5007633"><ele>341.2857142857143</ele><time>2026-05-03T12:01:47.239Z</time></trkpt><trkpt lat="45.1320167" lon="7.50084"><ele>341.0</ele><time>2026-05-03T12:01:48.239Z</time></trkpt><trkpt lat="45.1320717" lon="7.50091"><ele>341.0</ele><time>2026-05-03T12:01:49.238Z</time></trkpt><trkpt lat="45.1321267" lon="7.5009767"><ele>341.0</ele><time>2026-05-03T12:01:50.238Z</time></trkpt><trkpt lat="45.132175" lon="7.50105"><ele>341.0</ele><time>2026-05-03T12:01:51.239Z</time></trkpt><trkpt lat="45.1322333" lon="7.5011217"><ele>341.0</ele><time>2026-05-03T12:01:52.239Z</time></trkpt><trkpt lat="45.1322867" lon="7.5011833"><ele>341.0</ele><time>2026-05-03T12:01:53.238Z</time></trkpt><trkpt lat="45.132345" lon="7.5012433"><ele>341.0</ele><time>2026-05-03T12:01:54.239Z</time></trkpt><trkpt lat="45.1324017" lon="7.5013067"><ele>341.0</ele><time>2026-05-03T12:01:55.239Z</time></trkpt><trkpt lat="45.13245" lon="7.5013667"><ele>340.83333333333337</ele><time>2026-05-03T12:01:56.239Z</time></trkpt><trkpt lat="45.1325017" lon="7.5014317"><ele>340.6666666666667</ele><time>2026-05-03T12:01:57.239Z</time></trkpt><trkpt lat="45.13259" lon="7.501565"><ele>340.5</ele><time>2026-05-03T12:01:59.239Z</time></trkpt><trkpt lat="45.132625" lon="7.501645"><ele>340.3333333333333</ele><time>2026-05-03T12:02:00.239Z</time></trkpt><trkpt lat="45.13266" lon="7.5017333"><ele>340.16666666666663</ele><time>2026-05-03T12:02:01.239Z</time></trkpt><trkpt lat="45.1327" lon="7.50183"><ele>340.0</ele><time>2026-05-03T12:02:02.239Z</time></trkpt><trkpt lat="45.1327383" lon="7.5019133"><ele>340.0</ele><time>2026-05-03T12:02:03.239Z</time></trkpt><trkpt lat="45.1327817" lon="7.50199"><ele>340.0</ele><time>2026-05-03T12:02:04.239Z</time></trkpt><trkpt lat="45.1328283" lon="7.502065"><ele>340.0</ele><time>2026-05-03T12:02:05.239Z</time></trkpt><trkpt lat="45.1328833" lon="7.5021283"><ele>340.0</ele><time>2026-05-03T12:02:06.239Z</time></trkpt><trkpt lat="45.1329417" lon="7.5021767"><ele>340.0</ele><time>2026-05-03T12:02:07.238Z</time></trkpt><trkpt lat="45.1330033" lon="7.5022167"><ele>340.0</ele><time>2026-05-03T12:02:08.239Z</time></trkpt><trkpt lat="45.1330617" lon="7.502265"><ele>340.0</ele><time>2026-05-03T12:02:09.239Z</time></trkpt><trkpt lat="45.1331167" lon="7.50232"><ele>340.0</ele><time>2026-05-03T12:02:10.239Z</time></trkpt><trkpt lat="45.1331633" lon="7.502385"><ele>340.0</ele><time>2026-05-03T12:02:11.239Z</time></trkpt><trkpt lat="45.13321" lon="7.5024517"><ele>340.0</ele><time>2026-05-03T12:02:12.239Z</time></trkpt><trkpt lat="45.13329" lon="7.502585"><ele>340.0</ele><time>2026-05-03T12:02:14.239Z</time></trkpt><trkpt lat="45.13333" lon="7.5026633"><ele>340.0</ele><time>2026-05-03T12:02:15.238Z</time></trkpt><trkpt lat="45.13337" lon="7.5027433"><ele>340.0</ele><time>2026-05-03T12:02:16.239Z</time></trkpt><trkpt lat="45.1334117" lon="7.5028233"><ele>340.0</ele><time>2026-05-03T12:02:17.239Z</time></trkpt><trkpt lat="45.133455" lon="7.5029017"><ele>340.0</ele><time>2026-05-03T12:02:18.239Z</time></trkpt><trkpt lat="45.13349" lon="7.5029767"><ele>340.0</ele><time>2026-05-03T12:02:19.239Z</time></trkpt><trkpt lat="45.1335283" lon="7.5030483"><ele>340.0</ele><time>2026-05-03T12:02:20.238Z</time></trkpt><trkpt lat="45.1335667" lon="7.50312"><ele>340.0</ele><time>2026-05-03T12:02:21.239Z</time></trkpt><trkpt lat="45.1336367" lon="7.5032433"><ele>340.0</ele><time>2026-05-03T12:02:23.239Z</time></trkpt><trkpt lat="45.1337033" lon="7.503355"><ele>340.2</ele><time>2026-05-03T12:02:25.239Z</time></trkpt><trkpt lat="45.1337917" lon="7.50344"><ele>340.4</ele><time>2026-05-03T12:02:27.239Z</time></trkpt><trkpt lat="45.1338933" lon="7.5034817"><ele>340.6</ele><time>2026-05-03T12:02:29.239Z</time></trkpt><trkpt lat="45.1340183" lon="7.5035267"><ele>340.8</ele><time>2026-05-03T12:02:31.239Z</time></trkpt><trkpt lat="45.1340817" lon="7.50356"><ele>341.0</ele><time>2026-05-03T12:02:32.239Z</time></trkpt><trkpt lat="45.1341717" lon="7.5036517"><ele>341.6</ele><time>2026-05-03T12:02:34.239Z</time></trkpt><trkpt lat="45.13424" lon="7.5037867"><ele>342.20000000000005</ele><time>2026-05-03T12:02:36.239Z</time></trkpt><trkpt lat="45.1342867" lon="7.503925"><ele>342.79999999999995</ele><time>2026-05-03T12:02:38.238Z</time></trkpt><trkpt lat="45.134335" lon="7.5040667"><ele>343.4</ele><time>2026-05-03T12:02:40.239Z</time></trkpt><trkpt lat="45.1343683" lon="7.5041533"><ele>344.0</ele><time>2026-05-03T12:02:41.239Z</time></trkpt><trkpt lat="45.13439" lon="7.5042417"><ele>344.00000000000006</ele><time>2026-05-03T12:02:42.239Z</time></trkpt><trkpt lat="45.1344283" lon="7.5043283"><ele>344.0</ele><time>2026-05-03T12:02:43.239Z</time></trkpt><trkpt lat="45.134465" lon="7.5044183"><ele>344.0</ele><time>2026-05-03T12:02:44.239Z</time></trkpt><trkpt lat="45.1344967" lon="7.5044983"><ele>344.0</ele><time>2026-05-03T12:02:45.239Z</time></trkpt><trkpt lat="45.134525" lon="7.50458"><ele>344.0</ele><time>2026-05-03T12:02:46.239Z</time></trkpt><trkpt lat="45.1345617" lon="7.5046617"><ele>344.00000000000006</ele><time>2026-05-03T12:02:47.238Z</time></trkpt><trkpt lat="45.1346033" lon="7.5047517"><ele>344.0</ele><time>2026-05-03T12:02:48.239Z</time></trkpt><trkpt lat="45.1346367" lon="7.5048417"><ele>344.0</ele><time>2026-05-03T12:02:49.239Z</time></trkpt><trkpt lat="45.1346733" lon="7.5049333"><ele>344.0</ele><time>2026-05-03T12:02:50.239Z</time></trkpt><trkpt lat="45.134715" lon="7.505035"><ele>344.0</ele><time>2026-05-03T12:02:51.239Z</time></trkpt><trkpt lat="45.1347633" lon="7.5051317"><ele>344.0</ele><time>2026-05-03T12:02:52.239Z</time></trkpt><trkpt lat="45.1348117" lon="7.5052167"><ele>344.0</ele><time>2026-05-03T12:02:53.238Z</time></trkpt><trkpt lat="45.13487" lon="7.5053"><ele>344.0</ele><time>2026-05-03T12:02:54.239Z</time></trkpt><trkpt lat="45.134925" lon="7.5053783"><ele>342.5</ele><time>2026-05-03T12:02:55.239Z</time></trkpt><trkpt lat="45.134985" lon="7.5054483"><ele>341.0</ele><time>2026-05-03T12:02:56.239Z</time></trkpt><trkpt lat="45.1350417" lon="7.505515"><ele>339.5</ele><time>2026-05-03T12:02:57.239Z</time></trkpt><trkpt lat="45.13509" lon="7.5055833"><ele>338.0</ele><time>2026-05-03T12:02:58.238Z</time></trkpt><trkpt lat="45.13513" lon="7.50566"><ele>336.5</ele><time>2026-05-03T12:02:59.239Z</time></trkpt><trkpt lat="45.1351983" lon="7.505785"><ele>335.0</ele><time>2026-05-03T12:03:01.239Z</time></trkpt><trkpt lat="45.1352717" lon="7.505835"><ele>335.0</ele><time>2026-05-03T12:03:03.238Z</time></trkpt><trkpt lat="45.1353467" lon="7.50587"><ele>335.0</ele><time>2026-05-03T12:03:05.239Z</time></trkpt><trkpt lat="45.1354283" lon="7.5059683"><ele>335.0</ele><time>2026-05-03T12:03:07.239Z</time></trkpt><trkpt lat="45.13547" lon="7.5060367"><ele>335.0</ele><time>2026-05-03T12:03:08.238Z</time></trkpt><trkpt lat="45.1355433" lon="7.50619"><ele>335.0</ele><time>2026-05-03T12:03:10.239Z</time></trkpt><trkpt lat="45.135575" lon="7.506275"><ele>335.0</ele><time>2026-05-03T12:03:11.239Z</time></trkpt><trkpt lat="45.1355983" lon="7.5063617"><ele>335.2</ele><time>2026-05-03T12:03:12.238Z</time></trkpt><trkpt lat="45.1356183" lon="7.506525"><ele>335.4</ele><time>2026-05-03T12:03:14.238Z</time></trkpt><trkpt lat="45.1356117" lon="7.5066917"><ele>335.6</ele><time>2026-05-03T12:03:16.239Z</time></trkpt><trkpt lat="45.135605" lon="7.5068"><ele>335.8</ele><time>2026-05-03T12:03:17.239Z</time></trkpt><trkpt lat="45.1355967" lon="7.5069033"><ele>336.0</ele><time>2026-05-03T12:03:18.238Z</time></trkpt><trkpt lat="45.13559" lon="7.5070083"><ele>336.1666666666667</ele><time>2026-05-03T12:03:19.239Z</time></trkpt><trkpt lat="45.1355783" lon="7.5071067"><ele>336.3333333333333</ele><time>2026-05-03T12:03:20.239Z</time></trkpt><trkpt lat="45.1355683" lon="7.5072033"><ele>336.5</ele><time>2026-05-03T12:03:21.239Z</time></trkpt><trkpt lat="45.1355567" lon="7.5073"><ele>336.66666666666663</ele><time>2026-05-03T12:03:22.239Z</time></trkpt><trkpt lat="45.1355483" lon="7.507405"><ele>336.8333333333333</ele><time>2026-05-03T12:03:23.239Z</time></trkpt><trkpt lat="45.13554" lon="7.5075033"><ele>337.0</ele><time>2026-05-03T12:03:24.239Z</time></trkpt><trkpt lat="45.13552" lon="7.507675"><ele>337.0</ele><time>2026-05-03T12:03:26.239Z</time></trkpt><trkpt lat="45.13548" lon="7.5078317"><ele>337.0</ele><time>2026-05-03T12:03:28.239Z</time></trkpt><trkpt lat="45.135425" lon="7.5079667"><ele>337.0</ele><time>2026-05-03T12:03:30.239Z</time></trkpt><trkpt lat="45.1353483" lon="7.5080533"><ele>337.0</ele><time>2026-05-03T12:03:32.239Z</time></trkpt><trkpt lat="45.1352567" lon="7.5081083"><ele>337.0</ele><time>2026-05-03T12:03:34.239Z</time></trkpt><trkpt lat="45.135125" lon="7.5081683"><ele>336.5</ele><time>2026-05-03T12:03:36.238Z</time></trkpt><trkpt lat="45.1350483" lon="7.508215"><ele>336.0</ele><time>2026-05-03T12:03:37.238Z</time></trkpt><trkpt lat="45.1349833" lon="7.50826"><ele>335.5</ele><time>2026-05-03T12:03:38.238Z</time></trkpt><trkpt lat="45.1349183" lon="7.50831"><ele>335.0</ele><time>2026-05-03T12:03:39.238Z</time></trkpt><trkpt lat="45.134855" lon="7.5083583"><ele>334.5</ele><time>2026-05-03T12:03:40.237Z</time></trkpt><trkpt lat="45.1347933" lon="7.5084183"><ele>334.0</ele><time>2026-05-03T12:03:41.238Z</time></trkpt><trkpt lat="45.1347317" lon="7.5084783"><ele>333.8333333333333</ele><time>2026-05-03T12:03:42.238Z</time></trkpt><trkpt lat="45.13467" lon="7.5085367"><ele>333.66666666666663</ele><time>2026-05-03T12:03:43.238Z</time></trkpt><trkpt lat="45.1346083" lon="7.5085967"><ele>333.5</ele><time>2026-05-03T12:03:44.238Z</time></trkpt><trkpt lat="45.1345533" lon="7.5086467"><ele>333.3333333333333</ele><time>2026-05-03T12:03:45.238Z</time></trkpt><trkpt lat="45.1344383" lon="7.5087233"><ele>333.1666666666667</ele><time>2026-05-03T12:03:47.238Z</time></trkpt><trkpt lat="45.134385" lon="7.5087717"><ele>333.0</ele><time>2026-05-03T12:03:48.238Z</time></trkpt><trkpt lat="45.1343283" lon="7.5088183"><ele>333.0</ele><time>2026-05-03T12:03:49.238Z</time></trkpt><trkpt lat="45.1342733" lon="7.508865"><ele>333.0</ele><time>2026-05-03T12:03:50.238Z</time></trkpt><trkpt lat="45.1341733" lon="7.5089567"><ele>333.0</ele><time>2026-05-03T12:03:52.238Z</time></trkpt><trkpt lat="45.1340767" lon="7.509035"><ele>333.0</ele><time>2026-05-03T12:03:54.238Z</time></trkpt><trkpt lat="45.1339933" lon="7.5091067"><ele>333.0</ele><time>2026-05-03T12:03:56.238Z</time></trkpt><trkpt lat="45.13392" lon="7.5091833"><ele>333.2</ele><time>2026-05-03T12:03:58.238Z</time></trkpt><trkpt lat="45.1338733" lon="7.5092433"><ele>333.4</ele><time>2026-05-03T12:04:00.238Z</time></trkpt><trkpt lat="45.1339033" lon="7.5093717"><ele>333.59999999999997</ele><time>2026-05-03T12:04:08.237Z</time></trkpt><trkpt lat="45.13397" lon="7.50948"><ele>333.79999999999995</ele><time>2026-05-03T12:04:09.238Z</time></trkpt><trkpt lat="45.1340417" lon="7.5096017"><ele>334.0</ele><time>2026-05-03T12:04:10.238Z</time></trkpt><trkpt lat="45.1341183" lon="7.5097217"><ele>334.0</ele><time>2026-05-03T12:04:11.238Z</time></trkpt><trkpt lat="45.1342017" lon="7.5098433"><ele>334.0</ele><time>2026-05-03T12:04:12.238Z</time></trkpt><trkpt lat="45.134285" lon="7.5099783"><ele>334.0</ele><time>2026-05-03T12:04:13.237Z</time></trkpt><trkpt lat="45.1343767" lon="7.510095"><ele>334.0</ele><time>2026-05-03T12:04:14.237Z</time></trkpt><trkpt lat="45.1344633" lon="7.5102317"><ele>334.0</ele><time>2026-05-03T12:04:15.238Z</time></trkpt><trkpt lat="45.13454" lon="7.5103783"><ele>334.0</ele><time>2026-05-03T12:04:16.238Z</time></trkpt><trkpt lat="45.1346033" lon="7.51053"><ele>334.0</ele><time>2026-05-03T12:04:17.238Z</time></trkpt><trkpt lat="45.134645" lon="7.5107"><ele>334.0</ele><time>2026-05-03T12:04:18.238Z</time></trkpt><trkpt lat="45.134675" lon="7.51089"><ele>333.75</ele><time>2026-05-03T12:04:19.238Z</time></trkpt><trkpt lat="45.1346917" lon="7.5110883"><ele>333.5</ele><time>2026-05-03T12:04:20.238Z</time></trkpt><trkpt lat="45.134705" lon="7.5112933"><ele>333.25</ele><time>2026-05-03T12:04:21.238Z</time></trkpt><trkpt lat="45.1347167" lon="7.5115"><ele>333.0</ele><time>2026-05-03T12:04:22.238Z</time></trkpt><trkpt lat="45.134735" lon="7.5117067"><ele>332.75</ele><time>2026-05-03T12:04:23.237Z</time></trkpt><trkpt lat="45.1347567" lon="7.5119083"><ele>332.5</ele><time>2026-05-03T12:04:24.238Z</time></trkpt><trkpt lat="45.1347883" lon="7.5121067"><ele>332.25</ele><time>2026-05-03T12:04:25.237Z</time></trkpt><trkpt lat="45.1348317" lon="7.5123033"><ele>332.0</ele><time>2026-05-03T12:04:26.237Z</time></trkpt><trkpt lat="45.1348817" lon="7.5125"><ele>331.6666666666667</ele><time>2026-05-03T12:04:27.238Z</time></trkpt><trkpt lat="45.1349283" lon="7.5127033"><ele>331.3333333333333</ele><time>2026-05-03T12:04:28.238Z</time></trkpt><trkpt lat="45.134975" lon="7.5129133"><ele>331.0</ele><time>2026-05-03T12:04:29.238Z</time></trkpt><trkpt lat="45.1350183" lon="7.5131183"><ele>331.0</ele><time>2026-05-03T12:04:30.238Z</time></trkpt><trkpt lat="45.1350583" lon="7.513335"><ele>331.0</ele><time>2026-05-03T12:04:31.238Z</time></trkpt><trkpt lat="45.1350967" lon="7.5135417"><ele>331.0</ele><time>2026-05-03T12:04:32.237Z</time></trkpt><trkpt lat="45.135135" lon="7.5137517"><ele>330.75</ele><time>2026-05-03T12:04:33.238Z</time></trkpt><trkpt lat="45.1351767" lon="7.5139533"><ele>330.5</ele><time>2026-05-03T12:04:34.238Z</time></trkpt><trkpt lat="45.13521" lon="7.514155"><ele>330.25</ele><time>2026-05-03T12:04:35.238Z</time></trkpt><trkpt lat="45.1352467" lon="7.514345"><ele>330.0</ele><time>2026-05-03T12:04:36.238Z</time></trkpt><trkpt lat="45.1352833" lon="7.5145333"><ele>330.0</ele><time>2026-05-03T12:04:37.238Z</time></trkpt><trkpt lat="45.13532" lon="7.5147267"><ele>330.0</ele><time>2026-05-03T12:04:38.238Z</time></trkpt><trkpt lat="45.135355" lon="7.514925"><ele>330.0</ele><time>2026-05-03T12:04:39.238Z</time></trkpt><trkpt lat="45.1354" lon="7.5151117"><ele>330.0</ele><time>2026-05-03T12:04:40.238Z</time></trkpt><trkpt lat="45.13545" lon="7.5153"><ele>330.0</ele><time>2026-05-03T12:04:41.237Z</time></trkpt><trkpt lat="45.13551" lon="7.5154867"><ele>330.0</ele><time>2026-05-03T12:04:42.238Z</time></trkpt><trkpt lat="45.1355717" lon="7.5156817"><ele>330.0</ele><time>2026-05-03T12:04:43.238Z</time></trkpt><trkpt lat="45.1356417" lon="7.5158733"><ele>330.0</ele><time>2026-05-03T12:04:44.238Z</time></trkpt><trkpt lat="45.13571" lon="7.5160683"><ele>329.6666666666667</ele><time>2026-05-03T12:04:45.238Z</time></trkpt><trkpt lat="45.135775" lon="7.516265"><ele>329.33333333333337</ele><time>2026-05-03T12:04:46.238Z</time></trkpt><trkpt lat="45.1358367" lon="7.5164683"><ele>329.0</ele><time>2026-05-03T12:04:47.238Z</time></trkpt><trkpt lat="45.1358933" lon="7.51667"><ele>329.0</ele><time>2026-05-03T12:04:48.238Z</time></trkpt><trkpt lat="45.1359517" lon="7.51688"><ele>329.0</ele><time>2026-05-03T12:04:49.238Z</time></trkpt><trkpt lat="45.136005" lon="7.517095"><ele>329.0</ele><time>2026-05-03T12:04:50.238Z</time></trkpt><trkpt lat="45.13606" lon="7.5173033"><ele>328.75</ele><time>2026-05-03T12:04:51.238Z</time></trkpt><trkpt lat="45.1361133" lon="7.517505"><ele>328.5</ele><time>2026-05-03T12:04:52.238Z</time></trkpt><trkpt lat="45.1361667" lon="7.517705"><ele>328.25</ele><time>2026-05-03T12:04:53.238Z</time></trkpt><trkpt lat="45.136225" lon="7.5178933"><ele>328.0</ele><time>2026-05-03T12:04:54.238Z</time></trkpt><trkpt lat="45.1362833" lon="7.5180783"><ele>327.75</ele><time>2026-05-03T12:04:55.238Z</time></trkpt><trkpt lat="45.1363367" lon="7.51825"><ele>327.5</ele><time>2026-05-03T12:04:56.238Z</time></trkpt><trkpt lat="45.1363883" lon="7.5184183"><ele>327.25</ele><time>2026-05-03T12:04:57.237Z</time></trkpt><trkpt lat="45.1364383" lon="7.5185767"><ele>327.0</ele><time>2026-05-03T12:04:58.237Z</time></trkpt><trkpt lat="45.1364817" lon="7.518735"><ele>327.0</ele><time>2026-05-03T12:04:59.238Z</time></trkpt><trkpt lat="45.1365233" lon="7.518885"><ele>327.0</ele><time>2026-05-03T12:05:00.238Z</time></trkpt><trkpt lat="45.136565" lon="7.5190317"><ele>327.0</ele><time>2026-05-03T12:05:01.238Z</time></trkpt><trkpt lat="45.13659" lon="7.5191917"><ele>327.0</ele><time>2026-05-03T12:05:02.238Z</time></trkpt><trkpt lat="45.13661" lon="7.5193617"><ele>327.0</ele><time>2026-05-03T12:05:03.238Z</time></trkpt><trkpt lat="45.1366183" lon="7.519535"><ele>327.0</ele><time>2026-05-03T12:05:04.238Z</time></trkpt><trkpt lat="45.136635" lon="7.519715"><ele>327.0</ele><time>2026-05-03T12:05:05.238Z</time></trkpt><trkpt lat="45.1366467" lon="7.5199"><ele>327.0</ele><time>2026-05-03T12:05:06.238Z</time></trkpt><trkpt lat="45.1366567" lon="7.5200767"><ele>326.5</ele><time>2026-05-03T12:05:07.237Z</time></trkpt><trkpt lat="45.1366683" lon="7.52026"><ele>326.0</ele><time>2026-05-03T12:05:08.238Z</time></trkpt><trkpt lat="45.1366783" lon="7.5204433"><ele>325.5</ele><time>2026-05-03T12:05:09.238Z</time></trkpt><trkpt lat="45.1366867" lon="7.5206217"><ele>325.0</ele><time>2026-05-03T12:05:10.237Z</time></trkpt><trkpt lat="45.13669" lon="7.5208"><ele>324.75</ele><time>2026-05-03T12:05:11.238Z</time></trkpt><trkpt lat="45.1367067" lon="7.5209783"><ele>324.5</ele><time>2026-05-03T12:05:12.238Z</time></trkpt><trkpt lat="45.1367317" lon="7.5211567"><ele>324.25</ele><time>2026-05-03T12:05:13.238Z</time></trkpt><trkpt lat="45.1367833" lon="7.5213217"><ele>324.0</ele><time>2026-05-03T12:05:14.238Z</time></trkpt><trkpt lat="45.13684" lon="7.521485"><ele>324.75</ele><time>2026-05-03T12:05:15.238Z</time></trkpt><trkpt lat="45.13691" lon="7.52165"><ele>325.5</ele><time>2026-05-03T12:05:16.238Z</time></trkpt><trkpt lat="45.1369933" lon="7.521805"><ele>326.25</ele><time>2026-05-03T12:05:17.238Z</time></trkpt><trkpt lat="45.137085" lon="7.5219683"><ele>327.0</ele><time>2026-05-03T12:05:18.237Z</time></trkpt><trkpt lat="45.13717" lon="7.5221317"><ele>327.0</ele><time>2026-05-03T12:05:19.237Z</time></trkpt><trkpt lat="45.1372567" lon="7.5223033"><ele>327.0</ele><time>2026-05-03T12:05:20.238Z</time></trkpt><trkpt lat="45.137345" lon="7.5224783"><ele>327.0</ele><time>2026-05-03T12:05:21.238Z</time></trkpt><trkpt lat="45.137435" lon="7.5226383"><ele>327.0</ele><time>2026-05-03T12:05:22.238Z</time></trkpt><trkpt lat="45.1375167" lon="7.52281"><ele>327.25</ele><time>2026-05-03T12:05:23.238Z</time></trkpt><trkpt lat="45.1375967" lon="7.5229767"><ele>327.5</ele><time>2026-05-03T12:05:24.238Z</time></trkpt><trkpt lat="45.137675" lon="7.52315"><ele>327.75</ele><time>2026-05-03T12:05:25.238Z</time></trkpt><trkpt lat="45.137765" lon="7.52331"><ele>328.0</ele><time>2026-05-03T12:05:26.237Z</time></trkpt><trkpt lat="45.1378533" lon="7.5234833"><ele>328.0</ele><time>2026-05-03T12:05:27.238Z</time></trkpt><trkpt lat="45.137945" lon="7.52365"><ele>328.0</ele><time>2026-05-03T12:05:28.238Z</time></trkpt><trkpt lat="45.1380233" lon="7.5238283"><ele>328.0</ele><time>2026-05-03T12:05:29.238Z</time></trkpt><trkpt lat="45.1381067" lon="7.5240133"><ele>327.75</ele><time>2026-05-03T12:05:30.238Z</time></trkpt><trkpt lat="45.13818" lon="7.5241717"><ele>327.5</ele><time>2026-05-03T12:05:31.238Z</time></trkpt><trkpt lat="45.1382467" lon="7.5243267"><ele>327.25</ele><time>2026-05-03T12:05:32.238Z</time></trkpt><trkpt lat="45.1383233" lon="7.5244767"><ele>327.0</ele><time>2026-05-03T12:05:33.238Z</time></trkpt><trkpt lat="45.13841" lon="7.5246217"><ele>327.0</ele><time>2026-05-03T12:05:34.238Z</time></trkpt><trkpt lat="45.1384983" lon="7.52477"><ele>327.0</ele><time>2026-05-03T12:05:35.238Z</time></trkpt><trkpt lat="45.13858" lon="7.5249267"><ele>327.0</ele><time>2026-05-03T12:05:36.238Z</time></trkpt><trkpt lat="45.1386617" lon="7.52508"><ele>327.0</ele><time>2026-05-03T12:05:37.238Z</time></trkpt><trkpt lat="45.1387417" lon="7.52523"><ele>327.0</ele><time>2026-05-03T12:05:38.238Z</time></trkpt><trkpt lat="45.1388233" lon="7.5253767"><ele>327.0</ele><time>2026-05-03T12:05:39.238Z</time></trkpt><trkpt lat="45.1389017" lon="7.52552"><ele>327.0</ele><time>2026-05-03T12:05:40.238Z</time></trkpt><trkpt lat="45.1389783" lon="7.5256767"><ele>327.0</ele><time>2026-05-03T12:05:41.238Z</time></trkpt><trkpt lat="45.1390583" lon="7.52582"><ele>327.0</ele><time>2026-05-03T12:05:42.238Z</time></trkpt><trkpt lat="45.13914" lon="7.52597"><ele>327.0</ele><time>2026-05-03T12:05:43.238Z</time></trkpt><trkpt lat="45.139215" lon="7.5261233"><ele>327.0</ele><time>2026-05-03T12:05:44.238Z</time></trkpt><trkpt lat="45.1392917" lon="7.5262667"><ele>327.0</ele><time>2026-05-03T12:05:45.238Z</time></trkpt><trkpt lat="45.139365" lon="7.5264083"><ele>327.0</ele><time>2026-05-03T12:05:46.238Z</time></trkpt><trkpt lat="45.1394417" lon="7.5265417"><ele>327.0</ele><time>2026-05-03T12:05:47.238Z</time></trkpt><trkpt lat="45.139515" lon="7.52668"><ele>327.0</ele><time>2026-05-03T12:05:48.238Z</time></trkpt><trkpt lat="45.1395867" lon="7.5268233"><ele>327.0</ele><time>2026-05-03T12:05:49.238Z</time></trkpt><trkpt lat="45.13966" lon="7.5269567"><ele>327.0</ele><time>2026-05-03T12:05:50.238Z</time></trkpt><trkpt lat="45.1397267" lon="7.5270917"><ele>327.0</ele><time>2026-05-03T12:05:51.238Z</time></trkpt><trkpt lat="45.1397967" lon="7.5272167"><ele>327.0</ele><time>2026-05-03T12:05:52.238Z</time></trkpt><trkpt lat="45.1398633" lon="7.527355"><ele>327.0</ele><time>2026-05-03T12:05:53.238Z</time></trkpt><trkpt lat="45.139925" lon="7.5274933"><ele>327.0</ele><time>2026-05-03T12:05:54.238Z</time></trkpt><trkpt lat="45.1399883" lon="7.527625"><ele>327.0</ele><time>2026-05-03T12:05:55.238Z</time></trkpt><trkpt lat="45.1400483" lon="7.527755"><ele>327.0</ele><time>2026-05-03T12:05:56.238Z</time></trkpt><trkpt lat="45.140115" lon="7.5278933"><ele>327.0</ele><time>2026-05-03T12:05:57.238Z</time></trkpt><trkpt lat="45.1401767" lon="7.5280233"><ele>326.8</ele><time>2026-05-03T12:05:58.237Z</time></trkpt><trkpt lat="45.1402383" lon="7.5281417"><ele>326.6</ele><time>2026-05-03T12:05:59.238Z</time></trkpt><trkpt lat="45.1402983" lon="7.5282683"><ele>326.40000000000003</ele><time>2026-05-03T12:06:00.238Z</time></trkpt><trkpt lat="45.1403617" lon="7.5283783"><ele>326.20000000000005</ele><time>2026-05-03T12:06:01.238Z</time></trkpt><trkpt lat="45.1404167" lon="7.5284817"><ele>326.0</ele><time>2026-05-03T12:06:02.238Z</time></trkpt><trkpt lat="45.14047" lon="7.52858"><ele>326.0</ele><time>2026-05-03T12:06:03.238Z</time></trkpt><trkpt lat="45.1405233" lon="7.5286917"><ele>326.0</ele><time>2026-05-03T12:06:04.237Z</time></trkpt><trkpt lat="45.1405767" lon="7.5288017"><ele>326.0</ele><time>2026-05-03T12:06:05.238Z</time></trkpt><trkpt lat="45.1406367" lon="7.528915"><ele>326.0</ele><time>2026-05-03T12:06:06.238Z</time></trkpt><trkpt lat="45.1406933" lon="7.52903"><ele>326.0</ele><time>2026-05-03T12:06:07.238Z</time></trkpt><trkpt lat="45.1407533" lon="7.52914"><ele>326.0</ele><time>2026-05-03T12:06:08.238Z</time></trkpt><trkpt lat="45.1408117" lon="7.529245"><ele>326.0</ele><time>2026-05-03T12:06:09.238Z</time></trkpt><trkpt lat="45.1408667" lon="7.52936"><ele>326.0</ele><time>2026-05-03T12:06:10.238Z</time></trkpt><trkpt lat="45.140915" lon="7.5294767"><ele>326.0</ele><time>2026-05-03T12:06:11.238Z</time></trkpt><trkpt lat="45.1409633" lon="7.5295933"><ele>326.0</ele><time>2026-05-03T12:06:12.238Z</time></trkpt><trkpt lat="45.1410033" lon="7.5297183"><ele>326.0</ele><time>2026-05-03T12:06:13.238Z</time></trkpt><trkpt lat="45.1410517" lon="7.5298367"><ele>326.0</ele><time>2026-05-03T12:06:14.238Z</time></trkpt><trkpt lat="45.1411083" lon="7.529955"><ele>326.0</ele><time>2026-05-03T12:06:15.238Z</time></trkpt><trkpt lat="45.14117" lon="7.5300583"><ele>326.0</ele><time>2026-05-03T12:06:16.238Z</time></trkpt><trkpt lat="45.141235" lon="7.5301567"><ele>326.0</ele><time>2026-05-03T12:06:17.238Z</time></trkpt><trkpt lat="45.1413017" lon="7.530255"><ele>326.0</ele><time>2026-05-03T12:06:18.238Z</time></trkpt><trkpt lat="45.1413717" lon="7.5303517"><ele>326.0</ele><time>2026-05-03T12:06:19.238Z</time></trkpt><trkpt lat="45.1414267" lon="7.5304533"><ele>326.0</ele><time>2026-05-03T12:06:20.238Z</time></trkpt><trkpt lat="45.1414817" lon="7.5305633"><ele>326.0</ele><time>2026-05-03T12:06:21.238Z</time></trkpt><trkpt lat="45.1415417" lon="7.5306717"><ele>326.0</ele><time>2026-05-03T12:06:22.238Z</time></trkpt><trkpt lat="45.1416" lon="7.53079"><ele>326.0</ele><time>2026-05-03T12:06:23.238Z</time></trkpt><trkpt lat="45.1416567" lon="7.5309117"><ele>326.0</ele><time>2026-05-03T12:06:24.238Z</time></trkpt><trkpt lat="45.1417183" lon="7.5310217"><ele>326.0</ele><time>2026-05-03T12:06:25.237Z</time></trkpt><trkpt lat="45.1417817" lon="7.5311367"><ele>326.0</ele><time>2026-05-03T12:06:26.238Z</time></trkpt><trkpt lat="45.1418383" lon="7.531255"><ele>326.0</ele><time>2026-05-03T12:06:27.238Z</time></trkpt><trkpt lat="45.141905" lon="7.5313617"><ele>326.0</ele><time>2026-05-03T12:06:28.238Z</time></trkpt><trkpt lat="45.1419617" lon="7.531465"><ele>326.0</ele><time>2026-05-03T12:06:29.238Z</time></trkpt><trkpt lat="45.142005" lon="7.531575"><ele>326.0</ele><time>2026-05-03T12:06:30.238Z</time></trkpt><trkpt lat="45.1420333" lon="7.5316783"><ele>326.0</ele><time>2026-05-03T12:06:31.238Z</time></trkpt><trkpt lat="45.1420633" lon="7.53178"><ele>326.0</ele><time>2026-05-03T12:06:32.238Z</time></trkpt><trkpt lat="45.1421" lon="7.5318567"><ele>326.0</ele><time>2026-05-03T12:06:33.237Z</time></trkpt><trkpt lat="45.1421483" lon="7.5320017"><ele>325.8</ele><time>2026-05-03T12:06:35.238Z</time></trkpt><trkpt lat="45.142145" lon="7.532125"><ele>325.6</ele><time>2026-05-03T12:06:37.238Z</time></trkpt><trkpt lat="45.1420483" lon="7.5321967"><ele>325.4</ele><time>2026-05-03T12:06:39.238Z</time></trkpt><trkpt lat="45.1419333" lon="7.5322517"><ele>325.2</ele><time>2026-05-03T12:06:41.238Z</time></trkpt><trkpt lat="45.141865" lon="7.5322833"><ele>325.0</ele><time>2026-05-03T12:06:42.237Z</time></trkpt><trkpt lat="45.1417967" lon="7.53231"><ele>325.0</ele><time>2026-05-03T12:06:43.238Z</time></trkpt><trkpt lat="45.1417317" lon="7.5323483"><ele>325.0</ele><time>2026-05-03T12:06:44.238Z</time></trkpt><trkpt lat="45.14167" lon="7.5323983"><ele>325.0</ele><time>2026-05-03T12:06:45.238Z</time></trkpt><trkpt lat="45.1415667" lon="7.53246"><ele>325.0</ele><time>2026-05-03T12:06:47.238Z</time></trkpt><trkpt lat="45.1414733" lon="7.53249"><ele>325.0</ele><time>2026-05-03T12:06:49.238Z</time></trkpt><trkpt lat="45.1413733" lon="7.5325133"><ele>324.57142857142856</ele><time>2026-05-03T12:06:51.238Z</time></trkpt><trkpt lat="45.1413" lon="7.5325367"><ele>324.14285714285717</ele><time>2026-05-03T12:06:53.237Z</time></trkpt><trkpt lat="45.1412383" lon="7.5325567"><ele>323.7142857142857</ele><time>2026-05-03T12:06:57.238Z</time></trkpt><trkpt lat="45.1411633" lon="7.5325833"><ele>323.2857142857143</ele><time>2026-05-03T12:07:01.238Z</time></trkpt><trkpt lat="45.141255" lon="7.5325533"><ele>322.8571428571429</ele><time>2026-05-03T12:07:09.238Z</time></trkpt><trkpt lat="45.1413167" lon="7.532525"><ele>322.42857142857144</ele><time>2026-05-03T12:07:10.238Z</time></trkpt><trkpt lat="45.14138" lon="7.5325083"><ele>322.0</ele><time>2026-05-03T12:07:11.237Z</time></trkpt><trkpt lat="45.14145" lon="7.532485"><ele>322.0</ele><time>2026-05-03T12:07:12.238Z</time></trkpt><trkpt lat="45.1415267" lon="7.5324683"><ele>322.0</ele><time>2026-05-03T12:07:13.238Z</time></trkpt><trkpt lat="45.1416033" lon="7.532435"><ele>322.0</ele><time>2026-05-03T12:07:14.238Z</time></trkpt><trkpt lat="45.1416767" lon="7.53239"><ele>322.0</ele><time>2026-05-03T12:07:15.238Z</time></trkpt><trkpt lat="45.141745" lon="7.5323433"><ele>322.0</ele><time>2026-05-03T12:07:16.238Z</time></trkpt><trkpt lat="45.1418083" lon="7.5323033"><ele>322.0</ele><time>2026-05-03T12:07:17.238Z</time></trkpt><trkpt lat="45.141895" lon="7.5322533"><ele>322.6</ele><time>2026-05-03T12:07:19.238Z</time></trkpt><trkpt lat="45.1419483" lon="7.5323267"><ele>323.20000000000005</ele><time>2026-05-03T12:07:22.238Z</time></trkpt><trkpt lat="45.1419733" lon="7.5324683"><ele>323.8</ele><time>2026-05-03T12:07:24.238Z</time></trkpt><trkpt lat="45.1420167" lon="7.532615"><ele>324.4</ele><time>2026-05-03T12:07:26.238Z</time></trkpt><trkpt lat="45.1420633" lon="7.5327367"><ele>325.0</ele><time>2026-05-03T12:07:28.238Z</time></trkpt><trkpt lat="45.1420883" lon="7.532885"><ele>324.75</ele><time>2026-05-03T12:07:30.238Z</time></trkpt><trkpt lat="45.142115" lon="7.5330533"><ele>324.5</ele><time>2026-05-03T12:07:32.238Z</time></trkpt><trkpt lat="45.1421533" lon="7.5332167"><ele>324.25</ele><time>2026-05-03T12:07:34.238Z</time></trkpt><trkpt lat="45.14219" lon="7.5333717"><ele>324.0</ele><time>2026-05-03T12:07:36.238Z</time></trkpt><trkpt lat="45.1422217" lon="7.5335017"><ele>324.0</ele><time>2026-05-03T12:07:38.238Z</time></trkpt><trkpt lat="45.1422417" lon="7.53363"><ele>324.0</ele><time>2026-05-03T12:07:40.238Z</time></trkpt><trkpt lat="45.1422783" lon="7.53378"><ele>324.0</ele><time>2026-05-03T12:07:42.237Z</time></trkpt><trkpt lat="45.1423283" lon="7.5339317"><ele>324.0</ele><time>2026-05-03T12:07:44.238Z</time></trkpt><trkpt lat="45.1423667" lon="7.5340733"><ele>324.0</ele><time>2026-05-03T12:07:46.238Z</time></trkpt><trkpt lat="45.1424117" lon="7.5342"><ele>324.0</ele><time>2026-05-03T12:07:48.238Z</time></trkpt><trkpt lat="45.1424583" lon="7.534335"><ele>324.0</ele><time>2026-05-03T12:07:50.238Z</time></trkpt><trkpt lat="45.1424867" lon="7.53448"><ele>324.0</ele><time>2026-05-03T12:07:52.238Z</time></trkpt><trkpt lat="45.1424867" lon="7.5345933"><ele>324.0</ele><time>2026-05-03T12:07:54.238Z</time></trkpt><trkpt lat="45.142515" lon="7.5347"><ele>324.0</ele><time>2026-05-03T12:07:57.238Z</time></trkpt><trkpt lat="45.1425833" lon="7.5347283"><ele>324.0</ele><time>2026-05-03T12:07:59.238Z</time></trkpt><trkpt lat="45.1427133" lon="7.5347567"><ele>323.79999999999995</ele><time>2026-05-03T12:08:01.238Z</time></trkpt><trkpt lat="45.142795" lon="7.534795"><ele>323.59999999999997</ele><time>2026-05-03T12:08:02.238Z</time></trkpt><trkpt lat="45.1428717" lon="7.5348533"><ele>323.4</ele><time>2026-05-03T12:08:03.238Z</time></trkpt><trkpt lat="45.1429517" lon="7.53494"><ele>323.2</ele><time>2026-05-03T12:08:04.238Z</time></trkpt><trkpt lat="45.1430217" lon="7.5350283"><ele>323.0</ele><time>2026-05-03T12:08:05.238Z</time></trkpt><trkpt lat="45.1431117" lon="7.5351183"><ele>323.0</ele><time>2026-05-03T12:08:06.238Z</time></trkpt><trkpt lat="45.14318" lon="7.5352067"><ele>323.0</ele><time>2026-05-03T12:08:07.238Z</time></trkpt><trkpt lat="45.14324" lon="7.5353"><ele>323.0</ele><time>2026-05-03T12:08:08.238Z</time></trkpt><trkpt lat="45.1432783" lon="7.53539"><ele>323.0</ele><time>2026-05-03T12:08:09.238Z</time></trkpt><trkpt lat="45.1433383" lon="7.5355367"><ele>323.0</ele><time>2026-05-03T12:08:11.238Z</time></trkpt><trkpt lat="45.1434033" lon="7.5356467"><ele>322.6666666666667</ele><time>2026-05-03T12:08:13.237Z</time></trkpt><trkpt lat="45.1434667" lon="7.5356583"><ele>322.33333333333337</ele><time>2026-05-03T12:08:14.238Z</time></trkpt><trkpt lat="45.14354" lon="7.5356333"><ele>322.0</ele><time>2026-05-03T12:08:15.238Z</time></trkpt><trkpt lat="45.1436167" lon="7.53558"><ele>321.6666666666667</ele><time>2026-05-03T12:08:16.238Z</time></trkpt><trkpt lat="45.143695" lon="7.5355167"><ele>321.3333333333333</ele><time>2026-05-03T12:08:17.238Z</time></trkpt><trkpt lat="45.1437783" lon="7.5354333"><ele>321.0</ele><time>2026-05-03T12:08:18.238Z</time></trkpt><trkpt lat="45.1438767" lon="7.535355"><ele>320.25</ele><time>2026-05-03T12:08:19.237Z</time></trkpt><trkpt lat="45.143975" lon="7.535285"><ele>319.5</ele><time>2026-05-03T12:08:20.238Z</time></trkpt><trkpt lat="45.144085" lon="7.5352267"><ele>318.75</ele><time>2026-05-03T12:08:21.238Z</time></trkpt><trkpt lat="45.14419" lon="7.535165"><ele>318.0</ele><time>2026-05-03T12:08:22.237Z</time></trkpt><trkpt lat="45.1443117" lon="7.535135"><ele>316.5</ele><time>2026-05-03T12:08:23.238Z</time></trkpt><trkpt lat="45.1444317" lon="7.53512"><ele>315.0</ele><time>2026-05-03T12:08:24.238Z</time></trkpt><trkpt lat="45.1445533" lon="7.5351083"><ele>313.5</ele><time>2026-05-03T12:08:25.238Z</time></trkpt><trkpt lat="45.1446817" lon="7.5350983"><ele>312.0</ele><time>2026-05-03T12:08:26.238Z</time></trkpt><trkpt lat="45.1448067" lon="7.5350933"><ele>311.0</ele><time>2026-05-03T12:08:27.238Z</time></trkpt><trkpt lat="45.1449267" lon="7.53509"><ele>310.0</ele><time>2026-05-03T12:08:28.238Z</time></trkpt><trkpt lat="45.145055" lon="7.5350967"><ele>309.0</ele><time>2026-05-03T12:08:29.238Z</time></trkpt><trkpt lat="45.145185" lon="7.5351017"><ele>308.0</ele><time>2026-05-03T12:08:30.238Z</time></trkpt><trkpt lat="45.1453217" lon="7.5351117"><ele>308.0</ele><time>2026-05-03T12:08:31.238Z</time></trkpt><trkpt lat="45.145465" lon="7.53512"><ele>308.0</ele><time>2026-05-03T12:08:32.238Z</time></trkpt><trkpt lat="45.1456083" lon="7.5351283"><ele>308.0</ele><time>2026-05-03T12:08:33.237Z</time></trkpt><trkpt lat="45.1457517" lon="7.535135"><ele>308.0</ele><time>2026-05-03T12:08:34.238Z</time></trkpt><trkpt lat="45.1458917" lon="7.53514"><ele>307.0</ele><time>2026-05-03T12:08:35.238Z</time></trkpt><trkpt lat="45.1460383" lon="7.5351417"><ele>306.0</ele><time>2026-05-03T12:08:36.238Z</time></trkpt><trkpt lat="45.146185" lon="7.5351467"><ele>305.0</ele><time>2026-05-03T12:08:37.238Z</time></trkpt><trkpt lat="45.1463283" lon="7.5351567"><ele>304.0</ele><time>2026-05-03T12:08:38.238Z</time></trkpt><trkpt lat="45.14648" lon="7.535165"><ele>304.0</ele><time>2026-05-03T12:08:39.238Z</time></trkpt><trkpt lat="45.1466233" lon="7.5351683"><ele>304.0</ele><time>2026-05-03T12:08:40.238Z</time></trkpt><trkpt lat="45.14677" lon="7.5351583"><ele>304.0</ele><time>2026-05-03T12:08:41.238Z</time></trkpt><trkpt lat="45.1469267" lon="7.5351683"><ele>304.0</ele><time>2026-05-03T12:08:42.238Z</time></trkpt><trkpt lat="45.1470917" lon="7.5351783"><ele>304.0</ele><time>2026-05-03T12:08:43.238Z</time></trkpt><trkpt lat="45.147265" lon="7.5351817"><ele>304.0</ele><time>2026-05-03T12:08:44.238Z</time></trkpt><trkpt lat="45.1474317" lon="7.535195"><ele>304.0</ele><time>2026-05-03T12:08:45.237Z</time></trkpt><trkpt lat="45.1476" lon="7.5352017"><ele>303.0</ele><time>2026-05-03T12:08:46.238Z</time></trkpt><trkpt lat="45.1477683" lon="7.5352083"><ele>302.0</ele><time>2026-05-03T12:08:47.238Z</time></trkpt><trkpt lat="45.14794" lon="7.53521"><ele>301.0</ele><time>2026-05-03T12:08:48.237Z</time></trkpt><trkpt lat="45.1481117" lon="7.53522"><ele>301.0</ele><time>2026-05-03T12:08:49.238Z</time></trkpt><trkpt lat="45.1482817" lon="7.53523"><ele>301.0</ele><time>2026-05-03T12:08:50.238Z</time></trkpt><trkpt lat="45.14845" lon="7.5352317"><ele>301.0</ele><time>2026-05-03T12:08:51.238Z</time></trkpt><trkpt lat="45.1486183" lon="7.5352433"><ele>301.0</ele><time>2026-05-03T12:08:52.238Z</time></trkpt><trkpt lat="45.1487817" lon="7.5352483"><ele>301.0</ele><time>2026-05-03T12:08:53.238Z</time></trkpt><trkpt lat="45.14894" lon="7.5352533"><ele>301.0</ele><time>2026-05-03T12:08:54.237Z</time></trkpt><trkpt lat="45.1491017" lon="7.53526"><ele>300.0</ele><time>2026-05-03T12:08:55.238Z</time></trkpt><trkpt lat="45.1492633" lon="7.5352567"><ele>299.0</ele><time>2026-05-03T12:08:56.238Z</time></trkpt><trkpt lat="45.1494217" lon="7.5352533"><ele>298.0</ele><time>2026-05-03T12:08:57.237Z</time></trkpt><trkpt lat="45.14959" lon="7.535265"><ele>298.0</ele><time>2026-05-03T12:08:58.238Z</time></trkpt><trkpt lat="45.1497483" lon="7.5352667"><ele>298.0</ele><time>2026-05-03T12:08:59.238Z</time></trkpt><trkpt lat="45.1498983" lon="7.5352683"><ele>298.0</ele><time>2026-05-03T12:09:00.238Z</time></trkpt><trkpt lat="45.1500533" lon="7.5352767"><ele>297.5</ele><time>2026-05-03T12:09:01.238Z</time></trkpt><trkpt lat="45.1502033" lon="7.5352683"><ele>297.0</ele><time>2026-05-03T12:09:02.238Z</time></trkpt><trkpt lat="45.1503433" lon="7.535245"><ele>296.5</ele><time>2026-05-03T12:09:03.237Z</time></trkpt><trkpt lat="45.1504717" lon="7.5352067"><ele>296.0</ele><time>2026-05-03T12:09:04.238Z</time></trkpt><trkpt lat="45.1505933" lon="7.53516"><ele>296.75</ele><time>2026-05-03T12:09:05.238Z</time></trkpt><trkpt lat="45.15071" lon="7.5351267"><ele>297.5</ele><time>2026-05-03T12:09:06.238Z</time></trkpt><trkpt lat="45.1508283" lon="7.5351133"><ele>298.25</ele><time>2026-05-03T12:09:07.238Z</time></trkpt><trkpt lat="45.1509567" lon="7.5351233"><ele>299.0</ele><time>2026-05-03T12:09:08.238Z</time></trkpt><trkpt lat="45.1510833" lon="7.53513"><ele>299.0</ele><time>2026-05-03T12:09:09.238Z</time></trkpt><trkpt lat="45.1511983" lon="7.5351317"><ele>299.0</ele><time>2026-05-03T12:09:10.238Z</time></trkpt><trkpt lat="45.1513433" lon="7.5351183"><ele>299.0</ele><time>2026-05-03T12:09:11.238Z</time></trkpt><trkpt lat="45.15149" lon="7.5351083"><ele>299.0</ele><time>2026-05-03T12:09:12.238Z</time></trkpt><trkpt lat="45.1516367" lon="7.5351"><ele>300.0</ele><time>2026-05-03T12:09:13.238Z</time></trkpt><trkpt lat="45.151785" lon="7.5350817"><ele>301.0</ele><time>2026-05-03T12:09:14.237Z</time></trkpt><trkpt lat="45.1519333" lon="7.5350533"><ele>302.0</ele><time>2026-05-03T12:09:15.238Z</time></trkpt><trkpt lat="45.1520883" lon="7.5350233"><ele>302.0</ele><time>2026-05-03T12:09:16.238Z</time></trkpt><trkpt lat="45.15225" lon="7.5349983"><ele>302.0</ele><time>2026-05-03T12:09:17.238Z</time></trkpt><trkpt lat="45.1524083" lon="7.5349717"><ele>302.0</ele><time>2026-05-03T12:09:18.238Z</time></trkpt><trkpt lat="45.1525717" lon="7.534945"><ele>303.33333333333337</ele><time>2026-05-03T12:09:19.238Z</time></trkpt><trkpt lat="45.1527333" lon="7.5349167"><ele>304.6666666666667</ele><time>2026-05-03T12:09:20.238Z</time></trkpt><trkpt lat="45.1529" lon="7.5348883"><ele>306.0</ele><time>2026-05-03T12:09:21.238Z</time></trkpt><trkpt lat="45.15307" lon="7.5348633"><ele>305.6666666666667</ele><time>2026-05-03T12:09:22.238Z</time></trkpt><trkpt lat="45.153235" lon="7.5348317"><ele>305.33333333333337</ele><time>2026-05-03T12:09:23.238Z</time></trkpt><trkpt lat="45.153405" lon="7.534795"><ele>305.0</ele><time>2026-05-03T12:09:24.238Z</time></trkpt><trkpt lat="45.1535733" lon="7.5347683"><ele>305.0</ele><time>2026-05-03T12:09:25.238Z</time></trkpt><trkpt lat="45.15374" lon="7.5347417"><ele>305.0</ele><time>2026-05-03T12:09:26.238Z</time></trkpt><trkpt lat="45.15391" lon="7.5347083"><ele>305.0</ele><time>2026-05-03T12:09:27.238Z</time></trkpt><trkpt lat="45.1540817" lon="7.534675"><ele>304.6666666666667</ele><time>2026-05-03T12:09:28.238Z</time></trkpt><trkpt lat="45.1542467" lon="7.5346417"><ele>304.3333333333333</ele><time>2026-05-03T12:09:29.238Z</time></trkpt><trkpt lat="45.1544083" lon="7.5346133"><ele>304.0</ele><time>2026-05-03T12:09:30.238Z</time></trkpt><trkpt lat="45.15457" lon="7.5345767"><ele>304.0</ele><time>2026-05-03T12:09:31.238Z</time></trkpt><trkpt lat="45.1547383" lon="7.534545"><ele>304.0</ele><time>2026-05-03T12:09:32.237Z</time></trkpt><trkpt lat="45.1549083" lon="7.534515"><ele>304.0</ele><time>2026-05-03T12:09:33.238Z</time></trkpt><trkpt lat="45.1550717" lon="7.5344867"><ele>304.0</ele><time>2026-05-03T12:09:34.238Z</time></trkpt><trkpt lat="45.1552383" lon="7.5344583"><ele>304.0</ele><time>2026-05-03T12:09:35.238Z</time></trkpt><trkpt lat="45.1554033" lon="7.53443"><ele>304.0</ele><time>2026-05-03T12:09:36.238Z</time></trkpt><trkpt lat="45.15556" lon="7.5344017"><ele>304.25</ele><time>2026-05-03T12:09:37.238Z</time></trkpt><trkpt lat="45.1557067" lon="7.534375"><ele>304.5</ele><time>2026-05-03T12:09:38.237Z</time></trkpt><trkpt lat="45.155855" lon="7.5343483"><ele>304.75</ele><time>2026-05-03T12:09:39.238Z</time></trkpt><trkpt lat="45.156" lon="7.534315"><ele>305.0</ele><time>2026-05-03T12:09:40.238Z</time></trkpt><trkpt lat="45.1561383" lon="7.53428"><ele>305.0</ele><time>2026-05-03T12:09:41.238Z</time></trkpt><trkpt lat="45.1562717" lon="7.5342383"><ele>305.0</ele><time>2026-05-03T12:09:42.238Z</time></trkpt><trkpt lat="45.1563883" lon="7.5341917"><ele>305.0</ele><time>2026-05-03T12:09:43.238Z</time></trkpt><trkpt lat="45.156485" lon="7.53415"><ele>305.0</ele><time>2026-05-03T12:09:44.238Z</time></trkpt><trkpt lat="45.1565583" lon="7.5341083"><ele>305.0</ele><time>2026-05-03T12:09:45.238Z</time></trkpt><trkpt lat="45.1566233" lon="7.534085"><ele>304.8</ele><time>2026-05-03T12:09:46.238Z</time></trkpt><trkpt lat="45.15671" lon="7.5341233"><ele>304.6</ele><time>2026-05-03T12:09:48.238Z</time></trkpt><trkpt lat="45.156735" lon="7.5342817"><ele>304.4</ele><time>2026-05-03T12:09:50.238Z</time></trkpt><trkpt lat="45.1567367" lon="7.5344033"><ele>304.2</ele><time>2026-05-03T12:09:51.238Z</time></trkpt><trkpt lat="45.15674" lon="7.5345433"><ele>304.0</ele><time>2026-05-03T12:09:52.238Z</time></trkpt><trkpt lat="45.1567483" lon="7.5346883"><ele>303.75</ele><time>2026-05-03T12:09:53.238Z</time></trkpt><trkpt lat="45.1567533" lon="7.534845"><ele>303.5</ele><time>2026-05-03T12:09:54.238Z</time></trkpt><trkpt lat="45.1567633" lon="7.5350133"><ele>303.25</ele><time>2026-05-03T12:09:55.238Z</time></trkpt><trkpt lat="45.1567783" lon="7.5351867"><ele>303.0</ele><time>2026-05-03T12:09:56.238Z</time></trkpt><trkpt lat="45.1567867" lon="7.5353633"><ele>302.75</ele><time>2026-05-03T12:09:57.238Z</time></trkpt><trkpt lat="45.1567983" lon="7.535545"><ele>302.5</ele><time>2026-05-03T12:09:58.238Z</time></trkpt><trkpt lat="45.1568167" lon="7.535725"><ele>302.25</ele><time>2026-05-03T12:09:59.238Z</time></trkpt><trkpt lat="45.1568267" lon="7.5359033"><ele>302.0</ele><time>2026-05-03T12:10:00.238Z</time></trkpt><trkpt lat="45.1568333" lon="7.536075"><ele>301.5</ele><time>2026-05-03T12:10:01.238Z</time></trkpt><trkpt lat="45.1568467" lon="7.5362433"><ele>301.0</ele><time>2026-05-03T12:10:02.238Z</time></trkpt><trkpt lat="45.15686" lon="7.5364117"><ele>300.5</ele><time>2026-05-03T12:10:03.238Z</time></trkpt><trkpt lat="45.1568717" lon="7.5365783"><ele>300.0</ele><time>2026-05-03T12:10:04.237Z</time></trkpt><trkpt lat="45.15688" lon="7.5367433"><ele>300.0</ele><time>2026-05-03T12:10:05.238Z</time></trkpt><trkpt lat="45.1568917" lon="7.5369"><ele>300.0</ele><time>2026-05-03T12:10:06.237Z</time></trkpt><trkpt lat="45.1568983" lon="7.5370617"><ele>300.0</ele><time>2026-05-03T12:10:07.237Z</time></trkpt><trkpt lat="45.1569017" lon="7.5372167"><ele>300.0</ele><time>2026-05-03T12:10:08.238Z</time></trkpt><trkpt lat="45.1569083" lon="7.5373583"><ele>300.0</ele><time>2026-05-03T12:10:09.238Z</time></trkpt><trkpt lat="45.1569317" lon="7.537485"><ele>300.1666666666667</ele><time>2026-05-03T12:10:10.238Z</time></trkpt><trkpt lat="45.1569667" lon="7.5375933"><ele>300.3333333333333</ele><time>2026-05-03T12:10:11.238Z</time></trkpt><trkpt lat="45.1570283" lon="7.5376933"><ele>300.5</ele><time>2026-05-03T12:10:12.238Z</time></trkpt><trkpt lat="45.1570983" lon="7.5377617"><ele>300.66666666666663</ele><time>2026-05-03T12:10:13.238Z</time></trkpt><trkpt lat="45.1571667" lon="7.5378167"><ele>300.8333333333333</ele><time>2026-05-03T12:10:14.238Z</time></trkpt><trkpt lat="45.157235" lon="7.5378533"><ele>301.0</ele><time>2026-05-03T12:10:15.238Z</time></trkpt><trkpt lat="45.1573067" lon="7.5378533"><ele>301.0</ele><time>2026-05-03T12:10:16.238Z</time></trkpt><trkpt lat="45.157385" lon="7.5378383"><ele>301.0</ele><time>2026-05-03T12:10:17.238Z</time></trkpt><trkpt lat="45.15746" lon="7.5378167"><ele>301.0</ele><time>2026-05-03T12:10:18.238Z</time></trkpt><trkpt lat="45.15753" lon="7.537785"><ele>301.0</ele><time>2026-05-03T12:10:19.238Z</time></trkpt><trkpt lat="45.1575983" lon="7.5377583"><ele>301.0</ele><time>2026-05-03T12:10:20.238Z</time></trkpt><trkpt lat="45.1577117" lon="7.5377133"><ele>301.0</ele><time>2026-05-03T12:10:22.238Z</time></trkpt><trkpt lat="45.1578067" lon="7.5376767"><ele>301.0</ele><time>2026-05-03T12:10:24.238Z</time></trkpt><trkpt lat="45.1578967" lon="7.5376567"><ele>301.0</ele><time>2026-05-03T12:10:26.237Z</time></trkpt><trkpt lat="45.1580117" lon="7.5376117"><ele>301.0</ele><time>2026-05-03T12:10:28.238Z</time></trkpt><trkpt lat="45.158135" lon="7.5375683"><ele>301.0</ele><time>2026-05-03T12:10:30.238Z</time></trkpt><trkpt lat="45.1582467" lon="7.5375267"><ele>301.0</ele><time>2026-05-03T12:10:32.237Z</time></trkpt><trkpt lat="45.1583517" lon="7.5374783"><ele>301.0</ele><time>2026-05-03T12:10:34.237Z</time></trkpt><trkpt lat="45.1584483" lon="7.5373983"><ele>301.0</ele><time>2026-05-03T12:10:36.238Z</time></trkpt><trkpt lat="45.158555" lon="7.5373183"><ele>301.0</ele><time>2026-05-03T12:10:38.238Z</time></trkpt><trkpt lat="45.1586683" lon="7.53725"><ele>301.0</ele><time>2026-05-03T12:10:40.238Z</time></trkpt><trkpt lat="45.1587317" lon="7.5372183"><ele>301.0</ele><time>2026-05-03T12:10:41.238Z</time></trkpt><trkpt lat="45.1587967" lon="7.5371917"><ele>301.0</ele><time>2026-05-03T12:10:42.238Z</time></trkpt><trkpt lat="45.1589283" lon="7.5371533"><ele>301.0</ele><time>2026-05-03T12:10:44.238Z</time></trkpt><trkpt lat="45.159" lon="7.5371217"><ele>301.0</ele><time>2026-05-03T12:10:45.238Z</time></trkpt><trkpt lat="45.1590633" lon="7.5370967"><ele>301.0</ele><time>2026-05-03T12:10:46.238Z</time></trkpt><trkpt lat="45.1591783" lon="7.53708"><ele>299.5</ele><time>2026-05-03T12:10:48.238Z</time></trkpt><trkpt lat="45.1593" lon="7.5370467"><ele>298.0</ele><time>2026-05-03T12:10:50.238Z</time></trkpt><trkpt lat="45.1593733" lon="7.53703"><ele>296.5</ele><time>2026-05-03T12:10:51.238Z</time></trkpt><trkpt lat="45.1594467" lon="7.5370167"><ele>295.0</ele><time>2026-05-03T12:10:52.238Z</time></trkpt><trkpt lat="45.159525" lon="7.5369917"><ele>293.5</ele><time>2026-05-03T12:10:53.238Z</time></trkpt><trkpt lat="45.15961" lon="7.5369767"><ele>292.0</ele><time>2026-05-03T12:10:54.238Z</time></trkpt><trkpt lat="45.1596983" lon="7.5369617"><ele>292.0</ele><time>2026-05-03T12:10:55.238Z</time></trkpt><trkpt lat="45.1597867" lon="7.5369567"><ele>292.0</ele><time>2026-05-03T12:10:56.237Z</time></trkpt><trkpt lat="45.1598717" lon="7.5369433"><ele>292.0</ele><time>2026-05-03T12:10:57.238Z</time></trkpt><trkpt lat="45.1599567" lon="7.5369283"><ele>292.0</ele><time>2026-05-03T12:10:58.238Z</time></trkpt><trkpt lat="45.1600467" lon="7.5369167"><ele>292.0</ele><time>2026-05-03T12:10:59.238Z</time></trkpt><trkpt lat="45.160135" lon="7.536895"><ele>292.0</ele><time>2026-05-03T12:11:00.238Z</time></trkpt><trkpt lat="45.1602233" lon="7.5368767"><ele>292.3333333333333</ele><time>2026-05-03T12:11:01.238Z</time></trkpt><trkpt lat="45.1603067" lon="7.53686"><ele>292.66666666666663</ele><time>2026-05-03T12:11:02.237Z</time></trkpt><trkpt lat="45.160395" lon="7.5368383"><ele>293.0</ele><time>2026-05-03T12:11:03.238Z</time></trkpt><trkpt lat="45.1604817" lon="7.5368067"><ele>293.3333333333333</ele><time>2026-05-03T12:11:04.238Z</time></trkpt><trkpt lat="45.16057" lon="7.536795"><ele>293.6666666666667</ele><time>2026-05-03T12:11:05.238Z</time></trkpt><trkpt lat="45.1606567" lon="7.536785"><ele>294.0</ele><time>2026-05-03T12:11:06.238Z</time></trkpt><trkpt lat="45.1607417" lon="7.5367683"><ele>294.2</ele><time>2026-05-03T12:11:07.238Z</time></trkpt><trkpt lat="45.1608267" lon="7.5367483"><ele>294.4</ele><time>2026-05-03T12:11:08.238Z</time></trkpt><trkpt lat="45.160915" lon="7.5367183"><ele>294.6</ele><time>2026-05-03T12:11:09.238Z</time></trkpt><trkpt lat="45.1610083" lon="7.5366967"><ele>294.8</ele><time>2026-05-03T12:11:10.238Z</time></trkpt><trkpt lat="45.1611" lon="7.536675"><ele>295.0</ele><time>2026-05-03T12:11:11.238Z</time></trkpt><trkpt lat="45.1611883" lon="7.5366667"><ele>295.0</ele><time>2026-05-03T12:11:12.238Z</time></trkpt><trkpt lat="45.161275" lon="7.5366483"><ele>295.0</ele><time>2026-05-03T12:11:13.238Z</time></trkpt><trkpt lat="45.1613617" lon="7.536625"><ele>295.0</ele><time>2026-05-03T12:11:14.238Z</time></trkpt><trkpt lat="45.161445" lon="7.5366017"><ele>295.0</ele><time>2026-05-03T12:11:15.238Z</time></trkpt><trkpt lat="45.1615217" lon="7.5365783"><ele>295.0</ele><time>2026-05-03T12:11:16.238Z</time></trkpt><trkpt lat="45.161605" lon="7.5365583"><ele>295.0</ele><time>2026-05-03T12:11:17.238Z</time></trkpt><trkpt lat="45.1616867" lon="7.5365383"><ele>295.3333333333333</ele><time>2026-05-03T12:11:18.238Z</time></trkpt><trkpt lat="45.161775" lon="7.5365167"><ele>295.66666666666663</ele><time>2026-05-03T12:11:19.237Z</time></trkpt><trkpt lat="45.161865" lon="7.536495"><ele>296.0</ele><time>2026-05-03T12:11:20.238Z</time></trkpt><trkpt lat="45.1619533" lon="7.53648"><ele>296.3333333333333</ele><time>2026-05-03T12:11:21.238Z</time></trkpt><trkpt lat="45.1620417" lon="7.5364717"><ele>296.6666666666667</ele><time>2026-05-03T12:11:22.238Z</time></trkpt><trkpt lat="45.1621283" lon="7.53646"><ele>297.0</ele><time>2026-05-03T12:11:23.238Z</time></trkpt><trkpt lat="45.1622133" lon="7.5364467"><ele>297.0</ele><time>2026-05-03T12:11:24.238Z</time></trkpt><trkpt lat="45.1622967" lon="7.5364333"><ele>297.0</ele><time>2026-05-03T12:11:25.238Z</time></trkpt><trkpt lat="45.16238" lon="7.536425"><ele>297.0</ele><time>2026-05-03T12:11:26.238Z</time></trkpt><trkpt lat="45.1624583" lon="7.5364033"><ele>297.0</ele><time>2026-05-03T12:11:27.238Z</time></trkpt><trkpt lat="45.1625433" lon="7.5363783"><ele>297.0</ele><time>2026-05-03T12:11:28.238Z</time></trkpt><trkpt lat="45.1626333" lon="7.53636"><ele>297.0</ele><time>2026-05-03T12:11:29.238Z</time></trkpt><trkpt lat="45.1627167" lon="7.53634"><ele>297.0</ele><time>2026-05-03T12:11:30.238Z</time></trkpt><trkpt lat="45.1628017" lon="7.536315"><ele>297.0</ele><time>2026-05-03T12:11:31.238Z</time></trkpt><trkpt lat="45.162885" lon="7.5362833"><ele>297.0</ele><time>2026-05-03T12:11:32.238Z</time></trkpt><trkpt lat="45.1629733" lon="7.5362517"><ele>297.0</ele><time>2026-05-03T12:11:33.238Z</time></trkpt><trkpt lat="45.16307" lon="7.536225"><ele>297.0</ele><time>2026-05-03T12:11:34.238Z</time></trkpt><trkpt lat="45.1631633" lon="7.536205"><ele>296.8</ele><time>2026-05-03T12:11:35.238Z</time></trkpt><trkpt lat="45.16326" lon="7.53619"><ele>296.6</ele><time>2026-05-03T12:11:36.238Z</time></trkpt><trkpt lat="45.163355" lon="7.536165"><ele>296.40000000000003</ele><time>2026-05-03T12:11:37.238Z</time></trkpt><trkpt lat="45.16345" lon="7.53615"><ele>296.2</ele><time>2026-05-03T12:11:38.238Z</time></trkpt><trkpt lat="45.16354" lon="7.536125"><ele>296.0</ele><time>2026-05-03T12:11:39.238Z</time></trkpt><trkpt lat="45.1636283" lon="7.5360983"><ele>296.0</ele><time>2026-05-03T12:11:40.237Z</time></trkpt><trkpt lat="45.1637133" lon="7.5360717"><ele>296.0</ele><time>2026-05-03T12:11:41.237Z</time></trkpt><trkpt lat="45.1638" lon="7.5360517"><ele>296.0</ele><time>2026-05-03T12:11:42.238Z</time></trkpt><trkpt lat="45.1638867" lon="7.5360417"><ele>296.0</ele><time>2026-05-03T12:11:43.238Z</time></trkpt><trkpt lat="45.163975" lon="7.5360317"><ele>296.0</ele><time>2026-05-03T12:11:44.238Z</time></trkpt><trkpt lat="45.1640583" lon="7.5360217"><ele>296.0</ele><time>2026-05-03T12:11:45.238Z</time></trkpt><trkpt lat="45.1641283" lon="7.5360117"><ele>296.33333333333337</ele><time>2026-05-03T12:11:46.238Z</time></trkpt><trkpt lat="45.1642067" lon="7.5359983"><ele>296.6666666666667</ele><time>2026-05-03T12:11:47.238Z</time></trkpt><trkpt lat="45.16428" lon="7.5359783"><ele>297.0</ele><time>2026-05-03T12:11:48.238Z</time></trkpt><trkpt lat="45.1643533" lon="7.535955"><ele>297.3333333333333</ele><time>2026-05-03T12:11:49.238Z</time></trkpt><trkpt lat="45.16443" lon="7.5359283"><ele>297.66666666666663</ele><time>2026-05-03T12:11:50.238Z</time></trkpt><trkpt lat="45.1645067" lon="7.5359083"><ele>298.0</ele><time>2026-05-03T12:11:51.238Z</time></trkpt><trkpt lat="45.164585" lon="7.535885"><ele>298.0</ele><time>2026-05-03T12:11:52.238Z</time></trkpt><trkpt lat="45.1646717" lon="7.535865"><ele>298.0</ele><time>2026-05-03T12:11:53.237Z</time></trkpt><trkpt lat="45.164755" lon="7.5358433"><ele>298.0</ele><time>2026-05-03T12:11:54.238Z</time></trkpt><trkpt lat="45.164835" lon="7.535825"><ele>298.0</ele><time>2026-05-03T12:11:55.238Z</time></trkpt><trkpt lat="45.164915" lon="7.5357983"><ele>298.0</ele><time>2026-05-03T12:11:56.238Z</time></trkpt><trkpt lat="45.1650017" lon="7.5357817"><ele>298.0</ele><time>2026-05-03T12:11:57.238Z</time></trkpt><trkpt lat="45.16508" lon="7.535765"><ele>298.16666666666663</ele><time>2026-05-03T12:11:58.238Z</time></trkpt><trkpt lat="45.16516" lon="7.5357517"><ele>298.3333333333333</ele><time>2026-05-03T12:11:59.238Z</time></trkpt><trkpt lat="45.1652933" lon="7.5357167"><ele>298.5</ele><time>2026-05-03T12:12:01.238Z</time></trkpt><trkpt lat="45.1653667" lon="7.535705"><ele>298.6666666666667</ele><time>2026-05-03T12:12:02.238Z</time></trkpt><trkpt lat="45.1654367" lon="7.5356933"><ele>298.83333333333337</ele><time>2026-05-03T12:12:03.238Z</time></trkpt><trkpt lat="45.165505" lon="7.535675"><ele>299.0</ele><time>2026-05-03T12:12:04.238Z</time></trkpt><trkpt lat="45.16557" lon="7.5356567"><ele>299.0</ele><time>2026-05-03T12:12:05.238Z</time></trkpt><trkpt lat="45.1656717" lon="7.535615"><ele>299.0</ele><time>2026-05-03T12:12:07.238Z</time></trkpt><trkpt lat="45.1657967" lon="7.535575"><ele>299.0</ele><time>2026-05-03T12:12:09.238Z</time></trkpt><trkpt lat="45.1658717" lon="7.5355517"><ele>299.0</ele><time>2026-05-03T12:12:10.238Z</time></trkpt><trkpt lat="45.1659483" lon="7.5355283"><ele>299.0</ele><time>2026-05-03T12:12:11.238Z</time></trkpt><trkpt lat="45.1660233" lon="7.5355067"><ele>299.1666666666667</ele><time>2026-05-03T12:12:12.238Z</time></trkpt><trkpt lat="45.1660983" lon="7.5354883"><ele>299.33333333333337</ele><time>2026-05-03T12:12:13.238Z</time></trkpt><trkpt lat="45.16617" lon="7.53547"><ele>299.5</ele><time>2026-05-03T12:12:14.238Z</time></trkpt><trkpt lat="45.1662417" lon="7.535455"><ele>299.6666666666667</ele><time>2026-05-03T12:12:15.238Z</time></trkpt><trkpt lat="45.1663167" lon="7.5354367"><ele>299.8333333333333</ele><time>2026-05-03T12:12:16.238Z</time></trkpt><trkpt lat="45.166395" lon="7.5354167"><ele>300.0</ele><time>2026-05-03T12:12:17.238Z</time></trkpt><trkpt lat="45.1664767" lon="7.5353933"><ele>300.5</ele><time>2026-05-03T12:12:18.238Z</time></trkpt><trkpt lat="45.1665583" lon="7.53537"><ele>301.0</ele><time>2026-05-03T12:12:19.238Z</time></trkpt><trkpt lat="45.166635" lon="7.535345"><ele>301.5</ele><time>2026-05-03T12:12:20.238Z</time></trkpt><trkpt lat="45.1667067" lon="7.5353183"><ele>302.0</ele><time>2026-05-03T12:12:21.238Z</time></trkpt><trkpt lat="45.1667883" lon="7.5352983"><ele>302.5</ele><time>2026-05-03T12:12:22.238Z</time></trkpt><trkpt lat="45.1668717" lon="7.5352883"><ele>303.0</ele><time>2026-05-03T12:12:23.238Z</time></trkpt><trkpt lat="45.1669517" lon="7.5352783"><ele>303.0</ele><time>2026-05-03T12:12:24.238Z</time></trkpt><trkpt lat="45.167035" lon="7.5352567"><ele>303.0</ele><time>2026-05-03T12:12:25.238Z</time></trkpt><trkpt lat="45.167115" lon="7.5352467"><ele>303.0</ele><time>2026-05-03T12:12:26.238Z</time></trkpt><trkpt lat="45.1671933" lon="7.5352383"><ele>303.0</ele><time>2026-05-03T12:12:27.238Z</time></trkpt><trkpt lat="45.16727" lon="7.5352317"><ele>303.0</ele><time>2026-05-03T12:12:28.238Z</time></trkpt><trkpt lat="45.1673433" lon="7.5352117"><ele>303.0</ele><time>2026-05-03T12:12:29.237Z</time></trkpt><trkpt lat="45.1674183" lon="7.5351983"><ele>302.7142857142857</ele><time>2026-05-03T12:12:30.238Z</time></trkpt><trkpt lat="45.1675017" lon="7.5351867"><ele>302.42857142857144</ele><time>2026-05-03T12:12:31.238Z</time></trkpt><trkpt lat="45.167585" lon="7.5351667"><ele>302.1428571428571</ele><time>2026-05-03T12:12:32.238Z</time></trkpt><trkpt lat="45.1676617" lon="7.5351483"><ele>301.8571428571429</ele><time>2026-05-03T12:12:33.238Z</time></trkpt><trkpt lat="45.1677317" lon="7.5351283"><ele>301.57142857142856</ele><time>2026-05-03T12:12:34.238Z</time></trkpt><trkpt lat="45.1677967" lon="7.5351183"><ele>301.2857142857143</ele><time>2026-05-03T12:12:35.237Z</time></trkpt><trkpt lat="45.16786" lon="7.5351067"><ele>301.0</ele><time>2026-05-03T12:12:36.238Z</time></trkpt><trkpt lat="45.167925" lon="7.5350967"><ele>301.0</ele><time>2026-05-03T12:12:37.238Z</time></trkpt><trkpt lat="45.168045" lon="7.535065"><ele>301.0</ele><time>2026-05-03T12:12:39.238Z</time></trkpt><trkpt lat="45.1681133" lon="7.5350483"><ele>301.0</ele><time>2026-05-03T12:12:40.238Z</time></trkpt><trkpt lat="45.168235" lon="7.5350033"><ele>301.0</ele><time>2026-05-03T12:12:42.238Z</time></trkpt><trkpt lat="45.1683017" lon="7.5349883"><ele>301.0</ele><time>2026-05-03T12:12:43.238Z</time></trkpt><trkpt lat="45.168375" lon="7.5349733"><ele>301.16666666666663</ele><time>2026-05-03T12:12:44.238Z</time></trkpt><trkpt lat="45.1684467" lon="7.5349567"><ele>301.3333333333333</ele><time>2026-05-03T12:12:45.237Z</time></trkpt><trkpt lat="45.1685117" lon="7.5349283"><ele>301.5</ele><time>2026-05-03T12:12:46.238Z</time></trkpt><trkpt lat="45.1685833" lon="7.5349117"><ele>301.6666666666667</ele><time>2026-05-03T12:12:47.238Z</time></trkpt><trkpt lat="45.1687083" lon="7.534885"><ele>301.83333333333337</ele><time>2026-05-03T12:12:49.237Z</time></trkpt><trkpt lat="45.16878" lon="7.5348733"><ele>302.0</ele><time>2026-05-03T12:12:50.238Z</time></trkpt><trkpt lat="45.1688433" lon="7.5348633"><ele>302.00000000000006</ele><time>2026-05-03T12:12:51.238Z</time></trkpt><trkpt lat="45.1689117" lon="7.53485"><ele>302.0</ele><time>2026-05-03T12:12:52.237Z</time></trkpt><trkpt lat="45.1689817" lon="7.5348367"><ele>302.0</ele><time>2026-05-03T12:12:53.238Z</time></trkpt><trkpt lat="45.169055" lon="7.5348217"><ele>302.0</ele><time>2026-05-03T12:12:54.238Z</time></trkpt><trkpt lat="45.16913" lon="7.534805"><ele>302.0</ele><time>2026-05-03T12:12:55.238Z</time></trkpt><trkpt lat="45.169205" lon="7.5347867"><ele>302.00000000000006</ele><time>2026-05-03T12:12:56.238Z</time></trkpt><trkpt lat="45.1692817" lon="7.534775"><ele>302.0</ele><time>2026-05-03T12:12:57.238Z</time></trkpt><trkpt lat="45.1693583" lon="7.534765"><ele>302.28571428571433</ele><time>2026-05-03T12:12:58.238Z</time></trkpt><trkpt lat="45.16943" lon="7.5347467"><ele>302.57142857142856</ele><time>2026-05-03T12:12:59.237Z</time></trkpt><trkpt lat="45.16951" lon="7.53473"><ele>302.8571428571429</ele><time>2026-05-03T12:13:00.238Z</time></trkpt><trkpt lat="45.1695833" lon="7.5347117"><ele>303.14285714285717</ele><time>2026-05-03T12:13:01.238Z</time></trkpt><trkpt lat="45.169655" lon="7.5346933"><ele>303.42857142857144</ele><time>2026-05-03T12:13:02.238Z</time></trkpt><trkpt lat="45.1697233" lon="7.5346733"><ele>303.7142857142857</ele><time>2026-05-03T12:13:03.237Z</time></trkpt><trkpt lat="45.1697967" lon="7.5346583"><ele>304.0</ele><time>2026-05-03T12:13:04.238Z</time></trkpt><trkpt lat="45.1698717" lon="7.534645"><ele>304.2857142857143</ele><time>2026-05-03T12:13:05.238Z</time></trkpt><trkpt lat="45.1699367" lon="7.5346333"><ele>304.5714285714286</ele><time>2026-05-03T12:13:06.238Z</time></trkpt><trkpt lat="45.1700083" lon="7.534615"><ele>304.8571428571429</ele><time>2026-05-03T12:13:07.237Z</time></trkpt><trkpt lat="45.1700833" lon="7.53461"><ele>305.1428571428571</ele><time>2026-05-03T12:13:08.238Z</time></trkpt><trkpt lat="45.170155" lon="7.5346"><ele>305.42857142857144</ele><time>2026-05-03T12:13:09.238Z</time></trkpt><trkpt lat="45.17023" lon="7.5345817"><ele>305.7142857142857</ele><time>2026-05-03T12:13:10.238Z</time></trkpt><trkpt lat="45.170305" lon="7.5345683"><ele>306.0</ele><time>2026-05-03T12:13:11.238Z</time></trkpt><trkpt lat="45.1703767" lon="7.5345533"><ele>305.57142857142856</ele><time>2026-05-03T12:13:12.238Z</time></trkpt><trkpt lat="45.1704483" lon="7.5345333"><ele>305.14285714285717</ele><time>2026-05-03T12:13:13.238Z</time></trkpt><trkpt lat="45.1705183" lon="7.53451"><ele>304.7142857142857</ele><time>2026-05-03T12:13:14.238Z</time></trkpt><trkpt lat="45.1705867" lon="7.5344833"><ele>304.2857142857143</ele><time>2026-05-03T12:13:15.238Z</time></trkpt><trkpt lat="45.1706583" lon="7.53446"><ele>303.85714285714283</ele><time>2026-05-03T12:13:16.238Z</time></trkpt><trkpt lat="45.170725" lon="7.5344417"><ele>303.42857142857144</ele><time>2026-05-03T12:13:17.238Z</time></trkpt><trkpt lat="45.170795" lon="7.53442"><ele>303.0</ele><time>2026-05-03T12:13:18.238Z</time></trkpt><trkpt lat="45.1708683" lon="7.5344083"><ele>303.0</ele><time>2026-05-03T12:13:19.238Z</time></trkpt><trkpt lat="45.17094" lon="7.534395"><ele>303.0</ele><time>2026-05-03T12:13:20.238Z</time></trkpt><trkpt lat="45.1710167" lon="7.534385"><ele>303.0</ele><time>2026-05-03T12:13:21.238Z</time></trkpt><trkpt lat="45.1710933" lon="7.53438"><ele>303.0</ele><time>2026-05-03T12:13:22.238Z</time></trkpt><trkpt lat="45.1711683" lon="7.5343717"><ele>303.0</ele><time>2026-05-03T12:13:23.238Z</time></trkpt><trkpt lat="45.17124" lon="7.5343517"><ele>303.0</ele><time>2026-05-03T12:13:24.238Z</time></trkpt><trkpt lat="45.1713083" lon="7.53433"><ele>303.0</ele><time>2026-05-03T12:13:25.238Z</time></trkpt><trkpt lat="45.17138" lon="7.5343033"><ele>303.0</ele><time>2026-05-03T12:13:26.238Z</time></trkpt><trkpt lat="45.1714567" lon="7.5342817"><ele>303.0</ele><time>2026-05-03T12:13:27.238Z</time></trkpt><trkpt lat="45.1715333" lon="7.5342583"><ele>303.0</ele><time>2026-05-03T12:13:28.238Z</time></trkpt><trkpt lat="45.1716133" lon="7.5342417"><ele>303.0</ele><time>2026-05-03T12:13:29.238Z</time></trkpt><trkpt lat="45.171695" lon="7.53422"><ele>303.0</ele><time>2026-05-03T12:13:30.238Z</time></trkpt><trkpt lat="45.17177" lon="7.5342083"><ele>303.0</ele><time>2026-05-03T12:13:31.238Z</time></trkpt><trkpt lat="45.1718483" lon="7.5341967"><ele>303.3333333333333</ele><time>2026-05-03T12:13:32.238Z</time></trkpt><trkpt lat="45.1719217" lon="7.5341767"><ele>303.6666666666667</ele><time>2026-05-03T12:13:33.238Z</time></trkpt><trkpt lat="45.1719933" lon="7.5341583"><ele>304.0</ele><time>2026-05-03T12:13:34.238Z</time></trkpt><trkpt lat="45.1720667" lon="7.5341533"><ele>304.33333333333337</ele><time>2026-05-03T12:13:35.238Z</time></trkpt><trkpt lat="45.17214" lon="7.5341317"><ele>304.6666666666667</ele><time>2026-05-03T12:13:36.237Z</time></trkpt><trkpt lat="45.17222" lon="7.5341167"><ele>305.0</ele><time>2026-05-03T12:13:37.238Z</time></trkpt><trkpt lat="45.1722967" lon="7.5341033"><ele>305.14285714285717</ele><time>2026-05-03T12:13:38.237Z</time></trkpt><trkpt lat="45.172365" lon="7.5340867"><ele>305.2857142857143</ele><time>2026-05-03T12:13:39.238Z</time></trkpt><trkpt lat="45.1724317" lon="7.53407"><ele>305.42857142857144</ele><time>2026-05-03T12:13:40.238Z</time></trkpt><trkpt lat="45.1724983" lon="7.5340483"><ele>305.57142857142856</ele><time>2026-05-03T12:13:41.237Z</time></trkpt><trkpt lat="45.17256" lon="7.53403"><ele>305.7142857142857</ele><time>2026-05-03T12:13:42.238Z</time></trkpt><trkpt lat="45.1726283" lon="7.5340017"><ele>305.85714285714283</ele><time>2026-05-03T12:13:43.238Z</time></trkpt><trkpt lat="45.1727017" lon="7.533985"><ele>306.0</ele><time>2026-05-03T12:13:44.238Z</time></trkpt><trkpt lat="45.1727717" lon="7.5339667"><ele>306.0</ele><time>2026-05-03T12:13:45.238Z</time></trkpt><trkpt lat="45.1728433" lon="7.5339517"><ele>306.0</ele><time>2026-05-03T12:13:46.238Z</time></trkpt><trkpt lat="45.1729133" lon="7.533935"><ele>306.0</ele><time>2026-05-03T12:13:47.238Z</time></trkpt><trkpt lat="45.1729883" lon="7.5339183"><ele>306.0</ele><time>2026-05-03T12:13:48.238Z</time></trkpt><trkpt lat="45.17306" lon="7.5339"><ele>306.0</ele><time>2026-05-03T12:13:49.237Z</time></trkpt><trkpt lat="45.1731333" lon="7.5338817"><ele>306.0</ele><time>2026-05-03T12:13:50.237Z</time></trkpt><trkpt lat="45.1732117" lon="7.53387"><ele>306.0</ele><time>2026-05-03T12:13:51.238Z</time></trkpt><trkpt lat="45.173285" lon="7.5338617"><ele>306.0</ele><time>2026-05-03T12:13:52.238Z</time></trkpt><trkpt lat="45.1733567" lon="7.533855"><ele>306.0</ele><time>2026-05-03T12:13:53.238Z</time></trkpt><trkpt lat="45.17343" lon="7.5338383"><ele>306.0</ele><time>2026-05-03T12:13:54.238Z</time></trkpt><trkpt lat="45.1735" lon="7.53382"><ele>306.0</ele><time>2026-05-03T12:13:55.238Z</time></trkpt><trkpt lat="45.17357" lon="7.5338033"><ele>306.0</ele><time>2026-05-03T12:13:56.238Z</time></trkpt><trkpt lat="45.173635" lon="7.533785"><ele>306.0</ele><time>2026-05-03T12:13:57.238Z</time></trkpt><trkpt lat="45.1737083" lon="7.5337667"><ele>306.0</ele><time>2026-05-03T12:13:58.238Z</time></trkpt><trkpt lat="45.1737817" lon="7.5337517"><ele>306.0</ele><time>2026-05-03T12:13:59.238Z</time></trkpt><trkpt lat="45.1738467" lon="7.5337267"><ele>306.0</ele><time>2026-05-03T12:14:00.238Z</time></trkpt><trkpt lat="45.1739117" lon="7.5337067"><ele>306.0</ele><time>2026-05-03T12:14:01.238Z</time></trkpt><trkpt lat="45.173975" lon="7.5336883"><ele>306.0</ele><time>2026-05-03T12:14:02.238Z</time></trkpt><trkpt lat="45.1740417" lon="7.5336733"><ele>306.0</ele><time>2026-05-03T12:14:03.238Z</time></trkpt><trkpt lat="45.1741083" lon="7.5336567"><ele>306.0</ele><time>2026-05-03T12:14:04.238Z</time></trkpt><trkpt lat="45.1742383" lon="7.53363"><ele>305.85714285714283</ele><time>2026-05-03T12:14:06.238Z</time></trkpt><trkpt lat="45.1743033" lon="7.53362"><ele>305.7142857142857</ele><time>2026-05-03T12:14:07.238Z</time></trkpt><trkpt lat="45.1743683" lon="7.5336067"><ele>305.57142857142856</ele><time>2026-05-03T12:14:08.238Z</time></trkpt><trkpt lat="45.1744367" lon="7.5335983"><ele>305.42857142857144</ele><time>2026-05-03T12:14:09.238Z</time></trkpt><trkpt lat="45.1745" lon="7.5335883"><ele>305.2857142857143</ele><time>2026-05-03T12:14:10.238Z</time></trkpt><trkpt lat="45.1745683" lon="7.5335817"><ele>305.14285714285717</ele><time>2026-05-03T12:14:11.238Z</time></trkpt><trkpt lat="45.1746383" lon="7.5335683"><ele>305.0</ele><time>2026-05-03T12:14:12.238Z</time></trkpt><trkpt lat="45.1747117" lon="7.533565"><ele>305.0</ele><time>2026-05-03T12:14:13.238Z</time></trkpt><trkpt lat="45.174785" lon="7.5335617"><ele>305.0</ele><time>2026-05-03T12:14:14.238Z</time></trkpt><trkpt lat="45.1748567" lon="7.533545"><ele>305.0</ele><time>2026-05-03T12:14:15.238Z</time></trkpt><trkpt lat="45.17492" lon="7.5335367"><ele>305.0</ele><time>2026-05-03T12:14:16.238Z</time></trkpt><trkpt lat="45.17499" lon="7.5335083"><ele>305.0</ele><time>2026-05-03T12:14:17.238Z</time></trkpt><trkpt lat="45.1750617" lon="7.53348"><ele>305.0</ele><time>2026-05-03T12:14:18.238Z</time></trkpt><trkpt lat="45.1751333" lon="7.5334533"><ele>305.0</ele><time>2026-05-03T12:14:19.238Z</time></trkpt><trkpt lat="45.1752017" lon="7.5334367"><ele>305.42857142857144</ele><time>2026-05-03T12:14:20.238Z</time></trkpt><trkpt lat="45.1752733" lon="7.533415"><ele>305.85714285714283</ele><time>2026-05-03T12:14:21.238Z</time></trkpt><trkpt lat="45.17535" lon="7.5333967"><ele>306.2857142857143</ele><time>2026-05-03T12:14:22.238Z</time></trkpt><trkpt lat="45.1754217" lon="7.5333783"><ele>306.7142857142857</ele><time>2026-05-03T12:14:23.238Z</time></trkpt><trkpt lat="45.175495" lon="7.5333617"><ele>307.1428571428571</ele><time>2026-05-03T12:14:24.238Z</time></trkpt><trkpt lat="45.1755633" lon="7.5333483"><ele>307.57142857142856</ele><time>2026-05-03T12:14:25.237Z</time></trkpt><trkpt lat="45.1756267" lon="7.5333267"><ele>308.0</ele><time>2026-05-03T12:14:26.238Z</time></trkpt><trkpt lat="45.1756933" lon="7.5333117"><ele>308.4</ele><time>2026-05-03T12:14:27.238Z</time></trkpt><trkpt lat="45.1757583" lon="7.53328"><ele>308.8</ele><time>2026-05-03T12:14:28.237Z</time></trkpt><trkpt lat="45.175825" lon="7.5332583"><ele>309.2</ele><time>2026-05-03T12:14:29.238Z</time></trkpt><trkpt lat="45.1759483" lon="7.5332233"><ele>309.6</ele><time>2026-05-03T12:14:31.238Z</time></trkpt><trkpt lat="45.1760117" lon="7.5332133"><ele>310.0</ele><time>2026-05-03T12:14:32.238Z</time></trkpt><trkpt lat="45.17614" lon="7.5331933"><ele>310.0</ele><time>2026-05-03T12:14:34.238Z</time></trkpt><trkpt lat="45.17621" lon="7.5331617"><ele>310.0</ele><time>2026-05-03T12:14:35.238Z</time></trkpt><trkpt lat="45.1762783" lon="7.533135"><ele>310.0</ele><time>2026-05-03T12:14:36.238Z</time></trkpt><trkpt lat="45.1764033" lon="7.5331183"><ele>310.0</ele><time>2026-05-03T12:14:38.238Z</time></trkpt><trkpt lat="45.1764717" lon="7.5331067"><ele>310.0</ele><time>2026-05-03T12:14:39.238Z</time></trkpt><trkpt lat="45.1765383" lon="7.5330883"><ele>310.0</ele><time>2026-05-03T12:14:40.238Z</time></trkpt><trkpt lat="45.176605" lon="7.5330767"><ele>310.0</ele><time>2026-05-03T12:14:41.238Z</time></trkpt><trkpt lat="45.17667" lon="7.53306"><ele>310.0</ele><time>2026-05-03T12:14:42.238Z</time></trkpt><trkpt lat="45.1767383" lon="7.5330467"><ele>310.0</ele><time>2026-05-03T12:14:43.238Z</time></trkpt><trkpt lat="45.176805" lon="7.533035"><ele>310.0</ele><time>2026-05-03T12:14:44.238Z</time></trkpt><trkpt lat="45.1768717" lon="7.5330267"><ele>310.0</ele><time>2026-05-03T12:14:45.238Z</time></trkpt><trkpt lat="45.17699" lon="7.5330017"><ele>310.0</ele><time>2026-05-03T12:14:47.238Z</time></trkpt><trkpt lat="45.17711" lon="7.5329683"><ele>310.0</ele><time>2026-05-03T12:14:49.238Z</time></trkpt><trkpt lat="45.177175" lon="7.5329633"><ele>310.0</ele><time>2026-05-03T12:14:50.238Z</time></trkpt><trkpt lat="45.17724" lon="7.5329483"><ele>310.0</ele><time>2026-05-03T12:14:51.238Z</time></trkpt><trkpt lat="45.1773083" lon="7.5329183"><ele>310.0</ele><time>2026-05-03T12:14:52.237Z</time></trkpt><trkpt lat="45.1773667" lon="7.5328767"><ele>310.0</ele><time>2026-05-03T12:14:53.238Z</time></trkpt><trkpt lat="45.1774283" lon="7.532835"><ele>310.0</ele><time>2026-05-03T12:14:54.238Z</time></trkpt><trkpt lat="45.1775383" lon="7.5327617"><ele>310.0</ele><time>2026-05-03T12:14:56.238Z</time></trkpt><trkpt lat="45.177595" lon="7.5327183"><ele>310.0</ele><time>2026-05-03T12:14:57.238Z</time></trkpt><trkpt lat="45.1776567" lon="7.5326783"><ele>310.0</ele><time>2026-05-03T12:14:58.238Z</time></trkpt><trkpt lat="45.1777233" lon="7.5326483"><ele>310.0</ele><time>2026-05-03T12:14:59.238Z</time></trkpt><trkpt lat="45.17779" lon="7.53261"><ele>310.0</ele><time>2026-05-03T12:15:00.238Z</time></trkpt><trkpt lat="45.1778483" lon="7.5325717"><ele>310.0</ele><time>2026-05-03T12:15:01.238Z</time></trkpt><trkpt lat="45.1779033" lon="7.5325233"><ele>310.0</ele><time>2026-05-03T12:15:02.238Z</time></trkpt><trkpt lat="45.177965" lon="7.5324817"><ele>310.0</ele><time>2026-05-03T12:15:03.238Z</time></trkpt><trkpt lat="45.1780233" lon="7.53244"><ele>310.0</ele><time>2026-05-03T12:15:04.238Z</time></trkpt><trkpt lat="45.1780767" lon="7.5323917"><ele>310.0</ele><time>2026-05-03T12:15:05.238Z</time></trkpt><trkpt lat="45.17819" lon="7.5323233"><ele>310.0</ele><time>2026-05-03T12:15:07.238Z</time></trkpt><trkpt lat="45.1782467" lon="7.5322817"><ele>310.0</ele><time>2026-05-03T12:15:08.238Z</time></trkpt><trkpt lat="45.1783067" lon="7.532245"><ele>310.0</ele><time>2026-05-03T12:15:09.238Z</time></trkpt><trkpt lat="45.1783683" lon="7.532205"><ele>310.0</ele><time>2026-05-03T12:15:10.238Z</time></trkpt><trkpt lat="45.1784333" lon="7.5321717"><ele>310.16666666666663</ele><time>2026-05-03T12:15:11.238Z</time></trkpt><trkpt lat="45.178505" lon="7.5321367"><ele>310.3333333333333</ele><time>2026-05-03T12:15:12.238Z</time></trkpt><trkpt lat="45.178585" lon="7.5321017"><ele>310.5</ele><time>2026-05-03T12:15:13.238Z</time></trkpt><trkpt lat="45.1786583" lon="7.5320683"><ele>310.6666666666667</ele><time>2026-05-03T12:15:14.238Z</time></trkpt><trkpt lat="45.1787283" lon="7.5320333"><ele>310.83333333333337</ele><time>2026-05-03T12:15:15.238Z</time></trkpt><trkpt lat="45.1787983" lon="7.5319983"><ele>311.0</ele><time>2026-05-03T12:15:16.238Z</time></trkpt><trkpt lat="45.1788683" lon="7.5319617"><ele>311.1666666666667</ele><time>2026-05-03T12:15:17.238Z</time></trkpt><trkpt lat="45.178935" lon="7.5319183"><ele>311.33333333333337</ele><time>2026-05-03T12:15:18.238Z</time></trkpt><trkpt lat="45.179" lon="7.5318817"><ele>311.5</ele><time>2026-05-03T12:15:19.238Z</time></trkpt><trkpt lat="45.1790717" lon="7.5318367"><ele>311.6666666666667</ele><time>2026-05-03T12:15:20.238Z</time></trkpt><trkpt lat="45.1791417" lon="7.5317933"><ele>311.8333333333333</ele><time>2026-05-03T12:15:21.238Z</time></trkpt><trkpt lat="45.1792167" lon="7.5317467"><ele>312.0</ele><time>2026-05-03T12:15:22.237Z</time></trkpt><trkpt lat="45.1792883" lon="7.5316983"><ele>312.0</ele><time>2026-05-03T12:15:23.238Z</time></trkpt><trkpt lat="45.17936" lon="7.531655"><ele>312.0</ele><time>2026-05-03T12:15:24.238Z</time></trkpt><trkpt lat="45.1794333" lon="7.5316117"><ele>312.0</ele><time>2026-05-03T12:15:25.238Z</time></trkpt><trkpt lat="45.1795067" lon="7.5315733"><ele>312.0</ele><time>2026-05-03T12:15:26.238Z</time></trkpt><trkpt lat="45.1795783" lon="7.5315367"><ele>312.0</ele><time>2026-05-03T12:15:27.238Z</time></trkpt><trkpt lat="45.1796483" lon="7.5314933"><ele>312.0</ele><time>2026-05-03T12:15:28.238Z</time></trkpt><trkpt lat="45.1797233" lon="7.5314367"><ele>312.0</ele><time>2026-05-03T12:15:29.238Z</time></trkpt><trkpt lat="45.179795" lon="7.5313933"><ele>312.0</ele><time>2026-05-03T12:15:30.238Z</time></trkpt><trkpt lat="45.17987" lon="7.53136"><ele>312.0</ele><time>2026-05-03T12:15:31.238Z</time></trkpt><trkpt lat="45.179945" lon="7.5313167"><ele>312.0</ele><time>2026-05-03T12:15:32.238Z</time></trkpt><trkpt lat="45.1800167" lon="7.5312733"><ele>312.0</ele><time>2026-05-03T12:15:33.238Z</time></trkpt><trkpt lat="45.18009" lon="7.5312217"><ele>312.0</ele><time>2026-05-03T12:15:34.238Z</time></trkpt><trkpt lat="45.1801667" lon="7.53117"><ele>312.42857142857144</ele><time>2026-05-03T12:15:35.238Z</time></trkpt><trkpt lat="45.18024" lon="7.5311233"><ele>312.85714285714283</ele><time>2026-05-03T12:15:36.237Z</time></trkpt><trkpt lat="45.1803117" lon="7.5310817"><ele>313.2857142857143</ele><time>2026-05-03T12:15:37.238Z</time></trkpt><trkpt lat="45.1803817" lon="7.53104"><ele>313.7142857142857</ele><time>2026-05-03T12:15:38.237Z</time></trkpt><trkpt lat="45.180445" lon="7.5309917"><ele>314.1428571428571</ele><time>2026-05-03T12:15:39.238Z</time></trkpt><trkpt lat="45.1805083" lon="7.5309483"><ele>314.57142857142856</ele><time>2026-05-03T12:15:40.238Z</time></trkpt><trkpt lat="45.1805733" lon="7.530905"><ele>315.0</ele><time>2026-05-03T12:15:41.238Z</time></trkpt><trkpt lat="45.180645" lon="7.5308767"><ele>315.1666666666667</ele><time>2026-05-03T12:15:42.238Z</time></trkpt><trkpt lat="45.1807167" lon="7.5308333"><ele>315.3333333333333</ele><time>2026-05-03T12:15:43.237Z</time></trkpt><trkpt lat="45.1807883" lon="7.5307933"><ele>315.5</ele><time>2026-05-03T12:15:44.238Z</time></trkpt><trkpt lat="45.1808517" lon="7.5307517"><ele>315.66666666666663</ele><time>2026-05-03T12:15:45.238Z</time></trkpt><trkpt lat="45.1809217" lon="7.5307167"><ele>315.8333333333333</ele><time>2026-05-03T12:15:46.238Z</time></trkpt><trkpt lat="45.1809983" lon="7.53068"><ele>316.0</ele><time>2026-05-03T12:15:47.238Z</time></trkpt><trkpt lat="45.1810733" lon="7.530635"><ele>316.0</ele><time>2026-05-03T12:15:48.237Z</time></trkpt><trkpt lat="45.181145" lon="7.5305933"><ele>316.0</ele><time>2026-05-03T12:15:49.238Z</time></trkpt><trkpt lat="45.18122" lon="7.5305483"><ele>316.0</ele><time>2026-05-03T12:15:50.238Z</time></trkpt><trkpt lat="45.1812933" lon="7.5305067"><ele>316.0</ele><time>2026-05-03T12:15:51.238Z</time></trkpt><trkpt lat="45.1813667" lon="7.5304633"><ele>316.0</ele><time>2026-05-03T12:15:52.238Z</time></trkpt><trkpt lat="45.1814417" lon="7.5304283"><ele>316.0</ele><time>2026-05-03T12:15:53.238Z</time></trkpt><trkpt lat="45.1815183" lon="7.5304017"><ele>316.00000000000006</ele><time>2026-05-03T12:15:54.238Z</time></trkpt><trkpt lat="45.18159" lon="7.5303833"><ele>316.0</ele><time>2026-05-03T12:15:55.238Z</time></trkpt><trkpt lat="45.1816567" lon="7.5303767"><ele>316.0</ele><time>2026-05-03T12:15:56.238Z</time></trkpt><trkpt lat="45.1817283" lon="7.5303733"><ele>316.0</ele><time>2026-05-03T12:15:57.238Z</time></trkpt><trkpt lat="45.1818017" lon="7.53038"><ele>316.0</ele><time>2026-05-03T12:15:58.238Z</time></trkpt><trkpt lat="45.1818767" lon="7.5304133"><ele>316.00000000000006</ele><time>2026-05-03T12:15:59.238Z</time></trkpt><trkpt lat="45.1819517" lon="7.5304483"><ele>316.0</ele><time>2026-05-03T12:16:00.238Z</time></trkpt><trkpt lat="45.18202" lon="7.5304867"><ele>316.14285714285717</ele><time>2026-05-03T12:16:01.238Z</time></trkpt><trkpt lat="45.1820967" lon="7.530535"><ele>316.2857142857143</ele><time>2026-05-03T12:16:02.238Z</time></trkpt><trkpt lat="45.18217" lon="7.5305767"><ele>316.42857142857144</ele><time>2026-05-03T12:16:03.238Z</time></trkpt><trkpt lat="45.18224" lon="7.5306267"><ele>316.57142857142856</ele><time>2026-05-03T12:16:04.238Z</time></trkpt><trkpt lat="45.182305" lon="7.5306717"><ele>316.7142857142857</ele><time>2026-05-03T12:16:05.237Z</time></trkpt><trkpt lat="45.1823683" lon="7.5307017"><ele>316.8571428571429</ele><time>2026-05-03T12:16:06.238Z</time></trkpt><trkpt lat="45.1824283" lon="7.530735"><ele>317.0</ele><time>2026-05-03T12:16:07.238Z</time></trkpt><trkpt lat="45.18249" lon="7.53077"><ele>317.4</ele><time>2026-05-03T12:16:08.237Z</time></trkpt><trkpt lat="45.18261" lon="7.5308417"><ele>317.79999999999995</ele><time>2026-05-03T12:16:10.237Z</time></trkpt><trkpt lat="45.18267" lon="7.5308783"><ele>318.2</ele><time>2026-05-03T12:16:11.238Z</time></trkpt><trkpt lat="45.1827283" lon="7.5309133"><ele>318.59999999999997</ele><time>2026-05-03T12:16:12.238Z</time></trkpt><trkpt lat="45.1828467" lon="7.5309667"><ele>319.0</ele><time>2026-05-03T12:16:14.238Z</time></trkpt><trkpt lat="45.182915" lon="7.5309817"><ele>319.0</ele><time>2026-05-03T12:16:15.237Z</time></trkpt><trkpt lat="45.1830233" lon="7.5309867"><ele>319.0</ele><time>2026-05-03T12:16:17.238Z</time></trkpt><trkpt lat="45.183085" lon="7.530965"><ele>319.0</ele><time>2026-05-03T12:16:18.238Z</time></trkpt><trkpt lat="45.1831617" lon="7.5309283"><ele>319.0</ele><time>2026-05-03T12:16:19.237Z</time></trkpt><trkpt lat="45.1832367" lon="7.53088"><ele>319.0</ele><time>2026-05-03T12:16:20.238Z</time></trkpt><trkpt lat="45.1833133" lon="7.5308383"><ele>319.0</ele><time>2026-05-03T12:16:21.238Z</time></trkpt><trkpt lat="45.1833967" lon="7.5307983"><ele>319.5</ele><time>2026-05-03T12:16:22.238Z</time></trkpt><trkpt lat="45.1834733" lon="7.5307617"><ele>320.0</ele><time>2026-05-03T12:16:23.238Z</time></trkpt><trkpt lat="45.1835483" lon="7.530735"><ele>320.5</ele><time>2026-05-03T12:16:24.238Z</time></trkpt><trkpt lat="45.1836217" lon="7.53071"><ele>321.0</ele><time>2026-05-03T12:16:25.238Z</time></trkpt><trkpt lat="45.183695" lon="7.5306833"><ele>321.5</ele><time>2026-05-03T12:16:26.237Z</time></trkpt><trkpt lat="45.1837733" lon="7.530655"><ele>322.0</ele><time>2026-05-03T12:16:27.238Z</time></trkpt><trkpt lat="45.1838617" lon="7.5306333"><ele>322.0</ele><time>2026-05-03T12:16:28.238Z</time></trkpt><trkpt lat="45.1839333" lon="7.5306"><ele>322.0</ele><time>2026-05-03T12:16:29.238Z</time></trkpt><trkpt lat="45.1840033" lon="7.5305633"><ele>322.0</ele><time>2026-05-03T12:16:30.238Z</time></trkpt><trkpt lat="45.1840767" lon="7.5305283"><ele>322.0</ele><time>2026-05-03T12:16:31.237Z</time></trkpt><trkpt lat="45.1841467" lon="7.5304983"><ele>322.0</ele><time>2026-05-03T12:16:32.238Z</time></trkpt><trkpt lat="45.1842183" lon="7.5304817"><ele>322.0</ele><time>2026-05-03T12:16:33.237Z</time></trkpt><trkpt lat="45.1842867" lon="7.5304533"><ele>322.0</ele><time>2026-05-03T12:16:34.238Z</time></trkpt><trkpt lat="45.1843567" lon="7.5304067"><ele>322.3333333333333</ele><time>2026-05-03T12:16:35.238Z</time></trkpt><trkpt lat="45.1844267" lon="7.530345"><ele>322.66666666666663</ele><time>2026-05-03T12:16:36.238Z</time></trkpt><trkpt lat="45.184485" lon="7.5302717"><ele>323.0</ele><time>2026-05-03T12:16:37.238Z</time></trkpt><trkpt lat="45.18454" lon="7.53019"><ele>323.3333333333333</ele><time>2026-05-03T12:16:38.238Z</time></trkpt><trkpt lat="45.184595" lon="7.5301083"><ele>323.6666666666667</ele><time>2026-05-03T12:16:39.238Z</time></trkpt><trkpt lat="45.1846667" lon="7.5300183"><ele>324.0</ele><time>2026-05-03T12:16:40.238Z</time></trkpt><trkpt lat="45.1847217" lon="7.5299417"><ele>324.0</ele><time>2026-05-03T12:16:41.238Z</time></trkpt><trkpt lat="45.1847833" lon="7.5298583"><ele>324.0</ele><time>2026-05-03T12:16:42.238Z</time></trkpt><trkpt lat="45.1848433" lon="7.529785"><ele>324.0</ele><time>2026-05-03T12:16:43.238Z</time></trkpt><trkpt lat="45.184895" lon="7.5297217"><ele>324.0</ele><time>2026-05-03T12:16:44.238Z</time></trkpt><trkpt lat="45.1849517" lon="7.5296467"><ele>324.0</ele><time>2026-05-03T12:16:45.237Z</time></trkpt><trkpt lat="45.185005" lon="7.529575"><ele>324.0</ele><time>2026-05-03T12:16:46.238Z</time></trkpt><trkpt lat="45.1850583" lon="7.5295017"><ele>324.7142857142857</ele><time>2026-05-03T12:16:47.238Z</time></trkpt><trkpt lat="45.1851133" lon="7.5294333"><ele>325.42857142857144</ele><time>2026-05-03T12:16:48.238Z</time></trkpt><trkpt lat="45.1851767" lon="7.529375"><ele>326.1428571428571</ele><time>2026-05-03T12:16:49.238Z</time></trkpt><trkpt lat="45.1852317" lon="7.52932"><ele>326.8571428571429</ele><time>2026-05-03T12:16:50.238Z</time></trkpt><trkpt lat="45.1852883" lon="7.5292717"><ele>327.57142857142856</ele><time>2026-05-03T12:16:51.238Z</time></trkpt><trkpt lat="45.185345" lon="7.5292267"><ele>328.2857142857143</ele><time>2026-05-03T12:16:52.237Z</time></trkpt><trkpt lat="45.1854067" lon="7.5291867"><ele>329.0</ele><time>2026-05-03T12:16:53.238Z</time></trkpt><trkpt lat="45.18547" lon="7.5291483"><ele>329.0</ele><time>2026-05-03T12:16:54.238Z</time></trkpt><trkpt lat="45.1855417" lon="7.52912"><ele>329.0</ele><time>2026-05-03T12:16:55.238Z</time></trkpt><trkpt lat="45.1856167" lon="7.529095"><ele>329.0</ele><time>2026-05-03T12:16:56.237Z</time></trkpt><trkpt lat="45.18569" lon="7.5290683"><ele>329.0</ele><time>2026-05-03T12:16:57.238Z</time></trkpt><trkpt lat="45.1857667" lon="7.5290367"><ele>329.0</ele><time>2026-05-03T12:16:58.238Z</time></trkpt><trkpt lat="45.1858383" lon="7.52901"><ele>329.0</ele><time>2026-05-03T12:16:59.238Z</time></trkpt><trkpt lat="45.1859083" lon="7.5289783"><ele>329.6666666666667</ele><time>2026-05-03T12:17:00.238Z</time></trkpt><trkpt lat="45.1859783" lon="7.528945"><ele>330.33333333333337</ele><time>2026-05-03T12:17:01.237Z</time></trkpt><trkpt lat="45.18605" lon="7.5289133"><ele>331.0</ele><time>2026-05-03T12:17:02.238Z</time></trkpt><trkpt lat="45.1861283" lon="7.52888"><ele>331.6666666666667</ele><time>2026-05-03T12:17:03.238Z</time></trkpt><trkpt lat="45.1862067" lon="7.5288417"><ele>332.3333333333333</ele><time>2026-05-03T12:17:04.238Z</time></trkpt><trkpt lat="45.1862833" lon="7.5288017"><ele>333.0</ele><time>2026-05-03T12:17:05.238Z</time></trkpt><trkpt lat="45.1863567" lon="7.52877"><ele>333.0</ele><time>2026-05-03T12:17:06.238Z</time></trkpt><trkpt lat="45.1864317" lon="7.5287383"><ele>333.0</ele><time>2026-05-03T12:17:07.238Z</time></trkpt><trkpt lat="45.186505" lon="7.5287083"><ele>333.0</ele><time>2026-05-03T12:17:08.238Z</time></trkpt><trkpt lat="45.1865767" lon="7.528675"><ele>333.0</ele><time>2026-05-03T12:17:09.238Z</time></trkpt><trkpt lat="45.1866467" lon="7.528635"><ele>333.0</ele><time>2026-05-03T12:17:10.238Z</time></trkpt><trkpt lat="45.1867217" lon="7.5285933"><ele>333.0</ele><time>2026-05-03T12:17:11.238Z</time></trkpt><trkpt lat="45.1868017" lon="7.5285483"><ele>332.1666666666667</ele><time>2026-05-03T12:17:12.238Z</time></trkpt><trkpt lat="45.1868767" lon="7.5284967"><ele>331.3333333333333</ele><time>2026-05-03T12:17:13.238Z</time></trkpt><trkpt lat="45.18695" lon="7.5284533"><ele>330.5</ele><time>2026-05-03T12:17:14.238Z</time></trkpt><trkpt lat="45.1870133" lon="7.5284033"><ele>329.66666666666663</ele><time>2026-05-03T12:17:15.238Z</time></trkpt><trkpt lat="45.1870783" lon="7.52836"><ele>328.8333333333333</ele><time>2026-05-03T12:17:16.238Z</time></trkpt><trkpt lat="45.187145" lon="7.52832"><ele>328.0</ele><time>2026-05-03T12:17:17.238Z</time></trkpt><trkpt lat="45.1872117" lon="7.5282733"><ele>327.99999999999994</ele><time>2026-05-03T12:17:18.238Z</time></trkpt><trkpt lat="45.1872733" lon="7.5282283"><ele>328.0</ele><time>2026-05-03T12:17:19.238Z</time></trkpt><trkpt lat="45.1873383" lon="7.5281817"><ele>328.0</ele><time>2026-05-03T12:17:20.238Z</time></trkpt><trkpt lat="45.187405" lon="7.52813"><ele>328.0</ele><time>2026-05-03T12:17:21.238Z</time></trkpt><trkpt lat="45.1874717" lon="7.5280833"><ele>328.0</ele><time>2026-05-03T12:17:22.238Z</time></trkpt><trkpt lat="45.18754" lon="7.5280317"><ele>327.99999999999994</ele><time>2026-05-03T12:17:23.238Z</time></trkpt><trkpt lat="45.1876067" lon="7.52799"><ele>328.0</ele><time>2026-05-03T12:17:24.238Z</time></trkpt><trkpt lat="45.1876767" lon="7.5279517"><ele>328.2857142857143</ele><time>2026-05-03T12:17:25.238Z</time></trkpt><trkpt lat="45.1877433" lon="7.527905"><ele>328.57142857142856</ele><time>2026-05-03T12:17:26.238Z</time></trkpt><trkpt lat="45.1878017" lon="7.5278533"><ele>328.8571428571429</ele><time>2026-05-03T12:17:27.238Z</time></trkpt><trkpt lat="45.1878633" lon="7.5278033"><ele>329.1428571428571</ele><time>2026-05-03T12:17:28.238Z</time></trkpt><trkpt lat="45.18793" lon="7.5277567"><ele>329.42857142857144</ele><time>2026-05-03T12:17:29.238Z</time></trkpt><trkpt lat="45.18799" lon="7.5277067"><ele>329.7142857142857</ele><time>2026-05-03T12:17:30.238Z</time></trkpt><trkpt lat="45.1880517" lon="7.5276517"><ele>330.0</ele><time>2026-05-03T12:17:31.238Z</time></trkpt><trkpt lat="45.1881167" lon="7.5276083"><ele>329.28571428571433</ele><time>2026-05-03T12:17:32.238Z</time></trkpt><trkpt lat="45.1881833" lon="7.52756"><ele>328.57142857142856</ele><time>2026-05-03T12:17:33.238Z</time></trkpt><trkpt lat="45.18825" lon="7.5275133"><ele>327.8571428571429</ele><time>2026-05-03T12:17:34.237Z</time></trkpt><trkpt lat="45.1883117" lon="7.5274633"><ele>327.14285714285717</ele><time>2026-05-03T12:17:35.238Z</time></trkpt><trkpt lat="45.1883733" lon="7.5274183"><ele>326.42857142857144</ele><time>2026-05-03T12:17:36.238Z</time></trkpt><trkpt lat="45.1884333" lon="7.5273633"><ele>325.7142857142857</ele><time>2026-05-03T12:17:37.238Z</time></trkpt><trkpt lat="45.1884933" lon="7.5273167"><ele>325.0</ele><time>2026-05-03T12:17:38.238Z</time></trkpt><trkpt lat="45.1885567" lon="7.52727"><ele>325.0</ele><time>2026-05-03T12:17:39.238Z</time></trkpt><trkpt lat="45.1886167" lon="7.5272233"><ele>325.0</ele><time>2026-05-03T12:17:40.238Z</time></trkpt><trkpt lat="45.1886733" lon="7.52718"><ele>325.0</ele><time>2026-05-03T12:17:41.238Z</time></trkpt><trkpt lat="45.188735" lon="7.5271417"><ele>325.0</ele><time>2026-05-03T12:17:42.238Z</time></trkpt><trkpt lat="45.1887983" lon="7.5270933"><ele>325.0</ele><time>2026-05-03T12:17:43.238Z</time></trkpt><trkpt lat="45.1888617" lon="7.52705"><ele>325.0</ele><time>2026-05-03T12:17:44.238Z</time></trkpt><trkpt lat="45.1889233" lon="7.5270033"><ele>325.0</ele><time>2026-05-03T12:17:45.238Z</time></trkpt><trkpt lat="45.1889867" lon="7.5269633"><ele>325.1428571428571</ele><time>2026-05-03T12:17:46.238Z</time></trkpt><trkpt lat="45.189055" lon="7.5269267"><ele>325.28571428571433</ele><time>2026-05-03T12:17:47.238Z</time></trkpt><trkpt lat="45.1891217" lon="7.5268933"><ele>325.42857142857144</ele><time>2026-05-03T12:17:48.237Z</time></trkpt><trkpt lat="45.1891967" lon="7.5268733"><ele>325.57142857142856</ele><time>2026-05-03T12:17:49.238Z</time></trkpt><trkpt lat="45.1892683" lon="7.5268517"><ele>325.71428571428567</ele><time>2026-05-03T12:17:50.238Z</time></trkpt><trkpt lat="45.1893367" lon="7.5268283"><ele>325.8571428571429</ele><time>2026-05-03T12:17:51.238Z</time></trkpt><trkpt lat="45.189405" lon="7.52681"><ele>326.0</ele><time>2026-05-03T12:17:52.238Z</time></trkpt><trkpt lat="45.1894717" lon="7.5267833"><ele>326.0</ele><time>2026-05-03T12:17:53.238Z</time></trkpt><trkpt lat="45.1895383" lon="7.5267567"><ele>326.0</ele><time>2026-05-03T12:17:54.237Z</time></trkpt><trkpt lat="45.1896017" lon="7.5267283"><ele>326.0</ele><time>2026-05-03T12:17:55.238Z</time></trkpt><trkpt lat="45.1896633" lon="7.5266833"><ele>326.0</ele><time>2026-05-03T12:17:56.238Z</time></trkpt><trkpt lat="45.1897233" lon="7.5266533"><ele>326.0</ele><time>2026-05-03T12:17:57.238Z</time></trkpt><trkpt lat="45.1897883" lon="7.5266183"><ele>326.0</ele><time>2026-05-03T12:17:58.237Z</time></trkpt><trkpt lat="45.18986" lon="7.526585"><ele>326.0</ele><time>2026-05-03T12:17:59.238Z</time></trkpt><trkpt lat="45.1899333" lon="7.5265517"><ele>326.2857142857143</ele><time>2026-05-03T12:18:00.238Z</time></trkpt><trkpt lat="45.1900017" lon="7.5265133"><ele>326.57142857142856</ele><time>2026-05-03T12:18:01.238Z</time></trkpt><trkpt lat="45.1900683" lon="7.5264867"><ele>326.85714285714283</ele><time>2026-05-03T12:18:02.238Z</time></trkpt><trkpt lat="45.190145" lon="7.526455"><ele>327.1428571428571</ele><time>2026-05-03T12:18:03.238Z</time></trkpt><trkpt lat="45.190215" lon="7.526445"><ele>327.42857142857144</ele><time>2026-05-03T12:18:04.238Z</time></trkpt><trkpt lat="45.1902833" lon="7.5264233"><ele>327.71428571428567</ele><time>2026-05-03T12:18:05.238Z</time></trkpt><trkpt lat="45.1903617" lon="7.5264017"><ele>328.0</ele><time>2026-05-03T12:18:06.238Z</time></trkpt><trkpt lat="45.1904367" lon="7.5263783"><ele>327.99999999999994</ele><time>2026-05-03T12:18:07.238Z</time></trkpt><trkpt lat="45.1905083" lon="7.526355"><ele>328.0</ele><time>2026-05-03T12:18:08.238Z</time></trkpt><trkpt lat="45.190585" lon="7.5263267"><ele>328.0</ele><time>2026-05-03T12:18:09.237Z</time></trkpt><trkpt lat="45.1906567" lon="7.526295"><ele>328.0</ele><time>2026-05-03T12:18:10.238Z</time></trkpt><trkpt lat="45.1907217" lon="7.5262617"><ele>328.0</ele><time>2026-05-03T12:18:11.238Z</time></trkpt><trkpt lat="45.19079" lon="7.52623"><ele>327.99999999999994</ele><time>2026-05-03T12:18:12.238Z</time></trkpt><trkpt lat="45.1908567" lon="7.5262033"><ele>328.0</ele><time>2026-05-03T12:18:13.238Z</time></trkpt><trkpt lat="45.190925" lon="7.5261783"><ele>328.2857142857143</ele><time>2026-05-03T12:18:14.238Z</time></trkpt><trkpt lat="45.190995" lon="7.52616"><ele>328.57142857142856</ele><time>2026-05-03T12:18:15.238Z</time></trkpt><trkpt lat="45.1910633" lon="7.52614"><ele>328.8571428571429</ele><time>2026-05-03T12:18:16.238Z</time></trkpt><trkpt lat="45.191125" lon="7.52612"><ele>329.1428571428571</ele><time>2026-05-03T12:18:17.238Z</time></trkpt><trkpt lat="45.1911917" lon="7.5260983"><ele>329.42857142857144</ele><time>2026-05-03T12:18:18.238Z</time></trkpt><trkpt lat="45.1912567" lon="7.526075"><ele>329.7142857142857</ele><time>2026-05-03T12:18:19.238Z</time></trkpt><trkpt lat="45.191335" lon="7.5260483"><ele>330.0</ele><time>2026-05-03T12:18:20.238Z</time></trkpt><trkpt lat="45.1914067" lon="7.52602"><ele>330.00000000000006</ele><time>2026-05-03T12:18:21.238Z</time></trkpt><trkpt lat="45.191475" lon="7.5259883"><ele>330.0</ele><time>2026-05-03T12:18:22.237Z</time></trkpt><trkpt lat="45.1915383" lon="7.5259583"><ele>330.0</ele><time>2026-05-03T12:18:23.238Z</time></trkpt><trkpt lat="45.1916017" lon="7.5259283"><ele>330.0</ele><time>2026-05-03T12:18:24.237Z</time></trkpt><trkpt lat="45.1916667" lon="7.5258967"><ele>330.0</ele><time>2026-05-03T12:18:25.237Z</time></trkpt><trkpt lat="45.19173" lon="7.525865"><ele>330.00000000000006</ele><time>2026-05-03T12:18:26.238Z</time></trkpt><trkpt lat="45.191795" lon="7.5258317"><ele>330.0</ele><time>2026-05-03T12:18:27.238Z</time></trkpt><trkpt lat="45.1918583" lon="7.525795"><ele>330.28571428571433</ele><time>2026-05-03T12:18:28.238Z</time></trkpt><trkpt lat="45.1919267" lon="7.5257633"><ele>330.57142857142856</ele><time>2026-05-03T12:18:29.238Z</time></trkpt><trkpt lat="45.1919933" lon="7.5257267"><ele>330.8571428571429</ele><time>2026-05-03T12:18:30.238Z</time></trkpt><trkpt lat="45.1920583" lon="7.5256883"><ele>331.14285714285717</ele><time>2026-05-03T12:18:31.238Z</time></trkpt><trkpt lat="45.19212" lon="7.5256517"><ele>331.42857142857144</ele><time>2026-05-03T12:18:32.238Z</time></trkpt><trkpt lat="45.192185" lon="7.5256183"><ele>331.7142857142857</ele><time>2026-05-03T12:18:33.238Z</time></trkpt><trkpt lat="45.1922567" lon="7.52558"><ele>332.0</ele><time>2026-05-03T12:18:34.238Z</time></trkpt><trkpt lat="45.192325" lon="7.525545"><ele>332.2857142857143</ele><time>2026-05-03T12:18:35.238Z</time></trkpt><trkpt lat="45.1923933" lon="7.5255117"><ele>332.5714285714286</ele><time>2026-05-03T12:18:36.238Z</time></trkpt><trkpt lat="45.1924583" lon="7.5254733"><ele>332.8571428571429</ele><time>2026-05-03T12:18:37.238Z</time></trkpt><trkpt lat="45.1925233" lon="7.5254367"><ele>333.1428571428571</ele><time>2026-05-03T12:18:38.238Z</time></trkpt><trkpt lat="45.1925917" lon="7.5253967"><ele>333.42857142857144</ele><time>2026-05-03T12:18:39.238Z</time></trkpt><trkpt lat="45.1926583" lon="7.5253567"><ele>333.7142857142857</ele><time>2026-05-03T12:18:40.238Z</time></trkpt><trkpt lat="45.1927283" lon="7.5253167"><ele>334.0</ele><time>2026-05-03T12:18:41.238Z</time></trkpt><trkpt lat="45.1928" lon="7.525275"><ele>334.16666666666663</ele><time>2026-05-03T12:18:42.238Z</time></trkpt><trkpt lat="45.19288" lon="7.525235"><ele>334.3333333333333</ele><time>2026-05-03T12:18:43.238Z</time></trkpt><trkpt lat="45.1929567" lon="7.525195"><ele>334.5</ele><time>2026-05-03T12:18:44.238Z</time></trkpt><trkpt lat="45.1930317" lon="7.52515"><ele>334.6666666666667</ele><time>2026-05-03T12:18:45.238Z</time></trkpt><trkpt lat="45.1931117" lon="7.5251067"><ele>334.83333333333337</ele><time>2026-05-03T12:18:46.238Z</time></trkpt><trkpt lat="45.193185" lon="7.5250667"><ele>335.0</ele><time>2026-05-03T12:18:47.238Z</time></trkpt><trkpt lat="45.19326" lon="7.52503"><ele>334.99999999999994</ele><time>2026-05-03T12:18:48.238Z</time></trkpt><trkpt lat="45.1933317" lon="7.5249917"><ele>335.0</ele><time>2026-05-03T12:18:49.238Z</time></trkpt><trkpt lat="45.193395" lon="7.5249533"><ele>335.0</ele><time>2026-05-03T12:18:50.238Z</time></trkpt><trkpt lat="45.1934583" lon="7.52492"><ele>335.0</ele><time>2026-05-03T12:18:51.238Z</time></trkpt><trkpt lat="45.1935217" lon="7.52489"><ele>335.0</ele><time>2026-05-03T12:18:52.238Z</time></trkpt><trkpt lat="45.1935867" lon="7.5248567"><ele>334.99999999999994</ele><time>2026-05-03T12:18:53.238Z</time></trkpt><trkpt lat="45.1936483" lon="7.5248283"><ele>335.0</ele><time>2026-05-03T12:18:54.238Z</time></trkpt><trkpt lat="45.1937067" lon="7.5247933"><ele>334.99999999999994</ele><time>2026-05-03T12:18:55.238Z</time></trkpt><trkpt lat="45.1937667" lon="7.5247633"><ele>335.0</ele><time>2026-05-03T12:18:56.237Z</time></trkpt><trkpt lat="45.1938317" lon="7.5247317"><ele>335.0</ele><time>2026-05-03T12:18:57.238Z</time></trkpt><trkpt lat="45.1939" lon="7.5247067"><ele>335.0</ele><time>2026-05-03T12:18:58.238Z</time></trkpt><trkpt lat="45.19398" lon="7.5246733"><ele>335.0</ele><time>2026-05-03T12:18:59.238Z</time></trkpt><trkpt lat="45.1940583" lon="7.5246367"><ele>334.99999999999994</ele><time>2026-05-03T12:19:00.238Z</time></trkpt><trkpt lat="45.1941333" lon="7.5246017"><ele>335.0</ele><time>2026-05-03T12:19:01.238Z</time></trkpt><trkpt lat="45.1942017" lon="7.5245567"><ele>334.85714285714283</ele><time>2026-05-03T12:19:02.238Z</time></trkpt><trkpt lat="45.1942683" lon="7.52451"><ele>334.7142857142857</ele><time>2026-05-03T12:19:03.238Z</time></trkpt><trkpt lat="45.1943333" lon="7.524475"><ele>334.57142857142856</ele><time>2026-05-03T12:19:04.238Z</time></trkpt><trkpt lat="45.194405" lon="7.524445"><ele>334.42857142857144</ele><time>2026-05-03T12:19:05.238Z</time></trkpt><trkpt lat="45.1944783" lon="7.5244083"><ele>334.2857142857143</ele><time>2026-05-03T12:19:06.238Z</time></trkpt><trkpt lat="45.1945467" lon="7.5243717"><ele>334.1428571428571</ele><time>2026-05-03T12:19:07.238Z</time></trkpt><trkpt lat="45.1946183" lon="7.52434"><ele>334.0</ele><time>2026-05-03T12:19:08.238Z</time></trkpt><trkpt lat="45.1946867" lon="7.52431"><ele>334.0</ele><time>2026-05-03T12:19:09.238Z</time></trkpt><trkpt lat="45.1947533" lon="7.52428"><ele>334.0</ele><time>2026-05-03T12:19:10.238Z</time></trkpt><trkpt lat="45.1948133" lon="7.5242483"><ele>334.0</ele><time>2026-05-03T12:19:11.238Z</time></trkpt><trkpt lat="45.1949267" lon="7.5241667"><ele>334.0</ele><time>2026-05-03T12:19:13.238Z</time></trkpt><trkpt lat="45.1950333" lon="7.5240867"><ele>334.0</ele><time>2026-05-03T12:19:15.238Z</time></trkpt><trkpt lat="45.195135" lon="7.52401"><ele>334.2857142857143</ele><time>2026-05-03T12:19:17.238Z</time></trkpt><trkpt lat="45.1951933" lon="7.523965"><ele>334.57142857142856</ele><time>2026-05-03T12:19:18.238Z</time></trkpt><trkpt lat="45.195255" lon="7.5239317"><ele>334.8571428571429</ele><time>2026-05-03T12:19:19.238Z</time></trkpt><trkpt lat="45.1953217" lon="7.5239033"><ele>335.1428571428571</ele><time>2026-05-03T12:19:20.238Z</time></trkpt><trkpt lat="45.1953867" lon="7.5238833"><ele>335.42857142857144</ele><time>2026-05-03T12:19:21.238Z</time></trkpt><trkpt lat="45.1954517" lon="7.5238767"><ele>335.7142857142857</ele><time>2026-05-03T12:19:22.238Z</time></trkpt><trkpt lat="45.1955233" lon="7.52389"><ele>336.0</ele><time>2026-05-03T12:19:23.238Z</time></trkpt><trkpt lat="45.1955917" lon="7.523905"><ele>336.0</ele><time>2026-05-03T12:19:24.238Z</time></trkpt><trkpt lat="45.1956567" lon="7.5239133"><ele>336.0</ele><time>2026-05-03T12:19:25.238Z</time></trkpt><trkpt lat="45.19576" lon="7.5239417"><ele>336.0</ele><time>2026-05-03T12:19:27.238Z</time></trkpt><trkpt lat="45.19586" lon="7.5239717"><ele>336.0</ele><time>2026-05-03T12:19:29.238Z</time></trkpt><trkpt lat="45.1959767" lon="7.5240067"><ele>336.0</ele><time>2026-05-03T12:19:31.238Z</time></trkpt><trkpt lat="45.1961017" lon="7.524055"><ele>336.14285714285717</ele><time>2026-05-03T12:19:33.237Z</time></trkpt><trkpt lat="45.1961683" lon="7.5240767"><ele>336.2857142857143</ele><time>2026-05-03T12:19:34.238Z</time></trkpt><trkpt lat="45.196235" lon="7.5241017"><ele>336.42857142857144</ele><time>2026-05-03T12:19:35.238Z</time></trkpt><trkpt lat="45.1963017" lon="7.5241283"><ele>336.57142857142856</ele><time>2026-05-03T12:19:36.238Z</time></trkpt><trkpt lat="45.19637" lon="7.524155"><ele>336.7142857142857</ele><time>2026-05-03T12:19:37.237Z</time></trkpt><trkpt lat="45.1964417" lon="7.5241817"><ele>336.8571428571429</ele><time>2026-05-03T12:19:38.238Z</time></trkpt><trkpt lat="45.1965133" lon="7.5242117"><ele>337.0</ele><time>2026-05-03T12:19:39.238Z</time></trkpt><trkpt lat="45.1965867" lon="7.5242383"><ele>337.14285714285717</ele><time>2026-05-03T12:19:40.238Z</time></trkpt><trkpt lat="45.1966583" lon="7.5242633"><ele>337.2857142857143</ele><time>2026-05-03T12:19:41.238Z</time></trkpt><trkpt lat="45.1967217" lon="7.5242867"><ele>337.42857142857144</ele><time>2026-05-03T12:19:42.238Z</time></trkpt><trkpt lat="45.1967867" lon="7.5243083"><ele>337.57142857142856</ele><time>2026-05-03T12:19:43.238Z</time></trkpt><trkpt lat="45.19685" lon="7.5243267"><ele>337.7142857142857</ele><time>2026-05-03T12:19:44.238Z</time></trkpt><trkpt lat="45.196915" lon="7.5243517"><ele>337.8571428571429</ele><time>2026-05-03T12:19:45.238Z</time></trkpt><trkpt lat="45.1969817" lon="7.524375"><ele>338.0</ele><time>2026-05-03T12:19:46.238Z</time></trkpt><trkpt lat="45.1970467" lon="7.5243883"><ele>338.0</ele><time>2026-05-03T12:19:47.238Z</time></trkpt><trkpt lat="45.19717" lon="7.524405"><ele>338.0</ele><time>2026-05-03T12:19:49.238Z</time></trkpt><trkpt lat="45.1972367" lon="7.5244133"><ele>338.0</ele><time>2026-05-03T12:19:50.238Z</time></trkpt><trkpt lat="45.197305" lon="7.5244133"><ele>338.0</ele><time>2026-05-03T12:19:51.238Z</time></trkpt><trkpt lat="45.1973783" lon="7.52442"><ele>338.0</ele><time>2026-05-03T12:19:52.238Z</time></trkpt><trkpt lat="45.1974467" lon="7.5244233"><ele>338.0</ele><time>2026-05-03T12:19:53.238Z</time></trkpt><trkpt lat="45.1975183" lon="7.5244283"><ele>338.2857142857143</ele><time>2026-05-03T12:19:54.238Z</time></trkpt><trkpt lat="45.1975933" lon="7.524435"><ele>338.57142857142856</ele><time>2026-05-03T12:19:55.238Z</time></trkpt><trkpt lat="45.1976617" lon="7.5244417"><ele>338.8571428571429</ele><time>2026-05-03T12:19:56.238Z</time></trkpt><trkpt lat="45.1977267" lon="7.5244417"><ele>339.1428571428571</ele><time>2026-05-03T12:19:57.238Z</time></trkpt><trkpt lat="45.1977983" lon="7.5244417"><ele>339.4285714285714</ele><time>2026-05-03T12:19:58.237Z</time></trkpt><trkpt lat="45.1978683" lon="7.5244417"><ele>339.7142857142857</ele><time>2026-05-03T12:19:59.238Z</time></trkpt><trkpt lat="45.19794" lon="7.52445"><ele>340.0</ele><time>2026-05-03T12:20:00.237Z</time></trkpt><trkpt lat="45.198005" lon="7.5244533"><ele>340.0</ele><time>2026-05-03T12:20:01.237Z</time></trkpt><trkpt lat="45.19812" lon="7.5244433"><ele>340.0</ele><time>2026-05-03T12:20:03.238Z</time></trkpt><trkpt lat="45.1982383" lon="7.5244533"><ele>340.0</ele><time>2026-05-03T12:20:05.238Z</time></trkpt><trkpt lat="45.1983083" lon="7.52446"><ele>340.0</ele><time>2026-05-03T12:20:06.238Z</time></trkpt><trkpt lat="45.19839" lon="7.5244717"><ele>340.0</ele><time>2026-05-03T12:20:07.237Z</time></trkpt><trkpt lat="45.1984583" lon="7.5244783"><ele>340.8333333333333</ele><time>2026-05-03T12:20:08.238Z</time></trkpt><trkpt lat="45.1985283" lon="7.52449"><ele>341.66666666666663</ele><time>2026-05-03T12:20:09.238Z</time></trkpt><trkpt lat="45.1985983" lon="7.5245133"><ele>342.5</ele><time>2026-05-03T12:20:10.238Z</time></trkpt><trkpt lat="45.1986583" lon="7.5245433"><ele>343.3333333333333</ele><time>2026-05-03T12:20:11.238Z</time></trkpt><trkpt lat="45.1987567" lon="7.5246367"><ele>344.1666666666667</ele><time>2026-05-03T12:20:13.238Z</time></trkpt><trkpt lat="45.19883" lon="7.52477"><ele>345.0</ele><time>2026-05-03T12:20:15.238Z</time></trkpt><trkpt lat="45.198885" lon="7.5249283"><ele>345.7142857142857</ele><time>2026-05-03T12:20:17.238Z</time></trkpt><trkpt lat="45.198915" lon="7.52502"><ele>346.42857142857144</ele><time>2026-05-03T12:20:18.238Z</time></trkpt><trkpt lat="45.1989367" lon="7.5251167"><ele>347.1428571428571</ele><time>2026-05-03T12:20:19.238Z</time></trkpt><trkpt lat="45.19896" lon="7.5252183"><ele>347.8571428571429</ele><time>2026-05-03T12:20:20.238Z</time></trkpt><trkpt lat="45.198975" lon="7.5253167"><ele>348.57142857142856</ele><time>2026-05-03T12:20:21.238Z</time></trkpt><trkpt lat="45.1989967" lon="7.5254083"><ele>349.2857142857143</ele><time>2026-05-03T12:20:22.237Z</time></trkpt><trkpt lat="45.1990117" lon="7.5255017"><ele>350.0</ele><time>2026-05-03T12:20:23.238Z</time></trkpt><trkpt lat="45.19904" lon="7.5255883"><ele>352.2857142857143</ele><time>2026-05-03T12:20:24.238Z</time></trkpt><trkpt lat="45.1990683" lon="7.525675"><ele>354.57142857142856</ele><time>2026-05-03T12:20:25.238Z</time></trkpt><trkpt lat="45.199095" lon="7.5257617"><ele>356.8571428571429</ele><time>2026-05-03T12:20:26.238Z</time></trkpt><trkpt lat="45.1991267" lon="7.5258533"><ele>359.1428571428571</ele><time>2026-05-03T12:20:27.238Z</time></trkpt><trkpt lat="45.1991567" lon="7.52594"><ele>361.42857142857144</ele><time>2026-05-03T12:20:28.238Z</time></trkpt><trkpt lat="45.1991833" lon="7.526025"><ele>363.7142857142857</ele><time>2026-05-03T12:20:29.238Z</time></trkpt><trkpt lat="45.1992167" lon="7.5261033"><ele>366.0</ele><time>2026-05-03T12:20:30.238Z</time></trkpt><trkpt lat="45.1992891" lon="7.5262264"><ele>368.8</ele><time>2026-05-03T12:20:32.238Z</time></trkpt><trkpt lat="45.1993802" lon="7.5262749"><ele>371.6</ele><time>2026-05-03T12:20:34.238Z</time></trkpt><trkpt lat="45.1995094" lon="7.5263093"><ele>374.4</ele><time>2026-05-03T12:20:36.238Z</time></trkpt><trkpt lat="45.1995744" lon="7.5263298"><ele>377.2</ele><time>2026-05-03T12:20:37.238Z</time></trkpt><trkpt lat="45.1996966" lon="7.526357"><ele>380.0</ele><time>2026-05-03T12:20:39.238Z</time></trkpt><trkpt lat="45.1997876" lon="7.5263576"><ele>380.0</ele><time>2026-05-03T12:20:41.238Z</time></trkpt><trkpt lat="45.1998605" lon="7.5263539"><ele>380.0</ele><time>2026-05-03T12:20:43.238Z</time></trkpt><trkpt lat="45.1998252" lon="7.5264479"><ele>380.0</ele><time>2026-05-03T12:20:48.238Z</time></trkpt><trkpt lat="45.1997016" lon="7.5264824"><ele>380.0</ele><time>2026-05-03T12:20:50.238Z</time></trkpt><trkpt lat="45.199639" lon="7.5265063"><ele>380.0</ele><time>2026-05-03T12:20:51.238Z</time></trkpt><trkpt lat="45.1995732" lon="7.5265354"><ele>380.0</ele><time>2026-05-03T12:20:52.238Z</time></trkpt><trkpt lat="45.1994636" lon="7.5265855"><ele>380.0</ele><time>2026-05-03T12:20:54.237Z</time></trkpt><trkpt lat="45.19941" lon="7.526645"><ele>380.0</ele><time>2026-05-03T12:20:56.238Z</time></trkpt><trkpt lat="45.1995183" lon="7.526685"><ele>380.0</ele><time>2026-05-03T12:21:01.238Z</time></trkpt><trkpt lat="45.1996033" lon="7.5266667"><ele>380.0</ele><time>2026-05-03T12:21:03.237Z</time></trkpt><trkpt lat="45.19972" lon="7.526645"><ele>380.0</ele><time>2026-05-03T12:21:05.238Z</time></trkpt><trkpt lat="45.19979" lon="7.5266433"><ele>380.6666666666667</ele><time>2026-05-03T12:21:06.238Z</time></trkpt><trkpt lat="45.1998633" lon="7.5266383"><ele>381.33333333333337</ele><time>2026-05-03T12:21:07.238Z</time></trkpt><trkpt lat="45.1999567" lon="7.5266217"><ele>382.0</ele><time>2026-05-03T12:21:08.238Z</time></trkpt><trkpt lat="45.2000467" lon="7.5265983"><ele>382.6666666666667</ele><time>2026-05-03T12:21:09.238Z</time></trkpt><trkpt lat="45.20013" lon="7.5265733"><ele>383.3333333333333</ele><time>2026-05-03T12:21:10.238Z</time></trkpt><trkpt lat="45.2002067" lon="7.5265483"><ele>384.0</ele><time>2026-05-03T12:21:11.238Z</time></trkpt><trkpt lat="45.200325" lon="7.5265267"><ele>384.0</ele><time>2026-05-03T12:21:13.238Z</time></trkpt><trkpt lat="45.2004183" lon="7.5265667"><ele>384.0</ele><time>2026-05-03T12:21:15.238Z</time></trkpt><trkpt lat="45.200425" lon="7.5266617"><ele>384.0</ele><time>2026-05-03T12:21:18.237Z</time></trkpt><trkpt lat="45.2003583" lon="7.5267083"><ele>384.0</ele><time>2026-05-03T12:21:20.238Z</time></trkpt><trkpt lat="45.20028" lon="7.5267633"><ele>384.0</ele><time>2026-05-03T12:21:22.237Z</time></trkpt><trkpt lat="45.2001883" lon="7.52684"><ele>384.0</ele><time>2026-05-03T12:21:24.237Z</time></trkpt><trkpt lat="45.2000917" lon="7.5268933"><ele>384.0</ele><time>2026-05-03T12:21:26.236Z</time></trkpt><trkpt lat="45.1999883" lon="7.5269583"><ele>384.0</ele><time>2026-05-03T12:21:28.237Z</time></trkpt><trkpt lat="45.1998883" lon="7.5270167"><ele>384.0</ele><time>2026-05-03T12:21:30.237Z</time></trkpt><trkpt lat="45.1997833" lon="7.5270533"><ele>384.0</ele><time>2026-05-03T12:21:32.236Z</time></trkpt><trkpt lat="45.1996905" lon="7.527099"><ele>384.0</ele><time>2026-05-03T12:21:34.237Z</time></trkpt><trkpt lat="45.1996295" lon="7.527157"><ele>386.4</ele><time>2026-05-03T12:21:36.237Z</time></trkpt><trkpt lat="45.1996712" lon="7.5272379"><ele>388.79999999999995</ele><time>2026-05-03T12:21:40.191Z</time></trkpt><trkpt lat="45.1997454" lon="7.5272114"><ele>391.20000000000005</ele><time>2026-05-03T12:21:42.237Z</time></trkpt><trkpt lat="45.1999237" lon="7.5272089"><ele>393.6</ele><time>2026-05-03T12:21:45.237Z</time></trkpt><trkpt lat="45.1999993" lon="7.5271953"><ele>396.0</ele><time>2026-05-03T12:21:46.236Z</time></trkpt><trkpt lat="45.2000811" lon="7.5272025"><ele>396.0</ele><time>2026-05-03T12:21:48.277Z</time></trkpt><trkpt lat="45.200133" lon="7.5272555"><ele>396.0</ele><time>2026-05-03T12:21:50.308Z</time></trkpt><trkpt lat="45.2000628" lon="7.5273608"><ele>396.0</ele><time>2026-05-03T12:21:53.237Z</time></trkpt><trkpt lat="45.1999581" lon="7.5274334"><ele>396.0</ele><time>2026-05-03T12:21:55.237Z</time></trkpt><trkpt lat="45.1998986" lon="7.5274741"><ele>396.0</ele><time>2026-05-03T12:21:56.237Z</time></trkpt><trkpt lat="45.1997987" lon="7.5275466"><ele>396.0</ele><time>2026-05-03T12:21:58.237Z</time></trkpt><trkpt lat="45.1997244" lon="7.5275991"><ele>396.0</ele><time>2026-05-03T12:22:00.237Z</time></trkpt><trkpt lat="45.1997161" lon="7.5277105"><ele>396.0</ele><time>2026-05-03T12:22:03.236Z</time></trkpt><trkpt lat="45.1998279" lon="7.5277257"><ele>396.0</ele><time>2026-05-03T12:22:06.237Z</time></trkpt><trkpt lat="45.199895" lon="7.5277382"><ele>396.0</ele><time>2026-05-03T12:22:07.237Z</time></trkpt><trkpt lat="45.1999676" lon="7.5277639"><ele>396.0</ele><time>2026-05-03T12:22:08.237Z</time></trkpt><trkpt lat="45.2000322" lon="7.5277973"><ele>396.5</ele><time>2026-05-03T12:22:09.236Z</time></trkpt><trkpt lat="45.2000927" lon="7.5278644"><ele>397.0</ele><time>2026-05-03T12:22:10.237Z</time></trkpt><trkpt lat="45.2001439" lon="7.5279518"><ele>397.5</ele><time>2026-05-03T12:22:11.237Z</time></trkpt><trkpt lat="45.20018" lon="7.52806"><ele>398.0</ele><time>2026-05-03T12:22:12.237Z</time></trkpt><trkpt lat="45.2002182" lon="7.528187"><ele>398.5</ele><time>2026-05-03T12:22:13.237Z</time></trkpt><trkpt lat="45.2002597" lon="7.5283306"><ele>399.0</ele><time>2026-05-03T12:22:14.236Z</time></trkpt><trkpt lat="45.2003062" lon="7.528479"><ele>399.4</ele><time>2026-05-03T12:22:15.237Z</time></trkpt><trkpt lat="45.2003554" lon="7.5286233"><ele>399.79999999999995</ele><time>2026-05-03T12:22:16.237Z</time></trkpt><trkpt lat="45.2003982" lon="7.5287459"><ele>400.20000000000005</ele><time>2026-05-03T12:22:17.237Z</time></trkpt><trkpt lat="45.2004328" lon="7.5288398"><ele>400.6</ele><time>2026-05-03T12:22:18.237Z</time></trkpt><trkpt lat="45.200485" lon="7.529005"><ele>401.0</ele><time>2026-05-03T12:22:28.237Z</time></trkpt><trkpt lat="45.2005283" lon="7.5291067"><ele>401.8</ele><time>2026-05-03T12:22:29.237Z</time></trkpt><trkpt lat="45.2005717" lon="7.529215"><ele>402.6</ele><time>2026-05-03T12:22:30.236Z</time></trkpt><trkpt lat="45.2006117" lon="7.5293167"><ele>403.4</ele><time>2026-05-03T12:22:31.237Z</time></trkpt><trkpt lat="45.20065" lon="7.5294283"><ele>404.2</ele><time>2026-05-03T12:22:32.237Z</time></trkpt><trkpt lat="45.2006933" lon="7.5295483"><ele>405.0</ele><time>2026-05-03T12:22:33.237Z</time></trkpt><trkpt lat="45.2007483" lon="7.5296883"><ele>405.0</ele><time>2026-05-03T12:22:34.237Z</time></trkpt><trkpt lat="45.200805" lon="7.529835"><ele>405.0</ele><time>2026-05-03T12:22:35.237Z</time></trkpt><trkpt lat="45.2008567" lon="7.529985"><ele>405.0</ele><time>2026-05-03T12:22:36.237Z</time></trkpt><trkpt lat="45.2009067" lon="7.53013"><ele>405.0</ele><time>2026-05-03T12:22:37.237Z</time></trkpt><trkpt lat="45.2009483" lon="7.53028"><ele>404.75</ele><time>2026-05-03T12:22:38.237Z</time></trkpt><trkpt lat="45.2009967" lon="7.53043"><ele>404.5</ele><time>2026-05-03T12:22:39.237Z</time></trkpt><trkpt lat="45.2010433" lon="7.5305717"><ele>404.25</ele><time>2026-05-03T12:22:40.237Z</time></trkpt><trkpt lat="45.201095" lon="7.5307217"><ele>404.0</ele><time>2026-05-03T12:22:41.237Z</time></trkpt><trkpt lat="45.2011483" lon="7.530875"><ele>404.0</ele><time>2026-05-03T12:22:42.237Z</time></trkpt><trkpt lat="45.2012017" lon="7.5310233"><ele>404.0</ele><time>2026-05-03T12:22:43.237Z</time></trkpt><trkpt lat="45.2012483" lon="7.5311783"><ele>404.0</ele><time>2026-05-03T12:22:44.236Z</time></trkpt><trkpt lat="45.2012983" lon="7.5313333"><ele>404.0</ele><time>2026-05-03T12:22:45.237Z</time></trkpt><trkpt lat="45.201355" lon="7.5314767"><ele>404.0</ele><time>2026-05-03T12:22:46.237Z</time></trkpt><trkpt lat="45.2014133" lon="7.5316267"><ele>404.0</ele><time>2026-05-03T12:22:47.237Z</time></trkpt><trkpt lat="45.20147" lon="7.5317767"><ele>404.0</ele><time>2026-05-03T12:22:48.237Z</time></trkpt><trkpt lat="45.20153" lon="7.531935"><ele>404.0</ele><time>2026-05-03T12:22:49.237Z</time></trkpt><trkpt lat="45.2015833" lon="7.5320933"><ele>403.5</ele><time>2026-05-03T12:22:50.237Z</time></trkpt><trkpt lat="45.2016317" lon="7.5322517"><ele>403.0</ele><time>2026-05-03T12:22:51.237Z</time></trkpt><trkpt lat="45.2016917" lon="7.5324067"><ele>402.5</ele><time>2026-05-03T12:22:52.236Z</time></trkpt><trkpt lat="45.2017433" lon="7.5325717"><ele>402.0</ele><time>2026-05-03T12:22:53.237Z</time></trkpt><trkpt lat="45.2017917" lon="7.5327533"><ele>401.0</ele><time>2026-05-03T12:22:54.237Z</time></trkpt><trkpt lat="45.2018633" lon="7.5329317"><ele>400.0</ele><time>2026-05-03T12:22:55.237Z</time></trkpt><trkpt lat="45.201935" lon="7.53313"><ele>399.0</ele><time>2026-05-03T12:22:56.237Z</time></trkpt><trkpt lat="45.2020133" lon="7.5333233"><ele>399.0</ele><time>2026-05-03T12:22:57.237Z</time></trkpt><trkpt lat="45.2020817" lon="7.5335183"><ele>399.0</ele><time>2026-05-03T12:22:58.237Z</time></trkpt><trkpt lat="45.2021483" lon="7.5337167"><ele>399.0</ele><time>2026-05-03T12:22:59.237Z</time></trkpt><trkpt lat="45.2022117" lon="7.5339167"><ele>399.0</ele><time>2026-05-03T12:23:00.236Z</time></trkpt><trkpt lat="45.202265" lon="7.5341067"><ele>399.0</ele><time>2026-05-03T12:23:01.236Z</time></trkpt><trkpt lat="45.202325" lon="7.534285"><ele>399.0</ele><time>2026-05-03T12:23:02.237Z</time></trkpt><trkpt lat="45.2023767" lon="7.5344767"><ele>399.0</ele><time>2026-05-03T12:23:03.237Z</time></trkpt><trkpt lat="45.20242" lon="7.5346633"><ele>399.0</ele><time>2026-05-03T12:23:04.236Z</time></trkpt><trkpt lat="45.20247" lon="7.534845"><ele>399.0</ele><time>2026-05-03T12:23:05.237Z</time></trkpt><trkpt lat="45.20253" lon="7.53503"><ele>399.0</ele><time>2026-05-03T12:23:06.237Z</time></trkpt><trkpt lat="45.20258" lon="7.535225"><ele>399.0</ele><time>2026-05-03T12:23:07.237Z</time></trkpt><trkpt lat="45.2026433" lon="7.5354267"><ele>399.0</ele><time>2026-05-03T12:23:08.237Z</time></trkpt><trkpt lat="45.202695" lon="7.5356333"><ele>399.0</ele><time>2026-05-03T12:23:09.237Z</time></trkpt><trkpt lat="45.2027533" lon="7.535845"><ele>399.0</ele><time>2026-05-03T12:23:10.237Z</time></trkpt><trkpt lat="45.2028033" lon="7.536065"><ele>398.0</ele><time>2026-05-03T12:23:11.237Z</time></trkpt><trkpt lat="45.2028567" lon="7.5362833"><ele>397.0</ele><time>2026-05-03T12:23:12.237Z</time></trkpt><trkpt lat="45.20291" lon="7.5365033"><ele>396.0</ele><time>2026-05-03T12:23:13.237Z</time></trkpt><trkpt lat="45.2029633" lon="7.53673"><ele>396.0</ele><time>2026-05-03T12:23:14.237Z</time></trkpt><trkpt lat="45.2030133" lon="7.5369633"><ele>396.0</ele><time>2026-05-03T12:23:15.236Z</time></trkpt><trkpt lat="45.203075" lon="7.53719"><ele>396.0</ele><time>2026-05-03T12:23:16.237Z</time></trkpt><trkpt lat="45.2031367" lon="7.5374183"><ele>393.0</ele><time>2026-05-03T12:23:17.237Z</time></trkpt><trkpt lat="45.2031917" lon="7.5376467"><ele>390.0</ele><time>2026-05-03T12:23:18.237Z</time></trkpt><trkpt lat="45.2032517" lon="7.5378733"><ele>387.0</ele><time>2026-05-03T12:23:19.237Z</time></trkpt><trkpt lat="45.2033017" lon="7.5381033"><ele>387.0</ele><time>2026-05-03T12:23:20.237Z</time></trkpt><trkpt lat="45.2033417" lon="7.5383317"><ele>387.0</ele><time>2026-05-03T12:23:21.237Z</time></trkpt><trkpt lat="45.20338" lon="7.5385517"><ele>387.0</ele><time>2026-05-03T12:23:22.237Z</time></trkpt><trkpt lat="45.2034217" lon="7.5387683"><ele>387.33333333333337</ele><time>2026-05-03T12:23:23.237Z</time></trkpt><trkpt lat="45.2034633" lon="7.5389833"><ele>387.6666666666667</ele><time>2026-05-03T12:23:24.236Z</time></trkpt><trkpt lat="45.2035133" lon="7.5391983"><ele>388.0</ele><time>2026-05-03T12:23:25.237Z</time></trkpt><trkpt lat="45.203565" lon="7.539415"><ele>388.33333333333337</ele><time>2026-05-03T12:23:26.237Z</time></trkpt><trkpt lat="45.2036183" lon="7.53963"><ele>388.66666666666663</ele><time>2026-05-03T12:23:27.237Z</time></trkpt><trkpt lat="45.2036767" lon="7.5398417"><ele>389.0</ele><time>2026-05-03T12:23:28.237Z</time></trkpt><trkpt lat="45.2037317" lon="7.5400583"><ele>389.0</ele><time>2026-05-03T12:23:29.237Z</time></trkpt><trkpt lat="45.2037767" lon="7.5402717"><ele>389.0</ele><time>2026-05-03T12:23:30.237Z</time></trkpt><trkpt lat="45.2038267" lon="7.5404917"><ele>389.0</ele><time>2026-05-03T12:23:31.237Z</time></trkpt><trkpt lat="45.2038833" lon="7.5407183"><ele>389.66666666666663</ele><time>2026-05-03T12:23:32.237Z</time></trkpt><trkpt lat="45.2039383" lon="7.540945"><ele>390.33333333333337</ele><time>2026-05-03T12:23:33.237Z</time></trkpt><trkpt lat="45.2039917" lon="7.5411733"><ele>391.0</ele><time>2026-05-03T12:23:34.237Z</time></trkpt><trkpt lat="45.20404" lon="7.5414017"><ele>389.33333333333337</ele><time>2026-05-03T12:23:35.237Z</time></trkpt><trkpt lat="45.2041033" lon="7.541625"><ele>387.66666666666663</ele><time>2026-05-03T12:23:36.237Z</time></trkpt><trkpt lat="45.20416" lon="7.5418483"><ele>386.0</ele><time>2026-05-03T12:23:37.236Z</time></trkpt><trkpt lat="45.2042083" lon="7.542065"><ele>386.0</ele><time>2026-05-03T12:23:38.237Z</time></trkpt><trkpt lat="45.2042533" lon="7.5422817"><ele>386.0</ele><time>2026-05-03T12:23:39.237Z</time></trkpt><trkpt lat="45.2042967" lon="7.5424867"><ele>386.0</ele><time>2026-05-03T12:23:40.237Z</time></trkpt><trkpt lat="45.20434" lon="7.542685"><ele>386.0</ele><time>2026-05-03T12:23:41.237Z</time></trkpt><trkpt lat="45.2043833" lon="7.5428733"><ele>386.0</ele><time>2026-05-03T12:23:42.237Z</time></trkpt><trkpt lat="45.2044233" lon="7.543055"><ele>386.0</ele><time>2026-05-03T12:23:43.237Z</time></trkpt><trkpt lat="45.20446" lon="7.54324"><ele>386.0</ele><time>2026-05-03T12:23:44.237Z</time></trkpt><trkpt lat="45.2045017" lon="7.5434133"><ele>386.25</ele><time>2026-05-03T12:23:45.236Z</time></trkpt><trkpt lat="45.2045617" lon="7.5435783"><ele>386.5</ele><time>2026-05-03T12:23:46.237Z</time></trkpt><trkpt lat="45.204615" lon="7.543735"><ele>386.75</ele><time>2026-05-03T12:23:47.237Z</time></trkpt><trkpt lat="45.204685" lon="7.543895"><ele>387.0</ele><time>2026-05-03T12:23:48.237Z</time></trkpt><trkpt lat="45.2047633" lon="7.5440467"><ele>387.0</ele><time>2026-05-03T12:23:49.236Z</time></trkpt><trkpt lat="45.20484" lon="7.54421"><ele>387.0</ele><time>2026-05-03T12:23:50.237Z</time></trkpt><trkpt lat="45.204915" lon="7.544375"><ele>387.0</ele><time>2026-05-03T12:23:51.237Z</time></trkpt><trkpt lat="45.2049983" lon="7.5445317"><ele>387.0</ele><time>2026-05-03T12:23:52.237Z</time></trkpt><trkpt lat="45.2050783" lon="7.544695"><ele>387.0</ele><time>2026-05-03T12:23:53.237Z</time></trkpt><trkpt lat="45.2051633" lon="7.5448533"><ele>387.0</ele><time>2026-05-03T12:23:54.237Z</time></trkpt><trkpt lat="45.2052533" lon="7.54501"><ele>387.0</ele><time>2026-05-03T12:23:55.237Z</time></trkpt><trkpt lat="45.2053433" lon="7.5451717"><ele>387.0</ele><time>2026-05-03T12:23:56.237Z</time></trkpt><trkpt lat="45.20543" lon="7.5453333"><ele>387.33333333333337</ele><time>2026-05-03T12:23:57.236Z</time></trkpt><trkpt lat="45.2055167" lon="7.5455033"><ele>387.6666666666667</ele><time>2026-05-03T12:23:58.237Z</time></trkpt><trkpt lat="45.2056067" lon="7.54567"><ele>388.0</ele><time>2026-05-03T12:23:59.237Z</time></trkpt><trkpt lat="45.2056967" lon="7.54586"><ele>388.0</ele><time>2026-05-03T12:24:00.236Z</time></trkpt><trkpt lat="45.2057783" lon="7.54604"><ele>388.0</ele><time>2026-05-03T12:24:01.237Z</time></trkpt><trkpt lat="45.2058717" lon="7.54622"><ele>388.0</ele><time>2026-05-03T12:24:02.237Z</time></trkpt><trkpt lat="45.2059617" lon="7.54641"><ele>387.33333333333337</ele><time>2026-05-03T12:24:03.237Z</time></trkpt><trkpt lat="45.2060583" lon="7.5466067"><ele>386.66666666666663</ele><time>2026-05-03T12:24:04.237Z</time></trkpt><trkpt lat="45.2061483" lon="7.5468033"><ele>386.0</ele><time>2026-05-03T12:24:05.237Z</time></trkpt><trkpt lat="45.2062517" lon="7.5469983"><ele>386.0</ele><time>2026-05-03T12:24:06.237Z</time></trkpt><trkpt lat="45.206345" lon="7.547185"><ele>386.0</ele><time>2026-05-03T12:24:07.237Z</time></trkpt><trkpt lat="45.2064333" lon="7.547375"><ele>386.0</ele><time>2026-05-03T12:24:08.237Z</time></trkpt><trkpt lat="45.20652" lon="7.547555"><ele>386.0</ele><time>2026-05-03T12:24:09.237Z</time></trkpt><trkpt lat="45.206605" lon="7.5477317"><ele>386.0</ele><time>2026-05-03T12:24:10.237Z</time></trkpt><trkpt lat="45.2066833" lon="7.5478933"><ele>386.0</ele><time>2026-05-03T12:24:11.237Z</time></trkpt><trkpt lat="45.2067583" lon="7.54806"><ele>386.0</ele><time>2026-05-03T12:24:12.237Z</time></trkpt><trkpt lat="45.2068367" lon="7.5482167"><ele>386.5</ele><time>2026-05-03T12:24:13.237Z</time></trkpt><trkpt lat="45.2068983" lon="7.5483667"><ele>387.0</ele><time>2026-05-03T12:24:14.237Z</time></trkpt><trkpt lat="45.2069717" lon="7.5485033"><ele>387.5</ele><time>2026-05-03T12:24:15.237Z</time></trkpt><trkpt lat="45.2070483" lon="7.54863"><ele>388.0</ele><time>2026-05-03T12:24:16.237Z</time></trkpt><trkpt lat="45.2071233" lon="7.5487567"><ele>388.2</ele><time>2026-05-03T12:24:17.237Z</time></trkpt><trkpt lat="45.207195" lon="7.5488767"><ele>388.4</ele><time>2026-05-03T12:24:18.237Z</time></trkpt><trkpt lat="45.2072583" lon="7.5489917"><ele>388.59999999999997</ele><time>2026-05-03T12:24:19.237Z</time></trkpt><trkpt lat="45.2073267" lon="7.5491"><ele>388.79999999999995</ele><time>2026-05-03T12:24:20.237Z</time></trkpt><trkpt lat="45.2073817" lon="7.5492067"><ele>389.0</ele><time>2026-05-03T12:24:21.237Z</time></trkpt><trkpt lat="45.20743" lon="7.549305"><ele>388.49999999999994</ele><time>2026-05-03T12:24:22.237Z</time></trkpt><trkpt lat="45.2074717" lon="7.54939"><ele>388.0</ele><time>2026-05-03T12:24:23.237Z</time></trkpt><trkpt lat="45.2075167" lon="7.5495083"><ele>387.5</ele><time>2026-05-03T12:24:25.237Z</time></trkpt><trkpt lat="45.2075283" lon="7.5496083"><ele>387.0</ele><time>2026-05-03T12:24:28.237Z</time></trkpt><trkpt lat="45.207525" lon="7.5497333"><ele>386.49999999999994</ele><time>2026-05-03T12:24:30.236Z</time></trkpt><trkpt lat="45.2075367" lon="7.54983"><ele>386.0</ele><time>2026-05-03T12:24:31.237Z</time></trkpt><trkpt lat="45.2075617" lon="7.5499383"><ele>385.8333333333333</ele><time>2026-05-03T12:24:32.237Z</time></trkpt><trkpt lat="45.20761" lon="7.550015"><ele>385.66666666666663</ele><time>2026-05-03T12:24:33.237Z</time></trkpt><trkpt lat="45.20767" lon="7.5500733"><ele>385.5</ele><time>2026-05-03T12:24:34.237Z</time></trkpt><trkpt lat="45.2077433" lon="7.5501"><ele>385.33333333333337</ele><time>2026-05-03T12:24:35.237Z</time></trkpt><trkpt lat="45.207835" lon="7.55005"><ele>385.1666666666667</ele><time>2026-05-03T12:24:36.237Z</time></trkpt><trkpt lat="45.2079033" lon="7.5499483"><ele>385.0</ele><time>2026-05-03T12:24:37.237Z</time></trkpt><trkpt lat="45.207955" lon="7.549815"><ele>385.0</ele><time>2026-05-03T12:24:38.237Z</time></trkpt><trkpt lat="45.20799" lon="7.5496733"><ele>385.0</ele><time>2026-05-03T12:24:39.237Z</time></trkpt><trkpt lat="45.2080317" lon="7.5495283"><ele>385.0</ele><time>2026-05-03T12:24:40.237Z</time></trkpt><trkpt lat="45.2081033" lon="7.5494167"><ele>385.0</ele><time>2026-05-03T12:24:41.237Z</time></trkpt><trkpt lat="45.208195" lon="7.5493167"><ele>385.0</ele><time>2026-05-03T12:24:42.237Z</time></trkpt><trkpt lat="45.2083" lon="7.5492267"><ele>384.5</ele><time>2026-05-03T12:24:43.237Z</time></trkpt><trkpt lat="45.2084033" lon="7.549135"><ele>384.0</ele><time>2026-05-03T12:24:44.237Z</time></trkpt><trkpt lat="45.2085067" lon="7.549035"><ele>383.5</ele><time>2026-05-03T12:24:45.236Z</time></trkpt><trkpt lat="45.20861" lon="7.5489317"><ele>383.0</ele><time>2026-05-03T12:24:46.237Z</time></trkpt><trkpt lat="45.2087183" lon="7.548825"><ele>383.0</ele><time>2026-05-03T12:24:47.236Z</time></trkpt><trkpt lat="45.2088317" lon="7.5487183"><ele>383.0</ele><time>2026-05-03T12:24:48.237Z</time></trkpt><trkpt lat="45.2089483" lon="7.5486033"><ele>383.0</ele><time>2026-05-03T12:24:49.237Z</time></trkpt><trkpt lat="45.20907" lon="7.5484983"><ele>383.0</ele><time>2026-05-03T12:24:50.237Z</time></trkpt><trkpt lat="45.2091933" lon="7.548385"><ele>384.0</ele><time>2026-05-03T12:24:51.237Z</time></trkpt><trkpt lat="45.20932" lon="7.54827"><ele>385.0</ele><time>2026-05-03T12:24:52.237Z</time></trkpt><trkpt lat="45.2094467" lon="7.54815"><ele>386.0</ele><time>2026-05-03T12:24:53.237Z</time></trkpt><trkpt lat="45.2095767" lon="7.5480317"><ele>386.0</ele><time>2026-05-03T12:24:54.237Z</time></trkpt><trkpt lat="45.209705" lon="7.54792"><ele>386.0</ele><time>2026-05-03T12:24:55.237Z</time></trkpt><trkpt lat="45.2098367" lon="7.5477983"><ele>386.0</ele><time>2026-05-03T12:24:56.237Z</time></trkpt><trkpt lat="45.2099683" lon="7.5476717"><ele>386.66666666666663</ele><time>2026-05-03T12:24:57.237Z</time></trkpt><trkpt lat="45.2101033" lon="7.5475467"><ele>387.33333333333337</ele><time>2026-05-03T12:24:58.237Z</time></trkpt><trkpt lat="45.2102367" lon="7.54741"><ele>388.0</ele><time>2026-05-03T12:24:59.237Z</time></trkpt><trkpt lat="45.2103783" lon="7.54728"><ele>388.0</ele><time>2026-05-03T12:25:00.237Z</time></trkpt><trkpt lat="45.2105217" lon="7.5471417"><ele>388.0</ele><time>2026-05-03T12:25:01.237Z</time></trkpt><trkpt lat="45.2106717" lon="7.54701"><ele>388.0</ele><time>2026-05-03T12:25:02.237Z</time></trkpt><trkpt lat="45.2108217" lon="7.5468717"><ele>388.6666666666667</ele><time>2026-05-03T12:25:03.237Z</time></trkpt><trkpt lat="45.2109733" lon="7.5467367"><ele>389.33333333333337</ele><time>2026-05-03T12:25:04.237Z</time></trkpt><trkpt lat="45.2111267" lon="7.546595"><ele>390.0</ele><time>2026-05-03T12:25:05.237Z</time></trkpt><trkpt lat="45.21128" lon="7.54645"><ele>390.0</ele><time>2026-05-03T12:25:06.237Z</time></trkpt><trkpt lat="45.2114317" lon="7.5462983"><ele>390.0</ele><time>2026-05-03T12:25:07.237Z</time></trkpt><trkpt lat="45.211585" lon="7.546155"><ele>390.0</ele><time>2026-05-03T12:25:08.237Z</time></trkpt><trkpt lat="45.211735" lon="7.5460133"><ele>390.66666666666663</ele><time>2026-05-03T12:25:09.237Z</time></trkpt><trkpt lat="45.2118833" lon="7.5458717"><ele>391.3333333333333</ele><time>2026-05-03T12:25:10.237Z</time></trkpt><trkpt lat="45.2120367" lon="7.5457333"><ele>392.0</ele><time>2026-05-03T12:25:11.237Z</time></trkpt><trkpt lat="45.212185" lon="7.5455933"><ele>392.0</ele><time>2026-05-03T12:25:12.237Z</time></trkpt><trkpt lat="45.21233" lon="7.54546"><ele>392.0</ele><time>2026-05-03T12:25:13.237Z</time></trkpt><trkpt lat="45.2124833" lon="7.5453267"><ele>392.0</ele><time>2026-05-03T12:25:14.237Z</time></trkpt><trkpt lat="45.2126267" lon="7.5451933"><ele>392.3333333333333</ele><time>2026-05-03T12:25:15.237Z</time></trkpt><trkpt lat="45.2127583" lon="7.5450667"><ele>392.66666666666663</ele><time>2026-05-03T12:25:16.237Z</time></trkpt><trkpt lat="45.2128833" lon="7.5449417"><ele>393.0</ele><time>2026-05-03T12:25:17.237Z</time></trkpt><trkpt lat="45.212995" lon="7.5448233"><ele>393.0</ele><time>2026-05-03T12:25:18.237Z</time></trkpt><trkpt lat="45.2131033" lon="7.5447267"><ele>393.0</ele><time>2026-05-03T12:25:19.237Z</time></trkpt><trkpt lat="45.2132017" lon="7.5446517"><ele>393.0</ele><time>2026-05-03T12:25:20.237Z</time></trkpt><trkpt lat="45.2132967" lon="7.5445933"><ele>393.0</ele><time>2026-05-03T12:25:21.237Z</time></trkpt><trkpt lat="45.2133933" lon="7.5445567"><ele>393.0</ele><time>2026-05-03T12:25:22.237Z</time></trkpt><trkpt lat="45.2134833" lon="7.54451"><ele>393.25</ele><time>2026-05-03T12:25:23.237Z</time></trkpt><trkpt lat="45.2135717" lon="7.5444167"><ele>393.5</ele><time>2026-05-03T12:25:24.237Z</time></trkpt><trkpt lat="45.2136467" lon="7.5443"><ele>393.75</ele><time>2026-05-03T12:25:25.236Z</time></trkpt><trkpt lat="45.21373" lon="7.5441817"><ele>394.0</ele><time>2026-05-03T12:25:26.237Z</time></trkpt><trkpt lat="45.2138283" lon="7.5440617"><ele>394.0</ele><time>2026-05-03T12:25:27.237Z</time></trkpt><trkpt lat="45.2139367" lon="7.54393"><ele>394.0</ele><time>2026-05-03T12:25:28.237Z</time></trkpt><trkpt lat="45.2140483" lon="7.5437933"><ele>394.0</ele><time>2026-05-03T12:25:29.236Z</time></trkpt><trkpt lat="45.2141633" lon="7.5436583"><ele>394.0</ele><time>2026-05-03T12:25:30.237Z</time></trkpt><trkpt lat="45.21428" lon="7.5435117"><ele>394.33333333333337</ele><time>2026-05-03T12:25:31.237Z</time></trkpt><trkpt lat="45.2143983" lon="7.5433683"><ele>394.66666666666663</ele><time>2026-05-03T12:25:32.237Z</time></trkpt><trkpt lat="45.2145233" lon="7.5432217"><ele>395.0</ele><time>2026-05-03T12:25:33.237Z</time></trkpt><trkpt lat="45.21465" lon="7.543075"><ele>395.0</ele><time>2026-05-03T12:25:34.237Z</time></trkpt><trkpt lat="45.2147833" lon="7.5429183"><ele>395.0</ele><time>2026-05-03T12:25:35.237Z</time></trkpt><trkpt lat="45.2149167" lon="7.5427617"><ele>395.0</ele><time>2026-05-03T12:25:36.237Z</time></trkpt><trkpt lat="45.2150517" lon="7.5426017"><ele>395.66666666666663</ele><time>2026-05-03T12:25:37.237Z</time></trkpt><trkpt lat="45.2151883" lon="7.5424383"><ele>396.33333333333337</ele><time>2026-05-03T12:25:38.237Z</time></trkpt><trkpt lat="45.2153233" lon="7.5422733"><ele>397.0</ele><time>2026-05-03T12:25:39.236Z</time></trkpt><trkpt lat="45.2154583" lon="7.542115"><ele>397.0</ele><time>2026-05-03T12:25:40.237Z</time></trkpt><trkpt lat="45.2155967" lon="7.5419433"><ele>397.0</ele><time>2026-05-03T12:25:41.237Z</time></trkpt><trkpt lat="45.2157333" lon="7.5417783"><ele>397.0</ele><time>2026-05-03T12:25:42.237Z</time></trkpt><trkpt lat="45.215875" lon="7.5416083"><ele>397.0</ele><time>2026-05-03T12:25:43.237Z</time></trkpt><trkpt lat="45.2160167" lon="7.54144"><ele>397.0</ele><time>2026-05-03T12:25:44.237Z</time></trkpt><trkpt lat="45.2161567" lon="7.5412667"><ele>397.0</ele><time>2026-05-03T12:25:45.237Z</time></trkpt><trkpt lat="45.2162983" lon="7.5410883"><ele>397.0</ele><time>2026-05-03T12:25:46.237Z</time></trkpt><trkpt lat="45.2164417" lon="7.5409117"><ele>397.0</ele><time>2026-05-03T12:25:47.237Z</time></trkpt><trkpt lat="45.216585" lon="7.5407367"><ele>397.0</ele><time>2026-05-03T12:25:48.237Z</time></trkpt><trkpt lat="45.21673" lon="7.5405633"><ele>398.0</ele><time>2026-05-03T12:25:49.237Z</time></trkpt><trkpt lat="45.216875" lon="7.5403917"><ele>399.0</ele><time>2026-05-03T12:25:50.237Z</time></trkpt><trkpt lat="45.2170233" lon="7.5402217"><ele>400.0</ele><time>2026-05-03T12:25:51.237Z</time></trkpt><trkpt lat="45.21717" lon="7.5400467"><ele>400.0</ele><time>2026-05-03T12:25:52.237Z</time></trkpt><trkpt lat="45.2173183" lon="7.5398733"><ele>400.0</ele><time>2026-05-03T12:25:53.237Z</time></trkpt><trkpt lat="45.2174633" lon="7.5396983"><ele>400.0</ele><time>2026-05-03T12:25:54.236Z</time></trkpt><trkpt lat="45.2176083" lon="7.5395183"><ele>400.33333333333337</ele><time>2026-05-03T12:25:55.237Z</time></trkpt><trkpt lat="45.2177533" lon="7.5393433"><ele>400.66666666666663</ele><time>2026-05-03T12:25:56.236Z</time></trkpt><trkpt lat="45.2179017" lon="7.53917"><ele>401.0</ele><time>2026-05-03T12:25:57.237Z</time></trkpt><trkpt lat="45.2180483" lon="7.5389933"><ele>402.0</ele><time>2026-05-03T12:25:58.237Z</time></trkpt><trkpt lat="45.2181983" lon="7.5388183"><ele>403.0</ele><time>2026-05-03T12:25:59.237Z</time></trkpt><trkpt lat="45.2183467" lon="7.5386417"><ele>404.0</ele><time>2026-05-03T12:26:00.237Z</time></trkpt><trkpt lat="45.2184967" lon="7.538465"><ele>404.0</ele><time>2026-05-03T12:26:01.237Z</time></trkpt><trkpt lat="45.2186517" lon="7.5382833"><ele>404.0</ele><time>2026-05-03T12:26:02.237Z</time></trkpt><trkpt lat="45.2188" lon="7.5381"><ele>404.0</ele><time>2026-05-03T12:26:03.237Z</time></trkpt><trkpt lat="45.218945" lon="7.5379217"><ele>404.0</ele><time>2026-05-03T12:26:04.237Z</time></trkpt><trkpt lat="45.2190967" lon="7.5377467"><ele>404.0</ele><time>2026-05-03T12:26:05.237Z</time></trkpt><trkpt lat="45.2192433" lon="7.5375583"><ele>404.0</ele><time>2026-05-03T12:26:06.237Z</time></trkpt><trkpt lat="45.21939" lon="7.537375"><ele>404.0</ele><time>2026-05-03T12:26:07.237Z</time></trkpt><trkpt lat="45.21954" lon="7.53719"><ele>404.0</ele><time>2026-05-03T12:26:08.237Z</time></trkpt><trkpt lat="45.21969" lon="7.5370133"><ele>404.0</ele><time>2026-05-03T12:26:09.237Z</time></trkpt><trkpt lat="45.2198417" lon="7.5368333"><ele>404.66666666666663</ele><time>2026-05-03T12:26:10.237Z</time></trkpt><trkpt lat="45.2199933" lon="7.5366467"><ele>405.33333333333337</ele><time>2026-05-03T12:26:11.237Z</time></trkpt><trkpt lat="45.2201417" lon="7.5364667"><ele>406.0</ele><time>2026-05-03T12:26:12.236Z</time></trkpt><trkpt lat="45.2202933" lon="7.5362883"><ele>406.6666666666667</ele><time>2026-05-03T12:26:13.237Z</time></trkpt><trkpt lat="45.2204417" lon="7.5361067"><ele>407.33333333333337</ele><time>2026-05-03T12:26:14.236Z</time></trkpt><trkpt lat="45.22059" lon="7.5359267"><ele>408.0</ele><time>2026-05-03T12:26:15.237Z</time></trkpt><trkpt lat="45.2207433" lon="7.535745"><ele>408.0</ele><time>2026-05-03T12:26:16.237Z</time></trkpt><trkpt lat="45.220895" lon="7.5355567"><ele>408.0</ele><time>2026-05-03T12:26:17.237Z</time></trkpt><trkpt lat="45.2210517" lon="7.5353717"><ele>408.0</ele><time>2026-05-03T12:26:18.237Z</time></trkpt><trkpt lat="45.2212067" lon="7.535185"><ele>408.0</ele><time>2026-05-03T12:26:19.237Z</time></trkpt><trkpt lat="45.2213683" lon="7.5349967"><ele>408.0</ele><time>2026-05-03T12:26:20.236Z</time></trkpt><trkpt lat="45.221525" lon="7.5348033"><ele>408.0</ele><time>2026-05-03T12:26:21.237Z</time></trkpt><trkpt lat="45.2216883" lon="7.5346133"><ele>408.33333333333337</ele><time>2026-05-03T12:26:22.237Z</time></trkpt><trkpt lat="45.2218483" lon="7.5344183"><ele>408.6666666666667</ele><time>2026-05-03T12:26:23.237Z</time></trkpt><trkpt lat="45.2220167" lon="7.5342333"><ele>409.0</ele><time>2026-05-03T12:26:24.237Z</time></trkpt><trkpt lat="45.222175" lon="7.5340367"><ele>409.33333333333337</ele><time>2026-05-03T12:26:25.236Z</time></trkpt><trkpt lat="45.222335" lon="7.5338383"><ele>409.66666666666663</ele><time>2026-05-03T12:26:26.236Z</time></trkpt><trkpt lat="45.222495" lon="7.5336467"><ele>410.0</ele><time>2026-05-03T12:26:27.237Z</time></trkpt><trkpt lat="45.2226517" lon="7.5334483"><ele>411.0</ele><time>2026-05-03T12:26:28.237Z</time></trkpt><trkpt lat="45.2228083" lon="7.5332567"><ele>412.0</ele><time>2026-05-03T12:26:29.237Z</time></trkpt><trkpt lat="45.222965" lon="7.5330717"><ele>413.0</ele><time>2026-05-03T12:26:30.237Z</time></trkpt><trkpt lat="45.2231267" lon="7.5328917"><ele>413.0</ele><time>2026-05-03T12:26:31.237Z</time></trkpt><trkpt lat="45.2232917" lon="7.5327167"><ele>413.0</ele><time>2026-05-03T12:26:32.237Z</time></trkpt><trkpt lat="45.2234567" lon="7.5325367"><ele>413.0</ele><time>2026-05-03T12:26:33.237Z</time></trkpt><trkpt lat="45.2236283" lon="7.5323617"><ele>413.0</ele><time>2026-05-03T12:26:34.236Z</time></trkpt><trkpt lat="45.2237967" lon="7.5321783"><ele>413.0</ele><time>2026-05-03T12:26:35.236Z</time></trkpt><trkpt lat="45.2239633" lon="7.53199"><ele>413.0</ele><time>2026-05-03T12:26:36.237Z</time></trkpt><trkpt lat="45.224135" lon="7.5318133"><ele>414.0</ele><time>2026-05-03T12:26:37.236Z</time></trkpt><trkpt lat="45.22431" lon="7.53164"><ele>415.0</ele><time>2026-05-03T12:26:38.237Z</time></trkpt><trkpt lat="45.2244817" lon="7.5314717"><ele>416.0</ele><time>2026-05-03T12:26:39.237Z</time></trkpt><trkpt lat="45.2246583" lon="7.5313083"><ele>416.0</ele><time>2026-05-03T12:26:40.237Z</time></trkpt><trkpt lat="45.2248333" lon="7.5311533"><ele>416.0</ele><time>2026-05-03T12:26:41.237Z</time></trkpt><trkpt lat="45.2249983" lon="7.5310117"><ele>416.0</ele><time>2026-05-03T12:26:42.237Z</time></trkpt><trkpt lat="45.22515" lon="7.5308717"><ele>416.0</ele><time>2026-05-03T12:26:43.237Z</time></trkpt><trkpt lat="45.2252967" lon="7.530765"><ele>416.0</ele><time>2026-05-03T12:26:44.237Z</time></trkpt><trkpt lat="45.22543" lon="7.5306617"><ele>416.0</ele><time>2026-05-03T12:26:45.237Z</time></trkpt><trkpt lat="45.22555" lon="7.5305683"><ele>415.8</ele><time>2026-05-03T12:26:46.237Z</time></trkpt><trkpt lat="45.2256633" lon="7.5304917"><ele>415.6</ele><time>2026-05-03T12:26:47.237Z</time></trkpt><trkpt lat="45.22576" lon="7.5304183"><ele>415.4</ele><time>2026-05-03T12:26:48.237Z</time></trkpt><trkpt lat="45.22585" lon="7.530345"><ele>415.2</ele><time>2026-05-03T12:26:49.237Z</time></trkpt><trkpt lat="45.22593" lon="7.5302767"><ele>415.0</ele><time>2026-05-03T12:26:50.237Z</time></trkpt><trkpt lat="45.2260133" lon="7.53021"><ele>415.4</ele><time>2026-05-03T12:26:51.237Z</time></trkpt><trkpt lat="45.2260983" lon="7.5301417"><ele>415.8</ele><time>2026-05-03T12:26:52.237Z</time></trkpt><trkpt lat="45.2261883" lon="7.5300767"><ele>416.20000000000005</ele><time>2026-05-03T12:26:53.237Z</time></trkpt><trkpt lat="45.2262767" lon="7.53001"><ele>416.6</ele><time>2026-05-03T12:26:54.237Z</time></trkpt><trkpt lat="45.22636" lon="7.5299483"><ele>417.0</ele><time>2026-05-03T12:26:55.237Z</time></trkpt><trkpt lat="45.2264517" lon="7.5298733"><ele>417.0</ele><time>2026-05-03T12:26:56.237Z</time></trkpt><trkpt lat="45.2265583" lon="7.5297867"><ele>417.0</ele><time>2026-05-03T12:26:57.237Z</time></trkpt><trkpt lat="45.2266767" lon="7.5296967"><ele>417.0</ele><time>2026-05-03T12:26:58.237Z</time></trkpt><trkpt lat="45.2268033" lon="7.52961"><ele>417.0</ele><time>2026-05-03T12:26:59.237Z</time></trkpt><trkpt lat="45.2269383" lon="7.5295133"><ele>417.0</ele><time>2026-05-03T12:27:00.237Z</time></trkpt><trkpt lat="45.2270683" lon="7.5294167"><ele>417.0</ele><time>2026-05-03T12:27:01.237Z</time></trkpt><trkpt lat="45.2271933" lon="7.52932"><ele>417.0</ele><time>2026-05-03T12:27:02.237Z</time></trkpt><trkpt lat="45.22732" lon="7.5292233"><ele>417.0</ele><time>2026-05-03T12:27:03.237Z</time></trkpt><trkpt lat="45.2274467" lon="7.5291217"><ele>416.75</ele><time>2026-05-03T12:27:04.237Z</time></trkpt><trkpt lat="45.22757" lon="7.5290183"><ele>416.5</ele><time>2026-05-03T12:27:05.237Z</time></trkpt><trkpt lat="45.22769" lon="7.5289217"><ele>416.25</ele><time>2026-05-03T12:27:06.237Z</time></trkpt><trkpt lat="45.22781" lon="7.5288217"><ele>416.0</ele><time>2026-05-03T12:27:07.237Z</time></trkpt><trkpt lat="45.2279383" lon="7.528735"><ele>416.5</ele><time>2026-05-03T12:27:08.237Z</time></trkpt><trkpt lat="45.2280633" lon="7.5286433"><ele>417.0</ele><time>2026-05-03T12:27:09.237Z</time></trkpt><trkpt lat="45.2281817" lon="7.5285483"><ele>417.5</ele><time>2026-05-03T12:27:10.237Z</time></trkpt><trkpt lat="45.2283017" lon="7.5284567"><ele>418.0</ele><time>2026-05-03T12:27:11.237Z</time></trkpt><trkpt lat="45.228425" lon="7.5283667"><ele>418.5</ele><time>2026-05-03T12:27:12.236Z</time></trkpt><trkpt lat="45.2285467" lon="7.528275"><ele>419.0</ele><time>2026-05-03T12:27:13.237Z</time></trkpt><trkpt lat="45.2286733" lon="7.5281867"><ele>419.5</ele><time>2026-05-03T12:27:14.237Z</time></trkpt><trkpt lat="45.2287917" lon="7.528085"><ele>420.0</ele><time>2026-05-03T12:27:15.237Z</time></trkpt><trkpt lat="45.2289083" lon="7.5279917"><ele>419.5</ele><time>2026-05-03T12:27:16.236Z</time></trkpt><trkpt lat="45.2290233" lon="7.5278983"><ele>419.0</ele><time>2026-05-03T12:27:17.236Z</time></trkpt><trkpt lat="45.229135" lon="7.5277983"><ele>418.5</ele><time>2026-05-03T12:27:18.237Z</time></trkpt><trkpt lat="45.2292483" lon="7.527695"><ele>418.0</ele><time>2026-05-03T12:27:19.237Z</time></trkpt><trkpt lat="45.2293633" lon="7.527595"><ele>418.0</ele><time>2026-05-03T12:27:20.237Z</time></trkpt><trkpt lat="45.2294833" lon="7.5275017"><ele>418.0</ele><time>2026-05-03T12:27:21.237Z</time></trkpt><trkpt lat="45.2295983" lon="7.5273967"><ele>418.0</ele><time>2026-05-03T12:27:22.237Z</time></trkpt><trkpt lat="45.22972" lon="7.527295"><ele>418.0</ele><time>2026-05-03T12:27:23.236Z</time></trkpt><trkpt lat="45.2298417" lon="7.5271883"><ele>419.6666666666667</ele><time>2026-05-03T12:27:24.237Z</time></trkpt><trkpt lat="45.2299683" lon="7.5270817"><ele>421.33333333333337</ele><time>2026-05-03T12:27:25.237Z</time></trkpt><trkpt lat="45.230105" lon="7.5269717"><ele>423.0</ele><time>2026-05-03T12:27:26.237Z</time></trkpt><trkpt lat="45.2302433" lon="7.5268567"><ele>423.0</ele><time>2026-05-03T12:27:27.237Z</time></trkpt><trkpt lat="45.230375" lon="7.5267433"><ele>423.0</ele><time>2026-05-03T12:27:28.237Z</time></trkpt><trkpt lat="45.2305067" lon="7.526635"><ele>423.0</ele><time>2026-05-03T12:27:29.237Z</time></trkpt><trkpt lat="45.23063" lon="7.5265317"><ele>423.0</ele><time>2026-05-03T12:27:30.237Z</time></trkpt><trkpt lat="45.2307517" lon="7.5264317"><ele>424.0</ele><time>2026-05-03T12:27:31.237Z</time></trkpt><trkpt lat="45.2308733" lon="7.52634"><ele>425.0</ele><time>2026-05-03T12:27:32.236Z</time></trkpt><trkpt lat="45.2309917" lon="7.5262517"><ele>426.0</ele><time>2026-05-03T12:27:33.237Z</time></trkpt><trkpt lat="45.23111" lon="7.526165"><ele>427.0</ele><time>2026-05-03T12:27:34.237Z</time></trkpt><trkpt lat="45.2312333" lon="7.5260667"><ele>427.0</ele><time>2026-05-03T12:27:35.237Z</time></trkpt><trkpt lat="45.23136" lon="7.5259833"><ele>427.0</ele><time>2026-05-03T12:27:36.237Z</time></trkpt><trkpt lat="45.2314817" lon="7.5258883"><ele>427.0</ele><time>2026-05-03T12:27:37.237Z</time></trkpt><trkpt lat="45.2316083" lon="7.52579"><ele>427.0</ele><time>2026-05-03T12:27:38.237Z</time></trkpt><trkpt lat="45.2317367" lon="7.52569"><ele>427.0</ele><time>2026-05-03T12:27:39.237Z</time></trkpt><trkpt lat="45.23187" lon="7.5255833"><ele>427.0</ele><time>2026-05-03T12:27:40.237Z</time></trkpt><trkpt lat="45.2320033" lon="7.52548"><ele>427.0</ele><time>2026-05-03T12:27:41.237Z</time></trkpt><trkpt lat="45.2321417" lon="7.5253683"><ele>427.0</ele><time>2026-05-03T12:27:42.237Z</time></trkpt><trkpt lat="45.2322833" lon="7.5252567"><ele>427.0</ele><time>2026-05-03T12:27:43.237Z</time></trkpt><trkpt lat="45.2324233" lon="7.5251433"><ele>427.0</ele><time>2026-05-03T12:27:44.237Z</time></trkpt><trkpt lat="45.2325683" lon="7.5250267"><ele>423.0</ele><time>2026-05-03T12:27:45.237Z</time></trkpt><trkpt lat="45.2327133" lon="7.52491"><ele>419.0</ele><time>2026-05-03T12:27:46.237Z</time></trkpt><trkpt lat="45.232855" lon="7.5247883"><ele>415.0</ele><time>2026-05-03T12:27:47.237Z</time></trkpt><trkpt lat="45.2329983" lon="7.524675"><ele>415.33333333333337</ele><time>2026-05-03T12:27:48.236Z</time></trkpt><trkpt lat="45.2331367" lon="7.5245567"><ele>415.66666666666663</ele><time>2026-05-03T12:27:49.237Z</time></trkpt><trkpt lat="45.2332717" lon="7.5244333"><ele>416.0</ele><time>2026-05-03T12:27:50.237Z</time></trkpt><trkpt lat="45.23341" lon="7.5243183"><ele>416.0</ele><time>2026-05-03T12:27:51.236Z</time></trkpt><trkpt lat="45.23355" lon="7.524205"><ele>416.0</ele><time>2026-05-03T12:27:52.237Z</time></trkpt><trkpt lat="45.2336933" lon="7.5240867"><ele>416.0</ele><time>2026-05-03T12:27:53.237Z</time></trkpt><trkpt lat="45.23384" lon="7.523965"><ele>418.3333333333333</ele><time>2026-05-03T12:27:54.237Z</time></trkpt><trkpt lat="45.2339833" lon="7.523845"><ele>420.66666666666663</ele><time>2026-05-03T12:27:55.237Z</time></trkpt><trkpt lat="45.2341333" lon="7.52372"><ele>423.0</ele><time>2026-05-03T12:27:56.237Z</time></trkpt><trkpt lat="45.2342783" lon="7.5235983"><ele>423.0</ele><time>2026-05-03T12:27:57.236Z</time></trkpt><trkpt lat="45.2344183" lon="7.5234733"><ele>423.0</ele><time>2026-05-03T12:27:58.237Z</time></trkpt><trkpt lat="45.2345567" lon="7.5233567"><ele>423.0</ele><time>2026-05-03T12:27:59.237Z</time></trkpt><trkpt lat="45.2346917" lon="7.523245"><ele>418.66666666666663</ele><time>2026-05-03T12:28:00.237Z</time></trkpt><trkpt lat="45.2348283" lon="7.523135"><ele>414.3333333333333</ele><time>2026-05-03T12:28:01.236Z</time></trkpt><trkpt lat="45.234965" lon="7.5230183"><ele>410.0</ele><time>2026-05-03T12:28:02.237Z</time></trkpt><trkpt lat="45.2351117" lon="7.5229033"><ele>415.3333333333333</ele><time>2026-05-03T12:28:03.237Z</time></trkpt><trkpt lat="45.2352583" lon="7.5227767"><ele>420.66666666666663</ele><time>2026-05-03T12:28:04.237Z</time></trkpt><trkpt lat="45.2354083" lon="7.5226567"><ele>426.0</ele><time>2026-05-03T12:28:05.237Z</time></trkpt><trkpt lat="45.2355567" lon="7.52253"><ele>421.0</ele><time>2026-05-03T12:28:06.237Z</time></trkpt><trkpt lat="45.2357067" lon="7.5224017"><ele>416.0</ele><time>2026-05-03T12:28:07.237Z</time></trkpt><trkpt lat="45.2358583" lon="7.5222867"><ele>411.0</ele><time>2026-05-03T12:28:08.237Z</time></trkpt><trkpt lat="45.2359983" lon="7.5221633"><ele>417.0</ele><time>2026-05-03T12:28:09.237Z</time></trkpt><trkpt lat="45.23614" lon="7.52204"><ele>423.0</ele><time>2026-05-03T12:28:10.237Z</time></trkpt><trkpt lat="45.2362817" lon="7.5219233"><ele>429.0</ele><time>2026-05-03T12:28:11.237Z</time></trkpt><trkpt lat="45.236425" lon="7.5218067"><ele>425.0</ele><time>2026-05-03T12:28:12.237Z</time></trkpt><trkpt lat="45.2365683" lon="7.5216833"><ele>421.0</ele><time>2026-05-03T12:28:13.237Z</time></trkpt><trkpt lat="45.2367133" lon="7.5215583"><ele>417.0</ele><time>2026-05-03T12:28:14.237Z</time></trkpt><trkpt lat="45.2368583" lon="7.5214417"><ele>417.0</ele><time>2026-05-03T12:28:15.237Z</time></trkpt><trkpt lat="45.2370083" lon="7.5213233"><ele>417.0</ele><time>2026-05-03T12:28:16.237Z</time></trkpt><trkpt lat="45.2371533" lon="7.5211983"><ele>417.0</ele><time>2026-05-03T12:28:17.237Z</time></trkpt><trkpt lat="45.237295" lon="7.52108"><ele>416.66666666666663</ele><time>2026-05-03T12:28:18.237Z</time></trkpt><trkpt lat="45.2374317" lon="7.5209683"><ele>416.3333333333333</ele><time>2026-05-03T12:28:19.237Z</time></trkpt><trkpt lat="45.2375633" lon="7.520845"><ele>416.0</ele><time>2026-05-03T12:28:20.237Z</time></trkpt><trkpt lat="45.2376917" lon="7.5207283"><ele>416.0</ele><time>2026-05-03T12:28:21.236Z</time></trkpt><trkpt lat="45.2378217" lon="7.520615"><ele>416.0</ele><time>2026-05-03T12:28:22.237Z</time></trkpt><trkpt lat="45.2379517" lon="7.5205067"><ele>416.0</ele><time>2026-05-03T12:28:23.237Z</time></trkpt><trkpt lat="45.2380867" lon="7.5204033"><ele>416.3333333333333</ele><time>2026-05-03T12:28:24.237Z</time></trkpt><trkpt lat="45.2382233" lon="7.5202933"><ele>416.66666666666663</ele><time>2026-05-03T12:28:25.237Z</time></trkpt><trkpt lat="45.2383567" lon="7.5201833"><ele>417.0</ele><time>2026-05-03T12:28:26.237Z</time></trkpt><trkpt lat="45.2384917" lon="7.5200667"><ele>417.0</ele><time>2026-05-03T12:28:27.237Z</time></trkpt><trkpt lat="45.2386283" lon="7.519955"><ele>417.0</ele><time>2026-05-03T12:28:28.236Z</time></trkpt><trkpt lat="45.2387633" lon="7.5198417"><ele>417.0</ele><time>2026-05-03T12:28:29.237Z</time></trkpt><trkpt lat="45.2388933" lon="7.5197267"><ele>417.33333333333337</ele><time>2026-05-03T12:28:30.236Z</time></trkpt><trkpt lat="45.239025" lon="7.5196133"><ele>417.6666666666667</ele><time>2026-05-03T12:28:31.237Z</time></trkpt><trkpt lat="45.2391583" lon="7.5195017"><ele>418.0</ele><time>2026-05-03T12:28:32.237Z</time></trkpt><trkpt lat="45.2392883" lon="7.519385"><ele>418.0</ele><time>2026-05-03T12:28:33.237Z</time></trkpt><trkpt lat="45.2394233" lon="7.5192767"><ele>418.0</ele><time>2026-05-03T12:28:34.237Z</time></trkpt><trkpt lat="45.2395467" lon="7.5191767"><ele>418.0</ele><time>2026-05-03T12:28:35.237Z</time></trkpt><trkpt lat="45.2396617" lon="7.519075"><ele>418.0</ele><time>2026-05-03T12:28:36.237Z</time></trkpt><trkpt lat="45.2397767" lon="7.5189783"><ele>417.75</ele><time>2026-05-03T12:28:37.236Z</time></trkpt><trkpt lat="45.239885" lon="7.518885"><ele>417.5</ele><time>2026-05-03T12:28:38.237Z</time></trkpt><trkpt lat="45.2399933" lon="7.51879"><ele>417.25</ele><time>2026-05-03T12:28:39.237Z</time></trkpt><trkpt lat="45.2401033" lon="7.5187017"><ele>417.0</ele><time>2026-05-03T12:28:40.237Z</time></trkpt><trkpt lat="45.2402167" lon="7.5186067"><ele>417.0</ele><time>2026-05-03T12:28:41.237Z</time></trkpt><trkpt lat="45.2403317" lon="7.5185083"><ele>417.0</ele><time>2026-05-03T12:28:42.237Z</time></trkpt><trkpt lat="45.2404483" lon="7.5184"><ele>417.0</ele><time>2026-05-03T12:28:43.237Z</time></trkpt><trkpt lat="45.2405667" lon="7.5182917"><ele>417.0</ele><time>2026-05-03T12:28:44.237Z</time></trkpt><trkpt lat="45.2406883" lon="7.51819"><ele>417.0</ele><time>2026-05-03T12:28:45.237Z</time></trkpt><trkpt lat="45.2408067" lon="7.5180867"><ele>417.0</ele><time>2026-05-03T12:28:46.237Z</time></trkpt><trkpt lat="45.2409267" lon="7.5179883"><ele>417.0</ele><time>2026-05-03T12:28:47.237Z</time></trkpt><trkpt lat="45.2410433" lon="7.5178883"><ele>417.0</ele><time>2026-05-03T12:28:48.237Z</time></trkpt><trkpt lat="45.24116" lon="7.5177883"><ele>417.0</ele><time>2026-05-03T12:28:49.237Z</time></trkpt><trkpt lat="45.2412783" lon="7.5176983"><ele>417.0</ele><time>2026-05-03T12:28:50.237Z</time></trkpt><trkpt lat="45.2413983" lon="7.5175983"><ele>417.0</ele><time>2026-05-03T12:28:51.237Z</time></trkpt><trkpt lat="45.2415183" lon="7.5174967"><ele>417.0</ele><time>2026-05-03T12:28:52.237Z</time></trkpt><trkpt lat="45.2416383" lon="7.5174"><ele>417.5</ele><time>2026-05-03T12:28:53.237Z</time></trkpt><trkpt lat="45.2417583" lon="7.5173033"><ele>418.0</ele><time>2026-05-03T12:28:54.237Z</time></trkpt><trkpt lat="45.2418767" lon="7.517205"><ele>418.5</ele><time>2026-05-03T12:28:55.236Z</time></trkpt><trkpt lat="45.241995" lon="7.5171117"><ele>419.0</ele><time>2026-05-03T12:28:56.237Z</time></trkpt><trkpt lat="45.24212" lon="7.5170183"><ele>419.0</ele><time>2026-05-03T12:28:57.236Z</time></trkpt><trkpt lat="45.2422367" lon="7.5169267"><ele>419.0</ele><time>2026-05-03T12:28:58.237Z</time></trkpt><trkpt lat="45.2423517" lon="7.5168383"><ele>419.0</ele><time>2026-05-03T12:28:59.237Z</time></trkpt><trkpt lat="45.2424567" lon="7.5167533"><ele>419.0</ele><time>2026-05-03T12:29:00.237Z</time></trkpt><trkpt lat="45.242555" lon="7.5166767"><ele>418.4</ele><time>2026-05-03T12:29:01.237Z</time></trkpt><trkpt lat="45.2426483" lon="7.5166067"><ele>417.79999999999995</ele><time>2026-05-03T12:29:02.237Z</time></trkpt><trkpt lat="45.2427383" lon="7.51654"><ele>417.20000000000005</ele><time>2026-05-03T12:29:03.237Z</time></trkpt><trkpt lat="45.242825" lon="7.51648"><ele>416.6</ele><time>2026-05-03T12:29:04.237Z</time></trkpt><trkpt lat="45.2429167" lon="7.5164083"><ele>416.0</ele><time>2026-05-03T12:29:05.237Z</time></trkpt><trkpt lat="45.2430033" lon="7.5163317"><ele>416.0</ele><time>2026-05-03T12:29:06.237Z</time></trkpt><trkpt lat="45.2430917" lon="7.5162633"><ele>416.0</ele><time>2026-05-03T12:29:07.237Z</time></trkpt><trkpt lat="45.2431767" lon="7.516195"><ele>416.0</ele><time>2026-05-03T12:29:08.237Z</time></trkpt><trkpt lat="45.24326" lon="7.5161317"><ele>416.0</ele><time>2026-05-03T12:29:09.236Z</time></trkpt><trkpt lat="45.2433467" lon="7.51609"><ele>416.0</ele><time>2026-05-03T12:29:10.237Z</time></trkpt><trkpt lat="45.2434333" lon="7.5160733"><ele>415.99999999999994</ele><time>2026-05-03T12:29:11.236Z</time></trkpt><trkpt lat="45.2435183" lon="7.5160683"><ele>416.0</ele><time>2026-05-03T12:29:12.237Z</time></trkpt><trkpt lat="45.2435933" lon="7.516035"><ele>416.0</ele><time>2026-05-03T12:29:13.237Z</time></trkpt><trkpt lat="45.2436583" lon="7.5159633"><ele>416.0</ele><time>2026-05-03T12:29:14.237Z</time></trkpt><trkpt lat="45.2437117" lon="7.5158617"><ele>415.99999999999994</ele><time>2026-05-03T12:29:15.237Z</time></trkpt><trkpt lat="45.2437683" lon="7.5157567"><ele>416.0</ele><time>2026-05-03T12:29:16.237Z</time></trkpt><trkpt lat="45.2438383" lon="7.5156667"><ele>416.0</ele><time>2026-05-03T12:29:17.237Z</time></trkpt><trkpt lat="45.2439217" lon="7.51559"><ele>416.0</ele><time>2026-05-03T12:29:18.237Z</time></trkpt><trkpt lat="45.24401" lon="7.5155167"><ele>416.0</ele><time>2026-05-03T12:29:19.237Z</time></trkpt><trkpt lat="45.2441067" lon="7.515435"><ele>416.0</ele><time>2026-05-03T12:29:20.237Z</time></trkpt><trkpt lat="45.2442033" lon="7.51536"><ele>416.0</ele><time>2026-05-03T12:29:21.237Z</time></trkpt><trkpt lat="45.24429" lon="7.515275"><ele>417.5</ele><time>2026-05-03T12:29:22.237Z</time></trkpt><trkpt lat="45.2443833" lon="7.5152"><ele>419.0</ele><time>2026-05-03T12:29:23.237Z</time></trkpt><trkpt lat="45.2444817" lon="7.5151117"><ele>420.5</ele><time>2026-05-03T12:29:24.237Z</time></trkpt><trkpt lat="45.2445817" lon="7.5150083"><ele>422.0</ele><time>2026-05-03T12:29:25.237Z</time></trkpt><trkpt lat="45.2446933" lon="7.5148983"><ele>421.3333333333333</ele><time>2026-05-03T12:29:26.237Z</time></trkpt><trkpt lat="45.2448117" lon="7.51478"><ele>420.66666666666663</ele><time>2026-05-03T12:29:27.237Z</time></trkpt><trkpt lat="45.2449433" lon="7.5146483"><ele>420.0</ele><time>2026-05-03T12:29:28.237Z</time></trkpt><trkpt lat="45.2450933" lon="7.51451"><ele>422.33333333333337</ele><time>2026-05-03T12:29:29.237Z</time></trkpt><trkpt lat="45.2452583" lon="7.5143617"><ele>424.6666666666667</ele><time>2026-05-03T12:29:30.237Z</time></trkpt><trkpt lat="45.2454333" lon="7.51419"><ele>427.0</ele><time>2026-05-03T12:29:31.236Z</time></trkpt><trkpt lat="45.2456117" lon="7.5140317"><ele>426.33333333333337</ele><time>2026-05-03T12:29:32.237Z</time></trkpt><trkpt lat="45.2457883" lon="7.51389"><ele>425.66666666666663</ele><time>2026-05-03T12:29:33.237Z</time></trkpt><trkpt lat="45.2459533" lon="7.5137467"><ele>425.0</ele><time>2026-05-03T12:29:34.237Z</time></trkpt><trkpt lat="45.24611" lon="7.513615"><ele>425.0</ele><time>2026-05-03T12:29:35.237Z</time></trkpt><trkpt lat="45.246255" lon="7.51349"><ele>425.0</ele><time>2026-05-03T12:29:36.237Z</time></trkpt><trkpt lat="45.2463967" lon="7.5133733"><ele>425.0</ele><time>2026-05-03T12:29:37.236Z</time></trkpt><trkpt lat="45.2465283" lon="7.5132567"><ele>424.5</ele><time>2026-05-03T12:29:38.237Z</time></trkpt><trkpt lat="45.2466567" lon="7.5131467"><ele>424.0</ele><time>2026-05-03T12:29:39.237Z</time></trkpt><trkpt lat="45.2467783" lon="7.513045"><ele>423.5</ele><time>2026-05-03T12:29:40.237Z</time></trkpt><trkpt lat="45.2468967" lon="7.5129467"><ele>423.0</ele><time>2026-05-03T12:29:41.237Z</time></trkpt><trkpt lat="45.247015" lon="7.5128417"><ele>423.25</ele><time>2026-05-03T12:29:42.237Z</time></trkpt><trkpt lat="45.24714" lon="7.512735"><ele>423.5</ele><time>2026-05-03T12:29:43.237Z</time></trkpt><trkpt lat="45.2472667" lon="7.5126283"><ele>423.75</ele><time>2026-05-03T12:29:44.237Z</time></trkpt><trkpt lat="45.2474" lon="7.51252"><ele>424.0</ele><time>2026-05-03T12:29:45.237Z</time></trkpt><trkpt lat="45.2475333" lon="7.5124067"><ele>424.0</ele><time>2026-05-03T12:29:46.237Z</time></trkpt><trkpt lat="45.2476633" lon="7.5123033"><ele>424.0</ele><time>2026-05-03T12:29:47.237Z</time></trkpt><trkpt lat="45.2477917" lon="7.5121933"><ele>424.0</ele><time>2026-05-03T12:29:48.237Z</time></trkpt><trkpt lat="45.247915" lon="7.5120783"><ele>424.0</ele><time>2026-05-03T12:29:49.237Z</time></trkpt><trkpt lat="45.2480383" lon="7.5119783"><ele>425.25</ele><time>2026-05-03T12:29:50.237Z</time></trkpt><trkpt lat="45.2481567" lon="7.5118783"><ele>426.5</ele><time>2026-05-03T12:29:51.237Z</time></trkpt><trkpt lat="45.2482717" lon="7.5117833"><ele>427.75</ele><time>2026-05-03T12:29:52.237Z</time></trkpt><trkpt lat="45.24838" lon="7.51169"><ele>429.0</ele><time>2026-05-03T12:29:53.237Z</time></trkpt><trkpt lat="45.2484867" lon="7.5116017"><ele>429.0</ele><time>2026-05-03T12:29:54.237Z</time></trkpt><trkpt lat="45.2485867" lon="7.51152"><ele>429.0</ele><time>2026-05-03T12:29:55.237Z</time></trkpt><trkpt lat="45.2486833" lon="7.5114383"><ele>429.0</ele><time>2026-05-03T12:29:56.237Z</time></trkpt><trkpt lat="45.2487817" lon="7.5113533"><ele>429.0</ele><time>2026-05-03T12:29:57.236Z</time></trkpt><trkpt lat="45.2488817" lon="7.51127"><ele>429.0</ele><time>2026-05-03T12:29:58.237Z</time></trkpt><trkpt lat="45.248985" lon="7.511185"><ele>429.0</ele><time>2026-05-03T12:29:59.237Z</time></trkpt><trkpt lat="45.2490967" lon="7.5110933"><ele>429.0</ele><time>2026-05-03T12:30:00.237Z</time></trkpt><trkpt lat="45.24921" lon="7.5109967"><ele>429.0</ele><time>2026-05-03T12:30:01.237Z</time></trkpt><trkpt lat="45.2493167" lon="7.5109117"><ele>429.0</ele><time>2026-05-03T12:30:02.237Z</time></trkpt><trkpt lat="45.2494233" lon="7.5108233"><ele>429.0</ele><time>2026-05-03T12:30:03.237Z</time></trkpt><trkpt lat="45.249525" lon="7.5107383"><ele>429.0</ele><time>2026-05-03T12:30:04.237Z</time></trkpt><trkpt lat="45.24963" lon="7.5106517"><ele>429.0</ele><time>2026-05-03T12:30:05.237Z</time></trkpt><trkpt lat="45.2497333" lon="7.5105683"><ele>428.0</ele><time>2026-05-03T12:30:06.237Z</time></trkpt><trkpt lat="45.24984" lon="7.5104867"><ele>427.0</ele><time>2026-05-03T12:30:07.236Z</time></trkpt><trkpt lat="45.24995" lon="7.5103933"><ele>426.0</ele><time>2026-05-03T12:30:08.236Z</time></trkpt><trkpt lat="45.2500567" lon="7.5103"><ele>425.0</ele><time>2026-05-03T12:30:09.237Z</time></trkpt><trkpt lat="45.2501683" lon="7.51021"><ele>425.0</ele><time>2026-05-03T12:30:10.237Z</time></trkpt><trkpt lat="45.2502767" lon="7.51012"><ele>425.0</ele><time>2026-05-03T12:30:11.237Z</time></trkpt><trkpt lat="45.2503833" lon="7.51003"><ele>425.0</ele><time>2026-05-03T12:30:12.237Z</time></trkpt><trkpt lat="45.2504917" lon="7.5099467"><ele>425.0</ele><time>2026-05-03T12:30:13.236Z</time></trkpt><trkpt lat="45.2505967" lon="7.509855"><ele>425.4</ele><time>2026-05-03T12:30:14.237Z</time></trkpt><trkpt lat="45.2506933" lon="7.509775"><ele>425.8</ele><time>2026-05-03T12:30:15.237Z</time></trkpt><trkpt lat="45.25079" lon="7.5096983"><ele>426.20000000000005</ele><time>2026-05-03T12:30:16.237Z</time></trkpt><trkpt lat="45.2508833" lon="7.5096217"><ele>426.6</ele><time>2026-05-03T12:30:17.236Z</time></trkpt><trkpt lat="45.2509817" lon="7.5095367"><ele>427.0</ele><time>2026-05-03T12:30:18.237Z</time></trkpt><trkpt lat="45.25108" lon="7.5094483"><ele>427.0</ele><time>2026-05-03T12:30:19.237Z</time></trkpt><trkpt lat="45.25118" lon="7.509365"><ele>427.00000000000006</ele><time>2026-05-03T12:30:20.236Z</time></trkpt><trkpt lat="45.2512767" lon="7.5092867"><ele>427.00000000000006</ele><time>2026-05-03T12:30:21.237Z</time></trkpt><trkpt lat="45.2513683" lon="7.509205"><ele>427.0</ele><time>2026-05-03T12:30:22.237Z</time></trkpt><trkpt lat="45.2514633" lon="7.5091167"><ele>427.0</ele><time>2026-05-03T12:30:23.237Z</time></trkpt><trkpt lat="45.25156" lon="7.5090317"><ele>426.25</ele><time>2026-05-03T12:30:24.237Z</time></trkpt><trkpt lat="45.25166" lon="7.508945"><ele>425.5</ele><time>2026-05-03T12:30:25.236Z</time></trkpt><trkpt lat="45.2517667" lon="7.5088517"><ele>424.75</ele><time>2026-05-03T12:30:26.237Z</time></trkpt><trkpt lat="45.2518767" lon="7.5087567"><ele>424.0</ele><time>2026-05-03T12:30:27.237Z</time></trkpt><trkpt lat="45.2519883" lon="7.5086617"><ele>424.5</ele><time>2026-05-03T12:30:28.237Z</time></trkpt><trkpt lat="45.2521033" lon="7.5085633"><ele>425.0</ele><time>2026-05-03T12:30:29.237Z</time></trkpt><trkpt lat="45.252215" lon="7.508475"><ele>425.5</ele><time>2026-05-03T12:30:30.237Z</time></trkpt><trkpt lat="45.252325" lon="7.5083783"><ele>426.0</ele><time>2026-05-03T12:30:31.237Z</time></trkpt><trkpt lat="45.2524383" lon="7.5082833"><ele>426.0</ele><time>2026-05-03T12:30:32.237Z</time></trkpt><trkpt lat="45.25255" lon="7.5081917"><ele>426.0</ele><time>2026-05-03T12:30:33.237Z</time></trkpt><trkpt lat="45.25266" lon="7.5081033"><ele>426.0</ele><time>2026-05-03T12:30:34.237Z</time></trkpt><trkpt lat="45.252765" lon="7.5080167"><ele>426.0</ele><time>2026-05-03T12:30:35.237Z</time></trkpt><trkpt lat="45.252865" lon="7.5079283"><ele>426.4</ele><time>2026-05-03T12:30:36.237Z</time></trkpt><trkpt lat="45.2529533" lon="7.5078533"><ele>426.8</ele><time>2026-05-03T12:30:37.237Z</time></trkpt><trkpt lat="45.2530417" lon="7.5077883"><ele>427.19999999999993</ele><time>2026-05-03T12:30:38.237Z</time></trkpt><trkpt lat="45.2531267" lon="7.5077067"><ele>427.59999999999997</ele><time>2026-05-03T12:30:39.237Z</time></trkpt><trkpt lat="45.2532217" lon="7.507625"><ele>428.0</ele><time>2026-05-03T12:30:40.237Z</time></trkpt><trkpt lat="45.25332" lon="7.5075383"><ele>428.0</ele><time>2026-05-03T12:30:41.237Z</time></trkpt><trkpt lat="45.2534283" lon="7.507445"><ele>428.0</ele><time>2026-05-03T12:30:42.237Z</time></trkpt><trkpt lat="45.253545" lon="7.5073517"><ele>428.0</ele><time>2026-05-03T12:30:43.237Z</time></trkpt><trkpt lat="45.2536667" lon="7.5072567"><ele>428.0</ele><time>2026-05-03T12:30:44.237Z</time></trkpt><trkpt lat="45.2537917" lon="7.507155"><ele>428.0</ele><time>2026-05-03T12:30:45.237Z</time></trkpt><trkpt lat="45.2539233" lon="7.5070383"><ele>428.0</ele><time>2026-05-03T12:30:46.237Z</time></trkpt><trkpt lat="45.2540617" lon="7.5069067"><ele>428.0</ele><time>2026-05-03T12:30:47.237Z</time></trkpt><trkpt lat="45.2542117" lon="7.5067683"><ele>428.0</ele><time>2026-05-03T12:30:48.237Z</time></trkpt><trkpt lat="45.2543767" lon="7.5066217"><ele>428.0</ele><time>2026-05-03T12:30:49.237Z</time></trkpt><trkpt lat="45.254545" lon="7.5064767"><ele>428.0</ele><time>2026-05-03T12:30:50.237Z</time></trkpt><trkpt lat="45.2547233" lon="7.50633"><ele>430.3333333333333</ele><time>2026-05-03T12:30:51.237Z</time></trkpt><trkpt lat="45.2548917" lon="7.50619"><ele>432.66666666666663</ele><time>2026-05-03T12:30:52.237Z</time></trkpt><trkpt lat="45.2550517" lon="7.5060617"><ele>435.0</ele><time>2026-05-03T12:30:53.237Z</time></trkpt><trkpt lat="45.2552083" lon="7.5059333"><ele>435.0</ele><time>2026-05-03T12:30:54.237Z</time></trkpt><trkpt lat="45.255355" lon="7.505805"><ele>435.0</ele><time>2026-05-03T12:30:55.236Z</time></trkpt><trkpt lat="45.2554967" lon="7.5056883"><ele>435.0</ele><time>2026-05-03T12:30:56.237Z</time></trkpt><trkpt lat="45.2556433" lon="7.5055733"><ele>434.0</ele><time>2026-05-03T12:30:57.237Z</time></trkpt><trkpt lat="45.2557833" lon="7.5054567"><ele>433.0</ele><time>2026-05-03T12:30:58.237Z</time></trkpt><trkpt lat="45.2559183" lon="7.5053467"><ele>432.0</ele><time>2026-05-03T12:30:59.237Z</time></trkpt><trkpt lat="45.256055" lon="7.5052467"><ele>435.0</ele><time>2026-05-03T12:31:00.237Z</time></trkpt><trkpt lat="45.2561917" lon="7.5051533"><ele>438.0</ele><time>2026-05-03T12:31:01.237Z</time></trkpt><trkpt lat="45.25634" lon="7.50507"><ele>441.0</ele><time>2026-05-03T12:31:02.237Z</time></trkpt><trkpt lat="45.2564933" lon="7.505005"><ele>441.0</ele><time>2026-05-03T12:31:03.237Z</time></trkpt><trkpt lat="45.2566383" lon="7.5049483"><ele>441.0</ele><time>2026-05-03T12:31:04.237Z</time></trkpt><trkpt lat="45.2567883" lon="7.504925"><ele>441.0</ele><time>2026-05-03T12:31:05.237Z</time></trkpt><trkpt lat="45.256935" lon="7.5049183"><ele>441.0</ele><time>2026-05-03T12:31:06.237Z</time></trkpt><trkpt lat="45.25708" lon="7.50492"><ele>441.0</ele><time>2026-05-03T12:31:07.237Z</time></trkpt><trkpt lat="45.257225" lon="7.5049367"><ele>441.0</ele><time>2026-05-03T12:31:08.237Z</time></trkpt><trkpt lat="45.2573717" lon="7.5049667"><ele>441.0</ele><time>2026-05-03T12:31:09.236Z</time></trkpt><trkpt lat="45.2575267" lon="7.50497"><ele>441.0</ele><time>2026-05-03T12:31:10.236Z</time></trkpt><trkpt lat="45.2576817" lon="7.504965"><ele>439.75</ele><time>2026-05-03T12:31:11.237Z</time></trkpt><trkpt lat="45.2578267" lon="7.5049517"><ele>438.5</ele><time>2026-05-03T12:31:12.237Z</time></trkpt><trkpt lat="45.25797" lon="7.5049117"><ele>437.25</ele><time>2026-05-03T12:31:13.236Z</time></trkpt><trkpt lat="45.2581083" lon="7.5048517"><ele>436.0</ele><time>2026-05-03T12:31:14.237Z</time></trkpt><trkpt lat="45.2582417" lon="7.5047733"><ele>434.5</ele><time>2026-05-03T12:31:15.237Z</time></trkpt><trkpt lat="45.2583733" lon="7.5047"><ele>433.0</ele><time>2026-05-03T12:31:16.237Z</time></trkpt><trkpt lat="45.2585133" lon="7.5046367"><ele>431.5</ele><time>2026-05-03T12:31:17.237Z</time></trkpt><trkpt lat="45.258655" lon="7.5045867"><ele>430.0</ele><time>2026-05-03T12:31:18.237Z</time></trkpt><trkpt lat="45.2588017" lon="7.5045433"><ele>430.5</ele><time>2026-05-03T12:31:19.237Z</time></trkpt><trkpt lat="45.2589433" lon="7.5044967"><ele>431.0</ele><time>2026-05-03T12:31:20.236Z</time></trkpt><trkpt lat="45.2590833" lon="7.5044633"><ele>431.5</ele><time>2026-05-03T12:31:21.237Z</time></trkpt><trkpt lat="45.25923" lon="7.504445"><ele>432.0</ele><time>2026-05-03T12:31:22.236Z</time></trkpt><trkpt lat="45.2593683" lon="7.5044233"><ele>432.0</ele><time>2026-05-03T12:31:23.237Z</time></trkpt><trkpt lat="45.2595083" lon="7.504395"><ele>432.0</ele><time>2026-05-03T12:31:24.237Z</time></trkpt><trkpt lat="45.259645" lon="7.504355"><ele>432.0</ele><time>2026-05-03T12:31:25.237Z</time></trkpt><trkpt lat="45.259785" lon="7.5043067"><ele>432.0</ele><time>2026-05-03T12:31:26.236Z</time></trkpt><trkpt lat="45.2599217" lon="7.50424"><ele>431.5</ele><time>2026-05-03T12:31:27.237Z</time></trkpt><trkpt lat="45.2600583" lon="7.50416"><ele>431.0</ele><time>2026-05-03T12:31:28.237Z</time></trkpt><trkpt lat="45.2601933" lon="7.5040733"><ele>430.5</ele><time>2026-05-03T12:31:29.237Z</time></trkpt><trkpt lat="45.260325" lon="7.5039767"><ele>430.0</ele><time>2026-05-03T12:31:30.237Z</time></trkpt><trkpt lat="45.2604517" lon="7.5038633"><ele>430.0</ele><time>2026-05-03T12:31:31.237Z</time></trkpt><trkpt lat="45.2605717" lon="7.5037517"><ele>430.0</ele><time>2026-05-03T12:31:32.237Z</time></trkpt><trkpt lat="45.2606883" lon="7.5036333"><ele>430.0</ele><time>2026-05-03T12:31:33.237Z</time></trkpt><trkpt lat="45.2607967" lon="7.5035033"><ele>430.0</ele><time>2026-05-03T12:31:34.237Z</time></trkpt><trkpt lat="45.2609033" lon="7.50337"><ele>430.33333333333337</ele><time>2026-05-03T12:31:35.237Z</time></trkpt><trkpt lat="45.2610117" lon="7.50323"><ele>430.66666666666663</ele><time>2026-05-03T12:31:36.237Z</time></trkpt><trkpt lat="45.26112" lon="7.5030867"><ele>431.0</ele><time>2026-05-03T12:31:37.237Z</time></trkpt><trkpt lat="45.26123" lon="7.5029283"><ele>431.66666666666663</ele><time>2026-05-03T12:31:38.237Z</time></trkpt><trkpt lat="45.2613467" lon="7.5027517"><ele>432.33333333333337</ele><time>2026-05-03T12:31:39.237Z</time></trkpt><trkpt lat="45.2614717" lon="7.5025683"><ele>433.0</ele><time>2026-05-03T12:31:40.237Z</time></trkpt><trkpt lat="45.2616033" lon="7.5023767"><ele>433.0</ele><time>2026-05-03T12:31:41.237Z</time></trkpt><trkpt lat="45.26175" lon="7.5021883"><ele>433.0</ele><time>2026-05-03T12:31:42.237Z</time></trkpt><trkpt lat="45.2618983" lon="7.5019933"><ele>433.0</ele><time>2026-05-03T12:31:43.236Z</time></trkpt><trkpt lat="45.2620433" lon="7.5017983"><ele>433.33333333333337</ele><time>2026-05-03T12:31:44.237Z</time></trkpt><trkpt lat="45.2621867" lon="7.501595"><ele>433.66666666666663</ele><time>2026-05-03T12:31:45.237Z</time></trkpt><trkpt lat="45.26233" lon="7.5014017"><ele>434.0</ele><time>2026-05-03T12:31:46.237Z</time></trkpt><trkpt lat="45.262475" lon="7.501215"><ele>435.66666666666663</ele><time>2026-05-03T12:31:47.237Z</time></trkpt><trkpt lat="45.2626183" lon="7.50102"><ele>437.33333333333337</ele><time>2026-05-03T12:31:48.236Z</time></trkpt><trkpt lat="45.2627567" lon="7.5008283"><ele>439.0</ele><time>2026-05-03T12:31:49.237Z</time></trkpt><trkpt lat="45.2629017" lon="7.5006367"><ele>439.0</ele><time>2026-05-03T12:31:50.237Z</time></trkpt><trkpt lat="45.263045" lon="7.5004433"><ele>439.0</ele><time>2026-05-03T12:31:51.237Z</time></trkpt><trkpt lat="45.2631867" lon="7.5002517"><ele>439.0</ele><time>2026-05-03T12:31:52.237Z</time></trkpt><trkpt lat="45.2633267" lon="7.5000617"><ele>439.33333333333337</ele><time>2026-05-03T12:31:53.236Z</time></trkpt><trkpt lat="45.26347" lon="7.499875"><ele>439.66666666666663</ele><time>2026-05-03T12:31:54.236Z</time></trkpt><trkpt lat="45.2636217" lon="7.49968"><ele>440.0</ele><time>2026-05-03T12:31:55.237Z</time></trkpt><trkpt lat="45.263785" lon="7.4994967"><ele>439.66666666666663</ele><time>2026-05-03T12:31:56.237Z</time></trkpt><trkpt lat="45.2639567" lon="7.4993083"><ele>439.33333333333337</ele><time>2026-05-03T12:31:57.237Z</time></trkpt><trkpt lat="45.2641383" lon="7.4991283"><ele>439.0</ele><time>2026-05-03T12:31:58.237Z</time></trkpt><trkpt lat="45.26433" lon="7.4989633"><ele>439.0</ele><time>2026-05-03T12:31:59.237Z</time></trkpt><trkpt lat="45.2645267" lon="7.4988067"><ele>439.0</ele><time>2026-05-03T12:32:00.237Z</time></trkpt><trkpt lat="45.2647217" lon="7.4986717"><ele>439.0</ele><time>2026-05-03T12:32:01.237Z</time></trkpt><trkpt lat="45.26491" lon="7.4985383"><ele>438.33333333333337</ele><time>2026-05-03T12:32:02.237Z</time></trkpt><trkpt lat="45.2650917" lon="7.4983917"><ele>437.66666666666663</ele><time>2026-05-03T12:32:03.237Z</time></trkpt><trkpt lat="45.26527" lon="7.4982283"><ele>437.0</ele><time>2026-05-03T12:32:04.237Z</time></trkpt><trkpt lat="45.2654433" lon="7.49805"><ele>437.3333333333333</ele><time>2026-05-03T12:32:05.237Z</time></trkpt><trkpt lat="45.2656117" lon="7.4978667"><ele>437.66666666666663</ele><time>2026-05-03T12:32:06.237Z</time></trkpt><trkpt lat="45.2657683" lon="7.4976717"><ele>438.0</ele><time>2026-05-03T12:32:07.237Z</time></trkpt><trkpt lat="45.26592" lon="7.4974667"><ele>438.0</ele><time>2026-05-03T12:32:08.237Z</time></trkpt><trkpt lat="45.2660633" lon="7.4972533"><ele>438.0</ele><time>2026-05-03T12:32:09.237Z</time></trkpt><trkpt lat="45.2661933" lon="7.4970317"><ele>438.0</ele><time>2026-05-03T12:32:10.237Z</time></trkpt><trkpt lat="45.2663217" lon="7.4967967"><ele>439.5</ele><time>2026-05-03T12:32:11.237Z</time></trkpt><trkpt lat="45.266455" lon="7.4965367"><ele>441.0</ele><time>2026-05-03T12:32:12.237Z</time></trkpt><trkpt lat="45.2666017" lon="7.496295"><ele>446.66666666666663</ele><time>2026-05-03T12:32:13.237Z</time></trkpt><trkpt lat="45.2667483" lon="7.496055"><ele>452.3333333333333</ele><time>2026-05-03T12:32:14.237Z</time></trkpt><trkpt lat="45.26689" lon="7.4958067"><ele>458.0</ele><time>2026-05-03T12:32:15.237Z</time></trkpt><trkpt lat="45.2670267" lon="7.4955617"><ele>453.0</ele><time>2026-05-03T12:32:16.237Z</time></trkpt><trkpt lat="45.267155" lon="7.4953033"><ele>448.0</ele><time>2026-05-03T12:32:17.237Z</time></trkpt><trkpt lat="45.26727" lon="7.495045"><ele>443.0</ele><time>2026-05-03T12:32:18.236Z</time></trkpt><trkpt lat="45.2673767" lon="7.494775"><ele>445.66666666666663</ele><time>2026-05-03T12:32:19.237Z</time></trkpt><trkpt lat="45.267465" lon="7.4944983"><ele>448.33333333333337</ele><time>2026-05-03T12:32:20.237Z</time></trkpt><trkpt lat="45.2675333" lon="7.494205"><ele>451.0</ele><time>2026-05-03T12:32:21.237Z</time></trkpt><trkpt lat="45.2675967" lon="7.4939117"><ele>451.6666666666667</ele><time>2026-05-03T12:32:22.237Z</time></trkpt><trkpt lat="45.2676433" lon="7.4936083"><ele>452.33333333333337</ele><time>2026-05-03T12:32:23.237Z</time></trkpt><trkpt lat="45.2676767" lon="7.4933133"><ele>453.0</ele><time>2026-05-03T12:32:24.237Z</time></trkpt><trkpt lat="45.2676883" lon="7.493025"><ele>452.66666666666663</ele><time>2026-05-03T12:32:25.237Z</time></trkpt><trkpt lat="45.2676883" lon="7.49273"><ele>452.3333333333333</ele><time>2026-05-03T12:32:26.237Z</time></trkpt><trkpt lat="45.2676917" lon="7.492445"><ele>452.0</ele><time>2026-05-03T12:32:27.237Z</time></trkpt><trkpt lat="45.2677" lon="7.49216"><ele>451.66666666666663</ele><time>2026-05-03T12:32:28.237Z</time></trkpt><trkpt lat="45.2677167" lon="7.4918833"><ele>451.33333333333337</ele><time>2026-05-03T12:32:29.237Z</time></trkpt><trkpt lat="45.2677383" lon="7.4916167"><ele>451.0</ele><time>2026-05-03T12:32:30.237Z</time></trkpt><trkpt lat="45.26777" lon="7.491355"><ele>452.6666666666667</ele><time>2026-05-03T12:32:31.237Z</time></trkpt><trkpt lat="45.2678167" lon="7.491095"><ele>454.33333333333337</ele><time>2026-05-03T12:32:32.237Z</time></trkpt><trkpt lat="45.26787" lon="7.49084"><ele>456.0</ele><time>2026-05-03T12:32:33.237Z</time></trkpt><trkpt lat="45.2679217" lon="7.490585"><ele>457.66666666666663</ele><time>2026-05-03T12:32:34.236Z</time></trkpt><trkpt lat="45.2679717" lon="7.49032"><ele>459.3333333333333</ele><time>2026-05-03T12:32:35.237Z</time></trkpt><trkpt lat="45.2680017" lon="7.4900683"><ele>461.0</ele><time>2026-05-03T12:32:36.237Z</time></trkpt><trkpt lat="45.2680233" lon="7.4898217"><ele>463.3333333333333</ele><time>2026-05-03T12:32:37.237Z</time></trkpt><trkpt lat="45.26803" lon="7.4895883"><ele>465.66666666666663</ele><time>2026-05-03T12:32:38.237Z</time></trkpt><trkpt lat="45.268025" lon="7.4893683"><ele>468.0</ele><time>2026-05-03T12:32:39.237Z</time></trkpt><trkpt lat="45.268015" lon="7.48915"><ele>468.0</ele><time>2026-05-03T12:32:40.237Z</time></trkpt><trkpt lat="45.2680033" lon="7.48894"><ele>468.0</ele><time>2026-05-03T12:32:41.237Z</time></trkpt><trkpt lat="45.2679917" lon="7.4887333"><ele>468.0</ele><time>2026-05-03T12:32:42.237Z</time></trkpt><trkpt lat="45.267975" lon="7.488525"><ele>468.0</ele><time>2026-05-03T12:32:43.237Z</time></trkpt><trkpt lat="45.2679483" lon="7.4883217"><ele>469.5</ele><time>2026-05-03T12:32:44.237Z</time></trkpt><trkpt lat="45.2679317" lon="7.4881167"><ele>471.0</ele><time>2026-05-03T12:32:45.237Z</time></trkpt><trkpt lat="45.267925" lon="7.4879133"><ele>472.5</ele><time>2026-05-03T12:32:46.237Z</time></trkpt><trkpt lat="45.2679217" lon="7.487705"><ele>474.0</ele><time>2026-05-03T12:32:47.237Z</time></trkpt><trkpt lat="45.2679167" lon="7.4874967"><ele>476.25</ele><time>2026-05-03T12:32:48.237Z</time></trkpt><trkpt lat="45.2679167" lon="7.4872983"><ele>478.5</ele><time>2026-05-03T12:32:49.237Z</time></trkpt><trkpt lat="45.26791" lon="7.487105"><ele>480.75</ele><time>2026-05-03T12:32:50.237Z</time></trkpt><trkpt lat="45.2679083" lon="7.4869133"><ele>483.0</ele><time>2026-05-03T12:32:51.237Z</time></trkpt><trkpt lat="45.2679233" lon="7.4867317"><ele>485.75</ele><time>2026-05-03T12:32:52.237Z</time></trkpt><trkpt lat="45.2679567" lon="7.4865367"><ele>488.5</ele><time>2026-05-03T12:32:53.237Z</time></trkpt><trkpt lat="45.2680233" lon="7.4863667"><ele>491.25</ele><time>2026-05-03T12:32:54.237Z</time></trkpt><trkpt lat="45.268115" lon="7.4862267"><ele>494.0</ele><time>2026-05-03T12:32:55.237Z</time></trkpt><trkpt lat="45.2682267" lon="7.4861083"><ele>484.0</ele><time>2026-05-03T12:32:56.237Z</time></trkpt><trkpt lat="45.268355" lon="7.48604"><ele>474.0</ele><time>2026-05-03T12:32:57.237Z</time></trkpt><trkpt lat="45.2685017" lon="7.486"><ele>464.0</ele><time>2026-05-03T12:32:58.237Z</time></trkpt><trkpt lat="45.2686517" lon="7.4859817"><ele>454.0</ele><time>2026-05-03T12:32:59.237Z</time></trkpt><trkpt lat="45.2688083" lon="7.485955"><ele>451.6666666666667</ele><time>2026-05-03T12:33:00.237Z</time></trkpt><trkpt lat="45.2689617" lon="7.4859233"><ele>449.33333333333337</ele><time>2026-05-03T12:33:01.237Z</time></trkpt><trkpt lat="45.269115" lon="7.485895"><ele>447.0</ele><time>2026-05-03T12:33:02.237Z</time></trkpt><trkpt lat="45.2692733" lon="7.48587"><ele>447.0</ele><time>2026-05-03T12:33:03.237Z</time></trkpt><trkpt lat="45.26943" lon="7.485845"><ele>447.0</ele><time>2026-05-03T12:33:04.237Z</time></trkpt><trkpt lat="45.26959" lon="7.4858083"><ele>447.0</ele><time>2026-05-03T12:33:05.236Z</time></trkpt><trkpt lat="45.2697517" lon="7.4857783"><ele>450.66666666666663</ele><time>2026-05-03T12:33:06.237Z</time></trkpt><trkpt lat="45.2699083" lon="7.4857467"><ele>454.3333333333333</ele><time>2026-05-03T12:33:07.237Z</time></trkpt><trkpt lat="45.2700683" lon="7.4857167"><ele>458.0</ele><time>2026-05-03T12:33:08.237Z</time></trkpt><trkpt lat="45.27023" lon="7.4856783"><ele>458.0</ele><time>2026-05-03T12:33:09.237Z</time></trkpt><trkpt lat="45.270385" lon="7.4856433"><ele>458.0</ele><time>2026-05-03T12:33:10.237Z</time></trkpt><trkpt lat="45.27053" lon="7.4856217"><ele>458.0</ele><time>2026-05-03T12:33:11.237Z</time></trkpt><trkpt lat="45.27067" lon="7.4855933"><ele>458.0</ele><time>2026-05-03T12:33:12.237Z</time></trkpt><trkpt lat="45.2708017" lon="7.4855583"><ele>458.5</ele><time>2026-05-03T12:33:13.237Z</time></trkpt><trkpt lat="45.2709367" lon="7.48554"><ele>459.0</ele><time>2026-05-03T12:33:14.237Z</time></trkpt><trkpt lat="45.27106" lon="7.4855183"><ele>459.5</ele><time>2026-05-03T12:33:15.237Z</time></trkpt><trkpt lat="45.2711767" lon="7.4854867"><ele>460.0</ele><time>2026-05-03T12:33:16.237Z</time></trkpt><trkpt lat="45.271285" lon="7.4854567"><ele>460.00000000000006</ele><time>2026-05-03T12:33:17.237Z</time></trkpt><trkpt lat="45.2713833" lon="7.4854417"><ele>460.0</ele><time>2026-05-03T12:33:18.237Z</time></trkpt><trkpt lat="45.2714733" lon="7.485415"><ele>460.0</ele><time>2026-05-03T12:33:19.237Z</time></trkpt><trkpt lat="45.2715567" lon="7.4854"><ele>460.0</ele><time>2026-05-03T12:33:20.237Z</time></trkpt><trkpt lat="45.2716333" lon="7.4853883"><ele>460.00000000000006</ele><time>2026-05-03T12:33:21.236Z</time></trkpt><trkpt lat="45.2717067" lon="7.485405"><ele>460.0</ele><time>2026-05-03T12:33:22.236Z</time></trkpt><trkpt lat="45.27178" lon="7.48545"><ele>460.83333333333337</ele><time>2026-05-03T12:33:23.237Z</time></trkpt><trkpt lat="45.27184" lon="7.485505"><ele>461.6666666666667</ele><time>2026-05-03T12:33:24.237Z</time></trkpt><trkpt lat="45.2719" lon="7.4855583"><ele>462.5</ele><time>2026-05-03T12:33:25.237Z</time></trkpt><trkpt lat="45.2719617" lon="7.4855783"><ele>463.33333333333337</ele><time>2026-05-03T12:33:26.236Z</time></trkpt><trkpt lat="45.2720483" lon="7.4854917"><ele>464.1666666666667</ele><time>2026-05-03T12:33:28.237Z</time></trkpt><trkpt lat="45.2720233" lon="7.4853333"><ele>465.0</ele><time>2026-05-03T12:33:30.237Z</time></trkpt><trkpt lat="45.2719667" lon="7.48527"><ele>465.0</ele><time>2026-05-03T12:33:31.237Z</time></trkpt><trkpt lat="45.2719033" lon="7.4851983"><ele>465.0</ele><time>2026-05-03T12:33:32.237Z</time></trkpt><trkpt lat="45.27185" lon="7.4850967"><ele>465.0</ele><time>2026-05-03T12:33:33.237Z</time></trkpt><trkpt lat="45.271815" lon="7.48497"><ele>465.0</ele><time>2026-05-03T12:33:34.237Z</time></trkpt><trkpt lat="45.271805" lon="7.4848367"><ele>465.0</ele><time>2026-05-03T12:33:35.237Z</time></trkpt><trkpt lat="45.2717933" lon="7.4847233"><ele>465.0</ele><time>2026-05-03T12:33:36.237Z</time></trkpt><trkpt lat="45.2717833" lon="7.4846183"><ele>465.2</ele><time>2026-05-03T12:33:37.237Z</time></trkpt><trkpt lat="45.2717783" lon="7.4845133"><ele>465.4</ele><time>2026-05-03T12:33:38.237Z</time></trkpt><trkpt lat="45.2717667" lon="7.48439"><ele>465.6</ele><time>2026-05-03T12:33:39.236Z</time></trkpt><trkpt lat="45.2717517" lon="7.48424"><ele>465.8</ele><time>2026-05-03T12:33:40.237Z</time></trkpt><trkpt lat="45.2717383" lon="7.4840767"><ele>466.0</ele><time>2026-05-03T12:33:41.236Z</time></trkpt><trkpt lat="45.2717217" lon="7.4839083"><ele>465.25</ele><time>2026-05-03T12:33:42.237Z</time></trkpt><trkpt lat="45.2716983" lon="7.4837267"><ele>464.5</ele><time>2026-05-03T12:33:43.237Z</time></trkpt><trkpt lat="45.271675" lon="7.483525"><ele>463.75</ele><time>2026-05-03T12:33:44.237Z</time></trkpt><trkpt lat="45.27165" lon="7.4833167"><ele>463.0</ele><time>2026-05-03T12:33:45.237Z</time></trkpt><trkpt lat="45.2716217" lon="7.48311"><ele>462.5</ele><time>2026-05-03T12:33:46.237Z</time></trkpt><trkpt lat="45.2715883" lon="7.48291"><ele>462.0</ele><time>2026-05-03T12:33:47.237Z</time></trkpt><trkpt lat="45.2715533" lon="7.482725"><ele>461.5</ele><time>2026-05-03T12:33:48.237Z</time></trkpt><trkpt lat="45.2715117" lon="7.482555"><ele>461.0</ele><time>2026-05-03T12:33:49.237Z</time></trkpt><trkpt lat="45.2714717" lon="7.4823967"><ele>461.0</ele><time>2026-05-03T12:33:50.237Z</time></trkpt><trkpt lat="45.271435" lon="7.4822517"><ele>461.0</ele><time>2026-05-03T12:33:51.237Z</time></trkpt><trkpt lat="45.2714083" lon="7.4821133"><ele>461.0</ele><time>2026-05-03T12:33:52.237Z</time></trkpt><trkpt lat="45.27139" lon="7.4819917"><ele>461.0</ele><time>2026-05-03T12:33:53.237Z</time></trkpt><trkpt lat="45.2714033" lon="7.4818717"><ele>461.0</ele><time>2026-05-03T12:33:54.237Z</time></trkpt><trkpt lat="45.2714183" lon="7.481765"><ele>465.66666666666663</ele><time>2026-05-03T12:33:55.237Z</time></trkpt><trkpt lat="45.27142" lon="7.48166"><ele>470.3333333333333</ele><time>2026-05-03T12:33:56.237Z</time></trkpt><trkpt lat="45.2713917" lon="7.48158"><ele>475.0</ele><time>2026-05-03T12:33:57.237Z</time></trkpt><trkpt lat="45.2713433" lon="7.481515"><ele>479.66666666666663</ele><time>2026-05-03T12:33:58.237Z</time></trkpt><trkpt lat="45.2712783" lon="7.481435"><ele>484.3333333333333</ele><time>2026-05-03T12:33:59.237Z</time></trkpt><trkpt lat="45.271215" lon="7.4813283"><ele>489.0</ele><time>2026-05-03T12:34:00.237Z</time></trkpt><trkpt lat="45.27117" lon="7.4812033"><ele>495.6</ele><time>2026-05-03T12:34:01.237Z</time></trkpt><trkpt lat="45.271125" lon="7.4810867"><ele>502.2</ele><time>2026-05-03T12:34:02.237Z</time></trkpt><trkpt lat="45.2710783" lon="7.4809667"><ele>508.80000000000007</ele><time>2026-05-03T12:34:03.237Z</time></trkpt><trkpt lat="45.27103" lon="7.4808417"><ele>515.4</ele><time>2026-05-03T12:34:04.237Z</time></trkpt><trkpt lat="45.27098" lon="7.480715"><ele>522.0</ele><time>2026-05-03T12:34:05.237Z</time></trkpt><trkpt lat="45.2709283" lon="7.480585"><ele>477.0</ele><time>2026-05-03T12:34:06.237Z</time></trkpt><trkpt lat="45.2698559" lon="7.4772462"><ele>477.0</ele><time>2026-05-03T12:34:18.247Z</time></trkpt><trkpt lat="45.2701783" lon="7.4776317"><ele>477.0</ele><time>2026-05-03T12:34:19.233Z</time></trkpt><trkpt lat="45.2700917" lon="7.4775167"><ele>477.0</ele><time>2026-05-03T12:34:20.233Z</time></trkpt><trkpt lat="45.2699917" lon="7.47743"><ele>477.0</ele><time>2026-05-03T12:34:21.233Z</time></trkpt><trkpt lat="45.2698833" lon="7.4773583"><ele>477.0</ele><time>2026-05-03T12:34:22.233Z</time></trkpt><trkpt lat="45.2697717" lon="7.4773033"><ele>477.0</ele><time>2026-05-03T12:34:23.233Z</time></trkpt><trkpt lat="45.269655" lon="7.477265"><ele>475.40000000000003</ele><time>2026-05-03T12:34:24.233Z</time></trkpt><trkpt lat="45.2695417" lon="7.4772267"><ele>473.80000000000007</ele><time>2026-05-03T12:34:25.233Z</time></trkpt><trkpt lat="45.2694317" lon="7.4771917"><ele>472.2</ele><time>2026-05-03T12:34:26.233Z</time></trkpt><trkpt lat="45.2693283" lon="7.4771633"><ele>470.6</ele><time>2026-05-03T12:34:27.233Z</time></trkpt><trkpt lat="45.2692333" lon="7.47714"><ele>469.0</ele><time>2026-05-03T12:34:28.233Z</time></trkpt><trkpt lat="45.26914" lon="7.47711"><ele>470.6</ele><time>2026-05-03T12:34:29.233Z</time></trkpt><trkpt lat="45.2690433" lon="7.47708"><ele>472.2</ele><time>2026-05-03T12:34:30.233Z</time></trkpt><trkpt lat="45.268945" lon="7.4770467"><ele>473.80000000000007</ele><time>2026-05-03T12:34:31.233Z</time></trkpt><trkpt lat="45.26885" lon="7.4770067"><ele>475.40000000000003</ele><time>2026-05-03T12:34:32.233Z</time></trkpt><trkpt lat="45.2687567" lon="7.476945"><ele>477.0</ele><time>2026-05-03T12:34:33.233Z</time></trkpt><trkpt lat="45.2686667" lon="7.4768717"><ele>477.0</ele><time>2026-05-03T12:34:34.233Z</time></trkpt><trkpt lat="45.268575" lon="7.4767817"><ele>477.0</ele><time>2026-05-03T12:34:35.232Z</time></trkpt><trkpt lat="45.2684867" lon="7.4766783"><ele>477.0</ele><time>2026-05-03T12:34:36.233Z</time></trkpt><trkpt lat="45.2683917" lon="7.4765767"><ele>477.0</ele><time>2026-05-03T12:34:37.233Z</time></trkpt><trkpt lat="45.2682933" lon="7.4764533"><ele>477.0</ele><time>2026-05-03T12:34:38.233Z</time></trkpt><trkpt lat="45.2681833" lon="7.4763233"><ele>477.0</ele><time>2026-05-03T12:34:39.233Z</time></trkpt><trkpt lat="45.26807" lon="7.4761817"><ele>477.0</ele><time>2026-05-03T12:34:40.233Z</time></trkpt><trkpt lat="45.2679433" lon="7.4760217"><ele>475.33333333333337</ele><time>2026-05-03T12:34:41.232Z</time></trkpt><trkpt lat="45.267815" lon="7.47585"><ele>473.6666666666667</ele><time>2026-05-03T12:34:42.233Z</time></trkpt><trkpt lat="45.2676833" lon="7.4756817"><ele>472.0</ele><time>2026-05-03T12:34:43.233Z</time></trkpt><trkpt lat="45.267555" lon="7.4755067"><ele>472.0</ele><time>2026-05-03T12:34:44.233Z</time></trkpt><trkpt lat="45.2674333" lon="7.4753167"><ele>472.0</ele><time>2026-05-03T12:34:45.233Z</time></trkpt><trkpt lat="45.2673017" lon="7.4751533"><ele>472.0</ele><time>2026-05-03T12:34:46.233Z</time></trkpt><trkpt lat="45.26717" lon="7.4749833"><ele>472.0</ele><time>2026-05-03T12:34:47.233Z</time></trkpt><trkpt lat="45.2670383" lon="7.4748167"><ele>472.0</ele><time>2026-05-03T12:34:48.233Z</time></trkpt><trkpt lat="45.266915" lon="7.4746433"><ele>472.0</ele><time>2026-05-03T12:34:49.233Z</time></trkpt><trkpt lat="45.2667933" lon="7.47448"><ele>473.33333333333337</ele><time>2026-05-03T12:34:50.233Z</time></trkpt><trkpt lat="45.2666667" lon="7.47432"><ele>474.66666666666663</ele><time>2026-05-03T12:34:51.233Z</time></trkpt><trkpt lat="45.2665383" lon="7.4741517"><ele>476.0</ele><time>2026-05-03T12:34:52.233Z</time></trkpt><trkpt lat="45.2664117" lon="7.4739917"><ele>476.0</ele><time>2026-05-03T12:34:53.233Z</time></trkpt><trkpt lat="45.2662817" lon="7.4738333"><ele>476.0</ele><time>2026-05-03T12:34:54.233Z</time></trkpt><trkpt lat="45.2661533" lon="7.473675"><ele>476.0</ele><time>2026-05-03T12:34:55.233Z</time></trkpt><trkpt lat="45.2660283" lon="7.473505"><ele>477.0</ele><time>2026-05-03T12:34:56.233Z</time></trkpt><trkpt lat="45.2658917" lon="7.4733417"><ele>478.0</ele><time>2026-05-03T12:34:57.233Z</time></trkpt><trkpt lat="45.2657683" lon="7.4731683"><ele>479.0</ele><time>2026-05-03T12:34:58.233Z</time></trkpt><trkpt lat="45.2656317" lon="7.4730133"><ele>480.0</ele><time>2026-05-03T12:34:59.233Z</time></trkpt><trkpt lat="45.265505" lon="7.4728483"><ele>481.0</ele><time>2026-05-03T12:35:00.233Z</time></trkpt><trkpt lat="45.2653833" lon="7.4726817"><ele>482.0</ele><time>2026-05-03T12:35:01.233Z</time></trkpt><trkpt lat="45.26525" lon="7.472525"><ele>482.0</ele><time>2026-05-03T12:35:02.233Z</time></trkpt><trkpt lat="45.2651267" lon="7.4723433"><ele>482.0</ele><time>2026-05-03T12:35:03.233Z</time></trkpt><trkpt lat="45.2649933" lon="7.4721767"><ele>482.0</ele><time>2026-05-03T12:35:04.233Z</time></trkpt><trkpt lat="45.2648683" lon="7.4720133"><ele>481.66666666666663</ele><time>2026-05-03T12:35:05.233Z</time></trkpt><trkpt lat="45.26474" lon="7.4718367"><ele>481.33333333333337</ele><time>2026-05-03T12:35:06.233Z</time></trkpt><trkpt lat="45.2646083" lon="7.4716683"><ele>481.0</ele><time>2026-05-03T12:35:07.233Z</time></trkpt><trkpt lat="45.26448" lon="7.47151"><ele>481.0</ele><time>2026-05-03T12:35:08.232Z</time></trkpt><trkpt lat="45.2643533" lon="7.47134"><ele>481.0</ele><time>2026-05-03T12:35:09.232Z</time></trkpt><trkpt lat="45.26423" lon="7.4711667"><ele>481.0</ele><time>2026-05-03T12:35:10.233Z</time></trkpt><trkpt lat="45.2640967" lon="7.4710017"><ele>481.6666666666667</ele><time>2026-05-03T12:35:11.233Z</time></trkpt><trkpt lat="45.2639717" lon="7.47085"><ele>482.33333333333337</ele><time>2026-05-03T12:35:12.232Z</time></trkpt><trkpt lat="45.2638433" lon="7.4706917"><ele>483.0</ele><time>2026-05-03T12:35:13.232Z</time></trkpt><trkpt lat="45.2637267" lon="7.4705317"><ele>483.33333333333337</ele><time>2026-05-03T12:35:14.233Z</time></trkpt><trkpt lat="45.2636267" lon="7.4703633"><ele>483.6666666666667</ele><time>2026-05-03T12:35:15.233Z</time></trkpt><trkpt lat="45.2634933" lon="7.470225"><ele>484.0</ele><time>2026-05-03T12:35:16.233Z</time></trkpt><trkpt lat="45.2633767" lon="7.4700783"><ele>484.0</ele><time>2026-05-03T12:35:17.233Z</time></trkpt><trkpt lat="45.2632533" lon="7.4699367"><ele>484.0</ele><time>2026-05-03T12:35:18.233Z</time></trkpt><trkpt lat="45.2631483" lon="7.4697767"><ele>484.0</ele><time>2026-05-03T12:35:19.233Z</time></trkpt><trkpt lat="45.263035" lon="7.4696283"><ele>483.6666666666667</ele><time>2026-05-03T12:35:20.233Z</time></trkpt><trkpt lat="45.2629217" lon="7.46948"><ele>483.33333333333337</ele><time>2026-05-03T12:35:21.233Z</time></trkpt><trkpt lat="45.2628067" lon="7.4693333"><ele>483.0</ele><time>2026-05-03T12:35:22.233Z</time></trkpt><trkpt lat="45.2626933" lon="7.46919"><ele>483.0</ele><time>2026-05-03T12:35:23.233Z</time></trkpt><trkpt lat="45.2625833" lon="7.46904"><ele>483.0</ele><time>2026-05-03T12:35:24.233Z</time></trkpt><trkpt lat="45.2624683" lon="7.4689"><ele>483.0</ele><time>2026-05-03T12:35:25.233Z</time></trkpt><trkpt lat="45.26235" lon="7.4687567"><ele>483.33333333333337</ele><time>2026-05-03T12:35:26.233Z</time></trkpt><trkpt lat="45.2622367" lon="7.4686133"><ele>483.6666666666667</ele><time>2026-05-03T12:35:27.233Z</time></trkpt><trkpt lat="45.2621167" lon="7.46847"><ele>484.0</ele><time>2026-05-03T12:35:28.233Z</time></trkpt><trkpt lat="45.262" lon="7.4683217"><ele>484.0</ele><time>2026-05-03T12:35:29.233Z</time></trkpt><trkpt lat="45.2618817" lon="7.4681833"><ele>484.0</ele><time>2026-05-03T12:35:30.233Z</time></trkpt><trkpt lat="45.2617667" lon="7.4680367"><ele>484.0</ele><time>2026-05-03T12:35:31.233Z</time></trkpt><trkpt lat="45.2616533" lon="7.4678833"><ele>484.5</ele><time>2026-05-03T12:35:32.233Z</time></trkpt><trkpt lat="45.261535" lon="7.4677383"><ele>485.0</ele><time>2026-05-03T12:35:33.233Z</time></trkpt><trkpt lat="45.2614283" lon="7.4675983"><ele>485.5</ele><time>2026-05-03T12:35:34.233Z</time></trkpt><trkpt lat="45.2613267" lon="7.4674617"><ele>486.0</ele><time>2026-05-03T12:35:35.233Z</time></trkpt><trkpt lat="45.2612283" lon="7.46734"><ele>486.0</ele><time>2026-05-03T12:35:36.233Z</time></trkpt><trkpt lat="45.2611383" lon="7.4672333"><ele>486.0</ele><time>2026-05-03T12:35:37.233Z</time></trkpt><trkpt lat="45.2610517" lon="7.4671133"><ele>486.0</ele><time>2026-05-03T12:35:38.232Z</time></trkpt><trkpt lat="45.2609533" lon="7.4669883"><ele>486.0</ele><time>2026-05-03T12:35:39.233Z</time></trkpt><trkpt lat="45.260865" lon="7.4668633"><ele>486.25</ele><time>2026-05-03T12:35:40.233Z</time></trkpt><trkpt lat="45.2607633" lon="7.4667617"><ele>486.5</ele><time>2026-05-03T12:35:41.233Z</time></trkpt><trkpt lat="45.2606833" lon="7.4666433"><ele>486.75</ele><time>2026-05-03T12:35:42.233Z</time></trkpt><trkpt lat="45.2606117" lon="7.4665167"><ele>487.0</ele><time>2026-05-03T12:35:43.233Z</time></trkpt><trkpt lat="45.260555" lon="7.4663833"><ele>486.20000000000005</ele><time>2026-05-03T12:35:44.232Z</time></trkpt><trkpt lat="45.2605167" lon="7.4662333"><ele>485.40000000000003</ele><time>2026-05-03T12:35:45.233Z</time></trkpt><trkpt lat="45.260505" lon="7.4660783"><ele>484.59999999999997</ele><time>2026-05-03T12:35:46.233Z</time></trkpt><trkpt lat="45.260525" lon="7.4659083"><ele>483.79999999999995</ele><time>2026-05-03T12:35:47.233Z</time></trkpt><trkpt lat="45.260545" lon="7.4657783"><ele>483.0</ele><time>2026-05-03T12:35:48.233Z</time></trkpt><trkpt lat="45.2605783" lon="7.4656433"><ele>483.0</ele><time>2026-05-03T12:35:49.233Z</time></trkpt><trkpt lat="45.2606067" lon="7.46552"><ele>483.0</ele><time>2026-05-03T12:35:50.233Z</time></trkpt><trkpt lat="45.2606233" lon="7.4654083"><ele>483.0</ele><time>2026-05-03T12:35:51.233Z</time></trkpt><trkpt lat="45.2606417" lon="7.4653"><ele>483.0</ele><time>2026-05-03T12:35:52.233Z</time></trkpt><trkpt lat="45.2606433" lon="7.4651917"><ele>483.0</ele><time>2026-05-03T12:35:53.233Z</time></trkpt><trkpt lat="45.26062" lon="7.4650867"><ele>483.0</ele><time>2026-05-03T12:35:54.233Z</time></trkpt><trkpt lat="45.2605933" lon="7.46497"><ele>483.59999999999997</ele><time>2026-05-03T12:35:55.233Z</time></trkpt><trkpt lat="45.2605833" lon="7.4648367"><ele>484.19999999999993</ele><time>2026-05-03T12:35:56.233Z</time></trkpt><trkpt lat="45.2605817" lon="7.4646883"><ele>484.8</ele><time>2026-05-03T12:35:57.233Z</time></trkpt><trkpt lat="45.2605883" lon="7.4645283"><ele>485.4</ele><time>2026-05-03T12:35:58.233Z</time></trkpt><trkpt lat="45.260605" lon="7.4643517"><ele>486.0</ele><time>2026-05-03T12:35:59.233Z</time></trkpt><trkpt lat="45.2606117" lon="7.464165"><ele>489.0</ele><time>2026-05-03T12:36:00.233Z</time></trkpt><trkpt lat="45.26062" lon="7.46397"><ele>492.0</ele><time>2026-05-03T12:36:01.233Z</time></trkpt><trkpt lat="45.2606233" lon="7.4637633"><ele>495.0</ele><time>2026-05-03T12:36:02.233Z</time></trkpt><trkpt lat="45.2606383" lon="7.4635567"><ele>498.0</ele><time>2026-05-03T12:36:03.233Z</time></trkpt><trkpt lat="45.2606467" lon="7.46334"><ele>498.0</ele><time>2026-05-03T12:36:04.233Z</time></trkpt><trkpt lat="45.2606617" lon="7.4631233"><ele>498.0</ele><time>2026-05-03T12:36:05.233Z</time></trkpt><trkpt lat="45.26067" lon="7.4629"><ele>498.0</ele><time>2026-05-03T12:36:06.233Z</time></trkpt><trkpt lat="45.2606817" lon="7.462685"><ele>498.5</ele><time>2026-05-03T12:36:07.233Z</time></trkpt><trkpt lat="45.2606917" lon="7.4624917"><ele>499.0</ele><time>2026-05-03T12:36:08.233Z</time></trkpt><trkpt lat="45.2607083" lon="7.462295"><ele>499.5</ele><time>2026-05-03T12:36:09.232Z</time></trkpt><trkpt lat="45.2607217" lon="7.4620983"><ele>500.0</ele><time>2026-05-03T12:36:10.232Z</time></trkpt><trkpt lat="45.2607333" lon="7.4619067"><ele>500.25</ele><time>2026-05-03T12:36:11.233Z</time></trkpt><trkpt lat="45.2607483" lon="7.4617167"><ele>500.5</ele><time>2026-05-03T12:36:12.233Z</time></trkpt><trkpt lat="45.2607683" lon="7.46153"><ele>500.75</ele><time>2026-05-03T12:36:13.233Z</time></trkpt><trkpt lat="45.2607883" lon="7.4613433"><ele>501.0</ele><time>2026-05-03T12:36:14.233Z</time></trkpt><trkpt lat="45.2608017" lon="7.4611783"><ele>499.6666666666667</ele><time>2026-05-03T12:36:15.233Z</time></trkpt><trkpt lat="45.2608117" lon="7.4610317"><ele>498.33333333333337</ele><time>2026-05-03T12:36:16.233Z</time></trkpt><trkpt lat="45.260815" lon="7.46091"><ele>497.0</ele><time>2026-05-03T12:36:17.232Z</time></trkpt><trkpt lat="45.2608183" lon="7.4608167"><ele>495.6666666666667</ele><time>2026-05-03T12:36:18.233Z</time></trkpt><trkpt lat="45.2608283" lon="7.460675"><ele>494.33333333333337</ele><time>2026-05-03T12:36:20.233Z</time></trkpt><trkpt lat="45.2608417" lon="7.460585"><ele>493.0</ele><time>2026-05-03T12:36:21.233Z</time></trkpt><trkpt lat="45.260875" lon="7.4604967"><ele>491.6666666666667</ele><time>2026-05-03T12:36:22.233Z</time></trkpt><trkpt lat="45.2609183" lon="7.4604167"><ele>490.33333333333337</ele><time>2026-05-03T12:36:23.233Z</time></trkpt><trkpt lat="45.260975" lon="7.46033"><ele>489.0</ele><time>2026-05-03T12:36:24.233Z</time></trkpt><trkpt lat="45.2610433" lon="7.4602433"><ele>487.66666666666663</ele><time>2026-05-03T12:36:25.233Z</time></trkpt><trkpt lat="45.2611133" lon="7.4601617"><ele>486.3333333333333</ele><time>2026-05-03T12:36:26.233Z</time></trkpt><trkpt lat="45.2611783" lon="7.4600967"><ele>485.0</ele><time>2026-05-03T12:36:27.233Z</time></trkpt><trkpt lat="45.2612283" lon="7.46004"><ele>484.99999999999994</ele><time>2026-05-03T12:36:28.233Z</time></trkpt><trkpt lat="45.2612983" lon="7.4599617"><ele>485.0</ele><time>2026-05-03T12:36:30.233Z</time></trkpt><trkpt lat="45.2613333" lon="7.4598533"><ele>485.0</ele><time>2026-05-03T12:36:32.233Z</time></trkpt><trkpt lat="45.261305" lon="7.459705"><ele>485.0</ele><time>2026-05-03T12:36:34.233Z</time></trkpt><trkpt lat="45.261275" lon="7.4596183"><ele>484.99999999999994</ele><time>2026-05-03T12:36:35.233Z</time></trkpt><trkpt lat="45.2612383" lon="7.4595083"><ele>485.0</ele><time>2026-05-03T12:36:36.233Z</time></trkpt><trkpt lat="45.2611833" lon="7.4593617"><ele>485.0</ele><time>2026-05-03T12:36:37.233Z</time></trkpt><trkpt lat="45.2611333" lon="7.45921"><ele>485.0</ele><time>2026-05-03T12:36:38.233Z</time></trkpt><trkpt lat="45.2610817" lon="7.4590717"><ele>485.0</ele><time>2026-05-03T12:36:39.233Z</time></trkpt><trkpt lat="45.261045" lon="7.4589267"><ele>485.0</ele><time>2026-05-03T12:36:40.233Z</time></trkpt><trkpt lat="45.26102" lon="7.45877"><ele>488.0</ele><time>2026-05-03T12:36:41.233Z</time></trkpt><trkpt lat="45.26101" lon="7.458605"><ele>491.0</ele><time>2026-05-03T12:36:42.233Z</time></trkpt><trkpt lat="45.261015" lon="7.458445"><ele>494.0</ele><time>2026-05-03T12:36:43.232Z</time></trkpt><trkpt lat="45.261025" lon="7.458285"><ele>497.0</ele><time>2026-05-03T12:36:44.233Z</time></trkpt><trkpt lat="45.2610267" lon="7.4581117"><ele>499.0</ele><time>2026-05-03T12:36:45.232Z</time></trkpt><trkpt lat="45.2610117" lon="7.4579433"><ele>501.00000000000006</ele><time>2026-05-03T12:36:46.233Z</time></trkpt><trkpt lat="45.2609817" lon="7.45779"><ele>503.00000000000006</ele><time>2026-05-03T12:36:47.233Z</time></trkpt><trkpt lat="45.2609433" lon="7.4576467"><ele>505.0</ele><time>2026-05-03T12:36:48.233Z</time></trkpt><trkpt lat="45.26091" lon="7.457515"><ele>507.0</ele><time>2026-05-03T12:36:49.233Z</time></trkpt><trkpt lat="45.260885" lon="7.4573883"><ele>507.0</ele><time>2026-05-03T12:36:50.233Z</time></trkpt><trkpt lat="45.260865" lon="7.45727"><ele>507.00000000000006</ele><time>2026-05-03T12:36:51.233Z</time></trkpt><trkpt lat="45.2608517" lon="7.457135"><ele>507.00000000000006</ele><time>2026-05-03T12:36:52.233Z</time></trkpt><trkpt lat="45.2608433" lon="7.4569967"><ele>507.0</ele><time>2026-05-03T12:36:53.233Z</time></trkpt><trkpt lat="45.260825" lon="7.4568517"><ele>507.0</ele><time>2026-05-03T12:36:54.233Z</time></trkpt><trkpt lat="45.2608" lon="7.456695"><ele>509.40000000000003</ele><time>2026-05-03T12:36:55.233Z</time></trkpt><trkpt lat="45.2607667" lon="7.4565433"><ele>511.80000000000007</ele><time>2026-05-03T12:36:56.233Z</time></trkpt><trkpt lat="45.260715" lon="7.4563983"><ele>514.2</ele><time>2026-05-03T12:36:57.233Z</time></trkpt><trkpt lat="45.2606617" lon="7.4562667"><ele>516.6</ele><time>2026-05-03T12:36:58.233Z</time></trkpt><trkpt lat="45.2606" lon="7.4561483"><ele>519.0</ele><time>2026-05-03T12:36:59.233Z</time></trkpt><trkpt lat="45.26054" lon="7.45604"><ele>520.6666666666666</ele><time>2026-05-03T12:37:00.233Z</time></trkpt><trkpt lat="45.2604917" lon="7.45595"><ele>522.3333333333334</ele><time>2026-05-03T12:37:01.233Z</time></trkpt><trkpt lat="45.26047" lon="7.455865"><ele>524.0</ele><time>2026-05-03T12:37:02.233Z</time></trkpt><trkpt lat="45.26051" lon="7.45577"><ele>525.6666666666667</ele><time>2026-05-03T12:37:04.233Z</time></trkpt><trkpt lat="45.2605933" lon="7.4558217"><ele>527.3333333333334</ele><time>2026-05-03T12:37:06.233Z</time></trkpt><trkpt lat="45.2606367" lon="7.4559133"><ele>529.0</ele><time>2026-05-03T12:37:07.233Z</time></trkpt><trkpt lat="45.26068" lon="7.4560367"><ele>529.0</ele><time>2026-05-03T12:37:08.232Z</time></trkpt><trkpt lat="45.2607267" lon="7.4561733"><ele>529.0</ele><time>2026-05-03T12:37:09.233Z</time></trkpt><trkpt lat="45.26078" lon="7.4563017"><ele>529.0</ele><time>2026-05-03T12:37:10.232Z</time></trkpt><trkpt lat="45.2608383" lon="7.4564267"><ele>529.0</ele><time>2026-05-03T12:37:11.233Z</time></trkpt><trkpt lat="45.2608983" lon="7.45657"><ele>529.0</ele><time>2026-05-03T12:37:12.233Z</time></trkpt><trkpt lat="45.260955" lon="7.4567183"><ele>526.5</ele><time>2026-05-03T12:37:13.233Z</time></trkpt><trkpt lat="45.2610117" lon="7.45688"><ele>524.0</ele><time>2026-05-03T12:37:14.233Z</time></trkpt><trkpt lat="45.261065" lon="7.4570333"><ele>521.5</ele><time>2026-05-03T12:37:15.233Z</time></trkpt><trkpt lat="45.2611017" lon="7.45718"><ele>519.0</ele><time>2026-05-03T12:37:16.233Z</time></trkpt><trkpt lat="45.26115" lon="7.4573083"><ele>518.0</ele><time>2026-05-03T12:37:17.233Z</time></trkpt><trkpt lat="45.2611983" lon="7.4574317"><ele>517.0</ele><time>2026-05-03T12:37:18.233Z</time></trkpt><trkpt lat="45.2612483" lon="7.4575433"><ele>516.0</ele><time>2026-05-03T12:37:19.233Z</time></trkpt><trkpt lat="45.2613133" lon="7.4576133"><ele>515.0</ele><time>2026-05-03T12:37:20.233Z</time></trkpt><trkpt lat="45.261385" lon="7.4576583"><ele>514.0</ele><time>2026-05-03T12:37:21.233Z</time></trkpt><trkpt lat="45.2614633" lon="7.4576667"><ele>513.0</ele><time>2026-05-03T12:37:22.233Z</time></trkpt><trkpt lat="45.2615567" lon="7.4576467"><ele>513.0</ele><time>2026-05-03T12:37:23.233Z</time></trkpt><trkpt lat="45.26166" lon="7.4576117"><ele>513.0</ele><time>2026-05-03T12:37:24.233Z</time></trkpt><trkpt lat="45.261765" lon="7.4575633"><ele>513.0</ele><time>2026-05-03T12:37:25.233Z</time></trkpt><trkpt lat="45.2618617" lon="7.4575083"><ele>513.0</ele><time>2026-05-03T12:37:26.233Z</time></trkpt><trkpt lat="45.261955" lon="7.4574383"><ele>513.0</ele><time>2026-05-03T12:37:27.233Z</time></trkpt><trkpt lat="45.2620433" lon="7.4573383"><ele>513.0</ele><time>2026-05-03T12:37:28.233Z</time></trkpt><trkpt lat="45.26211" lon="7.45722"><ele>513.0</ele><time>2026-05-03T12:37:29.233Z</time></trkpt><trkpt lat="45.2621683" lon="7.4570767"><ele>513.0</ele><time>2026-05-03T12:37:30.233Z</time></trkpt><trkpt lat="45.262235" lon="7.4569433"><ele>513.0</ele><time>2026-05-03T12:37:31.233Z</time></trkpt><trkpt lat="45.2623183" lon="7.45684"><ele>513.0</ele><time>2026-05-03T12:37:32.233Z</time></trkpt><trkpt lat="45.2624183" lon="7.4567717"><ele>514.0</ele><time>2026-05-03T12:37:33.233Z</time></trkpt><trkpt lat="45.2625233" lon="7.4567317"><ele>515.0</ele><time>2026-05-03T12:37:34.233Z</time></trkpt><trkpt lat="45.2626217" lon="7.4566733"><ele>516.0</ele><time>2026-05-03T12:37:35.233Z</time></trkpt><trkpt lat="45.26271" lon="7.4565833"><ele>517.0</ele><time>2026-05-03T12:37:36.233Z</time></trkpt><trkpt lat="45.26278" lon="7.4564917"><ele>518.0</ele><time>2026-05-03T12:37:37.233Z</time></trkpt><trkpt lat="45.2628367" lon="7.456405"><ele>518.0</ele><time>2026-05-03T12:37:38.233Z</time></trkpt><trkpt lat="45.262875" lon="7.4563233"><ele>518.0</ele><time>2026-05-03T12:37:39.233Z</time></trkpt><trkpt lat="45.2629033" lon="7.4562183"><ele>518.0</ele><time>2026-05-03T12:37:41.233Z</time></trkpt><trkpt lat="45.2629167" lon="7.4560633"><ele>518.0</ele><time>2026-05-03T12:37:51.232Z</time></trkpt><trkpt lat="45.262945" lon="7.45597"><ele>518.0</ele><time>2026-05-03T12:37:52.232Z</time></trkpt><trkpt lat="45.262985" lon="7.4558567"><ele>518.0</ele><time>2026-05-03T12:37:53.232Z</time></trkpt><trkpt lat="45.263025" lon="7.45572"><ele>519.4</ele><time>2026-05-03T12:37:54.233Z</time></trkpt><trkpt lat="45.2630717" lon="7.4555833"><ele>520.8</ele><time>2026-05-03T12:37:55.233Z</time></trkpt><trkpt lat="45.26312" lon="7.4554633"><ele>522.2</ele><time>2026-05-03T12:37:56.233Z</time></trkpt><trkpt lat="45.2631667" lon="7.455345"><ele>523.6</ele><time>2026-05-03T12:37:57.233Z</time></trkpt><trkpt lat="45.2632067" lon="7.4552317"><ele>525.0</ele><time>2026-05-03T12:37:58.233Z</time></trkpt><trkpt lat="45.2632467" lon="7.4551233"><ele>525.0</ele><time>2026-05-03T12:37:59.233Z</time></trkpt><trkpt lat="45.2632867" lon="7.45503"><ele>525.0</ele><time>2026-05-03T12:38:00.233Z</time></trkpt><trkpt lat="45.2633283" lon="7.4549083"><ele>525.0</ele><time>2026-05-03T12:38:02.233Z</time></trkpt><trkpt lat="45.2632767" lon="7.45496"><ele>525.0</ele><time>2026-05-03T12:38:06.233Z</time></trkpt><trkpt lat="45.2632417" lon="7.4550917"><ele>525.0</ele><time>2026-05-03T12:38:08.233Z</time></trkpt><trkpt lat="45.263215" lon="7.4551817"><ele>525.0</ele><time>2026-05-03T12:38:09.233Z</time></trkpt><trkpt lat="45.2631767" lon="7.455285"><ele>525.0</ele><time>2026-05-03T12:38:10.233Z</time></trkpt><trkpt lat="45.26314" lon="7.4554"><ele>525.0</ele><time>2026-05-03T12:38:11.233Z</time></trkpt><trkpt lat="45.2631" lon="7.45551"><ele>525.0</ele><time>2026-05-03T12:38:12.232Z</time></trkpt><trkpt lat="45.263055" lon="7.4556283"><ele>525.0</ele><time>2026-05-03T12:38:13.233Z</time></trkpt><trkpt lat="45.2630033" lon="7.4557583"><ele>525.0</ele><time>2026-05-03T12:38:14.233Z</time></trkpt><trkpt lat="45.2629533" lon="7.455895"><ele>523.25</ele><time>2026-05-03T12:38:15.233Z</time></trkpt><trkpt lat="45.2629117" lon="7.456045"><ele>521.5</ele><time>2026-05-03T12:38:16.233Z</time></trkpt><trkpt lat="45.2628683" lon="7.4561983"><ele>519.75</ele><time>2026-05-03T12:38:17.233Z</time></trkpt><trkpt lat="45.262815" lon="7.4563433"><ele>518.0</ele><time>2026-05-03T12:38:18.233Z</time></trkpt><trkpt lat="45.26275" lon="7.4564717"><ele>518.0</ele><time>2026-05-03T12:38:19.233Z</time></trkpt><trkpt lat="45.26266" lon="7.4565767"><ele>518.0</ele><time>2026-05-03T12:38:20.233Z</time></trkpt><trkpt lat="45.2625617" lon="7.4566567"><ele>518.0</ele><time>2026-05-03T12:38:21.233Z</time></trkpt><trkpt lat="45.2624567" lon="7.4567167"><ele>518.0</ele><time>2026-05-03T12:38:22.233Z</time></trkpt><trkpt lat="45.26235" lon="7.4567683"><ele>517.0</ele><time>2026-05-03T12:38:23.233Z</time></trkpt><trkpt lat="45.262255" lon="7.456855"><ele>516.0</ele><time>2026-05-03T12:38:24.233Z</time></trkpt><trkpt lat="45.2621883" lon="7.4569683"><ele>515.0</ele><time>2026-05-03T12:38:25.233Z</time></trkpt><trkpt lat="45.2621317" lon="7.457095"><ele>514.0</ele><time>2026-05-03T12:38:26.233Z</time></trkpt><trkpt lat="45.2620683" lon="7.4572283"><ele>513.0</ele><time>2026-05-03T12:38:27.233Z</time></trkpt><trkpt lat="45.262" lon="7.457335"><ele>513.0</ele><time>2026-05-03T12:38:28.233Z</time></trkpt><trkpt lat="45.2619183" lon="7.4574117"><ele>513.0</ele><time>2026-05-03T12:38:29.232Z</time></trkpt><trkpt lat="45.2618267" lon="7.4574683"><ele>513.0</ele><time>2026-05-03T12:38:30.233Z</time></trkpt><trkpt lat="45.2617217" lon="7.45751"><ele>513.0</ele><time>2026-05-03T12:38:31.233Z</time></trkpt><trkpt lat="45.2616167" lon="7.4575417"><ele>513.0</ele><time>2026-05-03T12:38:32.233Z</time></trkpt><trkpt lat="45.261505" lon="7.4575683"><ele>511.79999999999995</ele><time>2026-05-03T12:38:33.233Z</time></trkpt><trkpt lat="45.2614067" lon="7.4575717"><ele>510.59999999999997</ele><time>2026-05-03T12:38:34.233Z</time></trkpt><trkpt lat="45.2613133" lon="7.457525"><ele>509.40000000000003</ele><time>2026-05-03T12:38:35.233Z</time></trkpt><trkpt lat="45.2612467" lon="7.45743"><ele>508.20000000000005</ele><time>2026-05-03T12:38:36.233Z</time></trkpt><trkpt lat="45.2611967" lon="7.4573117"><ele>507.0</ele><time>2026-05-03T12:38:37.232Z</time></trkpt><trkpt lat="45.2611567" lon="7.457145"><ele>510.0</ele><time>2026-05-03T12:38:38.233Z</time></trkpt><trkpt lat="45.26111" lon="7.4569767"><ele>513.0</ele><time>2026-05-03T12:38:39.233Z</time></trkpt><trkpt lat="45.2610583" lon="7.4568117"><ele>516.0</ele><time>2026-05-03T12:38:40.233Z</time></trkpt><trkpt lat="45.261" lon="7.4566433"><ele>519.0</ele><time>2026-05-03T12:38:41.233Z</time></trkpt><trkpt lat="45.26093" lon="7.4564817"><ele>519.0</ele><time>2026-05-03T12:38:42.232Z</time></trkpt><trkpt lat="45.2608683" lon="7.456325"><ele>519.0</ele><time>2026-05-03T12:38:43.233Z</time></trkpt><trkpt lat="45.2608033" lon="7.456185"><ele>519.0</ele><time>2026-05-03T12:38:44.233Z</time></trkpt><trkpt lat="45.2607383" lon="7.4560567"><ele>519.0</ele><time>2026-05-03T12:38:45.233Z</time></trkpt><trkpt lat="45.2606783" lon="7.45593"><ele>520.6666666666666</ele><time>2026-05-03T12:38:46.232Z</time></trkpt><trkpt lat="45.2606267" lon="7.4558183"><ele>522.3333333333334</ele><time>2026-05-03T12:38:47.233Z</time></trkpt><trkpt lat="45.2605833" lon="7.455725"><ele>524.0</ele><time>2026-05-03T12:38:48.233Z</time></trkpt><trkpt lat="45.2605267" lon="7.4556783"><ele>525.6666666666667</ele><time>2026-05-03T12:38:49.233Z</time></trkpt><trkpt lat="45.2604617" lon="7.4556717"><ele>527.3333333333334</ele><time>2026-05-03T12:38:50.233Z</time></trkpt><trkpt lat="45.2604433" lon="7.4558567"><ele>529.0</ele><time>2026-05-03T12:38:52.233Z</time></trkpt><trkpt lat="45.2604767" lon="7.456"><ele>529.5</ele><time>2026-05-03T12:38:53.233Z</time></trkpt><trkpt lat="45.260525" lon="7.45614"><ele>530.0</ele><time>2026-05-03T12:38:54.233Z</time></trkpt><trkpt lat="45.2605983" lon="7.4562867"><ele>530.5</ele><time>2026-05-03T12:38:55.233Z</time></trkpt><trkpt lat="45.2606683" lon="7.4564433"><ele>531.0</ele><time>2026-05-03T12:38:56.233Z</time></trkpt><trkpt lat="45.2607283" lon="7.4566"><ele>528.0</ele><time>2026-05-03T12:38:57.233Z</time></trkpt><trkpt lat="45.2607883" lon="7.4567567"><ele>525.0</ele><time>2026-05-03T12:38:58.233Z</time></trkpt><trkpt lat="45.2608017" lon="7.456925"><ele>522.0</ele><time>2026-05-03T12:38:59.233Z</time></trkpt><trkpt lat="45.2608083" lon="7.4570967"><ele>519.0</ele><time>2026-05-03T12:39:00.233Z</time></trkpt><trkpt lat="45.2608233" lon="7.4572633"><ele>516.0</ele><time>2026-05-03T12:39:01.233Z</time></trkpt><trkpt lat="45.260855" lon="7.4574167"><ele>513.0</ele><time>2026-05-03T12:39:02.232Z</time></trkpt><trkpt lat="45.2609017" lon="7.4575683"><ele>510.0</ele><time>2026-05-03T12:39:03.233Z</time></trkpt><trkpt lat="45.2609517" lon="7.4577217"><ele>507.0</ele><time>2026-05-03T12:39:04.233Z</time></trkpt><trkpt lat="45.2609883" lon="7.45787"><ele>504.5</ele><time>2026-05-03T12:39:05.233Z</time></trkpt><trkpt lat="45.2610117" lon="7.4580267"><ele>502.0</ele><time>2026-05-03T12:39:06.233Z</time></trkpt><trkpt lat="45.2610317" lon="7.4581867"><ele>499.5</ele><time>2026-05-03T12:39:07.233Z</time></trkpt><trkpt lat="45.2610217" lon="7.4583583"><ele>497.0</ele><time>2026-05-03T12:39:08.232Z</time></trkpt><trkpt lat="45.2610033" lon="7.4585233"><ele>497.0</ele><time>2026-05-03T12:39:09.233Z</time></trkpt><trkpt lat="45.2610017" lon="7.458695"><ele>497.00000000000006</ele><time>2026-05-03T12:39:10.233Z</time></trkpt><trkpt lat="45.2610133" lon="7.458855"><ele>497.00000000000006</ele><time>2026-05-03T12:39:11.232Z</time></trkpt><trkpt lat="45.26105" lon="7.459"><ele>497.0</ele><time>2026-05-03T12:39:12.233Z</time></trkpt><trkpt lat="45.2610917" lon="7.4591367"><ele>497.0</ele><time>2026-05-03T12:39:13.233Z</time></trkpt><trkpt lat="45.2611317" lon="7.4592617"><ele>494.99999999999994</ele><time>2026-05-03T12:39:14.232Z</time></trkpt><trkpt lat="45.26117" lon="7.4593783"><ele>493.0</ele><time>2026-05-03T12:39:15.232Z</time></trkpt><trkpt lat="45.2611983" lon="7.4594933"><ele>491.0</ele><time>2026-05-03T12:39:16.233Z</time></trkpt><trkpt lat="45.2612333" lon="7.4596017"><ele>489.0</ele><time>2026-05-03T12:39:17.232Z</time></trkpt><trkpt lat="45.26126" lon="7.4596883"><ele>486.99999999999994</ele><time>2026-05-03T12:39:18.233Z</time></trkpt><trkpt lat="45.2612917" lon="7.4598167"><ele>485.0</ele><time>2026-05-03T12:39:20.232Z</time></trkpt><trkpt lat="45.2612667" lon="7.4599133"><ele>484.99999999999994</ele><time>2026-05-03T12:39:22.233Z</time></trkpt><trkpt lat="45.2612" lon="7.4600317"><ele>485.0</ele><time>2026-05-03T12:39:24.233Z</time></trkpt><trkpt lat="45.2611483" lon="7.4600933"><ele>485.0</ele><time>2026-05-03T12:39:25.233Z</time></trkpt><trkpt lat="45.2610883" lon="7.4601617"><ele>485.0</ele><time>2026-05-03T12:39:26.232Z</time></trkpt><trkpt lat="45.2610283" lon="7.4602317"><ele>484.99999999999994</ele><time>2026-05-03T12:39:27.232Z</time></trkpt><trkpt lat="45.2609633" lon="7.4603033"><ele>485.0</ele><time>2026-05-03T12:39:28.233Z</time></trkpt><trkpt lat="45.2609033" lon="7.4603733"><ele>484.99999999999994</ele><time>2026-05-03T12:39:29.232Z</time></trkpt><trkpt lat="45.2608467" lon="7.4604233"><ele>485.0</ele><time>2026-05-03T12:39:30.233Z</time></trkpt><trkpt lat="45.2607833" lon="7.4604667"><ele>485.0</ele><time>2026-05-03T12:39:31.233Z</time></trkpt><trkpt lat="45.2607217" lon="7.4605283"><ele>485.0</ele><time>2026-05-03T12:39:32.233Z</time></trkpt><trkpt lat="45.2606817" lon="7.460605"><ele>484.99999999999994</ele><time>2026-05-03T12:39:33.232Z</time></trkpt><trkpt lat="45.2606783" lon="7.4607783"><ele>485.0</ele><time>2026-05-03T12:39:35.233Z</time></trkpt><trkpt lat="45.26072" lon="7.4608767"><ele>486.3333333333333</ele><time>2026-05-03T12:39:36.232Z</time></trkpt><trkpt lat="45.2607567" lon="7.4609817"><ele>487.66666666666663</ele><time>2026-05-03T12:39:37.233Z</time></trkpt><trkpt lat="45.2607717" lon="7.4610983"><ele>489.0</ele><time>2026-05-03T12:39:38.233Z</time></trkpt><trkpt lat="45.2607733" lon="7.4612267"><ele>490.33333333333337</ele><time>2026-05-03T12:39:39.233Z</time></trkpt><trkpt lat="45.2607583" lon="7.4613583"><ele>491.6666666666667</ele><time>2026-05-03T12:39:40.233Z</time></trkpt><trkpt lat="45.2607483" lon="7.4614933"><ele>493.0</ele><time>2026-05-03T12:39:41.233Z</time></trkpt><trkpt lat="45.26074" lon="7.461635"><ele>494.4</ele><time>2026-05-03T12:39:42.233Z</time></trkpt><trkpt lat="45.2607283" lon="7.46178"><ele>495.79999999999995</ele><time>2026-05-03T12:39:43.233Z</time></trkpt><trkpt lat="45.2607167" lon="7.4619217"><ele>497.2</ele><time>2026-05-03T12:39:44.233Z</time></trkpt><trkpt lat="45.26071" lon="7.4620683"><ele>498.6</ele><time>2026-05-03T12:39:45.232Z</time></trkpt><trkpt lat="45.2606967" lon="7.4622233"><ele>500.0</ele><time>2026-05-03T12:39:46.233Z</time></trkpt><trkpt lat="45.260685" lon="7.46237"><ele>500.0</ele><time>2026-05-03T12:39:47.233Z</time></trkpt><trkpt lat="45.260675" lon="7.4625133"><ele>500.0</ele><time>2026-05-03T12:39:48.233Z</time></trkpt><trkpt lat="45.2606633" lon="7.4626533"><ele>500.0</ele><time>2026-05-03T12:39:49.233Z</time></trkpt><trkpt lat="45.2606533" lon="7.4627967"><ele>500.0</ele><time>2026-05-03T12:39:50.233Z</time></trkpt><trkpt lat="45.2606433" lon="7.4629467"><ele>500.0</ele><time>2026-05-03T12:39:51.233Z</time></trkpt><trkpt lat="45.2606333" lon="7.4630967"><ele>499.6</ele><time>2026-05-03T12:39:52.233Z</time></trkpt><trkpt lat="45.2606233" lon="7.4632433"><ele>499.2</ele><time>2026-05-03T12:39:53.233Z</time></trkpt><trkpt lat="45.26061" lon="7.46339"><ele>498.79999999999995</ele><time>2026-05-03T12:39:54.233Z</time></trkpt><trkpt lat="45.260595" lon="7.463535"><ele>498.4</ele><time>2026-05-03T12:39:55.233Z</time></trkpt><trkpt lat="45.2605833" lon="7.4636783"><ele>498.0</ele><time>2026-05-03T12:39:56.233Z</time></trkpt><trkpt lat="45.2605717" lon="7.4638333"><ele>495.59999999999997</ele><time>2026-05-03T12:39:57.233Z</time></trkpt><trkpt lat="45.26056" lon="7.46399"><ele>493.19999999999993</ele><time>2026-05-03T12:39:58.233Z</time></trkpt><trkpt lat="45.26055" lon="7.4641467"><ele>490.8</ele><time>2026-05-03T12:39:59.233Z</time></trkpt><trkpt lat="45.26054" lon="7.4643017"><ele>488.4</ele><time>2026-05-03T12:40:00.232Z</time></trkpt><trkpt lat="45.2605267" lon="7.4644483"><ele>486.0</ele><time>2026-05-03T12:40:01.233Z</time></trkpt><trkpt lat="45.2605217" lon="7.4645883"><ele>486.1666666666667</ele><time>2026-05-03T12:40:02.232Z</time></trkpt><trkpt lat="45.2605167" lon="7.4647217"><ele>486.33333333333337</ele><time>2026-05-03T12:40:03.232Z</time></trkpt><trkpt lat="45.26052" lon="7.4648483"><ele>486.5</ele><time>2026-05-03T12:40:04.233Z</time></trkpt><trkpt lat="45.2605283" lon="7.4649683"><ele>486.6666666666667</ele><time>2026-05-03T12:40:05.233Z</time></trkpt><trkpt lat="45.26055" lon="7.4650733"><ele>486.83333333333337</ele><time>2026-05-03T12:40:06.233Z</time></trkpt><trkpt lat="45.260575" lon="7.4651617"><ele>487.0</ele><time>2026-05-03T12:40:07.233Z</time></trkpt><trkpt lat="45.2606033" lon="7.4652567"><ele>486.20000000000005</ele><time>2026-05-03T12:40:08.232Z</time></trkpt><trkpt lat="45.2606317" lon="7.4653417"><ele>485.40000000000003</ele><time>2026-05-03T12:40:09.233Z</time></trkpt><trkpt lat="45.2606333" lon="7.4654883"><ele>484.59999999999997</ele><time>2026-05-03T12:40:11.232Z</time></trkpt><trkpt lat="45.2605983" lon="7.4656283"><ele>483.79999999999995</ele><time>2026-05-03T12:40:13.233Z</time></trkpt><trkpt lat="45.26055" lon="7.465765"><ele>483.0</ele><time>2026-05-03T12:40:15.233Z</time></trkpt><trkpt lat="45.2605183" lon="7.4658833"><ele>483.0</ele><time>2026-05-03T12:40:17.233Z</time></trkpt><trkpt lat="45.2605183" lon="7.4659933"><ele>482.99999999999994</ele><time>2026-05-03T12:40:19.233Z</time></trkpt><trkpt lat="45.2605417" lon="7.465895"><ele>482.99999999999994</ele><time>2026-05-03T12:41:37.232Z</time></trkpt><trkpt lat="45.260575" lon="7.465735"><ele>483.0</ele><time>2026-05-03T12:41:39.233Z</time></trkpt><trkpt lat="45.2606083" lon="7.4655567"><ele>483.0</ele><time>2026-05-03T12:41:41.233Z</time></trkpt><trkpt lat="45.2606233" lon="7.4654533"><ele>483.6666666666667</ele><time>2026-05-03T12:41:42.232Z</time></trkpt><trkpt lat="45.2606283" lon="7.465345"><ele>484.33333333333337</ele><time>2026-05-03T12:41:43.233Z</time></trkpt><trkpt lat="45.2606183" lon="7.4652383"><ele>485.0</ele><time>2026-05-03T12:41:44.233Z</time></trkpt><trkpt lat="45.2605967" lon="7.4651283"><ele>485.6666666666667</ele><time>2026-05-03T12:41:45.233Z</time></trkpt><trkpt lat="45.260575" lon="7.46499"><ele>486.33333333333337</ele><time>2026-05-03T12:41:46.233Z</time></trkpt><trkpt lat="45.2605683" lon="7.4648483"><ele>487.0</ele><time>2026-05-03T12:41:47.233Z</time></trkpt><trkpt lat="45.2605733" lon="7.464705"><ele>486.75</ele><time>2026-05-03T12:41:48.233Z</time></trkpt><trkpt lat="45.260585" lon="7.4645533"><ele>486.5</ele><time>2026-05-03T12:41:49.233Z</time></trkpt><trkpt lat="45.2606" lon="7.4643883"><ele>486.25</ele><time>2026-05-03T12:41:50.233Z</time></trkpt><trkpt lat="45.2606083" lon="7.4642167"><ele>486.0</ele><time>2026-05-03T12:41:51.232Z</time></trkpt><trkpt lat="45.2606233" lon="7.4640483"><ele>489.0</ele><time>2026-05-03T12:41:52.233Z</time></trkpt><trkpt lat="45.2606333" lon="7.4638783"><ele>492.0</ele><time>2026-05-03T12:41:53.233Z</time></trkpt><trkpt lat="45.2606417" lon="7.4636917"><ele>495.0</ele><time>2026-05-03T12:41:54.232Z</time></trkpt><trkpt lat="45.2606533" lon="7.4635017"><ele>498.0</ele><time>2026-05-03T12:41:55.233Z</time></trkpt><trkpt lat="45.2606667" lon="7.463305"><ele>498.0</ele><time>2026-05-03T12:41:56.233Z</time></trkpt><trkpt lat="45.2606867" lon="7.463095"><ele>498.0</ele><time>2026-05-03T12:41:57.233Z</time></trkpt><trkpt lat="45.2606983" lon="7.462885"><ele>498.0</ele><time>2026-05-03T12:41:58.232Z</time></trkpt><trkpt lat="45.2607133" lon="7.4626767"><ele>498.0</ele><time>2026-05-03T12:41:59.233Z</time></trkpt><trkpt lat="45.2607333" lon="7.4624633"><ele>498.5</ele><time>2026-05-03T12:42:00.233Z</time></trkpt><trkpt lat="45.2607467" lon="7.46225"><ele>499.0</ele><time>2026-05-03T12:42:01.232Z</time></trkpt><trkpt lat="45.260755" lon="7.4620383"><ele>499.5</ele><time>2026-05-03T12:42:02.233Z</time></trkpt><trkpt lat="45.2607667" lon="7.4618317"><ele>500.0</ele><time>2026-05-03T12:42:03.233Z</time></trkpt><trkpt lat="45.2607783" lon="7.4616317"><ele>500.25</ele><time>2026-05-03T12:42:04.233Z</time></trkpt><trkpt lat="45.2607983" lon="7.4614467"><ele>500.5</ele><time>2026-05-03T12:42:05.233Z</time></trkpt><trkpt lat="45.2608117" lon="7.4612767"><ele>500.75</ele><time>2026-05-03T12:42:06.233Z</time></trkpt><trkpt lat="45.2608183" lon="7.4611083"><ele>501.0</ele><time>2026-05-03T12:42:07.233Z</time></trkpt><trkpt lat="45.2608217" lon="7.460955"><ele>499.4</ele><time>2026-05-03T12:42:08.233Z</time></trkpt><trkpt lat="45.2608333" lon="7.4608067"><ele>497.8</ele><time>2026-05-03T12:42:09.233Z</time></trkpt><trkpt lat="45.2608483" lon="7.46068"><ele>496.19999999999993</ele><time>2026-05-03T12:42:10.233Z</time></trkpt><trkpt lat="45.2608767" lon="7.4605567"><ele>494.59999999999997</ele><time>2026-05-03T12:42:11.233Z</time></trkpt><trkpt lat="45.26092" lon="7.4604433"><ele>493.0</ele><time>2026-05-03T12:42:12.233Z</time></trkpt><trkpt lat="45.2609783" lon="7.4603467"><ele>491.6666666666667</ele><time>2026-05-03T12:42:13.233Z</time></trkpt><trkpt lat="45.2610383" lon="7.46027"><ele>490.33333333333337</ele><time>2026-05-03T12:42:14.233Z</time></trkpt><trkpt lat="45.2610917" lon="7.46021"><ele>489.0</ele><time>2026-05-03T12:42:15.233Z</time></trkpt><trkpt lat="45.261175" lon="7.4601133"><ele>487.66666666666663</ele><time>2026-05-03T12:42:17.233Z</time></trkpt><trkpt lat="45.2612333" lon="7.460035"><ele>486.3333333333333</ele><time>2026-05-03T12:42:20.233Z</time></trkpt><trkpt lat="45.26128" lon="7.459975"><ele>485.0</ele><time>2026-05-03T12:42:24.233Z</time></trkpt><trkpt lat="45.2613183" lon="7.4598817"><ele>484.99999999999994</ele><time>2026-05-03T12:42:36.233Z</time></trkpt><trkpt lat="45.26131" lon="7.4597817"><ele>485.0</ele><time>2026-05-03T12:42:38.233Z</time></trkpt><trkpt lat="45.2612617" lon="7.4596267"><ele>485.0</ele><time>2026-05-03T12:42:40.233Z</time></trkpt><trkpt lat="45.2612383" lon="7.4595433"><ele>485.0</ele><time>2026-05-03T12:42:41.233Z</time></trkpt><trkpt lat="45.26122" lon="7.4594533"><ele>484.99999999999994</ele><time>2026-05-03T12:42:42.233Z</time></trkpt><trkpt lat="45.2611917" lon="7.459355"><ele>485.0</ele><time>2026-05-03T12:42:43.233Z</time></trkpt><trkpt lat="45.2611567" lon="7.4592483"><ele>485.0</ele><time>2026-05-03T12:42:44.233Z</time></trkpt><trkpt lat="45.2611167" lon="7.4591383"><ele>485.0</ele><time>2026-05-03T12:42:45.233Z</time></trkpt><trkpt lat="45.261075" lon="7.4590183"><ele>485.0</ele><time>2026-05-03T12:42:46.233Z</time></trkpt><trkpt lat="45.2610383" lon="7.4588883"><ele>485.0</ele><time>2026-05-03T12:42:47.233Z</time></trkpt><trkpt lat="45.26102" lon="7.4587517"><ele>485.0</ele><time>2026-05-03T12:42:48.233Z</time></trkpt><trkpt lat="45.2610133" lon="7.4586117"><ele>487.4</ele><time>2026-05-03T12:42:49.232Z</time></trkpt><trkpt lat="45.2610233" lon="7.4584683"><ele>489.8</ele><time>2026-05-03T12:42:50.233Z</time></trkpt><trkpt lat="45.2610317" lon="7.4583183"><ele>492.20000000000005</ele><time>2026-05-03T12:42:51.233Z</time></trkpt><trkpt lat="45.2610383" lon="7.4581617"><ele>494.6</ele><time>2026-05-03T12:42:52.233Z</time></trkpt><trkpt lat="45.2610317" lon="7.4580067"><ele>497.0</ele><time>2026-05-03T12:42:53.233Z</time></trkpt><trkpt lat="45.26101" lon="7.457855"><ele>499.0</ele><time>2026-05-03T12:42:54.233Z</time></trkpt><trkpt lat="45.2609817" lon="7.4577133"><ele>501.00000000000006</ele><time>2026-05-03T12:42:55.232Z</time></trkpt><trkpt lat="45.2609433" lon="7.4576083"><ele>503.00000000000006</ele><time>2026-05-03T12:42:56.233Z</time></trkpt><trkpt lat="45.2609083" lon="7.4574983"><ele>505.0</ele><time>2026-05-03T12:42:57.233Z</time></trkpt><trkpt lat="45.2608783" lon="7.4573767"><ele>507.0</ele><time>2026-05-03T12:42:58.233Z</time></trkpt><trkpt lat="45.2608567" lon="7.45724"><ele>509.40000000000003</ele><time>2026-05-03T12:42:59.233Z</time></trkpt><trkpt lat="45.26084" lon="7.4570983"><ele>511.80000000000007</ele><time>2026-05-03T12:43:00.233Z</time></trkpt><trkpt lat="45.2608267" lon="7.4569533"><ele>514.2</ele><time>2026-05-03T12:43:01.233Z</time></trkpt><trkpt lat="45.26081" lon="7.456805"><ele>516.6</ele><time>2026-05-03T12:43:02.232Z</time></trkpt><trkpt lat="45.26079" lon="7.4566767"><ele>519.0</ele><time>2026-05-03T12:43:03.233Z</time></trkpt><trkpt lat="45.2607583" lon="7.4565683"><ele>519.0</ele><time>2026-05-03T12:43:04.233Z</time></trkpt><trkpt lat="45.2607167" lon="7.45646"><ele>519.0</ele><time>2026-05-03T12:43:05.233Z</time></trkpt><trkpt lat="45.2606767" lon="7.4563483"><ele>519.0</ele><time>2026-05-03T12:43:06.233Z</time></trkpt><trkpt lat="45.2606283" lon="7.4562417"><ele>519.0</ele><time>2026-05-03T12:43:07.233Z</time></trkpt><trkpt lat="45.260585" lon="7.4561483"><ele>519.0</ele><time>2026-05-03T12:43:08.233Z</time></trkpt><trkpt lat="45.2605483" lon="7.45606"><ele>519.0</ele><time>2026-05-03T12:43:09.233Z</time></trkpt><trkpt lat="45.2605117" lon="7.4559833"><ele>521.0</ele><time>2026-05-03T12:43:10.233Z</time></trkpt><trkpt lat="45.2604733" lon="7.4558333"><ele>523.0</ele><time>2026-05-03T12:43:12.233Z</time></trkpt><trkpt lat="45.2605" lon="7.45571"><ele>525.0</ele><time>2026-05-03T12:43:14.233Z</time></trkpt><trkpt lat="45.2605733" lon="7.4557633"><ele>527.0</ele><time>2026-05-03T12:43:16.233Z</time></trkpt><trkpt lat="45.260635" lon="7.455875"><ele>529.0</ele><time>2026-05-03T12:43:17.233Z</time></trkpt><trkpt lat="45.2607033" lon="7.4560333"><ele>529.0</ele><time>2026-05-03T12:43:18.233Z</time></trkpt><trkpt lat="45.260775" lon="7.4562283"><ele>529.0</ele><time>2026-05-03T12:43:19.232Z</time></trkpt><trkpt lat="45.2608517" lon="7.45643"><ele>529.0</ele><time>2026-05-03T12:43:20.232Z</time></trkpt><trkpt lat="45.2609133" lon="7.456615"><ele>526.5</ele><time>2026-05-03T12:43:21.232Z</time></trkpt><trkpt lat="45.2609617" lon="7.4567917"><ele>524.0</ele><time>2026-05-03T12:43:22.232Z</time></trkpt><trkpt lat="45.2610183" lon="7.4569667"><ele>521.5</ele><time>2026-05-03T12:43:23.232Z</time></trkpt><trkpt lat="45.2610817" lon="7.4571417"><ele>519.0</ele><time>2026-05-03T12:43:24.232Z</time></trkpt><trkpt lat="45.2611467" lon="7.457295"><ele>517.8</ele><time>2026-05-03T12:43:25.232Z</time></trkpt><trkpt lat="45.2612133" lon="7.45743"><ele>516.5999999999999</ele><time>2026-05-03T12:43:26.232Z</time></trkpt><trkpt lat="45.26127" lon="7.4575467"><ele>515.4</ele><time>2026-05-03T12:43:27.232Z</time></trkpt><trkpt lat="45.2613383" lon="7.4576183"><ele>514.1999999999999</ele><time>2026-05-03T12:43:28.232Z</time></trkpt><trkpt lat="45.261425" lon="7.45764"><ele>513.0</ele><time>2026-05-03T12:43:29.232Z</time></trkpt><trkpt lat="45.2615217" lon="7.457625"><ele>513.0</ele><time>2026-05-03T12:43:30.232Z</time></trkpt><trkpt lat="45.2616267" lon="7.4575933"><ele>513.0</ele><time>2026-05-03T12:43:31.232Z</time></trkpt><trkpt lat="45.261735" lon="7.4575617"><ele>513.0</ele><time>2026-05-03T12:43:32.232Z</time></trkpt><trkpt lat="45.2618467" lon="7.45752"><ele>513.0</ele><time>2026-05-03T12:43:33.232Z</time></trkpt><trkpt lat="45.2619533" lon="7.4574383"><ele>513.0</ele><time>2026-05-03T12:43:34.232Z</time></trkpt><trkpt lat="45.2620483" lon="7.45733"><ele>513.0</ele><time>2026-05-03T12:43:35.231Z</time></trkpt><trkpt lat="45.2621267" lon="7.4571833"><ele>513.0</ele><time>2026-05-03T12:43:36.232Z</time></trkpt><trkpt lat="45.262185" lon="7.4570317"><ele>513.0</ele><time>2026-05-03T12:43:37.232Z</time></trkpt><trkpt lat="45.2622533" lon="7.4569033"><ele>514.25</ele><time>2026-05-03T12:43:38.232Z</time></trkpt><trkpt lat="45.26235" lon="7.4568117"><ele>515.5</ele><time>2026-05-03T12:43:39.232Z</time></trkpt><trkpt lat="45.2624617" lon="7.4567483"><ele>516.75</ele><time>2026-05-03T12:43:40.232Z</time></trkpt><trkpt lat="45.262575" lon="7.456685"><ele>518.0</ele><time>2026-05-03T12:43:41.232Z</time></trkpt><trkpt lat="45.2626867" lon="7.4565917"><ele>518.0</ele><time>2026-05-03T12:43:42.232Z</time></trkpt><trkpt lat="45.2627867" lon="7.4564567"><ele>518.0</ele><time>2026-05-03T12:43:43.232Z</time></trkpt><trkpt lat="45.2628633" lon="7.4563183"><ele>518.0</ele><time>2026-05-03T12:43:44.232Z</time></trkpt><trkpt lat="45.262915" lon="7.4561333"><ele>518.0</ele><time>2026-05-03T12:43:45.232Z</time></trkpt><trkpt lat="45.262975" lon="7.45594"><ele>519.75</ele><time>2026-05-03T12:43:46.232Z</time></trkpt><trkpt lat="45.2630333" lon="7.4557467"><ele>521.5</ele><time>2026-05-03T12:43:47.232Z</time></trkpt><trkpt lat="45.2630917" lon="7.4555633"><ele>523.25</ele><time>2026-05-03T12:43:48.232Z</time></trkpt><trkpt lat="45.2631517" lon="7.45538"><ele>525.0</ele><time>2026-05-03T12:43:49.232Z</time></trkpt><trkpt lat="45.26321" lon="7.4552083"><ele>525.0</ele><time>2026-05-03T12:43:50.232Z</time></trkpt><trkpt lat="45.2632817" lon="7.4550583"><ele>525.0</ele><time>2026-05-03T12:43:51.232Z</time></trkpt><trkpt lat="45.2633617" lon="7.4549217"><ele>525.0</ele><time>2026-05-03T12:43:52.231Z</time></trkpt><trkpt lat="45.2634533" lon="7.4548233"><ele>525.0</ele><time>2026-05-03T12:43:53.232Z</time></trkpt><trkpt lat="45.2635483" lon="7.4547283"><ele>525.0</ele><time>2026-05-03T12:43:54.231Z</time></trkpt><trkpt lat="45.26364" lon="7.454625"><ele>525.0</ele><time>2026-05-03T12:43:55.232Z</time></trkpt><trkpt lat="45.2637083" lon="7.4545017"><ele>525.0</ele><time>2026-05-03T12:43:56.232Z</time></trkpt><trkpt lat="45.2637517" lon="7.454345"><ele>525.0</ele><time>2026-05-03T12:43:57.232Z</time></trkpt><trkpt lat="45.2637817" lon="7.4541533"><ele>528.0</ele><time>2026-05-03T12:43:58.232Z</time></trkpt><trkpt lat="45.263805" lon="7.4539383"><ele>531.0</ele><time>2026-05-03T12:43:59.232Z</time></trkpt><trkpt lat="45.263835" lon="7.4537233"><ele>534.0</ele><time>2026-05-03T12:44:00.231Z</time></trkpt><trkpt lat="45.263895" lon="7.453525"><ele>534.0</ele><time>2026-05-03T12:44:01.232Z</time></trkpt><trkpt lat="45.2639767" lon="7.4533533"><ele>534.0</ele><time>2026-05-03T12:44:02.231Z</time></trkpt><trkpt lat="45.2640583" lon="7.45321"><ele>534.0</ele><time>2026-05-03T12:44:03.232Z</time></trkpt><trkpt lat="45.2641383" lon="7.4530783"><ele>534.0</ele><time>2026-05-03T12:44:04.232Z</time></trkpt><trkpt lat="45.26422" lon="7.4529817"><ele>534.0</ele><time>2026-05-03T12:44:05.232Z</time></trkpt><trkpt lat="45.2643117" lon="7.4529317"><ele>534.0</ele><time>2026-05-03T12:44:06.232Z</time></trkpt><trkpt lat="45.2644067" lon="7.4529483"><ele>534.0</ele><time>2026-05-03T12:44:07.231Z</time></trkpt><trkpt lat="45.264505" lon="7.45299"><ele>534.0</ele><time>2026-05-03T12:44:08.232Z</time></trkpt><trkpt lat="45.264625" lon="7.4530283"><ele>534.0</ele><time>2026-05-03T12:44:09.232Z</time></trkpt><trkpt lat="45.264755" lon="7.4530433"><ele>534.5</ele><time>2026-05-03T12:44:10.232Z</time></trkpt><trkpt lat="45.2648867" lon="7.4530317"><ele>535.0</ele><time>2026-05-03T12:44:11.232Z</time></trkpt><trkpt lat="45.26501" lon="7.4530067"><ele>535.5</ele><time>2026-05-03T12:44:12.232Z</time></trkpt><trkpt lat="45.2651233" lon="7.45296"><ele>536.0</ele><time>2026-05-03T12:44:13.232Z</time></trkpt><trkpt lat="45.2652367" lon="7.4529067"><ele>535.5</ele><time>2026-05-03T12:44:14.231Z</time></trkpt><trkpt lat="45.2653517" lon="7.45283"><ele>535.0</ele><time>2026-05-03T12:44:15.232Z</time></trkpt><trkpt lat="45.2654533" lon="7.45273"><ele>534.5</ele><time>2026-05-03T12:44:16.231Z</time></trkpt><trkpt lat="45.265545" lon="7.4525983"><ele>534.0</ele><time>2026-05-03T12:44:17.232Z</time></trkpt><trkpt lat="45.26563" lon="7.4524683"><ele>534.0</ele><time>2026-05-03T12:44:18.231Z</time></trkpt><trkpt lat="45.2657083" lon="7.4523367"><ele>534.0</ele><time>2026-05-03T12:44:19.232Z</time></trkpt><trkpt lat="45.2657933" lon="7.4522217"><ele>534.0</ele><time>2026-05-03T12:44:20.231Z</time></trkpt><trkpt lat="45.265885" lon="7.4521183"><ele>534.0</ele><time>2026-05-03T12:44:21.232Z</time></trkpt><trkpt lat="45.26598" lon="7.4520117"><ele>536.25</ele><time>2026-05-03T12:44:22.232Z</time></trkpt><trkpt lat="45.266065" lon="7.4518733"><ele>538.5</ele><time>2026-05-03T12:44:23.232Z</time></trkpt><trkpt lat="45.2661417" lon="7.45171"><ele>540.75</ele><time>2026-05-03T12:44:24.231Z</time></trkpt><trkpt lat="45.2662183" lon="7.45155"><ele>543.0</ele><time>2026-05-03T12:44:25.232Z</time></trkpt><trkpt lat="45.2662833" lon="7.4513917"><ele>542.5</ele><time>2026-05-03T12:44:26.232Z</time></trkpt><trkpt lat="45.2663583" lon="7.4512367"><ele>542.0</ele><time>2026-05-03T12:44:27.232Z</time></trkpt><trkpt lat="45.26643" lon="7.4510783"><ele>541.5</ele><time>2026-05-03T12:44:28.232Z</time></trkpt><trkpt lat="45.2665017" lon="7.4509233"><ele>541.0</ele><time>2026-05-03T12:44:29.231Z</time></trkpt><trkpt lat="45.2665783" lon="7.450765"><ele>541.0</ele><time>2026-05-03T12:44:30.232Z</time></trkpt><trkpt lat="45.2666733" lon="7.4506317"><ele>541.0</ele><time>2026-05-03T12:44:31.232Z</time></trkpt><trkpt lat="45.266785" lon="7.4505233"><ele>541.0</ele><time>2026-05-03T12:44:32.232Z</time></trkpt><trkpt lat="45.2669033" lon="7.4504233"><ele>541.0</ele><time>2026-05-03T12:44:33.232Z</time></trkpt><trkpt lat="45.2670267" lon="7.4503333"><ele>543.75</ele><time>2026-05-03T12:44:34.232Z</time></trkpt><trkpt lat="45.26715" lon="7.450245"><ele>546.5</ele><time>2026-05-03T12:44:35.231Z</time></trkpt><trkpt lat="45.2672783" lon="7.450185"><ele>549.25</ele><time>2026-05-03T12:44:36.232Z</time></trkpt><trkpt lat="45.2674083" lon="7.4501383"><ele>552.0</ele><time>2026-05-03T12:44:37.231Z</time></trkpt><trkpt lat="45.2675367" lon="7.4501017"><ele>552.0</ele><time>2026-05-03T12:44:38.232Z</time></trkpt><trkpt lat="45.2676433" lon="7.4500467"><ele>552.0</ele><time>2026-05-03T12:44:39.232Z</time></trkpt><trkpt lat="45.2677433" lon="7.4499183"><ele>552.0</ele><time>2026-05-03T12:44:40.232Z</time></trkpt><trkpt lat="45.267805" lon="7.4497667"><ele>552.0</ele><time>2026-05-03T12:44:41.232Z</time></trkpt><trkpt lat="45.2678317" lon="7.4495867"><ele>556.5</ele><time>2026-05-03T12:44:42.232Z</time></trkpt><trkpt lat="45.2678417" lon="7.4494017"><ele>561.0</ele><time>2026-05-03T12:44:43.232Z</time></trkpt><trkpt lat="45.2678417" lon="7.44921"><ele>565.5</ele><time>2026-05-03T12:44:44.232Z</time></trkpt><trkpt lat="45.267835" lon="7.4490167"><ele>570.0</ele><time>2026-05-03T12:44:45.231Z</time></trkpt><trkpt lat="45.2678467" lon="7.4488267"><ele>571.25</ele><time>2026-05-03T12:44:46.232Z</time></trkpt><trkpt lat="45.2678667" lon="7.4486317"><ele>572.5</ele><time>2026-05-03T12:44:47.232Z</time></trkpt><trkpt lat="45.2678783" lon="7.4484267"><ele>573.75</ele><time>2026-05-03T12:44:48.232Z</time></trkpt><trkpt lat="45.2678717" lon="7.4482317"><ele>575.0</ele><time>2026-05-03T12:44:49.232Z</time></trkpt><trkpt lat="45.26785" lon="7.4480567"><ele>574.5</ele><time>2026-05-03T12:44:50.231Z</time></trkpt><trkpt lat="45.2678083" lon="7.4478617"><ele>574.0</ele><time>2026-05-03T12:44:51.232Z</time></trkpt><trkpt lat="45.267775" lon="7.447665"><ele>573.5</ele><time>2026-05-03T12:44:52.232Z</time></trkpt><trkpt lat="45.26774" lon="7.4474633"><ele>573.0</ele><time>2026-05-03T12:44:53.232Z</time></trkpt><trkpt lat="45.2677083" lon="7.447265"><ele>574.5</ele><time>2026-05-03T12:44:54.232Z</time></trkpt><trkpt lat="45.2677" lon="7.447055"><ele>576.0</ele><time>2026-05-03T12:44:55.232Z</time></trkpt><trkpt lat="45.2676933" lon="7.4468517"><ele>577.5</ele><time>2026-05-03T12:44:56.232Z</time></trkpt><trkpt lat="45.2677067" lon="7.4466433"><ele>579.0</ele><time>2026-05-03T12:44:57.232Z</time></trkpt><trkpt lat="45.2677233" lon="7.4464283"><ele>581.25</ele><time>2026-05-03T12:44:58.232Z</time></trkpt><trkpt lat="45.26775" lon="7.4462217"><ele>583.5</ele><time>2026-05-03T12:44:59.231Z</time></trkpt><trkpt lat="45.2677767" lon="7.44601"><ele>585.75</ele><time>2026-05-03T12:45:00.232Z</time></trkpt><trkpt lat="45.267805" lon="7.4458117"><ele>588.0</ele><time>2026-05-03T12:45:01.232Z</time></trkpt><trkpt lat="45.2678467" lon="7.4456183"><ele>590.5</ele><time>2026-05-03T12:45:02.232Z</time></trkpt><trkpt lat="45.2679067" lon="7.4454383"><ele>593.0</ele><time>2026-05-03T12:45:03.232Z</time></trkpt><trkpt lat="45.2679717" lon="7.445265"><ele>595.5</ele><time>2026-05-03T12:45:04.231Z</time></trkpt><trkpt lat="45.268015" lon="7.44509"><ele>598.0</ele><time>2026-05-03T12:45:05.232Z</time></trkpt><trkpt lat="45.268055" lon="7.4449083"><ele>598.0</ele><time>2026-05-03T12:45:06.232Z</time></trkpt><trkpt lat="45.268105" lon="7.4447317"><ele>598.0</ele><time>2026-05-03T12:45:07.232Z</time></trkpt><trkpt lat="45.2681767" lon="7.44457"><ele>598.0</ele><time>2026-05-03T12:45:08.232Z</time></trkpt><trkpt lat="45.2682367" lon="7.44441"><ele>598.0</ele><time>2026-05-03T12:45:09.232Z</time></trkpt><trkpt lat="45.2682633" lon="7.4442217"><ele>592.25</ele><time>2026-05-03T12:45:10.232Z</time></trkpt><trkpt lat="45.2682833" lon="7.444035"><ele>586.5</ele><time>2026-05-03T12:45:11.232Z</time></trkpt><trkpt lat="45.26828" lon="7.443845"><ele>580.75</ele><time>2026-05-03T12:45:12.232Z</time></trkpt><trkpt lat="45.2682617" lon="7.4436583"><ele>575.0</ele><time>2026-05-03T12:45:13.231Z</time></trkpt><trkpt lat="45.26822" lon="7.4434817"><ele>575.0</ele><time>2026-05-03T12:45:14.232Z</time></trkpt><trkpt lat="45.2681733" lon="7.4432967"><ele>575.0</ele><time>2026-05-03T12:45:15.232Z</time></trkpt><trkpt lat="45.2681217" lon="7.443105"><ele>575.0</ele><time>2026-05-03T12:45:16.231Z</time></trkpt><trkpt lat="45.26806" lon="7.442905"><ele>575.0</ele><time>2026-05-03T12:45:17.232Z</time></trkpt><trkpt lat="45.2679983" lon="7.44271"><ele>578.25</ele><time>2026-05-03T12:45:18.232Z</time></trkpt><trkpt lat="45.26794" lon="7.442515"><ele>581.5</ele><time>2026-05-03T12:45:19.232Z</time></trkpt><trkpt lat="45.2678717" lon="7.442325"><ele>584.75</ele><time>2026-05-03T12:45:20.232Z</time></trkpt><trkpt lat="45.2678" lon="7.4421433"><ele>588.0</ele><time>2026-05-03T12:45:21.232Z</time></trkpt><trkpt lat="45.26772" lon="7.4419633"><ele>588.0</ele><time>2026-05-03T12:45:22.232Z</time></trkpt><trkpt lat="45.2676433" lon="7.4417917"><ele>588.0</ele><time>2026-05-03T12:45:23.232Z</time></trkpt><trkpt lat="45.26759" lon="7.4416083"><ele>588.0</ele><time>2026-05-03T12:45:24.232Z</time></trkpt><trkpt lat="45.26755" lon="7.4414167"><ele>588.0</ele><time>2026-05-03T12:45:25.232Z</time></trkpt><trkpt lat="45.267515" lon="7.441245"><ele>584.4</ele><time>2026-05-03T12:45:26.232Z</time></trkpt><trkpt lat="45.2674717" lon="7.4411"><ele>580.8</ele><time>2026-05-03T12:45:27.231Z</time></trkpt><trkpt lat="45.2674117" lon="7.4409917"><ele>577.2</ele><time>2026-05-03T12:45:28.232Z</time></trkpt><trkpt lat="45.2673367" lon="7.4409233"><ele>573.6</ele><time>2026-05-03T12:45:29.232Z</time></trkpt><trkpt lat="45.26724" lon="7.44091"><ele>570.0</ele><time>2026-05-03T12:45:30.232Z</time></trkpt><trkpt lat="45.2671367" lon="7.440935"><ele>569.5</ele><time>2026-05-03T12:45:31.232Z</time></trkpt><trkpt lat="45.2670217" lon="7.441005"><ele>569.0</ele><time>2026-05-03T12:45:32.232Z</time></trkpt><trkpt lat="45.2668933" lon="7.4411"><ele>568.5</ele><time>2026-05-03T12:45:33.232Z</time></trkpt><trkpt lat="45.266765" lon="7.4411633"><ele>568.0</ele><time>2026-05-03T12:45:34.232Z</time></trkpt><trkpt lat="45.2666367" lon="7.4411967"><ele>568.0</ele><time>2026-05-03T12:45:35.232Z</time></trkpt><trkpt lat="45.2665033" lon="7.441195"><ele>568.0</ele><time>2026-05-03T12:45:36.232Z</time></trkpt><trkpt lat="45.2663617" lon="7.441185"><ele>568.0</ele><time>2026-05-03T12:45:37.232Z</time></trkpt><trkpt lat="45.2662317" lon="7.44118"><ele>568.0</ele><time>2026-05-03T12:45:38.232Z</time></trkpt><trkpt lat="45.26611" lon="7.4411617"><ele>571.25</ele><time>2026-05-03T12:45:39.231Z</time></trkpt><trkpt lat="45.265985" lon="7.4411033"><ele>574.5</ele><time>2026-05-03T12:45:40.232Z</time></trkpt><trkpt lat="45.2658567" lon="7.4410133"><ele>577.75</ele><time>2026-05-03T12:45:41.232Z</time></trkpt><trkpt lat="45.2657233" lon="7.4409283"><ele>581.0</ele><time>2026-05-03T12:45:42.232Z</time></trkpt><trkpt lat="45.2655883" lon="7.44086"><ele>585.75</ele><time>2026-05-03T12:45:43.232Z</time></trkpt><trkpt lat="45.2654517" lon="7.4408083"><ele>590.5</ele><time>2026-05-03T12:45:44.231Z</time></trkpt><trkpt lat="45.2653183" lon="7.4407567"><ele>595.25</ele><time>2026-05-03T12:45:45.232Z</time></trkpt><trkpt lat="45.2651783" lon="7.440715"><ele>600.0</ele><time>2026-05-03T12:45:46.232Z</time></trkpt><trkpt lat="45.2650317" lon="7.4406967"><ele>600.0</ele><time>2026-05-03T12:45:47.231Z</time></trkpt><trkpt lat="45.2648783" lon="7.4406883"><ele>600.0</ele><time>2026-05-03T12:45:48.232Z</time></trkpt><trkpt lat="45.264715" lon="7.44068"><ele>600.0</ele><time>2026-05-03T12:45:49.232Z</time></trkpt><trkpt lat="45.2645517" lon="7.4406583"><ele>600.3333333333334</ele><time>2026-05-03T12:45:50.232Z</time></trkpt><trkpt lat="45.2643867" lon="7.440645"><ele>600.6666666666667</ele><time>2026-05-03T12:45:51.232Z</time></trkpt><trkpt lat="45.264225" lon="7.440625"><ele>601.0</ele><time>2026-05-03T12:45:52.232Z</time></trkpt><trkpt lat="45.264065" lon="7.4406083"><ele>602.6666666666667</ele><time>2026-05-03T12:45:53.232Z</time></trkpt><trkpt lat="45.2639033" lon="7.440585"><ele>604.3333333333334</ele><time>2026-05-03T12:45:54.232Z</time></trkpt><trkpt lat="45.2637367" lon="7.44056"><ele>606.0</ele><time>2026-05-03T12:45:55.232Z</time></trkpt><trkpt lat="45.263575" lon="7.4405367"><ele>606.0</ele><time>2026-05-03T12:45:56.232Z</time></trkpt><trkpt lat="45.26342" lon="7.4404983"><ele>606.0</ele><time>2026-05-03T12:45:57.232Z</time></trkpt><trkpt lat="45.2632667" lon="7.4404433"><ele>606.0</ele><time>2026-05-03T12:45:58.232Z</time></trkpt><trkpt lat="45.2631167" lon="7.4403683"><ele>602.6666666666666</ele><time>2026-05-03T12:45:59.232Z</time></trkpt><trkpt lat="45.2629683" lon="7.44028"><ele>599.3333333333333</ele><time>2026-05-03T12:46:00.232Z</time></trkpt><trkpt lat="45.2628133" lon="7.4401783"><ele>596.0</ele><time>2026-05-03T12:46:01.232Z</time></trkpt><trkpt lat="45.26266" lon="7.4400733"><ele>596.0</ele><time>2026-05-03T12:46:02.232Z</time></trkpt><trkpt lat="45.2625117" lon="7.43997"><ele>596.0</ele><time>2026-05-03T12:46:03.232Z</time></trkpt><trkpt lat="45.2623617" lon="7.4398567"><ele>596.0</ele><time>2026-05-03T12:46:04.232Z</time></trkpt><trkpt lat="45.262215" lon="7.43974"><ele>593.0</ele><time>2026-05-03T12:46:05.232Z</time></trkpt><trkpt lat="45.262075" lon="7.439625"><ele>590.0</ele><time>2026-05-03T12:46:06.232Z</time></trkpt><trkpt lat="45.2619383" lon="7.4395083"><ele>587.0</ele><time>2026-05-03T12:46:07.231Z</time></trkpt><trkpt lat="45.26181" lon="7.4393983"><ele>587.0</ele><time>2026-05-03T12:46:08.232Z</time></trkpt><trkpt lat="45.2616883" lon="7.4392917"><ele>587.0</ele><time>2026-05-03T12:46:09.231Z</time></trkpt><trkpt lat="45.26157" lon="7.4392017"><ele>587.0</ele><time>2026-05-03T12:46:10.232Z</time></trkpt><trkpt lat="45.2614417" lon="7.4391567"><ele>587.0</ele><time>2026-05-03T12:46:11.231Z</time></trkpt><trkpt lat="45.2613117" lon="7.4391583"><ele>584.25</ele><time>2026-05-03T12:46:12.232Z</time></trkpt><trkpt lat="45.2611833" lon="7.4392"><ele>581.5</ele><time>2026-05-03T12:46:13.231Z</time></trkpt><trkpt lat="45.26105" lon="7.4392833"><ele>578.75</ele><time>2026-05-03T12:46:14.232Z</time></trkpt><trkpt lat="45.2609133" lon="7.43937"><ele>576.0</ele><time>2026-05-03T12:46:15.231Z</time></trkpt><trkpt lat="45.26078" lon="7.4394467"><ele>576.0</ele><time>2026-05-03T12:46:16.232Z</time></trkpt><trkpt lat="45.26065" lon="7.439525"><ele>576.0</ele><time>2026-05-03T12:46:17.232Z</time></trkpt><trkpt lat="45.2605133" lon="7.4395717"><ele>576.0</ele><time>2026-05-03T12:46:18.232Z</time></trkpt><trkpt lat="45.2603767" lon="7.439575"><ele>576.0</ele><time>2026-05-03T12:46:19.232Z</time></trkpt><trkpt lat="45.2602383" lon="7.4395667"><ele>575.0</ele><time>2026-05-03T12:46:20.232Z</time></trkpt><trkpt lat="45.260095" lon="7.439555"><ele>574.0</ele><time>2026-05-03T12:46:21.232Z</time></trkpt><trkpt lat="45.259945" lon="7.4395383"><ele>573.0</ele><time>2026-05-03T12:46:22.232Z</time></trkpt><trkpt lat="45.2598067" lon="7.43951"><ele>572.0</ele><time>2026-05-03T12:46:23.232Z</time></trkpt><trkpt lat="45.259665" lon="7.4394517"><ele>577.25</ele><time>2026-05-03T12:46:24.232Z</time></trkpt><trkpt lat="45.2595317" lon="7.4393917"><ele>582.5</ele><time>2026-05-03T12:46:25.232Z</time></trkpt><trkpt lat="45.2594033" lon="7.4393117"><ele>587.75</ele><time>2026-05-03T12:46:26.232Z</time></trkpt><trkpt lat="45.2592833" lon="7.4392183"><ele>593.0</ele><time>2026-05-03T12:46:27.232Z</time></trkpt><trkpt lat="45.2591583" lon="7.4391117"><ele>593.0</ele><time>2026-05-03T12:46:28.232Z</time></trkpt><trkpt lat="45.2590283" lon="7.4390067"><ele>593.0</ele><time>2026-05-03T12:46:29.232Z</time></trkpt><trkpt lat="45.2588983" lon="7.43891"><ele>593.0</ele><time>2026-05-03T12:46:30.232Z</time></trkpt><trkpt lat="45.2587517" lon="7.438835"><ele>588.75</ele><time>2026-05-03T12:46:31.232Z</time></trkpt><trkpt lat="45.2586033" lon="7.4387733"><ele>584.5</ele><time>2026-05-03T12:46:32.232Z</time></trkpt><trkpt lat="45.2584617" lon="7.4387233"><ele>580.25</ele><time>2026-05-03T12:46:33.232Z</time></trkpt><trkpt lat="45.258325" lon="7.4386733"><ele>576.0</ele><time>2026-05-03T12:46:34.232Z</time></trkpt><trkpt lat="45.258205" lon="7.43859"><ele>581.0</ele><time>2026-05-03T12:46:35.232Z</time></trkpt><trkpt lat="45.2581117" lon="7.438485"><ele>586.0</ele><time>2026-05-03T12:46:36.232Z</time></trkpt><trkpt lat="45.2580383" lon="7.43836"><ele>591.0</ele><time>2026-05-03T12:46:37.232Z</time></trkpt><trkpt lat="45.2579583" lon="7.4382533"><ele>596.0</ele><time>2026-05-03T12:46:38.232Z</time></trkpt><trkpt lat="45.2578533" lon="7.4381783"><ele>596.0</ele><time>2026-05-03T12:46:39.232Z</time></trkpt><trkpt lat="45.2577267" lon="7.4381283"><ele>596.0</ele><time>2026-05-03T12:46:40.232Z</time></trkpt><trkpt lat="45.257605" lon="7.438095"><ele>596.0</ele><time>2026-05-03T12:46:41.232Z</time></trkpt><trkpt lat="45.2574917" lon="7.4380733"><ele>596.0</ele><time>2026-05-03T12:46:42.231Z</time></trkpt><trkpt lat="45.2573883" lon="7.4380667"><ele>596.0</ele><time>2026-05-03T12:46:43.232Z</time></trkpt><trkpt lat="45.257295" lon="7.438035"><ele>596.0</ele><time>2026-05-03T12:46:44.232Z</time></trkpt><trkpt lat="45.2572067" lon="7.4379567"><ele>596.0</ele><time>2026-05-03T12:46:45.232Z</time></trkpt><trkpt lat="45.25716" lon="7.4378183"><ele>596.0</ele><time>2026-05-03T12:46:46.232Z</time></trkpt><trkpt lat="45.2571183" lon="7.4376733"><ele>596.0</ele><time>2026-05-03T12:46:47.232Z</time></trkpt><trkpt lat="45.2570667" lon="7.437545"><ele>596.6</ele><time>2026-05-03T12:46:48.232Z</time></trkpt><trkpt lat="45.25699" lon="7.4374467"><ele>597.2</ele><time>2026-05-03T12:46:49.232Z</time></trkpt><trkpt lat="45.2569" lon="7.4373767"><ele>597.8</ele><time>2026-05-03T12:46:50.232Z</time></trkpt><trkpt lat="45.256805" lon="7.43732"><ele>598.4</ele><time>2026-05-03T12:46:51.232Z</time></trkpt><trkpt lat="45.2567233" lon="7.43724"><ele>599.0</ele><time>2026-05-03T12:46:52.232Z</time></trkpt><trkpt lat="45.2566783" lon="7.437115"><ele>595.25</ele><time>2026-05-03T12:46:53.232Z</time></trkpt><trkpt lat="45.2566683" lon="7.436965"><ele>591.5</ele><time>2026-05-03T12:46:54.232Z</time></trkpt><trkpt lat="45.25668" lon="7.4368017"><ele>587.75</ele><time>2026-05-03T12:46:55.232Z</time></trkpt><trkpt lat="45.2566983" lon="7.4366467"><ele>584.0</ele><time>2026-05-03T12:46:56.232Z</time></trkpt><trkpt lat="45.2567117" lon="7.43648"><ele>584.0</ele><time>2026-05-03T12:46:57.231Z</time></trkpt><trkpt lat="45.2567017" lon="7.4363217"><ele>584.0</ele><time>2026-05-03T12:46:58.231Z</time></trkpt><trkpt lat="45.256655" lon="7.4361883"><ele>584.0</ele><time>2026-05-03T12:46:59.232Z</time></trkpt><trkpt lat="45.2565783" lon="7.4360767"><ele>584.0</ele><time>2026-05-03T12:47:00.232Z</time></trkpt><trkpt lat="45.2564683" lon="7.4360033"><ele>584.0</ele><time>2026-05-03T12:47:01.232Z</time></trkpt><trkpt lat="45.2563383" lon="7.4359733"><ele>579.5</ele><time>2026-05-03T12:47:02.232Z</time></trkpt><trkpt lat="45.2562" lon="7.4359917"><ele>575.0</ele><time>2026-05-03T12:47:03.231Z</time></trkpt><trkpt lat="45.2560783" lon="7.4360317"><ele>570.5</ele><time>2026-05-03T12:47:04.232Z</time></trkpt><trkpt lat="45.2559617" lon="7.436115"><ele>566.0</ele><time>2026-05-03T12:47:05.232Z</time></trkpt><trkpt lat="45.2558667" lon="7.43621"><ele>566.0</ele><time>2026-05-03T12:47:06.232Z</time></trkpt><trkpt lat="45.255765" lon="7.4362983"><ele>566.0</ele><time>2026-05-03T12:47:07.232Z</time></trkpt><trkpt lat="45.2556533" lon="7.43634"><ele>566.0</ele><time>2026-05-03T12:47:08.232Z</time></trkpt><trkpt lat="45.2555333" lon="7.4363567"><ele>566.0</ele><time>2026-05-03T12:47:09.232Z</time></trkpt><trkpt lat="45.2554117" lon="7.4363183"><ele>566.25</ele><time>2026-05-03T12:47:10.232Z</time></trkpt><trkpt lat="45.2553117" lon="7.4362367"><ele>566.5</ele><time>2026-05-03T12:47:11.232Z</time></trkpt><trkpt lat="45.25522" lon="7.4361367"><ele>566.75</ele><time>2026-05-03T12:47:12.232Z</time></trkpt><trkpt lat="45.2551117" lon="7.4360733"><ele>567.0</ele><time>2026-05-03T12:47:13.232Z</time></trkpt><trkpt lat="45.2549917" lon="7.4360633"><ele>567.0</ele><time>2026-05-03T12:47:14.232Z</time></trkpt><trkpt lat="45.2548583" lon="7.43609"><ele>567.0</ele><time>2026-05-03T12:47:15.232Z</time></trkpt><trkpt lat="45.2547283" lon="7.4361333"><ele>567.0</ele><time>2026-05-03T12:47:16.232Z</time></trkpt><trkpt lat="45.2546" lon="7.43619"><ele>567.0</ele><time>2026-05-03T12:47:17.232Z</time></trkpt><trkpt lat="45.25447" lon="7.43623"><ele>567.0</ele><time>2026-05-03T12:47:18.232Z</time></trkpt><trkpt lat="45.2543383" lon="7.436235"><ele>567.0</ele><time>2026-05-03T12:47:19.232Z</time></trkpt><trkpt lat="45.25421" lon="7.43623"><ele>567.0</ele><time>2026-05-03T12:47:20.232Z</time></trkpt><trkpt lat="45.2540767" lon="7.4362017"><ele>567.0</ele><time>2026-05-03T12:47:21.232Z</time></trkpt><trkpt lat="45.2539417" lon="7.4361767"><ele>566.75</ele><time>2026-05-03T12:47:22.232Z</time></trkpt><trkpt lat="45.2538" lon="7.43617"><ele>566.5</ele><time>2026-05-03T12:47:23.232Z</time></trkpt><trkpt lat="45.2536633" lon="7.43617"><ele>566.25</ele><time>2026-05-03T12:47:24.232Z</time></trkpt><trkpt lat="45.2535217" lon="7.4361567"><ele>566.0</ele><time>2026-05-03T12:47:25.231Z</time></trkpt><trkpt lat="45.2533817" lon="7.4361367"><ele>566.0</ele><time>2026-05-03T12:47:26.232Z</time></trkpt><trkpt lat="45.2532317" lon="7.4361217"><ele>566.0</ele><time>2026-05-03T12:47:27.232Z</time></trkpt><trkpt lat="45.25308" lon="7.4361017"><ele>566.0</ele><time>2026-05-03T12:47:28.232Z</time></trkpt><trkpt lat="45.2529283" lon="7.4360817"><ele>565.5</ele><time>2026-05-03T12:47:29.232Z</time></trkpt><trkpt lat="45.252775" lon="7.436065"><ele>565.0</ele><time>2026-05-03T12:47:30.232Z</time></trkpt><trkpt lat="45.2526283" lon="7.4360567"><ele>564.5</ele><time>2026-05-03T12:47:31.232Z</time></trkpt><trkpt lat="45.2524817" lon="7.4360483"><ele>564.0</ele><time>2026-05-03T12:47:32.232Z</time></trkpt><trkpt lat="45.2523383" lon="7.4360567"><ele>565.25</ele><time>2026-05-03T12:47:33.231Z</time></trkpt><trkpt lat="45.2522" lon="7.436065"><ele>566.5</ele><time>2026-05-03T12:47:34.232Z</time></trkpt><trkpt lat="45.25206" lon="7.4360833"><ele>567.75</ele><time>2026-05-03T12:47:35.232Z</time></trkpt><trkpt lat="45.25193" lon="7.4360833"><ele>569.0</ele><time>2026-05-03T12:47:36.232Z</time></trkpt><trkpt lat="45.251795" lon="7.4360183"><ele>569.0</ele><time>2026-05-03T12:47:37.232Z</time></trkpt><trkpt lat="45.251665" lon="7.4359233"><ele>569.0</ele><time>2026-05-03T12:47:38.232Z</time></trkpt><trkpt lat="45.2515383" lon="7.43581"><ele>569.0</ele><time>2026-05-03T12:47:39.232Z</time></trkpt><trkpt lat="45.25141" lon="7.4357017"><ele>569.0</ele><time>2026-05-03T12:47:40.232Z</time></trkpt><trkpt lat="45.2512767" lon="7.4356083"><ele>568.0</ele><time>2026-05-03T12:47:41.231Z</time></trkpt><trkpt lat="45.2511333" lon="7.43551"><ele>567.0</ele><time>2026-05-03T12:47:42.232Z</time></trkpt><trkpt lat="45.2509833" lon="7.4354183"><ele>566.0</ele><time>2026-05-03T12:47:43.232Z</time></trkpt><trkpt lat="45.2508333" lon="7.4353333"><ele>566.0</ele><time>2026-05-03T12:47:44.232Z</time></trkpt><trkpt lat="45.2506883" lon="7.4352467"><ele>566.0</ele><time>2026-05-03T12:47:45.232Z</time></trkpt><trkpt lat="45.2505533" lon="7.4351417"><ele>566.0</ele><time>2026-05-03T12:47:46.232Z</time></trkpt><trkpt lat="45.2504167" lon="7.435035"><ele>572.0</ele><time>2026-05-03T12:47:47.232Z</time></trkpt><trkpt lat="45.2502733" lon="7.43494"><ele>578.0</ele><time>2026-05-03T12:47:48.232Z</time></trkpt><trkpt lat="45.250135" lon="7.434835"><ele>584.0</ele><time>2026-05-03T12:47:49.232Z</time></trkpt><trkpt lat="45.2500017" lon="7.4347333"><ele>584.0</ele><time>2026-05-03T12:47:50.231Z</time></trkpt><trkpt lat="45.249865" lon="7.434645"><ele>584.0</ele><time>2026-05-03T12:47:51.231Z</time></trkpt><trkpt lat="45.2497217" lon="7.4345717"><ele>584.0</ele><time>2026-05-03T12:47:52.232Z</time></trkpt><trkpt lat="45.2495783" lon="7.4345067"><ele>577.0</ele><time>2026-05-03T12:47:53.232Z</time></trkpt><trkpt lat="45.2494283" lon="7.43446"><ele>570.0</ele><time>2026-05-03T12:47:54.231Z</time></trkpt><trkpt lat="45.2492817" lon="7.4344367"><ele>563.0</ele><time>2026-05-03T12:47:55.232Z</time></trkpt><trkpt lat="45.249135" lon="7.4344033"><ele>563.0</ele><time>2026-05-03T12:47:56.232Z</time></trkpt><trkpt lat="45.249" lon="7.43437"><ele>563.0</ele><time>2026-05-03T12:47:57.232Z</time></trkpt><trkpt lat="45.2488683" lon="7.4343567"><ele>563.0</ele><time>2026-05-03T12:47:58.232Z</time></trkpt><trkpt lat="45.2487483" lon="7.4343667"><ele>563.0</ele><time>2026-05-03T12:47:59.231Z</time></trkpt><trkpt lat="45.24864" lon="7.4344217"><ele>564.1999999999999</ele><time>2026-05-03T12:48:00.232Z</time></trkpt><trkpt lat="45.2485483" lon="7.4344583"><ele>565.4</ele><time>2026-05-03T12:48:01.231Z</time></trkpt><trkpt lat="45.2484633" lon="7.434445"><ele>566.5999999999999</ele><time>2026-05-03T12:48:02.232Z</time></trkpt><trkpt lat="45.2483983" lon="7.4343767"><ele>567.8</ele><time>2026-05-03T12:48:03.232Z</time></trkpt><trkpt lat="45.2483383" lon="7.4342717"><ele>569.0</ele><time>2026-05-03T12:48:04.232Z</time></trkpt><trkpt lat="45.24827" lon="7.4341417"><ele>569.0</ele><time>2026-05-03T12:48:05.232Z</time></trkpt><trkpt lat="45.2481767" lon="7.4340083"><ele>569.0</ele><time>2026-05-03T12:48:06.232Z</time></trkpt><trkpt lat="45.2480617" lon="7.4339"><ele>569.0</ele><time>2026-05-03T12:48:07.231Z</time></trkpt><trkpt lat="45.2479267" lon="7.433815"><ele>569.0</ele><time>2026-05-03T12:48:08.232Z</time></trkpt><trkpt lat="45.24779" lon="7.433725"><ele>569.75</ele><time>2026-05-03T12:48:09.232Z</time></trkpt><trkpt lat="45.24766" lon="7.4336283"><ele>570.5</ele><time>2026-05-03T12:48:10.232Z</time></trkpt><trkpt lat="45.2475417" lon="7.4335267"><ele>571.25</ele><time>2026-05-03T12:48:11.232Z</time></trkpt><trkpt lat="45.2474267" lon="7.4334117"><ele>572.0</ele><time>2026-05-03T12:48:12.232Z</time></trkpt><trkpt lat="45.2473233" lon="7.433285"><ele>572.0</ele><time>2026-05-03T12:48:13.232Z</time></trkpt><trkpt lat="45.2472267" lon="7.4331483"><ele>572.0</ele><time>2026-05-03T12:48:14.232Z</time></trkpt><trkpt lat="45.247135" lon="7.4330133"><ele>572.0</ele><time>2026-05-03T12:48:15.232Z</time></trkpt><trkpt lat="45.2470217" lon="7.4328933"><ele>572.0</ele><time>2026-05-03T12:48:16.232Z</time></trkpt><trkpt lat="45.2468867" lon="7.4327933"><ele>572.0</ele><time>2026-05-03T12:48:17.232Z</time></trkpt><trkpt lat="45.24675" lon="7.4327083"><ele>572.0</ele><time>2026-05-03T12:48:18.232Z</time></trkpt><trkpt lat="45.2466167" lon="7.432625"><ele>572.0</ele><time>2026-05-03T12:48:19.232Z</time></trkpt><trkpt lat="45.2464917" lon="7.4325317"><ele>572.0</ele><time>2026-05-03T12:48:20.231Z</time></trkpt><trkpt lat="45.24637" lon="7.4324367"><ele>571.25</ele><time>2026-05-03T12:48:21.232Z</time></trkpt><trkpt lat="45.246255" lon="7.4323283"><ele>570.5</ele><time>2026-05-03T12:48:22.232Z</time></trkpt><trkpt lat="45.2461517" lon="7.432205"><ele>569.75</ele><time>2026-05-03T12:48:23.232Z</time></trkpt><trkpt lat="45.2460567" lon="7.432085"><ele>569.0</ele><time>2026-05-03T12:48:24.232Z</time></trkpt><trkpt lat="45.245955" lon="7.4319767"><ele>569.0</ele><time>2026-05-03T12:48:25.232Z</time></trkpt><trkpt lat="45.2458483" lon="7.4318917"><ele>569.0</ele><time>2026-05-03T12:48:26.232Z</time></trkpt><trkpt lat="45.2457267" lon="7.4318417"><ele>569.0</ele><time>2026-05-03T12:48:27.232Z</time></trkpt><trkpt lat="45.2456017" lon="7.43184"><ele>569.0</ele><time>2026-05-03T12:48:28.232Z</time></trkpt><trkpt lat="45.2454783" lon="7.4318883"><ele>570.25</ele><time>2026-05-03T12:48:29.232Z</time></trkpt><trkpt lat="45.2453683" lon="7.43198"><ele>571.5</ele><time>2026-05-03T12:48:30.232Z</time></trkpt><trkpt lat="45.2452667" lon="7.43212"><ele>572.75</ele><time>2026-05-03T12:48:31.232Z</time></trkpt><trkpt lat="45.245175" lon="7.4322883"><ele>574.0</ele><time>2026-05-03T12:48:32.232Z</time></trkpt><trkpt lat="45.2450917" lon="7.4324633"><ele>575.0</ele><time>2026-05-03T12:48:33.232Z</time></trkpt><trkpt lat="45.24501" lon="7.4326367"><ele>576.0</ele><time>2026-05-03T12:48:34.232Z</time></trkpt><trkpt lat="45.2449383" lon="7.4328083"><ele>577.0</ele><time>2026-05-03T12:48:35.231Z</time></trkpt><trkpt lat="45.2448817" lon="7.432975"><ele>578.0</ele><time>2026-05-03T12:48:36.232Z</time></trkpt><trkpt lat="45.2448283" lon="7.4331333"><ele>578.1666666666666</ele><time>2026-05-03T12:48:37.232Z</time></trkpt><trkpt lat="45.2447817" lon="7.43328"><ele>578.3333333333333</ele><time>2026-05-03T12:48:38.232Z</time></trkpt><trkpt lat="45.2447333" lon="7.4334133"><ele>578.5</ele><time>2026-05-03T12:48:39.231Z</time></trkpt><trkpt lat="45.2446817" lon="7.4335083"><ele>578.6666666666666</ele><time>2026-05-03T12:48:40.232Z</time></trkpt><trkpt lat="45.2446233" lon="7.4335717"><ele>578.8333333333334</ele><time>2026-05-03T12:48:41.232Z</time></trkpt><trkpt lat="45.2445533" lon="7.4335967"><ele>579.0</ele><time>2026-05-03T12:48:42.232Z</time></trkpt><trkpt lat="45.2444667" lon="7.4335633"><ele>579.0</ele><time>2026-05-03T12:48:43.232Z</time></trkpt><trkpt lat="45.2443733" lon="7.4334833"><ele>579.0</ele><time>2026-05-03T12:48:44.232Z</time></trkpt><trkpt lat="45.2442817" lon="7.4334317"><ele>579.0</ele><time>2026-05-03T12:48:45.231Z</time></trkpt><trkpt lat="45.244195" lon="7.4334217"><ele>579.0</ele><time>2026-05-03T12:48:46.232Z</time></trkpt><trkpt lat="45.2440967" lon="7.4334667"><ele>579.0</ele><time>2026-05-03T12:48:47.232Z</time></trkpt><trkpt lat="45.243995" lon="7.43355"><ele>579.25</ele><time>2026-05-03T12:48:48.232Z</time></trkpt><trkpt lat="45.2438983" lon="7.4336767"><ele>579.5</ele><time>2026-05-03T12:48:49.232Z</time></trkpt><trkpt lat="45.2437817" lon="7.433785"><ele>579.75</ele><time>2026-05-03T12:48:50.232Z</time></trkpt><trkpt lat="45.24365" lon="7.4338667"><ele>580.0</ele><time>2026-05-03T12:48:51.232Z</time></trkpt><trkpt lat="45.2435067" lon="7.4339333"><ele>580.0</ele><time>2026-05-03T12:48:52.232Z</time></trkpt><trkpt lat="45.2433567" lon="7.4340033"><ele>580.0</ele><time>2026-05-03T12:48:53.232Z</time></trkpt><trkpt lat="45.2431983" lon="7.4341067"><ele>580.0</ele><time>2026-05-03T12:48:54.232Z</time></trkpt><trkpt lat="45.2430433" lon="7.4342217"><ele>585.0</ele><time>2026-05-03T12:48:55.232Z</time></trkpt><trkpt lat="45.2428883" lon="7.4343367"><ele>590.0</ele><time>2026-05-03T12:48:56.232Z</time></trkpt><trkpt lat="45.2427367" lon="7.434435"><ele>595.0</ele><time>2026-05-03T12:48:57.232Z</time></trkpt><trkpt lat="45.2425867" lon="7.434535"><ele>595.0</ele><time>2026-05-03T12:48:58.231Z</time></trkpt><trkpt lat="45.2424333" lon="7.4346267"><ele>595.0</ele><time>2026-05-03T12:48:59.232Z</time></trkpt><trkpt lat="45.242275" lon="7.4346933"><ele>595.0</ele><time>2026-05-03T12:49:00.232Z</time></trkpt><trkpt lat="45.2421267" lon="7.434755"><ele>595.0</ele><time>2026-05-03T12:49:01.232Z</time></trkpt><trkpt lat="45.2419817" lon="7.4348417"><ele>595.0</ele><time>2026-05-03T12:49:02.231Z</time></trkpt><trkpt lat="45.2418433" lon="7.4349783"><ele>595.0</ele><time>2026-05-03T12:49:03.232Z</time></trkpt><trkpt lat="45.24172" lon="7.4350933"><ele>595.0</ele><time>2026-05-03T12:49:04.232Z</time></trkpt><trkpt lat="45.2415917" lon="7.4352217"><ele>595.0</ele><time>2026-05-03T12:49:05.232Z</time></trkpt><trkpt lat="45.24148" lon="7.43538"><ele>595.0</ele><time>2026-05-03T12:49:06.232Z</time></trkpt><trkpt lat="45.2413833" lon="7.4355583"><ele>598.3333333333334</ele><time>2026-05-03T12:49:07.232Z</time></trkpt><trkpt lat="45.241295" lon="7.43574"><ele>601.6666666666666</ele><time>2026-05-03T12:49:08.232Z</time></trkpt><trkpt lat="45.2411883" lon="7.435895"><ele>605.0</ele><time>2026-05-03T12:49:09.231Z</time></trkpt><trkpt lat="45.241075" lon="7.4360333"><ele>605.0</ele><time>2026-05-03T12:49:10.232Z</time></trkpt><trkpt lat="45.2409667" lon="7.4361967"><ele>605.0</ele><time>2026-05-03T12:49:11.232Z</time></trkpt><trkpt lat="45.2408617" lon="7.4363667"><ele>605.0</ele><time>2026-05-03T12:49:12.232Z</time></trkpt><trkpt lat="45.2407417" lon="7.4365333"><ele>606.3333333333333</ele><time>2026-05-03T12:49:13.232Z</time></trkpt><trkpt lat="45.2406117" lon="7.43669"><ele>607.6666666666666</ele><time>2026-05-03T12:49:14.232Z</time></trkpt><trkpt lat="45.2404967" lon="7.43685"><ele>609.0</ele><time>2026-05-03T12:49:15.232Z</time></trkpt><trkpt lat="45.2404" lon="7.4370183"><ele>605.0</ele><time>2026-05-03T12:49:16.232Z</time></trkpt><trkpt lat="45.240305" lon="7.4371967"><ele>601.0</ele><time>2026-05-03T12:49:17.232Z</time></trkpt><trkpt lat="45.2402183" lon="7.4373583"><ele>597.0</ele><time>2026-05-03T12:49:18.232Z</time></trkpt><trkpt lat="45.2401183" lon="7.4374817"><ele>593.0</ele><time>2026-05-03T12:49:19.232Z</time></trkpt><trkpt lat="45.2400067" lon="7.4375483"><ele>593.0</ele><time>2026-05-03T12:49:20.232Z</time></trkpt><trkpt lat="45.2398833" lon="7.4375533"><ele>593.0</ele><time>2026-05-03T12:49:21.232Z</time></trkpt><trkpt lat="45.2397733" lon="7.4374883"><ele>593.0</ele><time>2026-05-03T12:49:22.232Z</time></trkpt><trkpt lat="45.239675" lon="7.4373767"><ele>593.0</ele><time>2026-05-03T12:49:23.232Z</time></trkpt><trkpt lat="45.2395817" lon="7.4372567"><ele>591.0</ele><time>2026-05-03T12:49:24.232Z</time></trkpt><trkpt lat="45.23947" lon="7.4371617"><ele>589.0</ele><time>2026-05-03T12:49:25.232Z</time></trkpt><trkpt lat="45.2393567" lon="7.4370767"><ele>587.0</ele><time>2026-05-03T12:49:26.232Z</time></trkpt><trkpt lat="45.23923" lon="7.4370017"><ele>585.0</ele><time>2026-05-03T12:49:27.232Z</time></trkpt><trkpt lat="45.2391" lon="7.4369317"><ele>587.75</ele><time>2026-05-03T12:49:28.232Z</time></trkpt><trkpt lat="45.2389683" lon="7.4368933"><ele>590.5</ele><time>2026-05-03T12:49:29.232Z</time></trkpt><trkpt lat="45.2388317" lon="7.4368633"><ele>593.25</ele><time>2026-05-03T12:49:30.232Z</time></trkpt><trkpt lat="45.2386983" lon="7.436845"><ele>596.0</ele><time>2026-05-03T12:49:31.232Z</time></trkpt><trkpt lat="45.2385617" lon="7.4368117"><ele>596.0</ele><time>2026-05-03T12:49:32.232Z</time></trkpt><trkpt lat="45.2384367" lon="7.4367417"><ele>596.0</ele><time>2026-05-03T12:49:33.232Z</time></trkpt><trkpt lat="45.23831" lon="7.43665"><ele>596.0</ele><time>2026-05-03T12:49:34.232Z</time></trkpt><trkpt lat="45.238185" lon="7.43656"><ele>596.0</ele><time>2026-05-03T12:49:35.232Z</time></trkpt><trkpt lat="45.238055" lon="7.436465"><ele>594.25</ele><time>2026-05-03T12:49:36.232Z</time></trkpt><trkpt lat="45.23792" lon="7.43637"><ele>592.5</ele><time>2026-05-03T12:49:37.231Z</time></trkpt><trkpt lat="45.2377833" lon="7.4362817"><ele>590.75</ele><time>2026-05-03T12:49:38.232Z</time></trkpt><trkpt lat="45.2376433" lon="7.43622"><ele>589.0</ele><time>2026-05-03T12:49:39.232Z</time></trkpt><trkpt lat="45.2375" lon="7.4361517"><ele>592.5</ele><time>2026-05-03T12:49:40.231Z</time></trkpt><trkpt lat="45.2373567" lon="7.4361033"><ele>596.0</ele><time>2026-05-03T12:49:41.232Z</time></trkpt><trkpt lat="45.2372167" lon="7.4360683"><ele>599.5</ele><time>2026-05-03T12:49:42.232Z</time></trkpt><trkpt lat="45.23708" lon="7.4360533"><ele>603.0</ele><time>2026-05-03T12:49:43.231Z</time></trkpt><trkpt lat="45.2369567" lon="7.436025"><ele>603.0</ele><time>2026-05-03T12:49:44.232Z</time></trkpt><trkpt lat="45.2368417" lon="7.43597"><ele>603.0</ele><time>2026-05-03T12:49:45.232Z</time></trkpt><trkpt lat="45.23673" lon="7.4358867"><ele>603.0</ele><time>2026-05-03T12:49:46.232Z</time></trkpt><trkpt lat="45.2366233" lon="7.4357733"><ele>603.0</ele><time>2026-05-03T12:49:47.232Z</time></trkpt><trkpt lat="45.23651" lon="7.4356567"><ele>602.25</ele><time>2026-05-03T12:49:48.232Z</time></trkpt><trkpt lat="45.2364" lon="7.4355367"><ele>601.5</ele><time>2026-05-03T12:49:49.232Z</time></trkpt><trkpt lat="45.2362883" lon="7.43541"><ele>600.75</ele><time>2026-05-03T12:49:50.231Z</time></trkpt><trkpt lat="45.2361733" lon="7.4352883"><ele>600.0</ele><time>2026-05-03T12:49:51.232Z</time></trkpt><trkpt lat="45.236065" lon="7.43518"><ele>600.0</ele><time>2026-05-03T12:49:52.232Z</time></trkpt><trkpt lat="45.2359617" lon="7.4350633"><ele>600.0</ele><time>2026-05-03T12:49:53.231Z</time></trkpt><trkpt lat="45.23587" lon="7.4349383"><ele>600.0</ele><time>2026-05-03T12:49:54.232Z</time></trkpt><trkpt lat="45.235795" lon="7.4347917"><ele>600.0</ele><time>2026-05-03T12:49:55.232Z</time></trkpt><trkpt lat="45.2357183" lon="7.4346417"><ele>598.75</ele><time>2026-05-03T12:49:56.232Z</time></trkpt><trkpt lat="45.23565" lon="7.434485"><ele>597.5</ele><time>2026-05-03T12:49:57.232Z</time></trkpt><trkpt lat="45.2355917" lon="7.434325"><ele>596.25</ele><time>2026-05-03T12:49:58.232Z</time></trkpt><trkpt lat="45.2355533" lon="7.43416"><ele>595.0</ele><time>2026-05-03T12:49:59.232Z</time></trkpt><trkpt lat="45.23553" lon="7.43399"><ele>594.5</ele><time>2026-05-03T12:50:00.232Z</time></trkpt><trkpt lat="45.235525" lon="7.4338033"><ele>594.0</ele><time>2026-05-03T12:50:01.232Z</time></trkpt><trkpt lat="45.2355317" lon="7.4336"><ele>593.5</ele><time>2026-05-03T12:50:02.232Z</time></trkpt><trkpt lat="45.2355433" lon="7.4333883"><ele>593.0</ele><time>2026-05-03T12:50:03.232Z</time></trkpt><trkpt lat="45.2355533" lon="7.4331617"><ele>594.3333333333333</ele><time>2026-05-03T12:50:04.232Z</time></trkpt><trkpt lat="45.2355633" lon="7.43293"><ele>595.6666666666666</ele><time>2026-05-03T12:50:05.232Z</time></trkpt><trkpt lat="45.2355883" lon="7.4326883"><ele>597.0</ele><time>2026-05-03T12:50:06.232Z</time></trkpt><trkpt lat="45.2356183" lon="7.432445"><ele>601.3333333333334</ele><time>2026-05-03T12:50:07.232Z</time></trkpt><trkpt lat="45.2356517" lon="7.432205"><ele>605.6666666666667</ele><time>2026-05-03T12:50:08.232Z</time></trkpt><trkpt lat="45.2356883" lon="7.4319583"><ele>610.0</ele><time>2026-05-03T12:50:09.231Z</time></trkpt><trkpt lat="45.2357267" lon="7.4317133"><ele>610.0</ele><time>2026-05-03T12:50:10.232Z</time></trkpt><trkpt lat="45.2357667" lon="7.431475"><ele>610.0</ele><time>2026-05-03T12:50:11.232Z</time></trkpt><trkpt lat="45.2358067" lon="7.43124"><ele>610.0</ele><time>2026-05-03T12:50:12.231Z</time></trkpt><trkpt lat="45.23585" lon="7.4310083"><ele>608.6666666666667</ele><time>2026-05-03T12:50:13.232Z</time></trkpt><trkpt lat="45.2359067" lon="7.4307933"><ele>607.3333333333334</ele><time>2026-05-03T12:50:14.232Z</time></trkpt><trkpt lat="45.235975" lon="7.4305933"><ele>606.0</ele><time>2026-05-03T12:50:15.231Z</time></trkpt><trkpt lat="45.2360333" lon="7.4303783"><ele>604.6666666666666</ele><time>2026-05-03T12:50:16.232Z</time></trkpt><trkpt lat="45.2360667" lon="7.43016"><ele>603.3333333333333</ele><time>2026-05-03T12:50:17.232Z</time></trkpt><trkpt lat="45.2360933" lon="7.429935"><ele>602.0</ele><time>2026-05-03T12:50:18.232Z</time></trkpt><trkpt lat="45.23611" lon="7.4297167"><ele>602.0</ele><time>2026-05-03T12:50:19.232Z</time></trkpt><trkpt lat="45.2361283" lon="7.4294967"><ele>602.0</ele><time>2026-05-03T12:50:20.232Z</time></trkpt><trkpt lat="45.2361483" lon="7.4292783"><ele>602.0</ele><time>2026-05-03T12:50:21.231Z</time></trkpt><trkpt lat="45.2361667" lon="7.429065"><ele>602.0</ele><time>2026-05-03T12:50:22.231Z</time></trkpt><trkpt lat="45.2361883" lon="7.4288517"><ele>602.0</ele><time>2026-05-03T12:50:23.231Z</time></trkpt><trkpt lat="45.236225" lon="7.428655"><ele>602.0</ele><time>2026-05-03T12:50:24.232Z</time></trkpt><trkpt lat="45.2362767" lon="7.42846"><ele>602.0</ele><time>2026-05-03T12:50:25.232Z</time></trkpt><trkpt lat="45.2363467" lon="7.4282667"><ele>602.3333333333333</ele><time>2026-05-03T12:50:26.232Z</time></trkpt><trkpt lat="45.2364283" lon="7.42807"><ele>602.6666666666666</ele><time>2026-05-03T12:50:27.232Z</time></trkpt><trkpt lat="45.23652" lon="7.4278767"><ele>603.0</ele><time>2026-05-03T12:50:28.232Z</time></trkpt><trkpt lat="45.23661" lon="7.4276783"><ele>605.0</ele><time>2026-05-03T12:50:29.232Z</time></trkpt><trkpt lat="45.23671" lon="7.42749"><ele>607.0</ele><time>2026-05-03T12:50:30.232Z</time></trkpt><trkpt lat="45.236815" lon="7.4273083"><ele>609.0</ele><time>2026-05-03T12:50:31.231Z</time></trkpt><trkpt lat="45.2369233" lon="7.4271317"><ele>609.0</ele><time>2026-05-03T12:50:32.232Z</time></trkpt><trkpt lat="45.2370117" lon="7.4269417"><ele>609.0</ele><time>2026-05-03T12:50:33.232Z</time></trkpt><trkpt lat="45.23709" lon="7.4267467"><ele>609.0</ele><time>2026-05-03T12:50:34.232Z</time></trkpt><trkpt lat="45.2371533" lon="7.4265317"><ele>609.0</ele><time>2026-05-03T12:50:35.232Z</time></trkpt><trkpt lat="45.2372267" lon="7.4263333"><ele>609.0</ele><time>2026-05-03T12:50:36.232Z</time></trkpt><trkpt lat="45.237305" lon="7.426135"><ele>609.0</ele><time>2026-05-03T12:50:37.232Z</time></trkpt><trkpt lat="45.2373717" lon="7.42592"><ele>613.3333333333334</ele><time>2026-05-03T12:50:38.232Z</time></trkpt><trkpt lat="45.237435" lon="7.4256867"><ele>617.6666666666667</ele><time>2026-05-03T12:50:39.232Z</time></trkpt><trkpt lat="45.237485" lon="7.4254433"><ele>622.0</ele><time>2026-05-03T12:50:40.232Z</time></trkpt><trkpt lat="45.2375283" lon="7.4251983"><ele>622.0</ele><time>2026-05-03T12:50:41.232Z</time></trkpt><trkpt lat="45.2375667" lon="7.4249467"><ele>622.0</ele><time>2026-05-03T12:50:42.232Z</time></trkpt><trkpt lat="45.2376" lon="7.4246933"><ele>622.0</ele><time>2026-05-03T12:50:43.232Z</time></trkpt><trkpt lat="45.2376417" lon="7.424445"><ele>621.3333333333334</ele><time>2026-05-03T12:50:44.232Z</time></trkpt><trkpt lat="45.2376917" lon="7.4241967"><ele>620.6666666666666</ele><time>2026-05-03T12:50:45.232Z</time></trkpt><trkpt lat="45.237735" lon="7.4239483"><ele>620.0</ele><time>2026-05-03T12:50:46.232Z</time></trkpt><trkpt lat="45.23777" lon="7.4237"><ele>620.0</ele><time>2026-05-03T12:50:47.231Z</time></trkpt><trkpt lat="45.2378" lon="7.4234483"><ele>620.0</ele><time>2026-05-03T12:50:48.232Z</time></trkpt><trkpt lat="45.2378317" lon="7.4232017"><ele>620.0</ele><time>2026-05-03T12:50:49.232Z</time></trkpt><trkpt lat="45.237865" lon="7.422955"><ele>621.0</ele><time>2026-05-03T12:50:50.232Z</time></trkpt><trkpt lat="45.2378833" lon="7.4227183"><ele>622.0</ele><time>2026-05-03T12:50:51.232Z</time></trkpt><trkpt lat="45.2378883" lon="7.4224867"><ele>623.0</ele><time>2026-05-03T12:50:52.232Z</time></trkpt><trkpt lat="45.2378667" lon="7.4222617"><ele>624.3333333333333</ele><time>2026-05-03T12:50:53.232Z</time></trkpt><trkpt lat="45.2378333" lon="7.4220483"><ele>625.6666666666666</ele><time>2026-05-03T12:50:54.231Z</time></trkpt><trkpt lat="45.23783" lon="7.4218283"><ele>627.0</ele><time>2026-05-03T12:50:55.232Z</time></trkpt><trkpt lat="45.23785" lon="7.42161"><ele>627.0</ele><time>2026-05-03T12:50:56.232Z</time></trkpt><trkpt lat="45.2378817" lon="7.4213833"><ele>627.0</ele><time>2026-05-03T12:50:57.231Z</time></trkpt><trkpt lat="45.2379117" lon="7.421155"><ele>627.0</ele><time>2026-05-03T12:50:58.232Z</time></trkpt><trkpt lat="45.237915" lon="7.4209183"><ele>627.0</ele><time>2026-05-03T12:50:59.232Z</time></trkpt><trkpt lat="45.2379" lon="7.42068"><ele>627.0</ele><time>2026-05-03T12:51:00.232Z</time></trkpt><trkpt lat="45.2378583" lon="7.42044"><ele>627.0</ele><time>2026-05-03T12:51:01.232Z</time></trkpt><trkpt lat="45.2377917" lon="7.4202133"><ele>630.6666666666666</ele><time>2026-05-03T12:51:02.232Z</time></trkpt><trkpt lat="45.2377133" lon="7.41998"><ele>634.3333333333333</ele><time>2026-05-03T12:51:03.232Z</time></trkpt><trkpt lat="45.2376317" lon="7.4197417"><ele>638.0</ele><time>2026-05-03T12:51:04.231Z</time></trkpt><trkpt lat="45.2375433" lon="7.4194967"><ele>634.0</ele><time>2026-05-03T12:51:05.232Z</time></trkpt><trkpt lat="45.2374533" lon="7.4192617"><ele>630.0</ele><time>2026-05-03T12:51:06.231Z</time></trkpt><trkpt lat="45.23736" lon="7.4190517"><ele>626.0</ele><time>2026-05-03T12:51:07.232Z</time></trkpt><trkpt lat="45.237255" lon="7.4188533"><ele>628.3333333333333</ele><time>2026-05-03T12:51:08.232Z</time></trkpt><trkpt lat="45.2371517" lon="7.4186667"><ele>630.6666666666666</ele><time>2026-05-03T12:51:09.232Z</time></trkpt><trkpt lat="45.2370633" lon="7.4184633"><ele>633.0</ele><time>2026-05-03T12:51:10.232Z</time></trkpt><trkpt lat="45.2369983" lon="7.418255"><ele>633.0</ele><time>2026-05-03T12:51:11.232Z</time></trkpt><trkpt lat="45.23696" lon="7.4180417"><ele>633.0</ele><time>2026-05-03T12:51:12.232Z</time></trkpt><trkpt lat="45.2369417" lon="7.417835"><ele>633.0</ele><time>2026-05-03T12:51:13.231Z</time></trkpt><trkpt lat="45.2369433" lon="7.4176517"><ele>633.0</ele><time>2026-05-03T12:51:14.232Z</time></trkpt><trkpt lat="45.2369683" lon="7.41747"><ele>634.75</ele><time>2026-05-03T12:51:15.232Z</time></trkpt><trkpt lat="45.2369767" lon="7.4172917"><ele>636.5</ele><time>2026-05-03T12:51:16.232Z</time></trkpt><trkpt lat="45.236955" lon="7.4171183"><ele>638.25</ele><time>2026-05-03T12:51:17.232Z</time></trkpt><trkpt lat="45.2368917" lon="7.416945"><ele>640.0</ele><time>2026-05-03T12:51:18.232Z</time></trkpt><trkpt lat="45.2368083" lon="7.4167833"><ele>642.5</ele><time>2026-05-03T12:51:19.232Z</time></trkpt><trkpt lat="45.2367267" lon="7.41663"><ele>645.0</ele><time>2026-05-03T12:51:20.232Z</time></trkpt><trkpt lat="45.2366483" lon="7.4164817"><ele>647.5</ele><time>2026-05-03T12:51:21.232Z</time></trkpt><trkpt lat="45.23658" lon="7.4163383"><ele>650.0</ele><time>2026-05-03T12:51:22.232Z</time></trkpt><trkpt lat="45.236535" lon="7.416205"><ele>651.0</ele><time>2026-05-03T12:51:23.232Z</time></trkpt><trkpt lat="45.2365267" lon="7.416065"><ele>652.0</ele><time>2026-05-03T12:51:24.232Z</time></trkpt><trkpt lat="45.2365517" lon="7.4159183"><ele>653.0</ele><time>2026-05-03T12:51:25.232Z</time></trkpt><trkpt lat="45.2366183" lon="7.4157733"><ele>654.0</ele><time>2026-05-03T12:51:26.232Z</time></trkpt><trkpt lat="45.2367" lon="7.4156267"><ele>651.6666666666666</ele><time>2026-05-03T12:51:27.232Z</time></trkpt><trkpt lat="45.2367883" lon="7.4154583"><ele>649.3333333333333</ele><time>2026-05-03T12:51:28.232Z</time></trkpt><trkpt lat="45.2368567" lon="7.4152667"><ele>647.0</ele><time>2026-05-03T12:51:29.232Z</time></trkpt><trkpt lat="45.2369117" lon="7.4150583"><ele>647.0</ele><time>2026-05-03T12:51:30.232Z</time></trkpt><trkpt lat="45.2369483" lon="7.4148433"><ele>647.0</ele><time>2026-05-03T12:51:31.232Z</time></trkpt><trkpt lat="45.2369767" lon="7.4146233"><ele>647.0</ele><time>2026-05-03T12:51:32.232Z</time></trkpt><trkpt lat="45.2369967" lon="7.41441"><ele>644.75</ele><time>2026-05-03T12:51:33.232Z</time></trkpt><trkpt lat="45.2370233" lon="7.4142133"><ele>642.5</ele><time>2026-05-03T12:51:34.232Z</time></trkpt><trkpt lat="45.237075" lon="7.414055"><ele>640.25</ele><time>2026-05-03T12:51:35.232Z</time></trkpt><trkpt lat="45.2371533" lon="7.41392"><ele>638.0</ele><time>2026-05-03T12:51:36.232Z</time></trkpt><trkpt lat="45.2372567" lon="7.4138067"><ele>645.25</ele><time>2026-05-03T12:51:37.231Z</time></trkpt><trkpt lat="45.2373583" lon="7.413705"><ele>652.5</ele><time>2026-05-03T12:51:38.232Z</time></trkpt><trkpt lat="45.2374683" lon="7.4136133"><ele>659.75</ele><time>2026-05-03T12:51:39.232Z</time></trkpt><trkpt lat="45.237575" lon="7.41352"><ele>667.0</ele><time>2026-05-03T12:51:40.232Z</time></trkpt><trkpt lat="45.2376517" lon="7.413395"><ele>667.0</ele><time>2026-05-03T12:51:41.232Z</time></trkpt><trkpt lat="45.2377" lon="7.41324"><ele>667.0</ele><time>2026-05-03T12:51:42.232Z</time></trkpt><trkpt lat="45.2377183" lon="7.4130583"><ele>667.0</ele><time>2026-05-03T12:51:43.232Z</time></trkpt><trkpt lat="45.237735" lon="7.41287"><ele>667.0</ele><time>2026-05-03T12:51:44.232Z</time></trkpt><trkpt lat="45.237785" lon="7.41269"><ele>667.75</ele><time>2026-05-03T12:51:45.232Z</time></trkpt><trkpt lat="45.2378667" lon="7.4125317"><ele>668.5</ele><time>2026-05-03T12:51:46.232Z</time></trkpt><trkpt lat="45.2379567" lon="7.4123967"><ele>669.25</ele><time>2026-05-03T12:51:47.231Z</time></trkpt><trkpt lat="45.238055" lon="7.4122567"><ele>670.0</ele><time>2026-05-03T12:51:48.232Z</time></trkpt><trkpt lat="45.2381733" lon="7.4121317"><ele>670.0</ele><time>2026-05-03T12:51:49.232Z</time></trkpt><trkpt lat="45.23831" lon="7.4120217"><ele>670.0</ele><time>2026-05-03T12:51:50.232Z</time></trkpt><trkpt lat="45.2384517" lon="7.4119033"><ele>670.0</ele><time>2026-05-03T12:51:51.232Z</time></trkpt><trkpt lat="45.2385883" lon="7.4117883"><ele>670.0</ele><time>2026-05-03T12:51:52.232Z</time></trkpt><trkpt lat="45.2387183" lon="7.4116783"><ele>670.0</ele><time>2026-05-03T12:51:53.232Z</time></trkpt><trkpt lat="45.238845" lon="7.4115783"><ele>670.0</ele><time>2026-05-03T12:51:54.232Z</time></trkpt><trkpt lat="45.2389617" lon="7.41147"><ele>670.0</ele><time>2026-05-03T12:51:55.232Z</time></trkpt><trkpt lat="45.239075" lon="7.4113833"><ele>674.2</ele><time>2026-05-03T12:51:56.232Z</time></trkpt><trkpt lat="45.2391733" lon="7.411295"><ele>678.4</ele><time>2026-05-03T12:51:57.232Z</time></trkpt><trkpt lat="45.23925" lon="7.4112117"><ele>682.5999999999999</ele><time>2026-05-03T12:51:58.232Z</time></trkpt><trkpt lat="45.2393017" lon="7.4111067"><ele>686.8</ele><time>2026-05-03T12:51:59.232Z</time></trkpt><trkpt lat="45.2393217" lon="7.41099"><ele>691.0</ele><time>2026-05-03T12:52:00.232Z</time></trkpt><trkpt lat="45.2393183" lon="7.41088"><ele>691.0</ele><time>2026-05-03T12:52:01.232Z</time></trkpt><trkpt lat="45.2392717" lon="7.4107817"><ele>691.0</ele><time>2026-05-03T12:52:02.232Z</time></trkpt><trkpt lat="45.2392017" lon="7.4107083"><ele>691.0</ele><time>2026-05-03T12:52:03.232Z</time></trkpt><trkpt lat="45.2390817" lon="7.4106417"><ele>691.0</ele><time>2026-05-03T12:52:04.232Z</time></trkpt><trkpt lat="45.2389117" lon="7.4106267"><ele>686.0</ele><time>2026-05-03T12:52:05.232Z</time></trkpt><trkpt lat="45.2387167" lon="7.410675"><ele>681.0</ele><time>2026-05-03T12:52:06.232Z</time></trkpt><trkpt lat="45.238565" lon="7.4106833"><ele>676.0</ele><time>2026-05-03T12:52:07.232Z</time></trkpt><trkpt lat="45.23845" lon="7.410635"><ele>676.0</ele><time>2026-05-03T12:52:08.231Z</time></trkpt><trkpt lat="45.2383717" lon="7.4105433"><ele>676.0</ele><time>2026-05-03T12:52:09.232Z</time></trkpt><trkpt lat="45.2383333" lon="7.4104267"><ele>676.0</ele><time>2026-05-03T12:52:10.232Z</time></trkpt><trkpt lat="45.2383333" lon="7.410265"><ele>676.0</ele><time>2026-05-03T12:52:11.232Z</time></trkpt><trkpt lat="45.238335" lon="7.41009"><ele>676.0</ele><time>2026-05-03T12:52:12.232Z</time></trkpt><trkpt lat="45.2383183" lon="7.4099233"><ele>679.5</ele><time>2026-05-03T12:52:13.232Z</time></trkpt><trkpt lat="45.23827" lon="7.40979"><ele>683.0</ele><time>2026-05-03T12:52:14.231Z</time></trkpt><trkpt lat="45.2381883" lon="7.4096833"><ele>686.5</ele><time>2026-05-03T12:52:15.232Z</time></trkpt><trkpt lat="45.23808" lon="7.4096133"><ele>690.0</ele><time>2026-05-03T12:52:16.232Z</time></trkpt><trkpt lat="45.2379667" lon="7.4095283"><ele>690.0</ele><time>2026-05-03T12:52:17.231Z</time></trkpt><trkpt lat="45.23788" lon="7.40941"><ele>690.0</ele><time>2026-05-03T12:52:18.232Z</time></trkpt><trkpt lat="45.2378233" lon="7.409275"><ele>690.0</ele><time>2026-05-03T12:52:19.232Z</time></trkpt><trkpt lat="45.2377767" lon="7.4091217"><ele>690.0</ele><time>2026-05-03T12:52:20.232Z</time></trkpt><trkpt lat="45.2377217" lon="7.408975"><ele>690.0</ele><time>2026-05-03T12:52:21.232Z</time></trkpt><trkpt lat="45.2376467" lon="7.40883"><ele>690.0</ele><time>2026-05-03T12:52:22.232Z</time></trkpt><trkpt lat="45.2375683" lon="7.408695"><ele>690.0</ele><time>2026-05-03T12:52:23.232Z</time></trkpt><trkpt lat="45.2375" lon="7.4085517"><ele>690.0</ele><time>2026-05-03T12:52:24.232Z</time></trkpt><trkpt lat="45.2374283" lon="7.4084033"><ele>688.75</ele><time>2026-05-03T12:52:25.232Z</time></trkpt><trkpt lat="45.237355" lon="7.40823"><ele>687.5</ele><time>2026-05-03T12:52:26.232Z</time></trkpt><trkpt lat="45.2372817" lon="7.4080633"><ele>686.25</ele><time>2026-05-03T12:52:27.232Z</time></trkpt><trkpt lat="45.2372167" lon="7.4078967"><ele>685.0</ele><time>2026-05-03T12:52:28.232Z</time></trkpt><trkpt lat="45.2371767" lon="7.40773"><ele>688.5</ele><time>2026-05-03T12:52:29.232Z</time></trkpt><trkpt lat="45.2371567" lon="7.40753"><ele>692.0</ele><time>2026-05-03T12:52:30.232Z</time></trkpt><trkpt lat="45.237135" lon="7.4073267"><ele>695.5</ele><time>2026-05-03T12:52:31.232Z</time></trkpt><trkpt lat="45.237115" lon="7.4071167"><ele>699.0</ele><time>2026-05-03T12:52:32.232Z</time></trkpt><trkpt lat="45.2370867" lon="7.4068867"><ele>701.0</ele><time>2026-05-03T12:52:33.232Z</time></trkpt><trkpt lat="45.237055" lon="7.40665"><ele>703.0</ele><time>2026-05-03T12:52:34.232Z</time></trkpt><trkpt lat="45.237025" lon="7.4064067"><ele>705.0</ele><time>2026-05-03T12:52:35.232Z</time></trkpt><trkpt lat="45.2369883" lon="7.4061483"><ele>707.6666666666666</ele><time>2026-05-03T12:52:36.232Z</time></trkpt><trkpt lat="45.2369517" lon="7.40589"><ele>710.3333333333333</ele><time>2026-05-03T12:52:37.232Z</time></trkpt><trkpt lat="45.2369167" lon="7.4056383"><ele>713.0</ele><time>2026-05-03T12:52:38.232Z</time></trkpt><trkpt lat="45.2368717" lon="7.4053817"><ele>714.6666666666666</ele><time>2026-05-03T12:52:39.232Z</time></trkpt><trkpt lat="45.2368317" lon="7.40512"><ele>716.3333333333334</ele><time>2026-05-03T12:52:40.232Z</time></trkpt><trkpt lat="45.2367883" lon="7.40486"><ele>718.0</ele><time>2026-05-03T12:52:41.232Z</time></trkpt><trkpt lat="45.2367483" lon="7.4046133"><ele>719.0</ele><time>2026-05-03T12:52:42.231Z</time></trkpt><trkpt lat="45.236705" lon="7.404385"><ele>720.0</ele><time>2026-05-03T12:52:43.232Z</time></trkpt><trkpt lat="45.2366617" lon="7.4041583"><ele>721.0</ele><time>2026-05-03T12:52:44.232Z</time></trkpt><trkpt lat="45.2366367" lon="7.40394"><ele>721.0</ele><time>2026-05-03T12:52:45.232Z</time></trkpt><trkpt lat="45.23663" lon="7.4037283"><ele>721.0</ele><time>2026-05-03T12:52:46.232Z</time></trkpt><trkpt lat="45.23664" lon="7.40353"><ele>721.0</ele><time>2026-05-03T12:52:47.232Z</time></trkpt><trkpt lat="45.2366683" lon="7.4033317"><ele>721.0</ele><time>2026-05-03T12:52:48.232Z</time></trkpt><trkpt lat="45.2366917" lon="7.40312"><ele>721.5</ele><time>2026-05-03T12:52:49.232Z</time></trkpt><trkpt lat="45.236715" lon="7.4029217"><ele>722.0</ele><time>2026-05-03T12:52:50.231Z</time></trkpt><trkpt lat="45.2367417" lon="7.4027133"><ele>722.5</ele><time>2026-05-03T12:52:51.232Z</time></trkpt><trkpt lat="45.23677" lon="7.4025233"><ele>723.0</ele><time>2026-05-03T12:52:52.232Z</time></trkpt><trkpt lat="45.2368017" lon="7.4023467"><ele>723.0</ele><time>2026-05-03T12:52:53.232Z</time></trkpt><trkpt lat="45.23684" lon="7.4021883"><ele>723.0</ele><time>2026-05-03T12:52:54.232Z</time></trkpt><trkpt lat="45.2368833" lon="7.4020483"><ele>723.0</ele><time>2026-05-03T12:52:55.232Z</time></trkpt><trkpt lat="45.2369167" lon="7.401905"><ele>723.0</ele><time>2026-05-03T12:52:56.232Z</time></trkpt><trkpt lat="45.2369567" lon="7.4017733"><ele>723.0</ele><time>2026-05-03T12:52:57.231Z</time></trkpt><trkpt lat="45.2369917" lon="7.4016517"><ele>723.2</ele><time>2026-05-03T12:52:58.232Z</time></trkpt><trkpt lat="45.23704" lon="7.4015433"><ele>723.4</ele><time>2026-05-03T12:52:59.232Z</time></trkpt><trkpt lat="45.237095" lon="7.4014333"><ele>723.6</ele><time>2026-05-03T12:53:00.232Z</time></trkpt><trkpt lat="45.2371767" lon="7.4013233"><ele>723.8000000000001</ele><time>2026-05-03T12:53:01.231Z</time></trkpt><trkpt lat="45.2372633" lon="7.4012017"><ele>724.0</ele><time>2026-05-03T12:53:02.232Z</time></trkpt><trkpt lat="45.237365" lon="7.4010867"><ele>725.25</ele><time>2026-05-03T12:53:03.232Z</time></trkpt><trkpt lat="45.2374617" lon="7.400975"><ele>726.5</ele><time>2026-05-03T12:53:04.231Z</time></trkpt><trkpt lat="45.2375617" lon="7.4008767"><ele>727.75</ele><time>2026-05-03T12:53:05.231Z</time></trkpt><trkpt lat="45.237655" lon="7.4007867"><ele>729.0</ele><time>2026-05-03T12:53:06.232Z</time></trkpt><trkpt lat="45.2377267" lon="7.4006917"><ele>729.0</ele><time>2026-05-03T12:53:07.232Z</time></trkpt><trkpt lat="45.2377733" lon="7.400595"><ele>729.0</ele><time>2026-05-03T12:53:08.231Z</time></trkpt><trkpt lat="45.2377867" lon="7.4004733"><ele>729.0</ele><time>2026-05-03T12:53:09.232Z</time></trkpt><trkpt lat="45.2377567" lon="7.40034"><ele>729.0</ele><time>2026-05-03T12:53:10.232Z</time></trkpt><trkpt lat="45.237695" lon="7.4002067"><ele>729.0</ele><time>2026-05-03T12:53:11.232Z</time></trkpt><trkpt lat="45.23762" lon="7.400065"><ele>728.8000000000001</ele><time>2026-05-03T12:53:12.232Z</time></trkpt><trkpt lat="45.237565" lon="7.3999183"><ele>728.6</ele><time>2026-05-03T12:53:13.232Z</time></trkpt><trkpt lat="45.2375583" lon="7.399775"><ele>728.4</ele><time>2026-05-03T12:53:14.232Z</time></trkpt><trkpt lat="45.2375967" lon="7.3996333"><ele>728.2</ele><time>2026-05-03T12:53:15.232Z</time></trkpt><trkpt lat="45.237665" lon="7.39951"><ele>728.0</ele><time>2026-05-03T12:53:16.232Z</time></trkpt><trkpt lat="45.23775" lon="7.39939"><ele>725.0</ele><time>2026-05-03T12:53:17.232Z</time></trkpt><trkpt lat="45.2378533" lon="7.3992817"><ele>722.0</ele><time>2026-05-03T12:53:18.232Z</time></trkpt><trkpt lat="45.23796" lon="7.3992083"><ele>719.0</ele><time>2026-05-03T12:53:19.232Z</time></trkpt><trkpt lat="45.23807" lon="7.3991783"><ele>716.0</ele><time>2026-05-03T12:53:20.232Z</time></trkpt><trkpt lat="45.2381683" lon="7.3991533"><ele>721.0</ele><time>2026-05-03T12:53:21.232Z</time></trkpt><trkpt lat="45.2382467" lon="7.3991117"><ele>726.0</ele><time>2026-05-03T12:53:22.232Z</time></trkpt><trkpt lat="45.2383117" lon="7.3990483"><ele>731.0</ele><time>2026-05-03T12:53:23.232Z</time></trkpt><trkpt lat="45.2383517" lon="7.39894"><ele>736.0</ele><time>2026-05-03T12:53:24.232Z</time></trkpt><trkpt lat="45.23836" lon="7.3988133"><ele>741.0</ele><time>2026-05-03T12:53:25.232Z</time></trkpt><trkpt lat="45.2383283" lon="7.3986533"><ele>743.3333333333334</ele><time>2026-05-03T12:53:26.232Z</time></trkpt><trkpt lat="45.23826" lon="7.3984617"><ele>745.6666666666667</ele><time>2026-05-03T12:53:27.232Z</time></trkpt><trkpt lat="45.2381467" lon="7.398265"><ele>748.0</ele><time>2026-05-03T12:53:28.231Z</time></trkpt><trkpt lat="45.23802" lon="7.3981"><ele>744.6666666666667</ele><time>2026-05-03T12:53:29.232Z</time></trkpt><trkpt lat="45.23788" lon="7.3979583"><ele>741.3333333333334</ele><time>2026-05-03T12:53:30.232Z</time></trkpt><trkpt lat="45.2377517" lon="7.3978017"><ele>738.0</ele><time>2026-05-03T12:53:31.232Z</time></trkpt><trkpt lat="45.2376333" lon="7.3976283"><ele>738.0</ele><time>2026-05-03T12:53:32.232Z</time></trkpt><trkpt lat="45.237525" lon="7.3974483"><ele>738.0</ele><time>2026-05-03T12:53:33.232Z</time></trkpt><trkpt lat="45.2374367" lon="7.3972533"><ele>738.0</ele><time>2026-05-03T12:53:34.232Z</time></trkpt><trkpt lat="45.2373667" lon="7.39707"><ele>736.5</ele><time>2026-05-03T12:53:35.232Z</time></trkpt><trkpt lat="45.2372983" lon="7.3969017"><ele>735.0</ele><time>2026-05-03T12:53:36.231Z</time></trkpt><trkpt lat="45.2372183" lon="7.39675"><ele>733.5</ele><time>2026-05-03T12:53:37.232Z</time></trkpt><trkpt lat="45.237095" lon="7.396635"><ele>732.0</ele><time>2026-05-03T12:53:38.232Z</time></trkpt><trkpt lat="45.23696" lon="7.3965533"><ele>732.0</ele><time>2026-05-03T12:53:39.232Z</time></trkpt><trkpt lat="45.2368217" lon="7.3964933"><ele>732.0</ele><time>2026-05-03T12:53:40.232Z</time></trkpt><trkpt lat="45.236695" lon="7.396435"><ele>732.0</ele><time>2026-05-03T12:53:41.232Z</time></trkpt><trkpt lat="45.23658" lon="7.39635"><ele>732.0</ele><time>2026-05-03T12:53:42.232Z</time></trkpt><trkpt lat="45.2364967" lon="7.3962217"><ele>721.75</ele><time>2026-05-03T12:53:43.232Z</time></trkpt><trkpt lat="45.236425" lon="7.39607"><ele>711.5</ele><time>2026-05-03T12:53:44.232Z</time></trkpt><trkpt lat="45.2363567" lon="7.3959133"><ele>701.25</ele><time>2026-05-03T12:53:45.232Z</time></trkpt><trkpt lat="45.2363133" lon="7.3957417"><ele>691.0</ele><time>2026-05-03T12:53:46.232Z</time></trkpt><trkpt lat="45.2362867" lon="7.3955667"><ele>689.8</ele><time>2026-05-03T12:53:47.232Z</time></trkpt><trkpt lat="45.2362967" lon="7.395415"><ele>688.5999999999999</ele><time>2026-05-03T12:53:48.232Z</time></trkpt><trkpt lat="45.2363333" lon="7.395285"><ele>687.4</ele><time>2026-05-03T12:53:49.232Z</time></trkpt><trkpt lat="45.236405" lon="7.3951717"><ele>686.2</ele><time>2026-05-03T12:53:50.232Z</time></trkpt><trkpt lat="45.236495" lon="7.39506"><ele>685.0</ele><time>2026-05-03T12:53:51.232Z</time></trkpt><trkpt lat="45.236585" lon="7.3949517"><ele>697.5</ele><time>2026-05-03T12:53:52.232Z</time></trkpt><trkpt lat="45.2366583" lon="7.3948083"><ele>710.0</ele><time>2026-05-03T12:53:53.232Z</time></trkpt><trkpt lat="45.2367" lon="7.394655"><ele>722.5</ele><time>2026-05-03T12:53:54.232Z</time></trkpt><trkpt lat="45.2367217" lon="7.394475"><ele>735.0</ele><time>2026-05-03T12:53:55.232Z</time></trkpt><trkpt lat="45.2367433" lon="7.3942833"><ele>735.0</ele><time>2026-05-03T12:53:56.232Z</time></trkpt><trkpt lat="45.2367717" lon="7.394085"><ele>735.0</ele><time>2026-05-03T12:53:57.231Z</time></trkpt><trkpt lat="45.2368" lon="7.3938833"><ele>735.0</ele><time>2026-05-03T12:53:58.232Z</time></trkpt><trkpt lat="45.23684" lon="7.3936867"><ele>735.0</ele><time>2026-05-03T12:53:59.232Z</time></trkpt><trkpt lat="45.236905" lon="7.3935117"><ele>732.25</ele><time>2026-05-03T12:54:00.232Z</time></trkpt><trkpt lat="45.2369783" lon="7.3933417"><ele>729.5</ele><time>2026-05-03T12:54:01.232Z</time></trkpt><trkpt lat="45.2370617" lon="7.3931717"><ele>726.75</ele><time>2026-05-03T12:54:02.231Z</time></trkpt><trkpt lat="45.2371633" lon="7.39302"><ele>724.0</ele><time>2026-05-03T12:54:03.232Z</time></trkpt><trkpt lat="45.23727" lon="7.3928783"><ele>728.0</ele><time>2026-05-03T12:54:04.232Z</time></trkpt><trkpt lat="45.2373867" lon="7.39275"><ele>732.0</ele><time>2026-05-03T12:54:05.232Z</time></trkpt><trkpt lat="45.23751" lon="7.3926167"><ele>736.0</ele><time>2026-05-03T12:54:06.232Z</time></trkpt><trkpt lat="45.23763" lon="7.3924783"><ele>736.0</ele><time>2026-05-03T12:54:07.232Z</time></trkpt><trkpt lat="45.2377467" lon="7.3923433"><ele>736.0</ele><time>2026-05-03T12:54:08.232Z</time></trkpt><trkpt lat="45.23784" lon="7.3922017"><ele>736.0</ele><time>2026-05-03T12:54:09.232Z</time></trkpt><trkpt lat="45.2379233" lon="7.3920433"><ele>736.0</ele><time>2026-05-03T12:54:10.232Z</time></trkpt><trkpt lat="45.2380133" lon="7.3918783"><ele>735.0</ele><time>2026-05-03T12:54:11.232Z</time></trkpt><trkpt lat="45.2381183" lon="7.3917367"><ele>734.0</ele><time>2026-05-03T12:54:12.232Z</time></trkpt><trkpt lat="45.2382267" lon="7.3915883"><ele>733.0</ele><time>2026-05-03T12:54:13.232Z</time></trkpt><trkpt lat="45.23834" lon="7.3914567"><ele>732.0</ele><time>2026-05-03T12:54:14.232Z</time></trkpt><trkpt lat="45.2384533" lon="7.3913117"><ele>732.0</ele><time>2026-05-03T12:54:15.232Z</time></trkpt><trkpt lat="45.2385583" lon="7.3911717"><ele>732.0</ele><time>2026-05-03T12:54:16.232Z</time></trkpt><trkpt lat="45.2386483" lon="7.391045"><ele>732.0</ele><time>2026-05-03T12:54:17.232Z</time></trkpt><trkpt lat="45.23871" lon="7.3909267"><ele>732.0</ele><time>2026-05-03T12:54:18.232Z</time></trkpt><trkpt lat="45.238755" lon="7.3908067"><ele>732.0</ele><time>2026-05-03T12:54:19.232Z</time></trkpt><trkpt lat="45.23877" lon="7.39069"><ele>732.0</ele><time>2026-05-03T12:54:20.232Z</time></trkpt><trkpt lat="45.2387683" lon="7.3905717"><ele>732.0</ele><time>2026-05-03T12:54:21.232Z</time></trkpt><trkpt lat="45.23874" lon="7.3904683"><ele>732.0</ele><time>2026-05-03T12:54:22.232Z</time></trkpt><trkpt lat="45.2386817" lon="7.390395"><ele>732.0</ele><time>2026-05-03T12:54:23.229Z</time></trkpt><trkpt lat="45.2386" lon="7.3903383"><ele>732.0</ele><time>2026-05-03T12:54:24.232Z</time></trkpt><trkpt lat="45.2384717" lon="7.39033"><ele>728.6666666666666</ele><time>2026-05-03T12:54:25.232Z</time></trkpt><trkpt lat="45.2383117" lon="7.3903517"><ele>725.3333333333333</ele><time>2026-05-03T12:54:26.232Z</time></trkpt><trkpt lat="45.2381333" lon="7.3904167"><ele>722.0</ele><time>2026-05-03T12:54:27.232Z</time></trkpt><trkpt lat="45.237985" lon="7.39044"><ele>722.0</ele><time>2026-05-03T12:54:28.232Z</time></trkpt><trkpt lat="45.2378483" lon="7.390435"><ele>722.0</ele><time>2026-05-03T12:54:29.232Z</time></trkpt><trkpt lat="45.23773" lon="7.390395"><ele>722.0</ele><time>2026-05-03T12:54:30.232Z</time></trkpt><trkpt lat="45.2376317" lon="7.390325"><ele>722.0</ele><time>2026-05-03T12:54:31.232Z</time></trkpt><trkpt lat="45.2375617" lon="7.3901917"><ele>722.0</ele><time>2026-05-03T12:54:32.232Z</time></trkpt><trkpt lat="45.23751" lon="7.3900583"><ele>722.0</ele><time>2026-05-03T12:54:33.231Z</time></trkpt><trkpt lat="45.2374783" lon="7.389935"><ele>722.0</ele><time>2026-05-03T12:54:34.232Z</time></trkpt><trkpt lat="45.2374633" lon="7.38983"><ele>722.0</ele><time>2026-05-03T12:54:35.232Z</time></trkpt><trkpt lat="45.2374783" lon="7.3897117"><ele>722.0</ele><time>2026-05-03T12:54:36.232Z</time></trkpt><trkpt lat="45.2375317" lon="7.3895983"><ele>719.5</ele><time>2026-05-03T12:54:37.232Z</time></trkpt><trkpt lat="45.2376067" lon="7.3894967"><ele>717.0</ele><time>2026-05-03T12:54:38.232Z</time></trkpt><trkpt lat="45.237695" lon="7.389385"><ele>714.5</ele><time>2026-05-03T12:54:39.232Z</time></trkpt><trkpt lat="45.2377833" lon="7.3892517"><ele>712.0</ele><time>2026-05-03T12:54:40.232Z</time></trkpt><trkpt lat="45.2378833" lon="7.3891167"><ele>712.0</ele><time>2026-05-03T12:54:41.232Z</time></trkpt><trkpt lat="45.237985" lon="7.388975"><ele>712.0</ele><time>2026-05-03T12:54:42.232Z</time></trkpt><trkpt lat="45.2380883" lon="7.38884"><ele>712.0</ele><time>2026-05-03T12:54:43.232Z</time></trkpt><trkpt lat="45.2381983" lon="7.3887067"><ele>712.0</ele><time>2026-05-03T12:54:44.232Z</time></trkpt><trkpt lat="45.2383067" lon="7.38857"><ele>716.75</ele><time>2026-05-03T12:54:45.232Z</time></trkpt><trkpt lat="45.2384083" lon="7.38845"><ele>721.5</ele><time>2026-05-03T12:54:46.232Z</time></trkpt><trkpt lat="45.238525" lon="7.3883483"><ele>726.25</ele><time>2026-05-03T12:54:47.232Z</time></trkpt><trkpt lat="45.238645" lon="7.3882517"><ele>731.0</ele><time>2026-05-03T12:54:48.232Z</time></trkpt><trkpt lat="45.23876" lon="7.388165"><ele>731.0</ele><time>2026-05-03T12:54:49.232Z</time></trkpt><trkpt lat="45.2388733" lon="7.3880867"><ele>731.0</ele><time>2026-05-03T12:54:50.232Z</time></trkpt><trkpt lat="45.2389633" lon="7.3880067"><ele>731.0</ele><time>2026-05-03T12:54:51.232Z</time></trkpt><trkpt lat="45.23903" lon="7.3879217"><ele>731.0</ele><time>2026-05-03T12:54:52.232Z</time></trkpt><trkpt lat="45.2390667" lon="7.3878483"><ele>731.0</ele><time>2026-05-03T12:54:53.232Z</time></trkpt><trkpt lat="45.239075" lon="7.38775"><ele>733.4</ele><time>2026-05-03T12:54:54.232Z</time></trkpt><trkpt lat="45.2390433" lon="7.38766"><ele>735.8</ele><time>2026-05-03T12:54:55.232Z</time></trkpt><trkpt lat="45.2389733" lon="7.387585"><ele>738.1999999999999</ele><time>2026-05-03T12:54:56.231Z</time></trkpt><trkpt lat="45.2388633" lon="7.38753"><ele>740.5999999999999</ele><time>2026-05-03T12:54:57.232Z</time></trkpt><trkpt lat="45.238715" lon="7.3875167"><ele>743.0</ele><time>2026-05-03T12:54:58.232Z</time></trkpt><trkpt lat="45.2385467" lon="7.3875367"><ele>743.0</ele><time>2026-05-03T12:54:59.232Z</time></trkpt><trkpt lat="45.238395" lon="7.3875567"><ele>743.0</ele><time>2026-05-03T12:55:00.232Z</time></trkpt><trkpt lat="45.2382567" lon="7.3875567"><ele>743.0</ele><time>2026-05-03T12:55:01.232Z</time></trkpt><trkpt lat="45.23813" lon="7.3875467"><ele>743.0</ele><time>2026-05-03T12:55:02.232Z</time></trkpt><trkpt lat="45.2380217" lon="7.3875167"><ele>737.8</ele><time>2026-05-03T12:55:03.232Z</time></trkpt><trkpt lat="45.23793" lon="7.38747"><ele>732.5999999999999</ele><time>2026-05-03T12:55:04.232Z</time></trkpt><trkpt lat="45.2378667" lon="7.38736"><ele>727.4000000000001</ele><time>2026-05-03T12:55:05.232Z</time></trkpt><trkpt lat="45.2378267" lon="7.3872167"><ele>722.2</ele><time>2026-05-03T12:55:06.231Z</time></trkpt><trkpt lat="45.2378183" lon="7.3870417"><ele>717.0</ele><time>2026-05-03T12:55:07.232Z</time></trkpt><trkpt lat="45.23784" lon="7.38686"><ele>717.0</ele><time>2026-05-03T12:55:08.232Z</time></trkpt><trkpt lat="45.2378717" lon="7.3866833"><ele>717.0</ele><time>2026-05-03T12:55:09.232Z</time></trkpt><trkpt lat="45.2379133" lon="7.3865017"><ele>717.0</ele><time>2026-05-03T12:55:10.232Z</time></trkpt><trkpt lat="45.237965" lon="7.3863117"><ele>717.0</ele><time>2026-05-03T12:55:11.232Z</time></trkpt><trkpt lat="45.2380183" lon="7.3861067"><ele>717.3333333333334</ele><time>2026-05-03T12:55:12.232Z</time></trkpt><trkpt lat="45.2380783" lon="7.3858983"><ele>717.6666666666667</ele><time>2026-05-03T12:55:13.232Z</time></trkpt><trkpt lat="45.2381317" lon="7.385695"><ele>718.0</ele><time>2026-05-03T12:55:14.232Z</time></trkpt><trkpt lat="45.2381783" lon="7.3855"><ele>723.75</ele><time>2026-05-03T12:55:15.232Z</time></trkpt><trkpt lat="45.2382133" lon="7.3853133"><ele>729.5</ele><time>2026-05-03T12:55:16.232Z</time></trkpt><trkpt lat="45.23821" lon="7.3851267"><ele>735.25</ele><time>2026-05-03T12:55:17.232Z</time></trkpt><trkpt lat="45.238185" lon="7.3849367"><ele>741.0</ele><time>2026-05-03T12:55:18.231Z</time></trkpt><trkpt lat="45.2381533" lon="7.384745"><ele>737.5</ele><time>2026-05-03T12:55:19.232Z</time></trkpt><trkpt lat="45.2381167" lon="7.38455"><ele>734.0</ele><time>2026-05-03T12:55:20.232Z</time></trkpt><trkpt lat="45.2380833" lon="7.3843533"><ele>730.5</ele><time>2026-05-03T12:55:21.232Z</time></trkpt><trkpt lat="45.2380683" lon="7.3841683"><ele>727.0</ele><time>2026-05-03T12:55:22.231Z</time></trkpt><trkpt lat="45.2380533" lon="7.3839817"><ele>727.2</ele><time>2026-05-03T12:55:23.232Z</time></trkpt><trkpt lat="45.2380333" lon="7.3838217"><ele>727.4000000000001</ele><time>2026-05-03T12:55:24.231Z</time></trkpt><trkpt lat="45.2379833" lon="7.3836817"><ele>727.5999999999999</ele><time>2026-05-03T12:55:25.232Z</time></trkpt><trkpt lat="45.2379233" lon="7.383545"><ele>727.8</ele><time>2026-05-03T12:55:26.232Z</time></trkpt><trkpt lat="45.23788" lon="7.3834167"><ele>728.0</ele><time>2026-05-03T12:55:27.232Z</time></trkpt><trkpt lat="45.23787" lon="7.3832733"><ele>728.0</ele><time>2026-05-03T12:55:28.232Z</time></trkpt><trkpt lat="45.2378733" lon="7.38311"><ele>728.0</ele><time>2026-05-03T12:55:29.232Z</time></trkpt><trkpt lat="45.2378833" lon="7.382935"><ele>728.0</ele><time>2026-05-03T12:55:30.232Z</time></trkpt><trkpt lat="45.2379117" lon="7.3827417"><ele>728.0</ele><time>2026-05-03T12:55:31.232Z</time></trkpt><trkpt lat="45.2379367" lon="7.38258"><ele>726.0</ele><time>2026-05-03T12:55:32.232Z</time></trkpt><trkpt lat="45.2379767" lon="7.3824117"><ele>724.0</ele><time>2026-05-03T12:55:33.232Z</time></trkpt><trkpt lat="45.2380333" lon="7.382255"><ele>722.0</ele><time>2026-05-03T12:55:34.232Z</time></trkpt><trkpt lat="45.2381033" lon="7.3821017"><ele>720.0</ele><time>2026-05-03T12:55:35.232Z</time></trkpt><trkpt lat="45.2381867" lon="7.3819417"><ele>724.25</ele><time>2026-05-03T12:55:36.232Z</time></trkpt><trkpt lat="45.2382883" lon="7.3818033"><ele>728.5</ele><time>2026-05-03T12:55:37.232Z</time></trkpt><trkpt lat="45.2383967" lon="7.38168"><ele>732.75</ele><time>2026-05-03T12:55:38.232Z</time></trkpt><trkpt lat="45.23851" lon="7.3815733"><ele>737.0</ele><time>2026-05-03T12:55:39.232Z</time></trkpt><trkpt lat="45.2386283" lon="7.3814533"><ele>737.6666666666666</ele><time>2026-05-03T12:55:40.232Z</time></trkpt><trkpt lat="45.238755" lon="7.3813367"><ele>738.3333333333334</ele><time>2026-05-03T12:55:41.231Z</time></trkpt><trkpt lat="45.2388867" lon="7.3812233"><ele>739.0</ele><time>2026-05-03T12:55:42.232Z</time></trkpt><trkpt lat="45.2390167" lon="7.381095"><ele>739.0</ele><time>2026-05-03T12:55:43.232Z</time></trkpt><trkpt lat="45.23915" lon="7.3809633"><ele>739.0</ele><time>2026-05-03T12:55:44.232Z</time></trkpt><trkpt lat="45.23929" lon="7.38084"><ele>739.0</ele><time>2026-05-03T12:55:45.232Z</time></trkpt><trkpt lat="45.239425" lon="7.3807167"><ele>739.0</ele><time>2026-05-03T12:55:46.232Z</time></trkpt><trkpt lat="45.2395417" lon="7.3805833"><ele>739.0</ele><time>2026-05-03T12:55:47.232Z</time></trkpt><trkpt lat="45.239655" lon="7.3804517"><ele>739.0</ele><time>2026-05-03T12:55:48.232Z</time></trkpt><trkpt lat="45.2397567" lon="7.3803083"><ele>739.0</ele><time>2026-05-03T12:55:49.232Z</time></trkpt><trkpt lat="45.23985" lon="7.3801517"><ele>742.0</ele><time>2026-05-03T12:55:50.232Z</time></trkpt><trkpt lat="45.23994" lon="7.3799967"><ele>745.0</ele><time>2026-05-03T12:55:51.232Z</time></trkpt><trkpt lat="45.2400233" lon="7.379855"><ele>748.0</ele><time>2026-05-03T12:55:52.232Z</time></trkpt><trkpt lat="45.240105" lon="7.379725"><ele>751.0</ele><time>2026-05-03T12:55:53.231Z</time></trkpt><trkpt lat="45.24019" lon="7.3796367"><ele>751.0</ele><time>2026-05-03T12:55:54.232Z</time></trkpt><trkpt lat="45.24029" lon="7.3796033"><ele>751.0</ele><time>2026-05-03T12:55:55.232Z</time></trkpt><trkpt lat="45.240385" lon="7.3796233"><ele>751.0</ele><time>2026-05-03T12:55:56.232Z</time></trkpt><trkpt lat="45.240485" lon="7.3796933"><ele>751.0</ele><time>2026-05-03T12:55:57.232Z</time></trkpt><trkpt lat="45.2405917" lon="7.379785"><ele>751.0</ele><time>2026-05-03T12:55:58.232Z</time></trkpt><trkpt lat="45.2406983" lon="7.379865"><ele>754.1999999999999</ele><time>2026-05-03T12:55:59.231Z</time></trkpt><trkpt lat="45.2407983" lon="7.3799267"><ele>757.4</ele><time>2026-05-03T12:56:00.232Z</time></trkpt><trkpt lat="45.2409" lon="7.37993"><ele>760.6</ele><time>2026-05-03T12:56:01.232Z</time></trkpt><trkpt lat="45.24101" lon="7.3798917"><ele>763.8</ele><time>2026-05-03T12:56:02.232Z</time></trkpt><trkpt lat="45.2411083" lon="7.3798317"><ele>767.0</ele><time>2026-05-03T12:56:03.232Z</time></trkpt><trkpt lat="45.2412033" lon="7.3797867"><ele>767.0</ele><time>2026-05-03T12:56:04.231Z</time></trkpt><trkpt lat="45.2412917" lon="7.37973"><ele>767.0</ele><time>2026-05-03T12:56:05.232Z</time></trkpt><trkpt lat="45.2413683" lon="7.3796717"><ele>767.0</ele><time>2026-05-03T12:56:06.231Z</time></trkpt><trkpt lat="45.2414167" lon="7.3795167"><ele>767.0</ele><time>2026-05-03T12:56:08.232Z</time></trkpt><trkpt lat="45.241345" lon="7.3793717"><ele>767.0</ele><time>2026-05-03T12:56:10.232Z</time></trkpt><trkpt lat="45.2412517" lon="7.3793233"><ele>765.5</ele><time>2026-05-03T12:56:11.232Z</time></trkpt><trkpt lat="45.2411333" lon="7.3792517"><ele>764.0</ele><time>2026-05-03T12:56:12.232Z</time></trkpt><trkpt lat="45.2410033" lon="7.3791667"><ele>762.5</ele><time>2026-05-03T12:56:13.232Z</time></trkpt><trkpt lat="45.2408783" lon="7.3790833"><ele>761.0</ele><time>2026-05-03T12:56:14.232Z</time></trkpt><trkpt lat="45.2407767" lon="7.37898"><ele>761.0</ele><time>2026-05-03T12:56:15.232Z</time></trkpt><trkpt lat="45.2406933" lon="7.3788583"><ele>761.0</ele><time>2026-05-03T12:56:16.232Z</time></trkpt><trkpt lat="45.2406233" lon="7.37872"><ele>761.0</ele><time>2026-05-03T12:56:17.232Z</time></trkpt><trkpt lat="45.2405583" lon="7.378585"><ele>761.0</ele><time>2026-05-03T12:56:18.232Z</time></trkpt><trkpt lat="45.2404783" lon="7.3784667"><ele>763.75</ele><time>2026-05-03T12:56:19.232Z</time></trkpt><trkpt lat="45.2403817" lon="7.3783817"><ele>766.5</ele><time>2026-05-03T12:56:20.232Z</time></trkpt><trkpt lat="45.2402767" lon="7.37835"><ele>769.25</ele><time>2026-05-03T12:56:21.232Z</time></trkpt><trkpt lat="45.24015" lon="7.3783567"><ele>772.0</ele><time>2026-05-03T12:56:22.231Z</time></trkpt><trkpt lat="45.240025" lon="7.3783767"><ele>772.0</ele><time>2026-05-03T12:56:23.232Z</time></trkpt><trkpt lat="45.239915" lon="7.3784"><ele>772.0</ele><time>2026-05-03T12:56:24.231Z</time></trkpt><trkpt lat="45.2398067" lon="7.3783833"><ele>772.0</ele><time>2026-05-03T12:56:25.232Z</time></trkpt><trkpt lat="45.23972" lon="7.3783383"><ele>772.0</ele><time>2026-05-03T12:56:26.232Z</time></trkpt><trkpt lat="45.2396517" lon="7.3782517"><ele>772.0</ele><time>2026-05-03T12:56:27.232Z</time></trkpt><trkpt lat="45.2396017" lon="7.378145"><ele>772.6</ele><time>2026-05-03T12:56:28.231Z</time></trkpt><trkpt lat="45.2395583" lon="7.378015"><ele>773.2</ele><time>2026-05-03T12:56:29.232Z</time></trkpt><trkpt lat="45.2395183" lon="7.3778817"><ele>773.8</ele><time>2026-05-03T12:56:30.232Z</time></trkpt><trkpt lat="45.23949" lon="7.3777517"><ele>774.4</ele><time>2026-05-03T12:56:31.232Z</time></trkpt><trkpt lat="45.239465" lon="7.3776383"><ele>775.0</ele><time>2026-05-03T12:56:32.232Z</time></trkpt><trkpt lat="45.23945" lon="7.377535"><ele>774.9999999999999</ele><time>2026-05-03T12:56:33.232Z</time></trkpt><trkpt lat="45.239435" lon="7.3774317"><ele>775.0</ele><time>2026-05-03T12:56:34.232Z</time></trkpt><trkpt lat="45.2394217" lon="7.377315"><ele>775.0</ele><time>2026-05-03T12:56:35.232Z</time></trkpt><trkpt lat="45.239395" lon="7.3772283"><ele>775.0</ele><time>2026-05-03T12:56:36.232Z</time></trkpt><trkpt lat="45.2393667" lon="7.37713"><ele>774.9999999999999</ele><time>2026-05-03T12:56:37.232Z</time></trkpt><trkpt lat="45.23932" lon="7.377035"><ele>775.0</ele><time>2026-05-03T12:56:38.232Z</time></trkpt><trkpt lat="45.2392567" lon="7.37695"><ele>775.8333333333333</ele><time>2026-05-03T12:56:39.231Z</time></trkpt><trkpt lat="45.2391867" lon="7.3768733"><ele>776.6666666666666</ele><time>2026-05-03T12:56:40.232Z</time></trkpt><trkpt lat="45.239115" lon="7.3768033"><ele>777.5</ele><time>2026-05-03T12:56:41.232Z</time></trkpt><trkpt lat="45.2390383" lon="7.3767483"><ele>778.3333333333333</ele><time>2026-05-03T12:56:42.232Z</time></trkpt><trkpt lat="45.23897" lon="7.3766733"><ele>779.1666666666666</ele><time>2026-05-03T12:56:43.232Z</time></trkpt><trkpt lat="45.23891" lon="7.37659"><ele>780.0</ele><time>2026-05-03T12:56:44.232Z</time></trkpt><trkpt lat="45.2388683" lon="7.3764867"><ele>779.8</ele><time>2026-05-03T12:56:45.232Z</time></trkpt><trkpt lat="45.23883" lon="7.3763683"><ele>779.6</ele><time>2026-05-03T12:56:46.231Z</time></trkpt><trkpt lat="45.238795" lon="7.376245"><ele>779.4000000000001</ele><time>2026-05-03T12:56:47.232Z</time></trkpt><trkpt lat="45.238755" lon="7.3761183"><ele>779.2</ele><time>2026-05-03T12:56:48.232Z</time></trkpt><trkpt lat="45.2387067" lon="7.3759917"><ele>779.0</ele><time>2026-05-03T12:56:49.232Z</time></trkpt><trkpt lat="45.2386517" lon="7.3758617"><ele>779.0000000000001</ele><time>2026-05-03T12:56:50.232Z</time></trkpt><trkpt lat="45.2386017" lon="7.3757483"><ele>779.0</ele><time>2026-05-03T12:56:51.232Z</time></trkpt><trkpt lat="45.238555" lon="7.3756417"><ele>779.0</ele><time>2026-05-03T12:56:52.232Z</time></trkpt><trkpt lat="45.238505" lon="7.3755467"><ele>779.0</ele><time>2026-05-03T12:56:53.232Z</time></trkpt><trkpt lat="45.2384583" lon="7.375455"><ele>779.0000000000001</ele><time>2026-05-03T12:56:54.232Z</time></trkpt><trkpt lat="45.23841" lon="7.3753833"><ele>779.0</ele><time>2026-05-03T12:56:55.232Z</time></trkpt><trkpt lat="45.2383583" lon="7.3752967"><ele>778.3333333333334</ele><time>2026-05-03T12:56:56.232Z</time></trkpt><trkpt lat="45.2383" lon="7.3752317"><ele>777.6666666666667</ele><time>2026-05-03T12:56:57.232Z</time></trkpt><trkpt lat="45.2382" lon="7.3751183"><ele>777.0</ele><time>2026-05-03T12:56:59.232Z</time></trkpt><trkpt lat="45.2381483" lon="7.3750567"><ele>776.3333333333333</ele><time>2026-05-03T12:57:00.232Z</time></trkpt><trkpt lat="45.2380983" lon="7.37499"><ele>775.6666666666666</ele><time>2026-05-03T12:57:01.232Z</time></trkpt><trkpt lat="45.238075" lon="7.3749017"><ele>775.0</ele><time>2026-05-03T12:57:02.232Z</time></trkpt><trkpt lat="45.2381217" lon="7.3747417"><ele>776.6</ele><time>2026-05-03T12:57:04.231Z</time></trkpt><trkpt lat="45.2381717" lon="7.3746567"><ele>778.2</ele><time>2026-05-03T12:57:05.232Z</time></trkpt><trkpt lat="45.2382533" lon="7.3745783"><ele>779.8</ele><time>2026-05-03T12:57:06.232Z</time></trkpt><trkpt lat="45.2383333" lon="7.37448"><ele>781.4</ele><time>2026-05-03T12:57:07.231Z</time></trkpt><trkpt lat="45.2383983" lon="7.37438"><ele>783.0</ele><time>2026-05-03T12:57:08.232Z</time></trkpt><trkpt lat="45.2384617" lon="7.3742667"><ele>783.0</ele><time>2026-05-03T12:57:09.232Z</time></trkpt><trkpt lat="45.2385017" lon="7.3741383"><ele>783.0</ele><time>2026-05-03T12:57:10.232Z</time></trkpt><trkpt lat="45.2385183" lon="7.374"><ele>783.0</ele><time>2026-05-03T12:57:11.232Z</time></trkpt><trkpt lat="45.2385067" lon="7.373855"><ele>783.0</ele><time>2026-05-03T12:57:12.232Z</time></trkpt><trkpt lat="45.2385083" lon="7.3737117"><ele>783.0</ele><time>2026-05-03T12:57:13.232Z</time></trkpt><trkpt lat="45.23852" lon="7.37357"><ele>783.4</ele><time>2026-05-03T12:57:14.232Z</time></trkpt><trkpt lat="45.2385217" lon="7.3734167"><ele>783.8</ele><time>2026-05-03T12:57:15.232Z</time></trkpt><trkpt lat="45.2385383" lon="7.3732667"><ele>784.2</ele><time>2026-05-03T12:57:16.232Z</time></trkpt><trkpt lat="45.2385417" lon="7.3731283"><ele>784.6</ele><time>2026-05-03T12:57:17.232Z</time></trkpt><trkpt lat="45.23854" lon="7.372995"><ele>785.0</ele><time>2026-05-03T12:57:18.232Z</time></trkpt><trkpt lat="45.2385167" lon="7.3728617"><ele>786.0</ele><time>2026-05-03T12:57:19.232Z</time></trkpt><trkpt lat="45.2384567" lon="7.3727367"><ele>787.0</ele><time>2026-05-03T12:57:20.232Z</time></trkpt><trkpt lat="45.2383833" lon="7.3726017"><ele>788.0</ele><time>2026-05-03T12:57:21.232Z</time></trkpt><trkpt lat="45.23831" lon="7.37246"><ele>789.0</ele><time>2026-05-03T12:57:22.232Z</time></trkpt><trkpt lat="45.238235" lon="7.372315"><ele>788.75</ele><time>2026-05-03T12:57:23.232Z</time></trkpt><trkpt lat="45.2381617" lon="7.3721683"><ele>788.5</ele><time>2026-05-03T12:57:24.232Z</time></trkpt><trkpt lat="45.2380917" lon="7.3720217"><ele>788.25</ele><time>2026-05-03T12:57:25.232Z</time></trkpt><trkpt lat="45.2380233" lon="7.3718833"><ele>788.0</ele><time>2026-05-03T12:57:26.232Z</time></trkpt><trkpt lat="45.2379633" lon="7.37175"><ele>788.0000000000001</ele><time>2026-05-03T12:57:27.232Z</time></trkpt><trkpt lat="45.2379" lon="7.37163"><ele>788.0</ele><time>2026-05-03T12:57:28.231Z</time></trkpt><trkpt lat="45.2378467" lon="7.3715117"><ele>788.0</ele><time>2026-05-03T12:57:29.232Z</time></trkpt><trkpt lat="45.2377883" lon="7.3714133"><ele>788.0</ele><time>2026-05-03T12:57:30.232Z</time></trkpt><trkpt lat="45.237735" lon="7.371345"><ele>788.0000000000001</ele><time>2026-05-03T12:57:31.232Z</time></trkpt><trkpt lat="45.237665" lon="7.3713133"><ele>788.0</ele><time>2026-05-03T12:57:32.232Z</time></trkpt><trkpt lat="45.2375883" lon="7.3713167"><ele>788.0000000000001</ele><time>2026-05-03T12:57:33.232Z</time></trkpt><trkpt lat="45.237515" lon="7.3713717"><ele>788.0</ele><time>2026-05-03T12:57:34.232Z</time></trkpt><trkpt lat="45.23744" lon="7.37143"><ele>788.0</ele><time>2026-05-03T12:57:35.232Z</time></trkpt><trkpt lat="45.2373667" lon="7.37145"><ele>788.0</ele><time>2026-05-03T12:57:36.232Z</time></trkpt><trkpt lat="45.2373067" lon="7.371405"><ele>788.0000000000001</ele><time>2026-05-03T12:57:37.232Z</time></trkpt><trkpt lat="45.2372383" lon="7.3713317"><ele>788.0</ele><time>2026-05-03T12:57:38.231Z</time></trkpt><trkpt lat="45.237165" lon="7.3712317"><ele>787.5999999999999</ele><time>2026-05-03T12:57:39.232Z</time></trkpt><trkpt lat="45.2370783" lon="7.3711367"><ele>787.1999999999999</ele><time>2026-05-03T12:57:40.232Z</time></trkpt><trkpt lat="45.2369883" lon="7.3710583"><ele>786.8</ele><time>2026-05-03T12:57:41.231Z</time></trkpt><trkpt lat="45.2368967" lon="7.3710067"><ele>786.4</ele><time>2026-05-03T12:57:42.232Z</time></trkpt><trkpt lat="45.236795" lon="7.3709783"><ele>786.0</ele><time>2026-05-03T12:57:43.232Z</time></trkpt><trkpt lat="45.2367017" lon="7.37099"><ele>786.0</ele><time>2026-05-03T12:57:44.232Z</time></trkpt><trkpt lat="45.2366033" lon="7.371025"><ele>786.0</ele><time>2026-05-03T12:57:45.231Z</time></trkpt><trkpt lat="45.2365033" lon="7.3710817"><ele>786.0</ele><time>2026-05-03T12:57:46.232Z</time></trkpt><trkpt lat="45.2364017" lon="7.371145"><ele>786.0</ele><time>2026-05-03T12:57:47.231Z</time></trkpt><trkpt lat="45.2363083" lon="7.3711783"><ele>786.0</ele><time>2026-05-03T12:57:48.232Z</time></trkpt><trkpt lat="45.2362117" lon="7.3712167"><ele>787.4</ele><time>2026-05-03T12:57:49.232Z</time></trkpt><trkpt lat="45.23612" lon="7.371275"><ele>788.8</ele><time>2026-05-03T12:57:50.232Z</time></trkpt><trkpt lat="45.2360333" lon="7.3713367"><ele>790.1999999999999</ele><time>2026-05-03T12:57:51.232Z</time></trkpt><trkpt lat="45.2359617" lon="7.3714133"><ele>791.5999999999999</ele><time>2026-05-03T12:57:52.232Z</time></trkpt><trkpt lat="45.2358917" lon="7.37149"><ele>793.0</ele><time>2026-05-03T12:57:53.232Z</time></trkpt><trkpt lat="45.2358217" lon="7.37157"><ele>789.6666666666666</ele><time>2026-05-03T12:57:54.232Z</time></trkpt><trkpt lat="45.2357517" lon="7.3716267"><ele>786.3333333333333</ele><time>2026-05-03T12:57:55.232Z</time></trkpt><trkpt lat="45.2356833" lon="7.3716617"><ele>783.0</ele><time>2026-05-03T12:57:56.232Z</time></trkpt><trkpt lat="45.2356017" lon="7.371685"><ele>779.6666666666667</ele><time>2026-05-03T12:57:57.232Z</time></trkpt><trkpt lat="45.2355233" lon="7.3716833"><ele>776.3333333333334</ele><time>2026-05-03T12:57:58.232Z</time></trkpt><trkpt lat="45.2354417" lon="7.3716567"><ele>773.0</ele><time>2026-05-03T12:57:59.231Z</time></trkpt><trkpt lat="45.2353433" lon="7.37163"><ele>772.3333333333334</ele><time>2026-05-03T12:58:00.232Z</time></trkpt><trkpt lat="45.2352433" lon="7.3716167"><ele>771.6666666666667</ele><time>2026-05-03T12:58:01.231Z</time></trkpt><trkpt lat="45.2351517" lon="7.3716167"><ele>771.0</ele><time>2026-05-03T12:58:02.232Z</time></trkpt><trkpt lat="45.2350867" lon="7.3716283"><ele>770.3333333333333</ele><time>2026-05-03T12:58:03.232Z</time></trkpt><trkpt lat="45.2349733" lon="7.3716533"><ele>769.6666666666666</ele><time>2026-05-03T12:58:05.232Z</time></trkpt><trkpt lat="45.23491" lon="7.37165"><ele>769.0</ele><time>2026-05-03T12:58:06.232Z</time></trkpt><trkpt lat="45.23484" lon="7.3716683"><ele>768.6666666666666</ele><time>2026-05-03T12:58:07.232Z</time></trkpt><trkpt lat="45.234765" lon="7.3716933"><ele>768.3333333333333</ele><time>2026-05-03T12:58:08.232Z</time></trkpt><trkpt lat="45.2346917" lon="7.3717267"><ele>768.0</ele><time>2026-05-03T12:58:09.232Z</time></trkpt><trkpt lat="45.2346183" lon="7.3717617"><ele>767.6666666666666</ele><time>2026-05-03T12:58:10.232Z</time></trkpt><trkpt lat="45.2345533" lon="7.3717833"><ele>767.3333333333333</ele><time>2026-05-03T12:58:11.231Z</time></trkpt><trkpt lat="45.23449" lon="7.371775"><ele>767.0</ele><time>2026-05-03T12:58:12.232Z</time></trkpt><trkpt lat="45.2343717" lon="7.3717667"><ele>767.0</ele><time>2026-05-03T12:58:14.232Z</time></trkpt><trkpt lat="45.2342417" lon="7.3717333"><ele>767.0</ele><time>2026-05-03T12:58:16.232Z</time></trkpt><trkpt lat="45.23417" lon="7.3717433"><ele>767.0</ele><time>2026-05-03T12:58:17.232Z</time></trkpt><trkpt lat="45.2340933" lon="7.37178"><ele>767.0</ele><time>2026-05-03T12:58:18.232Z</time></trkpt><trkpt lat="45.234015" lon="7.371825"><ele>767.0</ele><time>2026-05-03T12:58:19.232Z</time></trkpt><trkpt lat="45.2339567" lon="7.3718983"><ele>767.0</ele><time>2026-05-03T12:58:20.232Z</time></trkpt><trkpt lat="45.2338983" lon="7.37198"><ele>765.8333333333333</ele><time>2026-05-03T12:58:21.232Z</time></trkpt><trkpt lat="45.2338367" lon="7.3720633"><ele>764.6666666666666</ele><time>2026-05-03T12:58:22.232Z</time></trkpt><trkpt lat="45.2337533" lon="7.3721083"><ele>763.5</ele><time>2026-05-03T12:58:23.232Z</time></trkpt><trkpt lat="45.23368" lon="7.3721133"><ele>762.3333333333334</ele><time>2026-05-03T12:58:24.232Z</time></trkpt><trkpt lat="45.23362" lon="7.372075"><ele>761.1666666666667</ele><time>2026-05-03T12:58:25.232Z</time></trkpt><trkpt lat="45.2335617" lon="7.3720117"><ele>760.0</ele><time>2026-05-03T12:58:26.232Z</time></trkpt><trkpt lat="45.2335083" lon="7.3719133"><ele>760.0</ele><time>2026-05-03T12:58:27.232Z</time></trkpt><trkpt lat="45.2334633" lon="7.3718217"><ele>760.0</ele><time>2026-05-03T12:58:28.232Z</time></trkpt><trkpt lat="45.233425" lon="7.37171"><ele>760.0</ele><time>2026-05-03T12:58:29.232Z</time></trkpt><trkpt lat="45.2333833" lon="7.3715983"><ele>760.0</ele><time>2026-05-03T12:58:30.232Z</time></trkpt><trkpt lat="45.2333333" lon="7.3714867"><ele>760.0</ele><time>2026-05-03T12:58:31.232Z</time></trkpt><trkpt lat="45.2332683" lon="7.37138"><ele>760.0</ele><time>2026-05-03T12:58:32.232Z</time></trkpt><trkpt lat="45.23321" lon="7.3712667"><ele>761.0</ele><time>2026-05-03T12:58:33.232Z</time></trkpt><trkpt lat="45.233145" lon="7.3711517"><ele>762.0</ele><time>2026-05-03T12:58:34.232Z</time></trkpt><trkpt lat="45.23308" lon="7.3710283"><ele>763.0</ele><time>2026-05-03T12:58:35.232Z</time></trkpt><trkpt lat="45.233015" lon="7.3709017"><ele>764.0</ele><time>2026-05-03T12:58:36.232Z</time></trkpt><trkpt lat="45.2329517" lon="7.3707767"><ele>765.0</ele><time>2026-05-03T12:58:37.231Z</time></trkpt><trkpt lat="45.2328917" lon="7.3706467"><ele>760.5</ele><time>2026-05-03T12:58:38.231Z</time></trkpt><trkpt lat="45.2328383" lon="7.3705233"><ele>756.0</ele><time>2026-05-03T12:58:39.232Z</time></trkpt><trkpt lat="45.2328017" lon="7.3704017"><ele>751.5</ele><time>2026-05-03T12:58:40.232Z</time></trkpt><trkpt lat="45.2327817" lon="7.3702883"><ele>747.0</ele><time>2026-05-03T12:58:41.232Z</time></trkpt><trkpt lat="45.2327717" lon="7.3701783"><ele>742.5</ele><time>2026-05-03T12:58:42.232Z</time></trkpt><trkpt lat="45.2327833" lon="7.37007"><ele>738.0</ele><time>2026-05-03T12:58:43.232Z</time></trkpt><trkpt lat="45.2327983" lon="7.3699633"><ele>738.0</ele><time>2026-05-03T12:58:44.232Z</time></trkpt><trkpt lat="45.2328183" lon="7.369865"><ele>738.0</ele><time>2026-05-03T12:58:45.232Z</time></trkpt><trkpt lat="45.23286" lon="7.3697267"><ele>738.0</ele><time>2026-05-03T12:58:47.232Z</time></trkpt><trkpt lat="45.23283" lon="7.3695817"><ele>738.0</ele><time>2026-05-03T12:59:07.232Z</time></trkpt><trkpt lat="45.232805" lon="7.369495"><ele>738.0</ele><time>2026-05-03T12:59:08.232Z</time></trkpt><trkpt lat="45.232765" lon="7.3694033"><ele>738.0</ele><time>2026-05-03T12:59:09.232Z</time></trkpt><trkpt lat="45.2327133" lon="7.369315"><ele>737.0</ele><time>2026-05-03T12:59:10.232Z</time></trkpt><trkpt lat="45.2326617" lon="7.36923"><ele>736.0</ele><time>2026-05-03T12:59:11.231Z</time></trkpt><trkpt lat="45.2326217" lon="7.3691433"><ele>735.0</ele><time>2026-05-03T12:59:12.232Z</time></trkpt><trkpt lat="45.23261" lon="7.3690233"><ele>734.0</ele><time>2026-05-03T12:59:13.232Z</time></trkpt><trkpt lat="45.23263" lon="7.3689233"><ele>733.0</ele><time>2026-05-03T12:59:14.232Z</time></trkpt><trkpt lat="45.2326717" lon="7.3688367"><ele>732.0</ele><time>2026-05-03T12:59:15.232Z</time></trkpt><trkpt lat="45.232735" lon="7.3687667"><ele>728.5</ele><time>2026-05-03T12:59:16.232Z</time></trkpt><trkpt lat="45.232825" lon="7.36874"><ele>725.0</ele><time>2026-05-03T12:59:17.232Z</time></trkpt><trkpt lat="45.2329367" lon="7.3687633"><ele>721.5</ele><time>2026-05-03T12:59:18.232Z</time></trkpt><trkpt lat="45.23305" lon="7.36883"><ele>718.0</ele><time>2026-05-03T12:59:19.232Z</time></trkpt><trkpt lat="45.2331717" lon="7.3689217"><ele>725.25</ele><time>2026-05-03T12:59:20.232Z</time></trkpt><trkpt lat="45.2332783" lon="7.3690017"><ele>732.5</ele><time>2026-05-03T12:59:21.232Z</time></trkpt><trkpt lat="45.2333867" lon="7.3690933"><ele>739.75</ele><time>2026-05-03T12:59:22.232Z</time></trkpt><trkpt lat="45.2334867" lon="7.36918"><ele>747.0</ele><time>2026-05-03T12:59:23.232Z</time></trkpt><trkpt lat="45.233595" lon="7.369245"><ele>747.0</ele><time>2026-05-03T12:59:24.232Z</time></trkpt><trkpt lat="45.23369" lon="7.3692883"><ele>747.0</ele><time>2026-05-03T12:59:25.232Z</time></trkpt><trkpt lat="45.233805" lon="7.3693233"><ele>747.0</ele><time>2026-05-03T12:59:26.232Z</time></trkpt><trkpt lat="45.2339317" lon="7.36934"><ele>747.0</ele><time>2026-05-03T12:59:27.232Z</time></trkpt><trkpt lat="45.2340567" lon="7.369345"><ele>746.6</ele><time>2026-05-03T12:59:28.232Z</time></trkpt><trkpt lat="45.234175" lon="7.3693417"><ele>746.2</ele><time>2026-05-03T12:59:29.232Z</time></trkpt><trkpt lat="45.234285" lon="7.369325"><ele>745.8</ele><time>2026-05-03T12:59:30.232Z</time></trkpt><trkpt lat="45.2343917" lon="7.3692983"><ele>745.4</ele><time>2026-05-03T12:59:31.232Z</time></trkpt><trkpt lat="45.2345" lon="7.369285"><ele>745.0</ele><time>2026-05-03T12:59:32.232Z</time></trkpt><trkpt lat="45.2346067" lon="7.3692717"><ele>745.0</ele><time>2026-05-03T12:59:33.232Z</time></trkpt><trkpt lat="45.2347067" lon="7.3692667"><ele>745.0</ele><time>2026-05-03T12:59:34.232Z</time></trkpt><trkpt lat="45.2348017" lon="7.3692483"><ele>745.0</ele><time>2026-05-03T12:59:35.232Z</time></trkpt><trkpt lat="45.2348783" lon="7.369205"><ele>745.0</ele><time>2026-05-03T12:59:36.232Z</time></trkpt><trkpt lat="45.2349233" lon="7.3691333"><ele>745.0</ele><time>2026-05-03T12:59:37.232Z</time></trkpt><trkpt lat="45.23493" lon="7.3689617"><ele>745.5</ele><time>2026-05-03T12:59:39.232Z</time></trkpt><trkpt lat="45.234905" lon="7.3688683"><ele>746.0</ele><time>2026-05-03T12:59:40.232Z</time></trkpt><trkpt lat="45.2348617" lon="7.3687633"><ele>746.5</ele><time>2026-05-03T12:59:41.232Z</time></trkpt><trkpt lat="45.23481" lon="7.3686933"><ele>747.0</ele><time>2026-05-03T12:59:42.232Z</time></trkpt><trkpt lat="45.2347317" lon="7.36863"><ele>747.5</ele><time>2026-05-03T12:59:43.232Z</time></trkpt><trkpt lat="45.2346333" lon="7.368595"><ele>748.0</ele><time>2026-05-03T12:59:44.232Z</time></trkpt><trkpt lat="45.2345133" lon="7.3685633"><ele>748.0</ele><time>2026-05-03T12:59:45.232Z</time></trkpt><trkpt lat="45.2343933" lon="7.368525"><ele>748.0</ele><time>2026-05-03T12:59:46.232Z</time></trkpt><trkpt lat="45.234275" lon="7.368475"><ele>748.0</ele><time>2026-05-03T12:59:47.232Z</time></trkpt><trkpt lat="45.2341567" lon="7.3684317"><ele>748.0</ele><time>2026-05-03T12:59:48.232Z</time></trkpt><trkpt lat="45.23403" lon="7.3683867"><ele>745.25</ele><time>2026-05-03T12:59:49.232Z</time></trkpt><trkpt lat="45.2339083" lon="7.3683733"><ele>742.5</ele><time>2026-05-03T12:59:50.232Z</time></trkpt><trkpt lat="45.2337867" lon="7.368345"><ele>739.75</ele><time>2026-05-03T12:59:51.232Z</time></trkpt><trkpt lat="45.2336583" lon="7.36831"><ele>737.0</ele><time>2026-05-03T12:59:52.232Z</time></trkpt><trkpt lat="45.233535" lon="7.3682867"><ele>737.0</ele><time>2026-05-03T12:59:53.232Z</time></trkpt><trkpt lat="45.2334183" lon="7.3682433"><ele>737.0</ele><time>2026-05-03T12:59:54.232Z</time></trkpt><trkpt lat="45.233315" lon="7.3681783"><ele>737.0</ele><time>2026-05-03T12:59:55.232Z</time></trkpt><trkpt lat="45.2332083" lon="7.368125"><ele>737.0</ele><time>2026-05-03T12:59:56.232Z</time></trkpt><trkpt lat="45.2331083" lon="7.3680433"><ele>733.6</ele><time>2026-05-03T12:59:57.232Z</time></trkpt><trkpt lat="45.2330117" lon="7.3679567"><ele>730.2</ele><time>2026-05-03T12:59:58.232Z</time></trkpt><trkpt lat="45.2329183" lon="7.3678767"><ele>726.8</ele><time>2026-05-03T12:59:59.232Z</time></trkpt><trkpt lat="45.232825" lon="7.36781"><ele>723.4</ele><time>2026-05-03T13:00:00.232Z</time></trkpt><trkpt lat="45.2327283" lon="7.3677533"><ele>720.0</ele><time>2026-05-03T13:00:01.232Z</time></trkpt><trkpt lat="45.2326517" lon="7.3676933"><ele>720.0</ele><time>2026-05-03T13:00:02.232Z</time></trkpt><trkpt lat="45.232585" lon="7.3676217"><ele>720.0</ele><time>2026-05-03T13:00:03.232Z</time></trkpt><trkpt lat="45.232525" lon="7.36754"><ele>720.0</ele><time>2026-05-03T13:00:04.232Z</time></trkpt><trkpt lat="45.232475" lon="7.3674483"><ele>720.0</ele><time>2026-05-03T13:00:05.232Z</time></trkpt><trkpt lat="45.23243" lon="7.367365"><ele>720.0</ele><time>2026-05-03T13:00:06.232Z</time></trkpt><trkpt lat="45.232385" lon="7.3673"><ele>720.0</ele><time>2026-05-03T13:00:07.231Z</time></trkpt><trkpt lat="45.2323083" lon="7.3671817"><ele>719.1666666666666</ele><time>2026-05-03T13:00:09.232Z</time></trkpt><trkpt lat="45.2322117" lon="7.3671433"><ele>718.3333333333334</ele><time>2026-05-03T13:00:11.232Z</time></trkpt><trkpt lat="45.2321367" lon="7.36715"><ele>717.5</ele><time>2026-05-03T13:00:12.232Z</time></trkpt><trkpt lat="45.232045" lon="7.367145"><ele>716.6666666666667</ele><time>2026-05-03T13:00:13.232Z</time></trkpt><trkpt lat="45.2319533" lon="7.3671367"><ele>715.8333333333334</ele><time>2026-05-03T13:00:14.232Z</time></trkpt><trkpt lat="45.2318717" lon="7.3671233"><ele>715.0</ele><time>2026-05-03T13:00:15.232Z</time></trkpt><trkpt lat="45.2318" lon="7.367115"><ele>715.0</ele><time>2026-05-03T13:00:16.232Z</time></trkpt><trkpt lat="45.2317317" lon="7.3671233"><ele>715.0</ele><time>2026-05-03T13:00:17.232Z</time></trkpt><trkpt lat="45.2316383" lon="7.3672267"><ele>715.0</ele><time>2026-05-03T13:00:19.232Z</time></trkpt><trkpt lat="45.2316167" lon="7.36732"><ele>715.0</ele><time>2026-05-03T13:00:20.232Z</time></trkpt><trkpt lat="45.2315983" lon="7.36744"><ele>715.0</ele><time>2026-05-03T13:00:21.232Z</time></trkpt><trkpt lat="45.23158" lon="7.3675683"><ele>715.0</ele><time>2026-05-03T13:00:22.232Z</time></trkpt><trkpt lat="45.2315517" lon="7.3676867"><ele>715.0</ele><time>2026-05-03T13:00:23.232Z</time></trkpt><trkpt lat="45.231505" lon="7.3677983"><ele>715.0</ele><time>2026-05-03T13:00:24.232Z</time></trkpt><trkpt lat="45.2314467" lon="7.3679033"><ele>715.0</ele><time>2026-05-03T13:00:25.232Z</time></trkpt><trkpt lat="45.2313817" lon="7.368005"><ele>715.0</ele><time>2026-05-03T13:00:26.232Z</time></trkpt><trkpt lat="45.2313117" lon="7.3681033"><ele>715.0</ele><time>2026-05-03T13:00:27.232Z</time></trkpt><trkpt lat="45.2312367" lon="7.3681933"><ele>719.4</ele><time>2026-05-03T13:00:28.232Z</time></trkpt><trkpt lat="45.2311567" lon="7.3682717"><ele>723.8</ele><time>2026-05-03T13:00:29.232Z</time></trkpt><trkpt lat="45.2310783" lon="7.3683683"><ele>728.2</ele><time>2026-05-03T13:00:30.232Z</time></trkpt><trkpt lat="45.2310067" lon="7.368475"><ele>732.6</ele><time>2026-05-03T13:00:31.231Z</time></trkpt><trkpt lat="45.2309517" lon="7.3685867"><ele>737.0</ele><time>2026-05-03T13:00:32.232Z</time></trkpt><trkpt lat="45.2309017" lon="7.3687067"><ele>737.0</ele><time>2026-05-03T13:00:33.232Z</time></trkpt><trkpt lat="45.2308533" lon="7.36883"><ele>737.0</ele><time>2026-05-03T13:00:34.232Z</time></trkpt><trkpt lat="45.2308083" lon="7.368955"><ele>737.0</ele><time>2026-05-03T13:00:35.232Z</time></trkpt><trkpt lat="45.2307733" lon="7.3690867"><ele>737.0</ele><time>2026-05-03T13:00:36.232Z</time></trkpt><trkpt lat="45.230745" lon="7.3692117"><ele>737.0</ele><time>2026-05-03T13:00:37.231Z</time></trkpt><trkpt lat="45.230715" lon="7.3693467"><ele>736.6</ele><time>2026-05-03T13:00:38.231Z</time></trkpt><trkpt lat="45.230695" lon="7.36948"><ele>736.2</ele><time>2026-05-03T13:00:39.232Z</time></trkpt><trkpt lat="45.23066" lon="7.36962"><ele>735.8</ele><time>2026-05-03T13:00:40.232Z</time></trkpt><trkpt lat="45.23063" lon="7.369765"><ele>735.4</ele><time>2026-05-03T13:00:41.232Z</time></trkpt><trkpt lat="45.2306033" lon="7.3699133"><ele>735.0</ele><time>2026-05-03T13:00:42.232Z</time></trkpt><trkpt lat="45.2305833" lon="7.370075"><ele>746.0</ele><time>2026-05-03T13:00:43.232Z</time></trkpt><trkpt lat="45.2305683" lon="7.3702433"><ele>757.0</ele><time>2026-05-03T13:00:44.232Z</time></trkpt><trkpt lat="45.2305617" lon="7.3703867"><ele>768.0</ele><time>2026-05-03T13:00:45.232Z</time></trkpt><trkpt lat="45.23055" lon="7.370535"><ele>779.0</ele><time>2026-05-03T13:00:46.232Z</time></trkpt><trkpt lat="45.230555" lon="7.3706767"><ele>790.0</ele><time>2026-05-03T13:00:47.232Z</time></trkpt><trkpt lat="45.2305567" lon="7.3708117"><ele>790.0</ele><time>2026-05-03T13:00:48.232Z</time></trkpt><trkpt lat="45.2305533" lon="7.370935"><ele>790.0</ele><time>2026-05-03T13:00:49.232Z</time></trkpt><trkpt lat="45.23053" lon="7.3710683"><ele>790.0</ele><time>2026-05-03T13:00:50.232Z</time></trkpt><trkpt lat="45.2304967" lon="7.3711983"><ele>790.0</ele><time>2026-05-03T13:00:51.231Z</time></trkpt><trkpt lat="45.2304567" lon="7.3713217"><ele>790.0</ele><time>2026-05-03T13:00:52.232Z</time></trkpt><trkpt lat="45.230425" lon="7.3714417"><ele>788.6</ele><time>2026-05-03T13:00:53.232Z</time></trkpt><trkpt lat="45.2304183" lon="7.3715617"><ele>787.2</ele><time>2026-05-03T13:00:54.232Z</time></trkpt><trkpt lat="45.2304317" lon="7.3716933"><ele>785.8</ele><time>2026-05-03T13:00:55.232Z</time></trkpt><trkpt lat="45.2304667" lon="7.3718067"><ele>784.4</ele><time>2026-05-03T13:00:56.232Z</time></trkpt><trkpt lat="45.2305283" lon="7.3719167"><ele>783.0</ele><time>2026-05-03T13:00:57.232Z</time></trkpt><trkpt lat="45.2305983" lon="7.3719983"><ele>778.2</ele><time>2026-05-03T13:00:58.232Z</time></trkpt><trkpt lat="45.23067" lon="7.3721033"><ele>773.4</ele><time>2026-05-03T13:00:59.232Z</time></trkpt><trkpt lat="45.2307367" lon="7.3722167"><ele>768.6</ele><time>2026-05-03T13:01:00.232Z</time></trkpt><trkpt lat="45.2307817" lon="7.3723383"><ele>763.8000000000001</ele><time>2026-05-03T13:01:01.232Z</time></trkpt><trkpt lat="45.2308167" lon="7.3724683"><ele>759.0</ele><time>2026-05-03T13:01:02.232Z</time></trkpt><trkpt lat="45.2308333" lon="7.37261"><ele>759.0</ele><time>2026-05-03T13:01:03.232Z</time></trkpt><trkpt lat="45.230835" lon="7.3727333"><ele>759.0</ele><time>2026-05-03T13:01:04.232Z</time></trkpt><trkpt lat="45.230835" lon="7.372845"><ele>759.0</ele><time>2026-05-03T13:01:05.232Z</time></trkpt><trkpt lat="45.2308033" lon="7.3729283"><ele>759.0</ele><time>2026-05-03T13:01:06.232Z</time></trkpt><trkpt lat="45.2307517" lon="7.373005"><ele>759.0</ele><time>2026-05-03T13:01:07.232Z</time></trkpt><trkpt lat="45.230675" lon="7.37306"><ele>759.0</ele><time>2026-05-03T13:01:08.232Z</time></trkpt><trkpt lat="45.2305767" lon="7.3730867"><ele>763.2</ele><time>2026-05-03T13:01:09.232Z</time></trkpt><trkpt lat="45.2304733" lon="7.373085"><ele>767.4000000000001</ele><time>2026-05-03T13:01:10.232Z</time></trkpt><trkpt lat="45.230375" lon="7.3731017"><ele>771.6</ele><time>2026-05-03T13:01:11.232Z</time></trkpt><trkpt lat="45.23029" lon="7.373145"><ele>775.8</ele><time>2026-05-03T13:01:12.231Z</time></trkpt><trkpt lat="45.2302233" lon="7.37323"><ele>780.0</ele><time>2026-05-03T13:01:13.232Z</time></trkpt><trkpt lat="45.2301767" lon="7.373345"><ele>780.0</ele><time>2026-05-03T13:01:14.232Z</time></trkpt><trkpt lat="45.2301533" lon="7.3734783"><ele>780.0</ele><time>2026-05-03T13:01:15.232Z</time></trkpt><trkpt lat="45.2301567" lon="7.3736267"><ele>780.0</ele><time>2026-05-03T13:01:16.231Z</time></trkpt><trkpt lat="45.23017" lon="7.3737833"><ele>780.0</ele><time>2026-05-03T13:01:17.231Z</time></trkpt><trkpt lat="45.2301967" lon="7.37394"><ele>780.0</ele><time>2026-05-03T13:01:18.232Z</time></trkpt><trkpt lat="45.23023" lon="7.3741133"><ele>780.25</ele><time>2026-05-03T13:01:19.232Z</time></trkpt><trkpt lat="45.2302533" lon="7.374285"><ele>780.5</ele><time>2026-05-03T13:01:20.232Z</time></trkpt><trkpt lat="45.2302817" lon="7.3744517"><ele>780.75</ele><time>2026-05-03T13:01:21.232Z</time></trkpt><trkpt lat="45.2302967" lon="7.37462"><ele>781.0</ele><time>2026-05-03T13:01:22.232Z</time></trkpt><trkpt lat="45.2303217" lon="7.3747817"><ele>781.1999999999999</ele><time>2026-05-03T13:01:23.231Z</time></trkpt><trkpt lat="45.230355" lon="7.37494"><ele>781.4</ele><time>2026-05-03T13:01:24.231Z</time></trkpt><trkpt lat="45.2303783" lon="7.375095"><ele>781.6</ele><time>2026-05-03T13:01:25.232Z</time></trkpt><trkpt lat="45.23042" lon="7.3752317"><ele>781.8</ele><time>2026-05-03T13:01:26.232Z</time></trkpt><trkpt lat="45.230445" lon="7.3753617"><ele>782.0</ele><time>2026-05-03T13:01:27.232Z</time></trkpt><trkpt lat="45.2304567" lon="7.375475"><ele>781.8333333333334</ele><time>2026-05-03T13:01:28.232Z</time></trkpt><trkpt lat="45.2304583" lon="7.3755667"><ele>781.6666666666667</ele><time>2026-05-03T13:01:29.232Z</time></trkpt><trkpt lat="45.2303667" lon="7.37564"><ele>781.5</ele><time>2026-05-03T13:01:31.232Z</time></trkpt><trkpt lat="45.2302983" lon="7.3756133"><ele>781.3333333333333</ele><time>2026-05-03T13:01:32.232Z</time></trkpt><trkpt lat="45.23022" lon="7.37557"><ele>781.1666666666666</ele><time>2026-05-03T13:01:33.232Z</time></trkpt><trkpt lat="45.23013" lon="7.375545"><ele>781.0</ele><time>2026-05-03T13:01:34.232Z</time></trkpt><trkpt lat="45.2300417" lon="7.37556"><ele>781.0</ele><time>2026-05-03T13:01:35.232Z</time></trkpt><trkpt lat="45.2299617" lon="7.3756183"><ele>781.0</ele><time>2026-05-03T13:01:36.232Z</time></trkpt><trkpt lat="45.22989" lon="7.375705"><ele>781.0</ele><time>2026-05-03T13:01:37.232Z</time></trkpt><trkpt lat="45.22983" lon="7.3758133"><ele>781.0</ele><time>2026-05-03T13:01:38.232Z</time></trkpt><trkpt lat="45.2297883" lon="7.3759417"><ele>781.0</ele><time>2026-05-03T13:01:39.232Z</time></trkpt><trkpt lat="45.229755" lon="7.376055"><ele>783.3333333333333</ele><time>2026-05-03T13:01:40.231Z</time></trkpt><trkpt lat="45.22971" lon="7.3761433"><ele>785.6666666666666</ele><time>2026-05-03T13:01:41.232Z</time></trkpt><trkpt lat="45.22961" lon="7.3762083"><ele>788.0</ele><time>2026-05-03T13:01:43.231Z</time></trkpt><trkpt lat="45.2295567" lon="7.376105"><ele>790.3333333333333</ele><time>2026-05-03T13:01:45.232Z</time></trkpt><trkpt lat="45.2295633" lon="7.3759967"><ele>792.6666666666666</ele><time>2026-05-03T13:01:46.232Z</time></trkpt><trkpt lat="45.229585" lon="7.3758683"><ele>795.0</ele><time>2026-05-03T13:01:47.231Z</time></trkpt><trkpt lat="45.2296083" lon="7.3757283"><ele>795.0</ele><time>2026-05-03T13:01:48.232Z</time></trkpt><trkpt lat="45.2296133" lon="7.37558"><ele>795.0</ele><time>2026-05-03T13:01:49.232Z</time></trkpt><trkpt lat="45.2296167" lon="7.37543"><ele>795.0</ele><time>2026-05-03T13:01:50.232Z</time></trkpt><trkpt lat="45.2296167" lon="7.375275"><ele>795.0</ele><time>2026-05-03T13:01:51.232Z</time></trkpt><trkpt lat="45.229615" lon="7.3751133"><ele>795.0</ele><time>2026-05-03T13:01:52.232Z</time></trkpt><trkpt lat="45.2296083" lon="7.3749517"><ele>797.0</ele><time>2026-05-03T13:01:53.232Z</time></trkpt><trkpt lat="45.2296033" lon="7.3747933"><ele>799.0</ele><time>2026-05-03T13:01:54.232Z</time></trkpt><trkpt lat="45.2295967" lon="7.37464"><ele>801.0</ele><time>2026-05-03T13:01:55.232Z</time></trkpt><trkpt lat="45.2295933" lon="7.3745033"><ele>803.0</ele><time>2026-05-03T13:01:56.232Z</time></trkpt><trkpt lat="45.2295917" lon="7.3743667"><ele>805.0</ele><time>2026-05-03T13:01:57.232Z</time></trkpt><trkpt lat="45.2295783" lon="7.3742333"><ele>805.4</ele><time>2026-05-03T13:01:58.231Z</time></trkpt><trkpt lat="45.2295517" lon="7.374115"><ele>805.8</ele><time>2026-05-03T13:01:59.232Z</time></trkpt><trkpt lat="45.2295033" lon="7.374015"><ele>806.2</ele><time>2026-05-03T13:02:00.231Z</time></trkpt><trkpt lat="45.2294317" lon="7.37392"><ele>806.6</ele><time>2026-05-03T13:02:01.232Z</time></trkpt><trkpt lat="45.2293633" lon="7.3738267"><ele>807.0</ele><time>2026-05-03T13:02:02.232Z</time></trkpt><trkpt lat="45.2292967" lon="7.3737433"><ele>807.0</ele><time>2026-05-03T13:02:03.232Z</time></trkpt><trkpt lat="45.2292367" lon="7.3736717"><ele>807.0</ele><time>2026-05-03T13:02:04.232Z</time></trkpt><trkpt lat="45.229175" lon="7.3736033"><ele>807.0</ele><time>2026-05-03T13:02:05.232Z</time></trkpt><trkpt lat="45.22911" lon="7.3735767"><ele>807.0</ele><time>2026-05-03T13:02:06.231Z</time></trkpt><trkpt lat="45.229035" lon="7.3736333"><ele>807.0</ele><time>2026-05-03T13:02:08.232Z</time></trkpt><trkpt lat="45.229105" lon="7.3738017"><ele>807.0</ele><time>2026-05-03T13:02:10.232Z</time></trkpt><trkpt lat="45.2291733" lon="7.3739133"><ele>807.5</ele><time>2026-05-03T13:02:11.232Z</time></trkpt><trkpt lat="45.22925" lon="7.3740383"><ele>808.0</ele><time>2026-05-03T13:02:12.232Z</time></trkpt><trkpt lat="45.2293067" lon="7.3741533"><ele>808.5</ele><time>2026-05-03T13:02:13.232Z</time></trkpt><trkpt lat="45.229345" lon="7.374245"><ele>809.0</ele><time>2026-05-03T13:02:14.231Z</time></trkpt><trkpt lat="45.2293617" lon="7.374345"><ele>809.5</ele><time>2026-05-03T13:02:15.231Z</time></trkpt><trkpt lat="45.2293467" lon="7.374445"><ele>810.0</ele><time>2026-05-03T13:02:16.232Z</time></trkpt><trkpt lat="45.2293117" lon="7.37455"><ele>810.0</ele><time>2026-05-03T13:02:17.232Z</time></trkpt><trkpt lat="45.229255" lon="7.37465"><ele>810.0</ele><time>2026-05-03T13:02:18.232Z</time></trkpt><trkpt lat="45.22918" lon="7.3747417"><ele>810.0</ele><time>2026-05-03T13:02:19.232Z</time></trkpt><trkpt lat="45.2291117" lon="7.3748383"><ele>810.0</ele><time>2026-05-03T13:02:20.232Z</time></trkpt><trkpt lat="45.2290317" lon="7.3749283"><ele>810.0</ele><time>2026-05-03T13:02:21.231Z</time></trkpt><trkpt lat="45.22895" lon="7.3750133"><ele>813.4</ele><time>2026-05-03T13:02:22.232Z</time></trkpt><trkpt lat="45.2288567" lon="7.3750783"><ele>816.8</ele><time>2026-05-03T13:02:23.232Z</time></trkpt><trkpt lat="45.2287567" lon="7.375125"><ele>820.2</ele><time>2026-05-03T13:02:24.232Z</time></trkpt><trkpt lat="45.2286567" lon="7.3751567"><ele>823.6</ele><time>2026-05-03T13:02:25.232Z</time></trkpt><trkpt lat="45.2285617" lon="7.3751533"><ele>827.0</ele><time>2026-05-03T13:02:26.232Z</time></trkpt><trkpt lat="45.2284833" lon="7.3751267"><ele>827.0</ele><time>2026-05-03T13:02:27.231Z</time></trkpt><trkpt lat="45.2283867" lon="7.375095"><ele>827.0</ele><time>2026-05-03T13:02:28.232Z</time></trkpt><trkpt lat="45.2282883" lon="7.375065"><ele>827.0</ele><time>2026-05-03T13:02:29.232Z</time></trkpt><trkpt lat="45.2282" lon="7.3750433"><ele>827.0</ele><time>2026-05-03T13:02:30.232Z</time></trkpt><trkpt lat="45.2281117" lon="7.3750467"><ele>827.0</ele><time>2026-05-03T13:02:31.232Z</time></trkpt><trkpt lat="45.228035" lon="7.3750917"><ele>828.4000000000001</ele><time>2026-05-03T13:02:32.232Z</time></trkpt><trkpt lat="45.22796" lon="7.37519"><ele>829.8000000000001</ele><time>2026-05-03T13:02:33.232Z</time></trkpt><trkpt lat="45.2278917" lon="7.37531"><ele>831.2</ele><time>2026-05-03T13:02:34.232Z</time></trkpt><trkpt lat="45.22782" lon="7.3754183"><ele>832.6</ele><time>2026-05-03T13:02:35.232Z</time></trkpt><trkpt lat="45.2277467" lon="7.3754817"><ele>834.0</ele><time>2026-05-03T13:02:36.232Z</time></trkpt><trkpt lat="45.2276767" lon="7.3755267"><ele>834.0</ele><time>2026-05-03T13:02:37.232Z</time></trkpt><trkpt lat="45.2276083" lon="7.3755717"><ele>834.0</ele><time>2026-05-03T13:02:38.232Z</time></trkpt><trkpt lat="45.2275417" lon="7.37565"><ele>834.0</ele><time>2026-05-03T13:02:39.231Z</time></trkpt><trkpt lat="45.2274833" lon="7.3757367"><ele>834.0</ele><time>2026-05-03T13:02:40.232Z</time></trkpt><trkpt lat="45.227435" lon="7.375845"><ele>834.0</ele><time>2026-05-03T13:02:41.232Z</time></trkpt><trkpt lat="45.2273967" lon="7.3759667"><ele>834.0</ele><time>2026-05-03T13:02:42.232Z</time></trkpt><trkpt lat="45.2273683" lon="7.3761017"><ele>834.0</ele><time>2026-05-03T13:02:43.232Z</time></trkpt><trkpt lat="45.227335" lon="7.376245"><ele>834.0</ele><time>2026-05-03T13:02:44.232Z</time></trkpt><trkpt lat="45.2272933" lon="7.3763867"><ele>834.0</ele><time>2026-05-03T13:02:45.232Z</time></trkpt><trkpt lat="45.2272483" lon="7.3765367"><ele>834.0</ele><time>2026-05-03T13:02:46.232Z</time></trkpt><trkpt lat="45.2271983" lon="7.376695"><ele>836.0</ele><time>2026-05-03T13:02:47.232Z</time></trkpt><trkpt lat="45.227155" lon="7.3768583"><ele>838.0</ele><time>2026-05-03T13:02:48.232Z</time></trkpt><trkpt lat="45.22711" lon="7.3770133"><ele>840.0</ele><time>2026-05-03T13:02:49.232Z</time></trkpt><trkpt lat="45.2270517" lon="7.3771533"><ele>842.0</ele><time>2026-05-03T13:02:50.232Z</time></trkpt><trkpt lat="45.2269867" lon="7.3772683"><ele>842.0</ele><time>2026-05-03T13:02:51.232Z</time></trkpt><trkpt lat="45.226905" lon="7.3773667"><ele>842.0</ele><time>2026-05-03T13:02:52.232Z</time></trkpt><trkpt lat="45.2268133" lon="7.3774217"><ele>842.0</ele><time>2026-05-03T13:02:53.232Z</time></trkpt><trkpt lat="45.2267117" lon="7.3774633"><ele>842.0</ele><time>2026-05-03T13:02:54.232Z</time></trkpt><trkpt lat="45.22659" lon="7.3775017"><ele>842.0</ele><time>2026-05-03T13:02:55.232Z</time></trkpt><trkpt lat="45.2264733" lon="7.3775433"><ele>847.0</ele><time>2026-05-03T13:02:56.232Z</time></trkpt><trkpt lat="45.2263633" lon="7.3776067"><ele>852.0</ele><time>2026-05-03T13:02:57.232Z</time></trkpt><trkpt lat="45.2262533" lon="7.3777017"><ele>857.0</ele><time>2026-05-03T13:02:58.231Z</time></trkpt><trkpt lat="45.226155" lon="7.377805"><ele>862.0</ele><time>2026-05-03T13:02:59.232Z</time></trkpt><trkpt lat="45.2260583" lon="7.3778733"><ele>862.0</ele><time>2026-05-03T13:03:00.232Z</time></trkpt><trkpt lat="45.225955" lon="7.377935"><ele>862.0</ele><time>2026-05-03T13:03:01.232Z</time></trkpt><trkpt lat="45.2258417" lon="7.3779967"><ele>862.0</ele><time>2026-05-03T13:03:02.232Z</time></trkpt><trkpt lat="45.225715" lon="7.37806"><ele>862.0</ele><time>2026-05-03T13:03:03.232Z</time></trkpt><trkpt lat="45.2255883" lon="7.3781133"><ele>859.5</ele><time>2026-05-03T13:03:04.232Z</time></trkpt><trkpt lat="45.22547" lon="7.3781567"><ele>857.0</ele><time>2026-05-03T13:03:05.232Z</time></trkpt><trkpt lat="45.2253433" lon="7.37821"><ele>854.5</ele><time>2026-05-03T13:03:06.231Z</time></trkpt><trkpt lat="45.2252167" lon="7.378255"><ele>852.0</ele><time>2026-05-03T13:03:07.232Z</time></trkpt><trkpt lat="45.2250817" lon="7.378285"><ele>852.0</ele><time>2026-05-03T13:03:08.232Z</time></trkpt><trkpt lat="45.2249517" lon="7.3783167"><ele>852.0</ele><time>2026-05-03T13:03:09.232Z</time></trkpt><trkpt lat="45.2248267" lon="7.378345"><ele>852.0</ele><time>2026-05-03T13:03:10.231Z</time></trkpt><trkpt lat="45.22472" lon="7.3783817"><ele>852.0</ele><time>2026-05-03T13:03:11.232Z</time></trkpt><trkpt lat="45.224605" lon="7.378395"><ele>854.8</ele><time>2026-05-03T13:03:12.231Z</time></trkpt><trkpt lat="45.224495" lon="7.37841"><ele>857.6</ele><time>2026-05-03T13:03:13.231Z</time></trkpt><trkpt lat="45.2243917" lon="7.378435"><ele>860.3999999999999</ele><time>2026-05-03T13:03:14.232Z</time></trkpt><trkpt lat="45.2242933" lon="7.3784583"><ele>863.1999999999999</ele><time>2026-05-03T13:03:15.232Z</time></trkpt><trkpt lat="45.224205" lon="7.378475"><ele>866.0</ele><time>2026-05-03T13:03:16.231Z</time></trkpt><trkpt lat="45.2241217" lon="7.378505"><ele>866.0000000000001</ele><time>2026-05-03T13:03:17.232Z</time></trkpt><trkpt lat="45.224055" lon="7.3785633"><ele>866.0</ele><time>2026-05-03T13:03:18.232Z</time></trkpt><trkpt lat="45.2239883" lon="7.3786517"><ele>866.0</ele><time>2026-05-03T13:03:19.232Z</time></trkpt><trkpt lat="45.223935" lon="7.3787533"><ele>866.0</ele><time>2026-05-03T13:03:20.232Z</time></trkpt><trkpt lat="45.2239067" lon="7.37886"><ele>866.0000000000001</ele><time>2026-05-03T13:03:21.232Z</time></trkpt><trkpt lat="45.22388" lon="7.378975"><ele>866.0</ele><time>2026-05-03T13:03:22.232Z</time></trkpt><trkpt lat="45.223875" lon="7.379095"><ele>866.1666666666667</ele><time>2026-05-03T13:03:23.232Z</time></trkpt><trkpt lat="45.22388" lon="7.3792"><ele>866.3333333333334</ele><time>2026-05-03T13:03:24.232Z</time></trkpt><trkpt lat="45.2239133" lon="7.37929"><ele>866.5</ele><time>2026-05-03T13:03:25.232Z</time></trkpt><trkpt lat="45.223955" lon="7.3793583"><ele>866.6666666666667</ele><time>2026-05-03T13:03:26.232Z</time></trkpt><trkpt lat="45.2240317" lon="7.3794067"><ele>866.8333333333334</ele><time>2026-05-03T13:03:27.232Z</time></trkpt><trkpt lat="45.224125" lon="7.3794317"><ele>867.0</ele><time>2026-05-03T13:03:28.232Z</time></trkpt><trkpt lat="45.2242233" lon="7.3794783"><ele>867.0</ele><time>2026-05-03T13:03:29.232Z</time></trkpt><trkpt lat="45.2243183" lon="7.3795317"><ele>867.0</ele><time>2026-05-03T13:03:30.232Z</time></trkpt><trkpt lat="45.2244117" lon="7.379595"><ele>867.0</ele><time>2026-05-03T13:03:31.232Z</time></trkpt><trkpt lat="45.2245083" lon="7.3796517"><ele>867.0</ele><time>2026-05-03T13:03:32.232Z</time></trkpt><trkpt lat="45.2246033" lon="7.3796933"><ele>867.0</ele><time>2026-05-03T13:03:33.232Z</time></trkpt><trkpt lat="45.22469" lon="7.3797467"><ele>867.2</ele><time>2026-05-03T13:03:34.232Z</time></trkpt><trkpt lat="45.224785" lon="7.3798017"><ele>867.4000000000001</ele><time>2026-05-03T13:03:35.232Z</time></trkpt><trkpt lat="45.2248867" lon="7.37989"><ele>867.5999999999999</ele><time>2026-05-03T13:03:36.232Z</time></trkpt><trkpt lat="45.2249633" lon="7.3799567"><ele>867.8</ele><time>2026-05-03T13:03:37.232Z</time></trkpt><trkpt lat="45.2250217" lon="7.3800383"><ele>868.0</ele><time>2026-05-03T13:03:38.232Z</time></trkpt><trkpt lat="45.2250617" lon="7.3801183"><ele>867.9999999999999</ele><time>2026-05-03T13:03:39.232Z</time></trkpt><trkpt lat="45.22507" lon="7.38022"><ele>868.0</ele><time>2026-05-03T13:03:40.232Z</time></trkpt><trkpt lat="45.225055" lon="7.3803383"><ele>868.0</ele><time>2026-05-03T13:03:41.232Z</time></trkpt><trkpt lat="45.2250183" lon="7.3804633"><ele>868.0</ele><time>2026-05-03T13:03:42.232Z</time></trkpt><trkpt lat="45.2250017" lon="7.380595"><ele>867.9999999999999</ele><time>2026-05-03T13:03:43.231Z</time></trkpt><trkpt lat="45.2250133" lon="7.3807267"><ele>868.0</ele><time>2026-05-03T13:03:44.232Z</time></trkpt><trkpt lat="45.225055" lon="7.3808467"><ele>869.9999999999999</ele><time>2026-05-03T13:03:45.231Z</time></trkpt><trkpt lat="45.2250983" lon="7.3809567"><ele>872.0</ele><time>2026-05-03T13:03:46.232Z</time></trkpt><trkpt lat="45.2251367" lon="7.38105"><ele>874.0</ele><time>2026-05-03T13:03:47.232Z</time></trkpt><trkpt lat="45.2251583" lon="7.3811367"><ele>876.0</ele><time>2026-05-03T13:03:48.232Z</time></trkpt><trkpt lat="45.2251333" lon="7.38127"><ele>877.9999999999999</ele><time>2026-05-03T13:03:50.232Z</time></trkpt><trkpt lat="45.22507" lon="7.3812533"><ele>880.0</ele><time>2026-05-03T13:03:52.232Z</time></trkpt><trkpt lat="45.2250367" lon="7.3811667"><ele>880.0</ele><time>2026-05-03T13:03:53.232Z</time></trkpt><trkpt lat="45.2249883" lon="7.3810367"><ele>880.0</ele><time>2026-05-03T13:03:54.232Z</time></trkpt><trkpt lat="45.22494" lon="7.3809033"><ele>880.0</ele><time>2026-05-03T13:03:55.231Z</time></trkpt><trkpt lat="45.2248883" lon="7.3807933"><ele>880.0</ele><time>2026-05-03T13:03:56.232Z</time></trkpt><trkpt lat="45.2248483" lon="7.380675"><ele>880.0</ele><time>2026-05-03T13:03:57.232Z</time></trkpt><trkpt lat="45.224805" lon="7.3805667"><ele>881.2</ele><time>2026-05-03T13:03:58.232Z</time></trkpt><trkpt lat="45.2247617" lon="7.38047"><ele>882.4</ele><time>2026-05-03T13:03:59.232Z</time></trkpt><trkpt lat="45.22471" lon="7.3804033"><ele>883.5999999999999</ele><time>2026-05-03T13:04:00.232Z</time></trkpt><trkpt lat="45.2246067" lon="7.38045"><ele>884.8</ele><time>2026-05-03T13:04:02.232Z</time></trkpt><trkpt lat="45.22461" lon="7.3806083"><ele>886.0</ele><time>2026-05-03T13:04:04.232Z</time></trkpt><trkpt lat="45.224665" lon="7.3807167"><ele>884.8</ele><time>2026-05-03T13:04:05.232Z</time></trkpt><trkpt lat="45.2247433" lon="7.38084"><ele>883.5999999999999</ele><time>2026-05-03T13:04:06.232Z</time></trkpt><trkpt lat="45.224815" lon="7.380965"><ele>882.4</ele><time>2026-05-03T13:04:07.232Z</time></trkpt><trkpt lat="45.2248717" lon="7.3810767"><ele>881.2</ele><time>2026-05-03T13:04:08.232Z</time></trkpt><trkpt lat="45.22491" lon="7.38117"><ele>880.0</ele><time>2026-05-03T13:04:09.232Z</time></trkpt><trkpt lat="45.224925" lon="7.3812633"><ele>880.0</ele><time>2026-05-03T13:04:10.232Z</time></trkpt><trkpt lat="45.2248933" lon="7.3813783"><ele>880.0</ele><time>2026-05-03T13:04:12.232Z</time></trkpt><trkpt lat="45.224815" lon="7.38132"><ele>880.0</ele><time>2026-05-03T13:04:14.232Z</time></trkpt><trkpt lat="45.2247617" lon="7.3812117"><ele>880.0</ele><time>2026-05-03T13:04:15.232Z</time></trkpt><trkpt lat="45.2247017" lon="7.3810717"><ele>880.0</ele><time>2026-05-03T13:04:16.232Z</time></trkpt><trkpt lat="45.224625" lon="7.3809367"><ele>881.2</ele><time>2026-05-03T13:04:17.232Z</time></trkpt><trkpt lat="45.224545" lon="7.38083"><ele>882.4</ele><time>2026-05-03T13:04:18.232Z</time></trkpt><trkpt lat="45.2244633" lon="7.3807267"><ele>883.5999999999999</ele><time>2026-05-03T13:04:19.232Z</time></trkpt><trkpt lat="45.2243817" lon="7.3806167"><ele>884.8</ele><time>2026-05-03T13:04:20.232Z</time></trkpt><trkpt lat="45.2243117" lon="7.38051"><ele>886.0</ele><time>2026-05-03T13:04:21.232Z</time></trkpt><trkpt lat="45.22425" lon="7.3804117"><ele>885.9999999999999</ele><time>2026-05-03T13:04:22.232Z</time></trkpt><trkpt lat="45.2241967" lon="7.3803117"><ele>886.0</ele><time>2026-05-03T13:04:23.232Z</time></trkpt><trkpt lat="45.2241483" lon="7.38022"><ele>886.0</ele><time>2026-05-03T13:04:24.232Z</time></trkpt><trkpt lat="45.2240417" lon="7.3801617"><ele>886.0</ele><time>2026-05-03T13:04:26.232Z</time></trkpt><trkpt lat="45.2239867" lon="7.3802667"><ele>885.9999999999999</ele><time>2026-05-03T13:04:28.232Z</time></trkpt><trkpt lat="45.2240017" lon="7.38036"><ele>886.0</ele><time>2026-05-03T13:04:29.232Z</time></trkpt><trkpt lat="45.2240617" lon="7.3804617"><ele>890.75</ele><time>2026-05-03T13:04:30.232Z</time></trkpt><trkpt lat="45.224135" lon="7.3805867"><ele>895.5</ele><time>2026-05-03T13:04:31.232Z</time></trkpt><trkpt lat="45.2242083" lon="7.3807217"><ele>900.25</ele><time>2026-05-03T13:04:32.232Z</time></trkpt><trkpt lat="45.2242633" lon="7.380865"><ele>905.0</ele><time>2026-05-03T13:04:33.232Z</time></trkpt><trkpt lat="45.2243017" lon="7.381005"><ele>905.0</ele><time>2026-05-03T13:04:34.231Z</time></trkpt><trkpt lat="45.22432" lon="7.38116"><ele>905.0</ele><time>2026-05-03T13:04:35.232Z</time></trkpt><trkpt lat="45.2243167" lon="7.3813133"><ele>905.0</ele><time>2026-05-03T13:04:36.232Z</time></trkpt><trkpt lat="45.2242867" lon="7.38145"><ele>905.0</ele><time>2026-05-03T13:04:37.232Z</time></trkpt><trkpt lat="45.22424" lon="7.3815783"><ele>905.0</ele><time>2026-05-03T13:04:38.232Z</time></trkpt><trkpt lat="45.224205" lon="7.38171"><ele>906.8</ele><time>2026-05-03T13:04:39.232Z</time></trkpt><trkpt lat="45.2241933" lon="7.3818467"><ele>908.6</ele><time>2026-05-03T13:04:40.232Z</time></trkpt><trkpt lat="45.2241883" lon="7.38199"><ele>910.4000000000001</ele><time>2026-05-03T13:04:41.232Z</time></trkpt><trkpt lat="45.224185" lon="7.3821233"><ele>912.2</ele><time>2026-05-03T13:04:42.232Z</time></trkpt><trkpt lat="45.2241767" lon="7.3822583"><ele>914.0</ele><time>2026-05-03T13:04:43.232Z</time></trkpt><trkpt lat="45.2241533" lon="7.3823817"><ele>914.6666666666667</ele><time>2026-05-03T13:04:44.232Z</time></trkpt><trkpt lat="45.2241017" lon="7.3824783"><ele>915.3333333333334</ele><time>2026-05-03T13:04:45.232Z</time></trkpt><trkpt lat="45.224045" lon="7.3825617"><ele>916.0</ele><time>2026-05-03T13:04:46.232Z</time></trkpt><trkpt lat="45.2239783" lon="7.3826317"><ele>916.6666666666667</ele><time>2026-05-03T13:04:47.232Z</time></trkpt><trkpt lat="45.2238983" lon="7.3826917"><ele>917.3333333333334</ele><time>2026-05-03T13:04:48.232Z</time></trkpt><trkpt lat="45.2238067" lon="7.38275"><ele>918.0</ele><time>2026-05-03T13:04:49.231Z</time></trkpt><trkpt lat="45.2236817" lon="7.3828267"><ele>922.75</ele><time>2026-05-03T13:04:50.232Z</time></trkpt><trkpt lat="45.22357" lon="7.38291"><ele>927.5</ele><time>2026-05-03T13:04:51.232Z</time></trkpt><trkpt lat="45.2234633" lon="7.3830033"><ele>932.25</ele><time>2026-05-03T13:04:52.232Z</time></trkpt><trkpt lat="45.2233633" lon="7.3830983"><ele>937.0</ele><time>2026-05-03T13:04:53.232Z</time></trkpt><trkpt lat="45.2232717" lon="7.383175"><ele>937.0</ele><time>2026-05-03T13:04:54.232Z</time></trkpt><trkpt lat="45.22319" lon="7.383245"><ele>937.0</ele><time>2026-05-03T13:04:55.232Z</time></trkpt><trkpt lat="45.223115" lon="7.3833383"><ele>937.0</ele><time>2026-05-03T13:04:56.232Z</time></trkpt><trkpt lat="45.2230617" lon="7.38346"><ele>937.0</ele><time>2026-05-03T13:04:57.231Z</time></trkpt><trkpt lat="45.2230267" lon="7.3835883"><ele>937.0</ele><time>2026-05-03T13:04:58.232Z</time></trkpt><trkpt lat="45.223005" lon="7.3837067"><ele>937.4000000000001</ele><time>2026-05-03T13:04:59.231Z</time></trkpt><trkpt lat="45.2230183" lon="7.383815"><ele>937.8000000000001</ele><time>2026-05-03T13:05:00.232Z</time></trkpt><trkpt lat="45.2230683" lon="7.3839267"><ele>938.2</ele><time>2026-05-03T13:05:01.232Z</time></trkpt><trkpt lat="45.2231433" lon="7.3840367"><ele>938.6</ele><time>2026-05-03T13:05:02.232Z</time></trkpt><trkpt lat="45.2232133" lon="7.384165"><ele>939.0</ele><time>2026-05-03T13:05:03.232Z</time></trkpt><trkpt lat="45.2232967" lon="7.3842883"><ele>939.0</ele><time>2026-05-03T13:05:04.232Z</time></trkpt><trkpt lat="45.2233733" lon="7.384385"><ele>939.0000000000001</ele><time>2026-05-03T13:05:05.232Z</time></trkpt><trkpt lat="45.223445" lon="7.3844467"><ele>939.0000000000001</ele><time>2026-05-03T13:05:06.232Z</time></trkpt><trkpt lat="45.223525" lon="7.38448"><ele>939.0</ele><time>2026-05-03T13:05:07.232Z</time></trkpt><trkpt lat="45.223645" lon="7.3845183"><ele>939.0</ele><time>2026-05-03T13:05:08.232Z</time></trkpt><trkpt lat="45.2237683" lon="7.3845183"><ele>939.0</ele><time>2026-05-03T13:05:09.232Z</time></trkpt><trkpt lat="45.223915" lon="7.38451"><ele>939.0</ele><time>2026-05-03T13:05:10.232Z</time></trkpt><trkpt lat="45.224035" lon="7.3845067"><ele>939.0</ele><time>2026-05-03T13:05:11.232Z</time></trkpt><trkpt lat="45.22416" lon="7.3845083"><ele>939.0</ele><time>2026-05-03T13:05:12.232Z</time></trkpt><trkpt lat="45.2242967" lon="7.38451"><ele>936.5</ele><time>2026-05-03T13:05:13.232Z</time></trkpt><trkpt lat="45.2244283" lon="7.3845333"><ele>934.0</ele><time>2026-05-03T13:05:14.232Z</time></trkpt><trkpt lat="45.2245533" lon="7.3845583"><ele>931.5</ele><time>2026-05-03T13:05:15.232Z</time></trkpt><trkpt lat="45.2246817" lon="7.38461"><ele>929.0</ele><time>2026-05-03T13:05:16.232Z</time></trkpt><trkpt lat="45.22481" lon="7.3847"><ele>931.4000000000001</ele><time>2026-05-03T13:05:17.232Z</time></trkpt><trkpt lat="45.2249217" lon="7.3847367"><ele>933.8000000000001</ele><time>2026-05-03T13:05:18.232Z</time></trkpt><trkpt lat="45.22502" lon="7.3848117"><ele>936.1999999999999</ele><time>2026-05-03T13:05:19.232Z</time></trkpt><trkpt lat="45.2251" lon="7.3849233"><ele>938.5999999999999</ele><time>2026-05-03T13:05:20.232Z</time></trkpt><trkpt lat="45.2251583" lon="7.3850533"><ele>941.0</ele><time>2026-05-03T13:05:21.232Z</time></trkpt><trkpt lat="45.2251867" lon="7.385205"><ele>941.0</ele><time>2026-05-03T13:05:22.232Z</time></trkpt><trkpt lat="45.2251917" lon="7.385365"><ele>941.0</ele><time>2026-05-03T13:05:23.232Z</time></trkpt><trkpt lat="45.22518" lon="7.3855317"><ele>941.0</ele><time>2026-05-03T13:05:24.232Z</time></trkpt><trkpt lat="45.2251567" lon="7.3857067"><ele>941.0</ele><time>2026-05-03T13:05:25.232Z</time></trkpt><trkpt lat="45.2251367" lon="7.3858767"><ele>945.25</ele><time>2026-05-03T13:05:26.232Z</time></trkpt><trkpt lat="45.2251183" lon="7.3860433"><ele>949.5</ele><time>2026-05-03T13:05:27.232Z</time></trkpt><trkpt lat="45.2251067" lon="7.38621"><ele>953.75</ele><time>2026-05-03T13:05:28.232Z</time></trkpt><trkpt lat="45.2251017" lon="7.3863817"><ele>958.0</ele><time>2026-05-03T13:05:29.232Z</time></trkpt><trkpt lat="45.2251017" lon="7.386545"><ele>958.4</ele><time>2026-05-03T13:05:30.232Z</time></trkpt><trkpt lat="45.22509" lon="7.3867017"><ele>958.8</ele><time>2026-05-03T13:05:31.231Z</time></trkpt><trkpt lat="45.2250733" lon="7.386845"><ele>959.2</ele><time>2026-05-03T13:05:32.232Z</time></trkpt><trkpt lat="45.2250417" lon="7.3869733"><ele>959.6</ele><time>2026-05-03T13:05:33.231Z</time></trkpt><trkpt lat="45.224995" lon="7.38708"><ele>960.0</ele><time>2026-05-03T13:05:34.232Z</time></trkpt><trkpt lat="45.22492" lon="7.3871217"><ele>960.0</ele><time>2026-05-03T13:05:35.231Z</time></trkpt><trkpt lat="45.2248317" lon="7.3871617"><ele>960.0</ele><time>2026-05-03T13:05:36.232Z</time></trkpt><trkpt lat="45.2247267" lon="7.3871867"><ele>960.0</ele><time>2026-05-03T13:05:37.232Z</time></trkpt><trkpt lat="45.224635" lon="7.3872583"><ele>960.0</ele><time>2026-05-03T13:05:38.232Z</time></trkpt><trkpt lat="45.224555" lon="7.3873617"><ele>960.0</ele><time>2026-05-03T13:05:39.232Z</time></trkpt><trkpt lat="45.2244833" lon="7.3874867"><ele>966.4</ele><time>2026-05-03T13:05:40.232Z</time></trkpt><trkpt lat="45.2244267" lon="7.387595"><ele>972.8</ele><time>2026-05-03T13:05:41.232Z</time></trkpt><trkpt lat="45.2243967" lon="7.3877133"><ele>979.2</ele><time>2026-05-03T13:05:42.232Z</time></trkpt><trkpt lat="45.22439" lon="7.38786"><ele>985.6</ele><time>2026-05-03T13:05:43.232Z</time></trkpt><trkpt lat="45.2243933" lon="7.3879867"><ele>992.0</ele><time>2026-05-03T13:05:44.232Z</time></trkpt><trkpt lat="45.224395" lon="7.3881233"><ele>992.0</ele><time>2026-05-03T13:05:45.232Z</time></trkpt><trkpt lat="45.2244217" lon="7.38828"><ele>992.0</ele><time>2026-05-03T13:05:46.232Z</time></trkpt><trkpt lat="45.2244583" lon="7.38845"><ele>992.0</ele><time>2026-05-03T13:05:47.232Z</time></trkpt><trkpt lat="45.2244817" lon="7.3886217"><ele>992.0</ele><time>2026-05-03T13:05:48.232Z</time></trkpt><trkpt lat="45.2245" lon="7.3887983"><ele>992.75</ele><time>2026-05-03T13:05:49.232Z</time></trkpt><trkpt lat="45.2245267" lon="7.3889833"><ele>993.5</ele><time>2026-05-03T13:05:50.232Z</time></trkpt><trkpt lat="45.224545" lon="7.3891683"><ele>994.25</ele><time>2026-05-03T13:05:51.232Z</time></trkpt><trkpt lat="45.22456" lon="7.3893383"><ele>995.0</ele><time>2026-05-03T13:05:52.232Z</time></trkpt><trkpt lat="45.22459" lon="7.389505"><ele>995.0</ele><time>2026-05-03T13:05:53.232Z</time></trkpt><trkpt lat="45.22463" lon="7.38966"><ele>995.0</ele><time>2026-05-03T13:05:54.232Z</time></trkpt><trkpt lat="45.2246683" lon="7.38981"><ele>995.0</ele><time>2026-05-03T13:05:55.232Z</time></trkpt><trkpt lat="45.224705" lon="7.3899567"><ele>995.0</ele><time>2026-05-03T13:05:56.232Z</time></trkpt><trkpt lat="45.2247383" lon="7.3901033"><ele>995.0</ele><time>2026-05-03T13:05:57.232Z</time></trkpt><trkpt lat="45.22477" lon="7.39025"><ele>996.6</ele><time>2026-05-03T13:05:58.232Z</time></trkpt><trkpt lat="45.2248083" lon="7.3903983"><ele>998.2</ele><time>2026-05-03T13:05:59.232Z</time></trkpt><trkpt lat="45.22485" lon="7.3905333"><ele>999.8</ele><time>2026-05-03T13:06:00.232Z</time></trkpt><trkpt lat="45.2249" lon="7.3906583"><ele>1001.4</ele><time>2026-05-03T13:06:01.232Z</time></trkpt><trkpt lat="45.2249467" lon="7.3907717"><ele>1003.0</ele><time>2026-05-03T13:06:02.232Z</time></trkpt><trkpt lat="45.2249867" lon="7.390865"><ele>999.2</ele><time>2026-05-03T13:06:03.232Z</time></trkpt><trkpt lat="45.2250317" lon="7.3909433"><ele>995.4</ele><time>2026-05-03T13:06:04.232Z</time></trkpt><trkpt lat="45.2250567" lon="7.3910733"><ele>991.6000000000001</ele><time>2026-05-03T13:06:06.232Z</time></trkpt><trkpt lat="45.2250017" lon="7.3911333"><ele>987.8000000000001</ele><time>2026-05-03T13:06:08.232Z</time></trkpt><trkpt lat="45.2248833" lon="7.39101"><ele>984.0</ele><time>2026-05-03T13:06:10.232Z</time></trkpt><trkpt lat="45.22482" lon="7.3908833"><ele>988.75</ele><time>2026-05-03T13:06:11.232Z</time></trkpt><trkpt lat="45.2247467" lon="7.3907517"><ele>993.5</ele><time>2026-05-03T13:06:12.232Z</time></trkpt><trkpt lat="45.22467" lon="7.3906267"><ele>998.25</ele><time>2026-05-03T13:06:13.232Z</time></trkpt><trkpt lat="45.2246033" lon="7.3905"><ele>1003.0</ele><time>2026-05-03T13:06:14.232Z</time></trkpt><trkpt lat="45.2245583" lon="7.3903617"><ele>1003.0</ele><time>2026-05-03T13:06:15.232Z</time></trkpt><trkpt lat="45.2245217" lon="7.3902433"><ele>1003.0</ele><time>2026-05-03T13:06:16.232Z</time></trkpt><trkpt lat="45.2244883" lon="7.3901367"><ele>1003.0</ele><time>2026-05-03T13:06:17.232Z</time></trkpt><trkpt lat="45.2244367" lon="7.3900717"><ele>1003.0</ele><time>2026-05-03T13:06:18.232Z</time></trkpt><trkpt lat="45.22434" lon="7.39009"><ele>1003.0</ele><time>2026-05-03T13:06:20.232Z</time></trkpt><trkpt lat="45.2243383" lon="7.3903"><ele>1003.0</ele><time>2026-05-03T13:06:22.232Z</time></trkpt><trkpt lat="45.2243717" lon="7.3904417"><ele>1003.0</ele><time>2026-05-03T13:06:23.231Z</time></trkpt><trkpt lat="45.2244167" lon="7.3905883"><ele>1003.0</ele><time>2026-05-03T13:06:24.232Z</time></trkpt><trkpt lat="45.2244667" lon="7.3907367"><ele>1003.0</ele><time>2026-05-03T13:06:25.232Z</time></trkpt><trkpt lat="45.22452" lon="7.3908633"><ele>1003.0</ele><time>2026-05-03T13:06:26.232Z</time></trkpt><trkpt lat="45.2245683" lon="7.39098"><ele>1004.1666666666666</ele><time>2026-05-03T13:06:27.232Z</time></trkpt><trkpt lat="45.2246367" lon="7.39107"><ele>1005.3333333333333</ele><time>2026-05-03T13:06:28.232Z</time></trkpt><trkpt lat="45.224705" lon="7.391145"><ele>1006.5</ele><time>2026-05-03T13:06:29.231Z</time></trkpt><trkpt lat="45.22475" lon="7.39122"><ele>1007.6666666666667</ele><time>2026-05-03T13:06:30.232Z</time></trkpt><trkpt lat="45.2247583" lon="7.39137"><ele>1008.8333333333334</ele><time>2026-05-03T13:06:32.231Z</time></trkpt><trkpt lat="45.2246983" lon="7.391405"><ele>1010.0</ele><time>2026-05-03T13:06:34.232Z</time></trkpt><trkpt lat="45.2245933" lon="7.39127"><ele>1010.0</ele><time>2026-05-03T13:06:36.232Z</time></trkpt><trkpt lat="45.224515" lon="7.3911"><ele>1010.0</ele><time>2026-05-03T13:06:37.232Z</time></trkpt><trkpt lat="45.224425" lon="7.39092"><ele>1010.0</ele><time>2026-05-03T13:06:38.232Z</time></trkpt><trkpt lat="45.2243317" lon="7.390745"><ele>1010.0</ele><time>2026-05-03T13:06:39.232Z</time></trkpt><trkpt lat="45.224255" lon="7.3905867"><ele>1010.0</ele><time>2026-05-03T13:06:40.231Z</time></trkpt><trkpt lat="45.2241883" lon="7.3904333"><ele>1010.0</ele><time>2026-05-03T13:06:41.232Z</time></trkpt><trkpt lat="45.2241267" lon="7.3902867"><ele>1010.0</ele><time>2026-05-03T13:06:42.232Z</time></trkpt><trkpt lat="45.2240667" lon="7.3901517"><ele>1008.6</ele><time>2026-05-03T13:06:43.232Z</time></trkpt><trkpt lat="45.2240033" lon="7.390035"><ele>1007.2</ele><time>2026-05-03T13:06:44.232Z</time></trkpt><trkpt lat="45.223935" lon="7.389935"><ele>1005.8</ele><time>2026-05-03T13:06:45.232Z</time></trkpt><trkpt lat="45.2238583" lon="7.3898383"><ele>1004.4</ele><time>2026-05-03T13:06:46.232Z</time></trkpt><trkpt lat="45.223795" lon="7.3897383"><ele>1003.0</ele><time>2026-05-03T13:06:47.232Z</time></trkpt><trkpt lat="45.2237383" lon="7.3896217"><ele>1009.2</ele><time>2026-05-03T13:06:48.232Z</time></trkpt><trkpt lat="45.2237033" lon="7.3894983"><ele>1015.4</ele><time>2026-05-03T13:06:49.231Z</time></trkpt><trkpt lat="45.2236833" lon="7.3893483"><ele>1021.6000000000001</ele><time>2026-05-03T13:06:50.231Z</time></trkpt><trkpt lat="45.2236733" lon="7.3891917"><ele>1027.8</ele><time>2026-05-03T13:06:51.232Z</time></trkpt><trkpt lat="45.2236583" lon="7.3890317"><ele>1034.0</ele><time>2026-05-03T13:06:52.232Z</time></trkpt><trkpt lat="45.2236517" lon="7.3888667"><ele>1033.6000000000001</ele><time>2026-05-03T13:06:53.232Z</time></trkpt><trkpt lat="45.2236367" lon="7.3887133"><ele>1033.2</ele><time>2026-05-03T13:06:54.232Z</time></trkpt><trkpt lat="45.223605" lon="7.388585"><ele>1032.8000000000002</ele><time>2026-05-03T13:06:55.232Z</time></trkpt><trkpt lat="45.223555" lon="7.388475"><ele>1032.4</ele><time>2026-05-03T13:06:56.232Z</time></trkpt><trkpt lat="45.223485" lon="7.388385"><ele>1032.0</ele><time>2026-05-03T13:06:57.232Z</time></trkpt><trkpt lat="45.223405" lon="7.3882983"><ele>1032.0</ele><time>2026-05-03T13:06:58.232Z</time></trkpt><trkpt lat="45.2233217" lon="7.3882017"><ele>1032.0</ele><time>2026-05-03T13:06:59.232Z</time></trkpt><trkpt lat="45.2232667" lon="7.3880783"><ele>1032.0</ele><time>2026-05-03T13:07:00.232Z</time></trkpt><trkpt lat="45.22323" lon="7.3879483"><ele>1032.0</ele><time>2026-05-03T13:07:01.232Z</time></trkpt><trkpt lat="45.2232117" lon="7.3878117"><ele>1032.0</ele><time>2026-05-03T13:07:02.232Z</time></trkpt><trkpt lat="45.2232167" lon="7.38767"><ele>1031.6666666666667</ele><time>2026-05-03T13:07:03.232Z</time></trkpt><trkpt lat="45.2232333" lon="7.38754"><ele>1031.3333333333333</ele><time>2026-05-03T13:07:04.232Z</time></trkpt><trkpt lat="45.223255" lon="7.3874117"><ele>1031.0</ele><time>2026-05-03T13:07:05.231Z</time></trkpt><trkpt lat="45.223295" lon="7.3873"><ele>1030.6666666666665</ele><time>2026-05-03T13:07:06.232Z</time></trkpt><trkpt lat="45.2233133" lon="7.3871967"><ele>1030.3333333333333</ele><time>2026-05-03T13:07:07.232Z</time></trkpt><trkpt lat="45.2233267" lon="7.387095"><ele>1030.0</ele><time>2026-05-03T13:07:08.232Z</time></trkpt><trkpt lat="45.22331" lon="7.3870033"><ele>1031.0</ele><time>2026-05-03T13:07:09.232Z</time></trkpt><trkpt lat="45.2232233" lon="7.3868817"><ele>1032.0</ele><time>2026-05-03T13:07:11.232Z</time></trkpt><trkpt lat="45.2231333" lon="7.3868467"><ele>1033.0</ele><time>2026-05-03T13:07:12.232Z</time></trkpt><trkpt lat="45.2230167" lon="7.38681"><ele>1034.0</ele><time>2026-05-03T13:07:13.232Z</time></trkpt><trkpt lat="45.222895" lon="7.386755"><ele>1034.0</ele><time>2026-05-03T13:07:14.232Z</time></trkpt><trkpt lat="45.22275" lon="7.38669"><ele>1034.0</ele><time>2026-05-03T13:07:15.232Z</time></trkpt><trkpt lat="45.2226183" lon="7.386635"><ele>1034.0</ele><time>2026-05-03T13:07:16.232Z</time></trkpt><trkpt lat="45.2224917" lon="7.3865733"><ele>1034.0</ele><time>2026-05-03T13:07:17.232Z</time></trkpt><trkpt lat="45.2223617" lon="7.386505"><ele>1034.25</ele><time>2026-05-03T13:07:18.232Z</time></trkpt><trkpt lat="45.222235" lon="7.3864367"><ele>1034.5</ele><time>2026-05-03T13:07:19.232Z</time></trkpt><trkpt lat="45.2221233" lon="7.3863833"><ele>1034.75</ele><time>2026-05-03T13:07:20.231Z</time></trkpt><trkpt lat="45.2220117" lon="7.3863217"><ele>1035.0</ele><time>2026-05-03T13:07:21.232Z</time></trkpt><trkpt lat="45.2219017" lon="7.386265"><ele>1035.0</ele><time>2026-05-03T13:07:22.232Z</time></trkpt><trkpt lat="45.2217883" lon="7.3862133"><ele>1035.0</ele><time>2026-05-03T13:07:23.232Z</time></trkpt><trkpt lat="45.221675" lon="7.38616"><ele>1035.0</ele><time>2026-05-03T13:07:24.232Z</time></trkpt><trkpt lat="45.22157" lon="7.386095"><ele>1035.0</ele><time>2026-05-03T13:07:25.232Z</time></trkpt><trkpt lat="45.2214717" lon="7.38604"><ele>1038.5</ele><time>2026-05-03T13:07:26.232Z</time></trkpt><trkpt lat="45.2213867" lon="7.3859517"><ele>1042.0</ele><time>2026-05-03T13:07:27.232Z</time></trkpt><trkpt lat="45.221305" lon="7.3858233"><ele>1045.5</ele><time>2026-05-03T13:07:28.232Z</time></trkpt><trkpt lat="45.2212383" lon="7.3856733"><ele>1049.0</ele><time>2026-05-03T13:07:29.232Z</time></trkpt><trkpt lat="45.2211833" lon="7.3855333"><ele>1047.8</ele><time>2026-05-03T13:07:30.232Z</time></trkpt><trkpt lat="45.2211317" lon="7.3853817"><ele>1046.6000000000001</ele><time>2026-05-03T13:07:31.232Z</time></trkpt><trkpt lat="45.2210833" lon="7.3852533"><ele>1045.4</ele><time>2026-05-03T13:07:32.232Z</time></trkpt><trkpt lat="45.2210267" lon="7.3851167"><ele>1044.2</ele><time>2026-05-03T13:07:33.232Z</time></trkpt><trkpt lat="45.2209567" lon="7.3849883"><ele>1043.0</ele><time>2026-05-03T13:07:34.232Z</time></trkpt><trkpt lat="45.2208717" lon="7.38488"><ele>1043.0</ele><time>2026-05-03T13:07:35.232Z</time></trkpt><trkpt lat="45.2207867" lon="7.38482"><ele>1043.0</ele><time>2026-05-03T13:07:36.232Z</time></trkpt><trkpt lat="45.2206833" lon="7.3847917"><ele>1043.0</ele><time>2026-05-03T13:07:37.232Z</time></trkpt><trkpt lat="45.2205833" lon="7.3847967"><ele>1043.0</ele><time>2026-05-03T13:07:38.232Z</time></trkpt><trkpt lat="45.2204883" lon="7.38482"><ele>1043.0</ele><time>2026-05-03T13:07:39.232Z</time></trkpt><trkpt lat="45.2203917" lon="7.3848567"><ele>1042.8</ele><time>2026-05-03T13:07:40.232Z</time></trkpt><trkpt lat="45.2203" lon="7.38489"><ele>1042.6</ele><time>2026-05-03T13:07:41.232Z</time></trkpt><trkpt lat="45.22021" lon="7.3848717"><ele>1042.4</ele><time>2026-05-03T13:07:42.232Z</time></trkpt><trkpt lat="45.2201233" lon="7.384815"><ele>1042.2</ele><time>2026-05-03T13:07:43.232Z</time></trkpt><trkpt lat="45.220045" lon="7.3847217"><ele>1042.0</ele><time>2026-05-03T13:07:44.232Z</time></trkpt><trkpt lat="45.2199717" lon="7.3845967"><ele>1042.0</ele><time>2026-05-03T13:07:45.232Z</time></trkpt><trkpt lat="45.2199033" lon="7.384455"><ele>1042.0</ele><time>2026-05-03T13:07:46.232Z</time></trkpt><trkpt lat="45.2198433" lon="7.3843267"><ele>1042.0</ele><time>2026-05-03T13:07:47.232Z</time></trkpt><trkpt lat="45.21978" lon="7.3842183"><ele>1042.0</ele><time>2026-05-03T13:07:48.232Z</time></trkpt><trkpt lat="45.219705" lon="7.3841333"><ele>1042.0</ele><time>2026-05-03T13:07:49.232Z</time></trkpt><trkpt lat="45.21963" lon="7.3840867"><ele>1044.0</ele><time>2026-05-03T13:07:50.232Z</time></trkpt><trkpt lat="45.2195417" lon="7.3840767"><ele>1046.0</ele><time>2026-05-03T13:07:51.232Z</time></trkpt><trkpt lat="45.2194517" lon="7.3840933"><ele>1048.0</ele><time>2026-05-03T13:07:52.232Z</time></trkpt><trkpt lat="45.2193633" lon="7.3841133"><ele>1050.0</ele><time>2026-05-03T13:07:53.232Z</time></trkpt><trkpt lat="45.2192733" lon="7.3841183"><ele>1052.0</ele><time>2026-05-03T13:07:54.232Z</time></trkpt><trkpt lat="45.219205" lon="7.384065"><ele>1054.0</ele><time>2026-05-03T13:07:55.232Z</time></trkpt><trkpt lat="45.2191467" lon="7.3839867"><ele>1054.0</ele><time>2026-05-03T13:07:56.232Z</time></trkpt><trkpt lat="45.21911" lon="7.38389"><ele>1054.0</ele><time>2026-05-03T13:07:57.232Z</time></trkpt><trkpt lat="45.2190967" lon="7.38379"><ele>1054.0</ele><time>2026-05-03T13:07:58.232Z</time></trkpt><trkpt lat="45.219105" lon="7.3836667"><ele>1054.0</ele><time>2026-05-03T13:07:59.232Z</time></trkpt><trkpt lat="45.2191417" lon="7.3835517"><ele>1054.0</ele><time>2026-05-03T13:08:00.232Z</time></trkpt><trkpt lat="45.2192" lon="7.3834533"><ele>1054.0</ele><time>2026-05-03T13:08:01.232Z</time></trkpt><trkpt lat="45.2192783" lon="7.3833517"><ele>1056.5</ele><time>2026-05-03T13:08:02.232Z</time></trkpt><trkpt lat="45.2193533" lon="7.3832267"><ele>1059.0</ele><time>2026-05-03T13:08:03.232Z</time></trkpt><trkpt lat="45.2194317" lon="7.38311"><ele>1061.5</ele><time>2026-05-03T13:08:04.232Z</time></trkpt><trkpt lat="45.2195117" lon="7.3829933"><ele>1064.0</ele><time>2026-05-03T13:08:05.232Z</time></trkpt><trkpt lat="45.21959" lon="7.3828817"><ele>1066.8</ele><time>2026-05-03T13:08:06.232Z</time></trkpt><trkpt lat="45.2196633" lon="7.3827733"><ele>1069.6000000000001</ele><time>2026-05-03T13:08:07.232Z</time></trkpt><trkpt lat="45.2197217" lon="7.3826683"><ele>1072.4</ele><time>2026-05-03T13:08:08.232Z</time></trkpt><trkpt lat="45.2197683" lon="7.382565"><ele>1075.2</ele><time>2026-05-03T13:08:09.232Z</time></trkpt><trkpt lat="45.2197817" lon="7.3824417"><ele>1078.0</ele><time>2026-05-03T13:08:10.232Z</time></trkpt><trkpt lat="45.2197567" lon="7.38231"><ele>1078.0</ele><time>2026-05-03T13:08:11.232Z</time></trkpt><trkpt lat="45.2197017" lon="7.3821967"><ele>1078.0</ele><time>2026-05-03T13:08:12.232Z</time></trkpt><trkpt lat="45.21961" lon="7.3820783"><ele>1078.0</ele><time>2026-05-03T13:08:13.232Z</time></trkpt><trkpt lat="45.2194783" lon="7.3819817"><ele>1078.0</ele><time>2026-05-03T13:08:14.232Z</time></trkpt><trkpt lat="45.21934" lon="7.38189"><ele>1076.25</ele><time>2026-05-03T13:08:15.232Z</time></trkpt><trkpt lat="45.2192183" lon="7.381795"><ele>1074.5</ele><time>2026-05-03T13:08:16.232Z</time></trkpt><trkpt lat="45.2191167" lon="7.3816933"><ele>1072.75</ele><time>2026-05-03T13:08:17.232Z</time></trkpt><trkpt lat="45.2190383" lon="7.3815667"><ele>1071.0</ele><time>2026-05-03T13:08:18.232Z</time></trkpt><trkpt lat="45.21899" lon="7.38143"><ele>1070.75</ele><time>2026-05-03T13:08:19.232Z</time></trkpt><trkpt lat="45.2189633" lon="7.38126"><ele>1070.5</ele><time>2026-05-03T13:08:20.232Z</time></trkpt><trkpt lat="45.2189617" lon="7.3810883"><ele>1070.25</ele><time>2026-05-03T13:08:21.232Z</time></trkpt><trkpt lat="45.21898" lon="7.3808933"><ele>1070.0</ele><time>2026-05-03T13:08:22.232Z</time></trkpt><trkpt lat="45.2190033" lon="7.380685"><ele>1068.5</ele><time>2026-05-03T13:08:23.232Z</time></trkpt><trkpt lat="45.2190083" lon="7.3805033"><ele>1067.0</ele><time>2026-05-03T13:08:24.232Z</time></trkpt><trkpt lat="45.21899" lon="7.38032"><ele>1065.5</ele><time>2026-05-03T13:08:25.232Z</time></trkpt><trkpt lat="45.2189483" lon="7.3801467"><ele>1064.0</ele><time>2026-05-03T13:08:26.232Z</time></trkpt><trkpt lat="45.21888" lon="7.380005"><ele>1066.0</ele><time>2026-05-03T13:08:27.232Z</time></trkpt><trkpt lat="45.21879" lon="7.3798733"><ele>1068.0</ele><time>2026-05-03T13:08:28.232Z</time></trkpt><trkpt lat="45.2186817" lon="7.37978"><ele>1070.0</ele><time>2026-05-03T13:08:29.231Z</time></trkpt><trkpt lat="45.2185617" lon="7.3796967"><ele>1072.0</ele><time>2026-05-03T13:08:30.232Z</time></trkpt><trkpt lat="45.2184467" lon="7.379635"><ele>1072.0</ele><time>2026-05-03T13:08:31.232Z</time></trkpt><trkpt lat="45.2183283" lon="7.3795767"><ele>1072.0</ele><time>2026-05-03T13:08:32.232Z</time></trkpt><trkpt lat="45.218215" lon="7.379535"><ele>1072.0</ele><time>2026-05-03T13:08:33.232Z</time></trkpt><trkpt lat="45.2181017" lon="7.37953"><ele>1072.0</ele><time>2026-05-03T13:08:34.232Z</time></trkpt><trkpt lat="45.2179867" lon="7.3795433"><ele>1075.75</ele><time>2026-05-03T13:08:35.232Z</time></trkpt><trkpt lat="45.2178583" lon="7.3795317"><ele>1079.5</ele><time>2026-05-03T13:08:36.232Z</time></trkpt><trkpt lat="45.2177317" lon="7.3795533"><ele>1083.25</ele><time>2026-05-03T13:08:37.232Z</time></trkpt><trkpt lat="45.2176133" lon="7.3795717"><ele>1087.0</ele><time>2026-05-03T13:08:38.232Z</time></trkpt><trkpt lat="45.2175117" lon="7.3795867"><ele>1087.0</ele><time>2026-05-03T13:08:39.232Z</time></trkpt><trkpt lat="45.217415" lon="7.3795583"><ele>1087.0</ele><time>2026-05-03T13:08:40.232Z</time></trkpt><trkpt lat="45.2173283" lon="7.3795117"><ele>1087.0</ele><time>2026-05-03T13:08:41.232Z</time></trkpt><trkpt lat="45.2172483" lon="7.37944"><ele>1087.0</ele><time>2026-05-03T13:08:42.232Z</time></trkpt><trkpt lat="45.2171733" lon="7.3793433"><ele>1087.0</ele><time>2026-05-03T13:08:43.232Z</time></trkpt><trkpt lat="45.2171183" lon="7.3792333"><ele>1088.6</ele><time>2026-05-03T13:08:44.232Z</time></trkpt><trkpt lat="45.217085" lon="7.3791117"><ele>1090.2</ele><time>2026-05-03T13:08:45.232Z</time></trkpt><trkpt lat="45.2170583" lon="7.3789883"><ele>1091.8</ele><time>2026-05-03T13:08:46.232Z</time></trkpt><trkpt lat="45.21702" lon="7.3788633"><ele>1093.4</ele><time>2026-05-03T13:08:47.232Z</time></trkpt><trkpt lat="45.2169633" lon="7.3787433"><ele>1095.0</ele><time>2026-05-03T13:08:48.232Z</time></trkpt><trkpt lat="45.2169117" lon="7.3786317"><ele>1095.8</ele><time>2026-05-03T13:08:49.232Z</time></trkpt><trkpt lat="45.21685" lon="7.3785267"><ele>1096.6</ele><time>2026-05-03T13:08:50.232Z</time></trkpt><trkpt lat="45.2167783" lon="7.3784233"><ele>1097.4</ele><time>2026-05-03T13:08:51.232Z</time></trkpt><trkpt lat="45.216715" lon="7.378325"><ele>1098.2</ele><time>2026-05-03T13:08:52.231Z</time></trkpt><trkpt lat="45.21665" lon="7.37823"><ele>1099.0</ele><time>2026-05-03T13:08:53.232Z</time></trkpt><trkpt lat="45.21658" lon="7.378145"><ele>1099.0</ele><time>2026-05-03T13:08:54.232Z</time></trkpt><trkpt lat="45.2165" lon="7.3780683"><ele>1099.0</ele><time>2026-05-03T13:08:55.232Z</time></trkpt><trkpt lat="45.2164233" lon="7.3779833"><ele>1099.0</ele><time>2026-05-03T13:08:56.232Z</time></trkpt><trkpt lat="45.2163567" lon="7.377885"><ele>1099.0</ele><time>2026-05-03T13:08:57.232Z</time></trkpt><trkpt lat="45.2162967" lon="7.3777767"><ele>1099.0</ele><time>2026-05-03T13:08:58.232Z</time></trkpt><trkpt lat="45.21624" lon="7.377665"><ele>1101.8</ele><time>2026-05-03T13:08:59.232Z</time></trkpt><trkpt lat="45.2161867" lon="7.3775433"><ele>1104.6000000000001</ele><time>2026-05-03T13:09:00.232Z</time></trkpt><trkpt lat="45.2161517" lon="7.3774167"><ele>1107.4</ele><time>2026-05-03T13:09:01.232Z</time></trkpt><trkpt lat="45.21613" lon="7.3772833"><ele>1110.2</ele><time>2026-05-03T13:09:02.232Z</time></trkpt><trkpt lat="45.216115" lon="7.3771483"><ele>1113.0</ele><time>2026-05-03T13:09:03.232Z</time></trkpt><trkpt lat="45.2161017" lon="7.3770067"><ele>1114.4</ele><time>2026-05-03T13:09:04.232Z</time></trkpt><trkpt lat="45.2160883" lon="7.376865"><ele>1115.8</ele><time>2026-05-03T13:09:05.232Z</time></trkpt><trkpt lat="45.2160767" lon="7.376715"><ele>1117.2</ele><time>2026-05-03T13:09:06.232Z</time></trkpt><trkpt lat="45.216065" lon="7.3765783"><ele>1118.6</ele><time>2026-05-03T13:09:07.232Z</time></trkpt><trkpt lat="45.21606" lon="7.3764483"><ele>1120.0</ele><time>2026-05-03T13:09:08.232Z</time></trkpt><trkpt lat="45.2160717" lon="7.376315"><ele>1121.0</ele><time>2026-05-03T13:09:09.232Z</time></trkpt><trkpt lat="45.2160817" lon="7.3761883"><ele>1122.0</ele><time>2026-05-03T13:09:10.231Z</time></trkpt><trkpt lat="45.216095" lon="7.3760767"><ele>1123.0</ele><time>2026-05-03T13:09:11.232Z</time></trkpt><trkpt lat="45.2160917" lon="7.3759833"><ele>1124.0</ele><time>2026-05-03T13:09:12.232Z</time></trkpt><trkpt lat="45.2160533" lon="7.37591"><ele>1125.0</ele><time>2026-05-03T13:09:14.231Z</time></trkpt><trkpt lat="45.215965" lon="7.3760117"><ele>1126.0</ele><time>2026-05-03T13:09:16.232Z</time></trkpt><trkpt lat="45.2159433" lon="7.37612"><ele>1126.0</ele><time>2026-05-03T13:09:17.232Z</time></trkpt><trkpt lat="45.2159333" lon="7.3762583"><ele>1126.0</ele><time>2026-05-03T13:09:18.232Z</time></trkpt><trkpt lat="45.21593" lon="7.37641"><ele>1126.0</ele><time>2026-05-03T13:09:19.232Z</time></trkpt><trkpt lat="45.2159217" lon="7.37655"><ele>1126.0</ele><time>2026-05-03T13:09:20.232Z</time></trkpt><trkpt lat="45.2159117" lon="7.3766933"><ele>1126.0</ele><time>2026-05-03T13:09:21.232Z</time></trkpt><trkpt lat="45.215905" lon="7.37684"><ele>1125.0</ele><time>2026-05-03T13:09:22.232Z</time></trkpt><trkpt lat="45.215895" lon="7.3769783"><ele>1124.0</ele><time>2026-05-03T13:09:23.231Z</time></trkpt><trkpt lat="45.2158833" lon="7.3771033"><ele>1123.0</ele><time>2026-05-03T13:09:24.232Z</time></trkpt><trkpt lat="45.2158683" lon="7.37721"><ele>1122.0</ele><time>2026-05-03T13:09:25.232Z</time></trkpt><trkpt lat="45.2158367" lon="7.3772967"><ele>1121.0</ele><time>2026-05-03T13:09:26.232Z</time></trkpt><trkpt lat="45.2157883" lon="7.3773683"><ele>1120.0</ele><time>2026-05-03T13:09:27.232Z</time></trkpt><trkpt lat="45.2157283" lon="7.3774167"><ele>1118.8333333333333</ele><time>2026-05-03T13:09:28.231Z</time></trkpt><trkpt lat="45.2156617" lon="7.3774383"><ele>1117.6666666666665</ele><time>2026-05-03T13:09:29.232Z</time></trkpt><trkpt lat="45.2155983" lon="7.3774267"><ele>1116.5</ele><time>2026-05-03T13:09:30.232Z</time></trkpt><trkpt lat="45.2155417" lon="7.3773783"><ele>1115.3333333333333</ele><time>2026-05-03T13:09:31.232Z</time></trkpt><trkpt lat="45.21547" lon="7.37732"><ele>1114.1666666666667</ele><time>2026-05-03T13:09:32.232Z</time></trkpt><trkpt lat="45.2153867" lon="7.3772417"><ele>1113.0</ele><time>2026-05-03T13:09:33.232Z</time></trkpt><trkpt lat="45.2153" lon="7.3771533"><ele>1115.8</ele><time>2026-05-03T13:09:34.232Z</time></trkpt><trkpt lat="45.2152183" lon="7.377065"><ele>1118.6</ele><time>2026-05-03T13:09:35.232Z</time></trkpt><trkpt lat="45.215135" lon="7.3769817"><ele>1121.4</ele><time>2026-05-03T13:09:36.232Z</time></trkpt><trkpt lat="45.2150383" lon="7.3769033"><ele>1124.2</ele><time>2026-05-03T13:09:37.231Z</time></trkpt><trkpt lat="45.2149433" lon="7.3768317"><ele>1127.0</ele><time>2026-05-03T13:09:38.232Z</time></trkpt><trkpt lat="45.2148383" lon="7.3767733"><ele>1124.4</ele><time>2026-05-03T13:09:39.232Z</time></trkpt><trkpt lat="45.214735" lon="7.3767033"><ele>1121.8000000000002</ele><time>2026-05-03T13:09:40.232Z</time></trkpt><trkpt lat="45.2146417" lon="7.37664"><ele>1119.2</ele><time>2026-05-03T13:09:41.232Z</time></trkpt><trkpt lat="45.21455" lon="7.3765833"><ele>1116.6000000000001</ele><time>2026-05-03T13:09:42.231Z</time></trkpt><trkpt lat="45.2144617" lon="7.3765117"><ele>1114.0</ele><time>2026-05-03T13:09:43.232Z</time></trkpt><trkpt lat="45.2143683" lon="7.376445"><ele>1114.0</ele><time>2026-05-03T13:09:44.232Z</time></trkpt><trkpt lat="45.2142817" lon="7.3763783"><ele>1114.0</ele><time>2026-05-03T13:09:45.232Z</time></trkpt><trkpt lat="45.2142" lon="7.3762917"><ele>1114.0</ele><time>2026-05-03T13:09:46.232Z</time></trkpt><trkpt lat="45.2141217" lon="7.37621"><ele>1114.0</ele><time>2026-05-03T13:09:47.232Z</time></trkpt><trkpt lat="45.2140533" lon="7.3761233"><ele>1114.0</ele><time>2026-05-03T13:09:48.232Z</time></trkpt><trkpt lat="45.21398" lon="7.37605"><ele>1116.0</ele><time>2026-05-03T13:09:49.232Z</time></trkpt><trkpt lat="45.2139033" lon="7.3759817"><ele>1118.0</ele><time>2026-05-03T13:09:50.232Z</time></trkpt><trkpt lat="45.213825" lon="7.3759033"><ele>1120.0</ele><time>2026-05-03T13:09:51.232Z</time></trkpt><trkpt lat="45.2137483" lon="7.3758217"><ele>1122.0</ele><time>2026-05-03T13:09:52.232Z</time></trkpt><trkpt lat="45.2136733" lon="7.37575"><ele>1124.0</ele><time>2026-05-03T13:09:53.232Z</time></trkpt><trkpt lat="45.2135917" lon="7.375675"><ele>1124.0</ele><time>2026-05-03T13:09:54.232Z</time></trkpt><trkpt lat="45.2134967" lon="7.3756333"><ele>1124.0</ele><time>2026-05-03T13:09:55.232Z</time></trkpt><trkpt lat="45.2133983" lon="7.3756"><ele>1124.0</ele><time>2026-05-03T13:09:56.232Z</time></trkpt><trkpt lat="45.2132967" lon="7.3755717"><ele>1124.0</ele><time>2026-05-03T13:09:57.231Z</time></trkpt><trkpt lat="45.21319" lon="7.3755533"><ele>1124.0</ele><time>2026-05-03T13:09:58.232Z</time></trkpt><trkpt lat="45.213085" lon="7.3755233"><ele>1126.8</ele><time>2026-05-03T13:09:59.232Z</time></trkpt><trkpt lat="45.2129817" lon="7.3754817"><ele>1129.6000000000001</ele><time>2026-05-03T13:10:00.232Z</time></trkpt><trkpt lat="45.21288" lon="7.37543"><ele>1132.4</ele><time>2026-05-03T13:10:01.232Z</time></trkpt><trkpt lat="45.2127833" lon="7.3753717"><ele>1135.2</ele><time>2026-05-03T13:10:02.232Z</time></trkpt><trkpt lat="45.212695" lon="7.3752883"><ele>1138.0</ele><time>2026-05-03T13:10:03.232Z</time></trkpt><trkpt lat="45.2126117" lon="7.3752"><ele>1138.0</ele><time>2026-05-03T13:10:04.232Z</time></trkpt><trkpt lat="45.2125317" lon="7.3751133"><ele>1138.0</ele><time>2026-05-03T13:10:05.231Z</time></trkpt><trkpt lat="45.2124517" lon="7.3750317"><ele>1138.0</ele><time>2026-05-03T13:10:06.231Z</time></trkpt><trkpt lat="45.2123667" lon="7.37495"><ele>1138.0</ele><time>2026-05-03T13:10:07.231Z</time></trkpt><trkpt lat="45.2122667" lon="7.37489"><ele>1138.0</ele><time>2026-05-03T13:10:08.232Z</time></trkpt><trkpt lat="45.2121583" lon="7.3748633"><ele>1135.2</ele><time>2026-05-03T13:10:09.232Z</time></trkpt><trkpt lat="45.2120433" lon="7.3748633"><ele>1132.4</ele><time>2026-05-03T13:10:10.232Z</time></trkpt><trkpt lat="45.21193" lon="7.3748733"><ele>1129.6000000000001</ele><time>2026-05-03T13:10:11.232Z</time></trkpt><trkpt lat="45.21182" lon="7.3748767"><ele>1126.8</ele><time>2026-05-03T13:10:12.232Z</time></trkpt><trkpt lat="45.211715" lon="7.3748817"><ele>1124.0</ele><time>2026-05-03T13:10:13.232Z</time></trkpt><trkpt lat="45.2116117" lon="7.3748783"><ele>1124.0</ele><time>2026-05-03T13:10:14.232Z</time></trkpt><trkpt lat="45.2115083" lon="7.374845"><ele>1124.0</ele><time>2026-05-03T13:10:15.232Z</time></trkpt><trkpt lat="45.2114217" lon="7.3747933"><ele>1124.0</ele><time>2026-05-03T13:10:16.232Z</time></trkpt><trkpt lat="45.2113483" lon="7.37471"><ele>1124.0</ele><time>2026-05-03T13:10:17.232Z</time></trkpt><trkpt lat="45.2112833" lon="7.3746267"><ele>1124.0</ele><time>2026-05-03T13:10:18.232Z</time></trkpt><trkpt lat="45.21122" lon="7.3745617"><ele>1129.0</ele><time>2026-05-03T13:10:19.232Z</time></trkpt><trkpt lat="45.2111567" lon="7.37449"><ele>1134.0</ele><time>2026-05-03T13:10:20.231Z</time></trkpt><trkpt lat="45.211085" lon="7.3744533"><ele>1139.0</ele><time>2026-05-03T13:10:21.232Z</time></trkpt><trkpt lat="45.2110183" lon="7.37446"><ele>1144.0</ele><time>2026-05-03T13:10:22.232Z</time></trkpt><trkpt lat="45.2109517" lon="7.374515"><ele>1149.0</ele><time>2026-05-03T13:10:23.232Z</time></trkpt><trkpt lat="45.2108717" lon="7.374575"><ele>1154.0</ele><time>2026-05-03T13:10:24.232Z</time></trkpt><trkpt lat="45.2107933" lon="7.3746333"><ele>1154.0</ele><time>2026-05-03T13:10:25.232Z</time></trkpt><trkpt lat="45.2107033" lon="7.3746517"><ele>1154.0</ele><time>2026-05-03T13:10:26.232Z</time></trkpt><trkpt lat="45.2106083" lon="7.37464"><ele>1154.0</ele><time>2026-05-03T13:10:27.232Z</time></trkpt><trkpt lat="45.21051" lon="7.374585"><ele>1154.0</ele><time>2026-05-03T13:10:28.232Z</time></trkpt><trkpt lat="45.2104133" lon="7.3745067"><ele>1154.0</ele><time>2026-05-03T13:10:29.232Z</time></trkpt><trkpt lat="45.2103267" lon="7.3744233"><ele>1152.0</ele><time>2026-05-03T13:10:30.232Z</time></trkpt><trkpt lat="45.210245" lon="7.3743217"><ele>1150.0</ele><time>2026-05-03T13:10:31.232Z</time></trkpt><trkpt lat="45.210175" lon="7.37422"><ele>1148.0</ele><time>2026-05-03T13:10:32.232Z</time></trkpt><trkpt lat="45.2101217" lon="7.37411"><ele>1146.0</ele><time>2026-05-03T13:10:33.232Z</time></trkpt><trkpt lat="45.2100867" lon="7.3740033"><ele>1144.0</ele><time>2026-05-03T13:10:34.232Z</time></trkpt><trkpt lat="45.2100617" lon="7.37389"><ele>1146.6666666666665</ele><time>2026-05-03T13:10:35.232Z</time></trkpt><trkpt lat="45.2100317" lon="7.3738017"><ele>1149.3333333333333</ele><time>2026-05-03T13:10:36.232Z</time></trkpt><trkpt lat="45.209995" lon="7.3737267"><ele>1152.0</ele><time>2026-05-03T13:10:37.232Z</time></trkpt><trkpt lat="45.209895" lon="7.373645"><ele>1154.6666666666667</ele><time>2026-05-03T13:10:39.231Z</time></trkpt><trkpt lat="45.209825" lon="7.3736817"><ele>1157.3333333333335</ele><time>2026-05-03T13:10:40.232Z</time></trkpt><trkpt lat="45.20975" lon="7.3737633"><ele>1160.0</ele><time>2026-05-03T13:10:41.232Z</time></trkpt><trkpt lat="45.209685" lon="7.37389"><ele>1160.0</ele><time>2026-05-03T13:10:42.232Z</time></trkpt><trkpt lat="45.209635" lon="7.3740417"><ele>1160.0</ele><time>2026-05-03T13:10:43.232Z</time></trkpt><trkpt lat="45.2095767" lon="7.3741883"><ele>1160.0</ele><time>2026-05-03T13:10:44.232Z</time></trkpt><trkpt lat="45.2095067" lon="7.3742983"><ele>1160.0</ele><time>2026-05-03T13:10:45.231Z</time></trkpt><trkpt lat="45.2094267" lon="7.3743783"><ele>1160.0</ele><time>2026-05-03T13:10:46.232Z</time></trkpt><trkpt lat="45.2093517" lon="7.3744317"><ele>1160.0</ele><time>2026-05-03T13:10:47.232Z</time></trkpt><trkpt lat="45.20928" lon="7.3744733"><ele>1160.0</ele><time>2026-05-03T13:10:48.232Z</time></trkpt><trkpt lat="45.2091983" lon="7.374505"><ele>1160.0</ele><time>2026-05-03T13:10:49.232Z</time></trkpt><trkpt lat="45.2091217" lon="7.3745383"><ele>1160.0</ele><time>2026-05-03T13:10:50.232Z</time></trkpt><trkpt lat="45.2090483" lon="7.3746017"><ele>1160.0</ele><time>2026-05-03T13:10:51.232Z</time></trkpt><trkpt lat="45.2089817" lon="7.3746767"><ele>1160.0</ele><time>2026-05-03T13:10:52.232Z</time></trkpt><trkpt lat="45.2089167" lon="7.3747517"><ele>1160.0</ele><time>2026-05-03T13:10:53.232Z</time></trkpt><trkpt lat="45.2088467" lon="7.37481"><ele>1160.0</ele><time>2026-05-03T13:10:54.232Z</time></trkpt><trkpt lat="45.2087683" lon="7.3748283"><ele>1160.0</ele><time>2026-05-03T13:10:55.232Z</time></trkpt><trkpt lat="45.20869" lon="7.3748183"><ele>1160.0</ele><time>2026-05-03T13:10:56.232Z</time></trkpt><trkpt lat="45.2086167" lon="7.3748083"><ele>1160.0</ele><time>2026-05-03T13:10:57.232Z</time></trkpt><trkpt lat="45.2085283" lon="7.3748133"><ele>1160.0</ele><time>2026-05-03T13:10:58.232Z</time></trkpt><trkpt lat="45.2084567" lon="7.37485"><ele>1160.0</ele><time>2026-05-03T13:10:59.232Z</time></trkpt><trkpt lat="45.2083883" lon="7.374935"><ele>1160.0</ele><time>2026-05-03T13:11:00.232Z</time></trkpt><trkpt lat="45.2083467" lon="7.3750467"><ele>1160.0</ele><time>2026-05-03T13:11:01.232Z</time></trkpt><trkpt lat="45.2083317" lon="7.37523"><ele>1160.0</ele><time>2026-05-03T13:11:02.232Z</time></trkpt><trkpt lat="45.208345" lon="7.375445"><ele>1157.0</ele><time>2026-05-03T13:11:03.232Z</time></trkpt><trkpt lat="45.208345" lon="7.3756483"><ele>1154.0</ele><time>2026-05-03T13:11:04.232Z</time></trkpt><trkpt lat="45.2083233" lon="7.37583"><ele>1151.0</ele><time>2026-05-03T13:11:05.232Z</time></trkpt><trkpt lat="45.2082967" lon="7.375995"><ele>1148.0</ele><time>2026-05-03T13:11:06.232Z</time></trkpt><trkpt lat="45.2082783" lon="7.3761483"><ele>1148.0</ele><time>2026-05-03T13:11:07.232Z</time></trkpt><trkpt lat="45.2082683" lon="7.3763133"><ele>1148.0</ele><time>2026-05-03T13:11:08.232Z</time></trkpt><trkpt lat="45.208265" lon="7.3764883"><ele>1148.0</ele><time>2026-05-03T13:11:09.232Z</time></trkpt><trkpt lat="45.2082683" lon="7.3766667"><ele>1148.0</ele><time>2026-05-03T13:11:10.232Z</time></trkpt><trkpt lat="45.2082717" lon="7.376825"><ele>1147.75</ele><time>2026-05-03T13:11:11.232Z</time></trkpt><trkpt lat="45.20828" lon="7.3769917"><ele>1147.5</ele><time>2026-05-03T13:11:12.232Z</time></trkpt><trkpt lat="45.2083" lon="7.37715"><ele>1147.25</ele><time>2026-05-03T13:11:13.232Z</time></trkpt><trkpt lat="45.20832" lon="7.3773033"><ele>1147.0</ele><time>2026-05-03T13:11:14.231Z</time></trkpt><trkpt lat="45.2083433" lon="7.3774633"><ele>1146.0</ele><time>2026-05-03T13:11:15.231Z</time></trkpt><trkpt lat="45.2083567" lon="7.377615"><ele>1145.0</ele><time>2026-05-03T13:11:16.232Z</time></trkpt><trkpt lat="45.2083617" lon="7.3777533"><ele>1144.0</ele><time>2026-05-03T13:11:17.232Z</time></trkpt><trkpt lat="45.2083333" lon="7.3778817"><ele>1143.0</ele><time>2026-05-03T13:11:18.231Z</time></trkpt><trkpt lat="45.208285" lon="7.377985"><ele>1142.0</ele><time>2026-05-03T13:11:19.231Z</time></trkpt><trkpt lat="45.2082233" lon="7.3780817"><ele>1143.6666666666667</ele><time>2026-05-03T13:11:20.232Z</time></trkpt><trkpt lat="45.208145" lon="7.378165"><ele>1145.3333333333335</ele><time>2026-05-03T13:11:21.232Z</time></trkpt><trkpt lat="45.208085" lon="7.3782717"><ele>1147.0</ele><time>2026-05-03T13:11:22.232Z</time></trkpt><trkpt lat="45.2080467" lon="7.37838"><ele>1148.6666666666667</ele><time>2026-05-03T13:11:23.232Z</time></trkpt><trkpt lat="45.208005" lon="7.37848"><ele>1150.3333333333333</ele><time>2026-05-03T13:11:24.232Z</time></trkpt><trkpt lat="45.207975" lon="7.3785817"><ele>1152.0</ele><time>2026-05-03T13:11:25.232Z</time></trkpt><trkpt lat="45.2079467" lon="7.37867"><ele>1152.0</ele><time>2026-05-03T13:11:26.232Z</time></trkpt><trkpt lat="45.2078717" lon="7.3787917"><ele>1152.0</ele><time>2026-05-03T13:11:28.232Z</time></trkpt><trkpt lat="45.2077767" lon="7.3788833"><ele>1152.0</ele><time>2026-05-03T13:11:30.232Z</time></trkpt><trkpt lat="45.20765" lon="7.3789367"><ele>1152.0</ele><time>2026-05-03T13:11:32.232Z</time></trkpt><trkpt lat="45.2075667" lon="7.378945"><ele>1152.0</ele><time>2026-05-03T13:11:33.232Z</time></trkpt><trkpt lat="45.2074733" lon="7.378945"><ele>1150.4</ele><time>2026-05-03T13:11:34.231Z</time></trkpt><trkpt lat="45.2073733" lon="7.378965"><ele>1148.8000000000002</ele><time>2026-05-03T13:11:35.232Z</time></trkpt><trkpt lat="45.2072783" lon="7.3790067"><ele>1147.2</ele><time>2026-05-03T13:11:36.232Z</time></trkpt><trkpt lat="45.2071983" lon="7.3790817"><ele>1145.6000000000001</ele><time>2026-05-03T13:11:37.232Z</time></trkpt><trkpt lat="45.2071317" lon="7.379175"><ele>1144.0</ele><time>2026-05-03T13:11:38.232Z</time></trkpt><trkpt lat="45.20707" lon="7.379275"><ele>1143.5</ele><time>2026-05-03T13:11:39.232Z</time></trkpt><trkpt lat="45.2069933" lon="7.3793467"><ele>1143.0</ele><time>2026-05-03T13:11:40.232Z</time></trkpt><trkpt lat="45.206915" lon="7.3793783"><ele>1142.5</ele><time>2026-05-03T13:11:41.232Z</time></trkpt><trkpt lat="45.2068433" lon="7.3793633"><ele>1142.0</ele><time>2026-05-03T13:11:42.232Z</time></trkpt><trkpt lat="45.2067867" lon="7.3793067"><ele>1141.5</ele><time>2026-05-03T13:11:43.232Z</time></trkpt><trkpt lat="45.2067367" lon="7.3792133"><ele>1141.0</ele><time>2026-05-03T13:11:44.232Z</time></trkpt><trkpt lat="45.2067133" lon="7.3790967"><ele>1141.0</ele><time>2026-05-03T13:11:45.232Z</time></trkpt><trkpt lat="45.2067167" lon="7.378975"><ele>1141.0</ele><time>2026-05-03T13:11:46.232Z</time></trkpt><trkpt lat="45.20674" lon="7.378855"><ele>1141.0</ele><time>2026-05-03T13:11:47.232Z</time></trkpt><trkpt lat="45.2067933" lon="7.3787367"><ele>1141.0</ele><time>2026-05-03T13:11:48.232Z</time></trkpt><trkpt lat="45.2068433" lon="7.3786133"><ele>1141.0</ele><time>2026-05-03T13:11:49.232Z</time></trkpt><trkpt lat="45.20688" lon="7.3784883"><ele>1141.0</ele><time>2026-05-03T13:11:50.231Z</time></trkpt><trkpt lat="45.20689" lon="7.3783633"><ele>1141.0</ele><time>2026-05-03T13:11:51.232Z</time></trkpt><trkpt lat="45.2068917" lon="7.378245"><ele>1141.0</ele><time>2026-05-03T13:11:52.232Z</time></trkpt><trkpt lat="45.2068717" lon="7.3781317"><ele>1141.0</ele><time>2026-05-03T13:11:53.232Z</time></trkpt><trkpt lat="45.2068183" lon="7.3780267"><ele>1141.0</ele><time>2026-05-03T13:11:54.232Z</time></trkpt><trkpt lat="45.20673" lon="7.3779367"><ele>1142.5</ele><time>2026-05-03T13:11:55.232Z</time></trkpt><trkpt lat="45.2066183" lon="7.3778683"><ele>1144.0</ele><time>2026-05-03T13:11:56.232Z</time></trkpt><trkpt lat="45.2064783" lon="7.37781"><ele>1145.5</ele><time>2026-05-03T13:11:57.231Z</time></trkpt><trkpt lat="45.2063433" lon="7.377745"><ele>1147.0</ele><time>2026-05-03T13:11:58.231Z</time></trkpt><trkpt lat="45.2062167" lon="7.3776767"><ele>1147.0</ele><time>2026-05-03T13:11:59.231Z</time></trkpt><trkpt lat="45.2060983" lon="7.377605"><ele>1147.0</ele><time>2026-05-03T13:12:00.232Z</time></trkpt><trkpt lat="45.2059883" lon="7.3775467"><ele>1147.0</ele><time>2026-05-03T13:12:01.232Z</time></trkpt><trkpt lat="45.2058733" lon="7.3774933"><ele>1147.0</ele><time>2026-05-03T13:12:02.232Z</time></trkpt><trkpt lat="45.2057617" lon="7.3774583"><ele>1146.0</ele><time>2026-05-03T13:12:03.232Z</time></trkpt><trkpt lat="45.2056483" lon="7.3774533"><ele>1145.0</ele><time>2026-05-03T13:12:04.232Z</time></trkpt><trkpt lat="45.2055317" lon="7.3774683"><ele>1144.0</ele><time>2026-05-03T13:12:05.232Z</time></trkpt><trkpt lat="45.2054183" lon="7.3774933"><ele>1143.0</ele><time>2026-05-03T13:12:06.232Z</time></trkpt><trkpt lat="45.2053067" lon="7.3775133"><ele>1143.0</ele><time>2026-05-03T13:12:07.232Z</time></trkpt><trkpt lat="45.2051933" lon="7.37754"><ele>1143.0</ele><time>2026-05-03T13:12:08.232Z</time></trkpt><trkpt lat="45.2050817" lon="7.3775467"><ele>1143.0</ele><time>2026-05-03T13:12:09.232Z</time></trkpt><trkpt lat="45.2049733" lon="7.3775233"><ele>1143.0</ele><time>2026-05-03T13:12:10.231Z</time></trkpt><trkpt lat="45.204865" lon="7.37747"><ele>1140.25</ele><time>2026-05-03T13:12:11.232Z</time></trkpt><trkpt lat="45.2047533" lon="7.3774067"><ele>1137.5</ele><time>2026-05-03T13:12:12.232Z</time></trkpt><trkpt lat="45.2046367" lon="7.37735"><ele>1134.75</ele><time>2026-05-03T13:12:13.232Z</time></trkpt><trkpt lat="45.2045233" lon="7.377285"><ele>1132.0</ele><time>2026-05-03T13:12:14.232Z</time></trkpt><trkpt lat="45.2044183" lon="7.3772017"><ele>1135.2</ele><time>2026-05-03T13:12:15.231Z</time></trkpt><trkpt lat="45.2043233" lon="7.3771367"><ele>1138.4</ele><time>2026-05-03T13:12:16.232Z</time></trkpt><trkpt lat="45.2042383" lon="7.37706"><ele>1141.6</ele><time>2026-05-03T13:12:17.232Z</time></trkpt><trkpt lat="45.2041717" lon="7.3769583"><ele>1144.8</ele><time>2026-05-03T13:12:18.232Z</time></trkpt><trkpt lat="45.20412" lon="7.3768383"><ele>1148.0</ele><time>2026-05-03T13:12:19.231Z</time></trkpt><trkpt lat="45.204075" lon="7.3767233"><ele>1148.0</ele><time>2026-05-03T13:12:20.232Z</time></trkpt><trkpt lat="45.2040233" lon="7.376605"><ele>1148.0</ele><time>2026-05-03T13:12:21.231Z</time></trkpt><trkpt lat="45.2039583" lon="7.3765083"><ele>1148.0</ele><time>2026-05-03T13:12:22.232Z</time></trkpt><trkpt lat="45.2038817" lon="7.376425"><ele>1148.0</ele><time>2026-05-03T13:12:23.232Z</time></trkpt><trkpt lat="45.2037883" lon="7.37637"><ele>1148.0</ele><time>2026-05-03T13:12:24.232Z</time></trkpt><trkpt lat="45.2036817" lon="7.3763633"><ele>1146.4</ele><time>2026-05-03T13:12:25.231Z</time></trkpt><trkpt lat="45.2035733" lon="7.3763817"><ele>1144.8</ele><time>2026-05-03T13:12:26.232Z</time></trkpt><trkpt lat="45.2034633" lon="7.37641"><ele>1143.2</ele><time>2026-05-03T13:12:27.231Z</time></trkpt><trkpt lat="45.2033567" lon="7.3764167"><ele>1141.6</ele><time>2026-05-03T13:12:28.232Z</time></trkpt><trkpt lat="45.2032483" lon="7.3763917"><ele>1140.0</ele><time>2026-05-03T13:12:29.232Z</time></trkpt><trkpt lat="45.2031483" lon="7.3763233"><ele>1140.0</ele><time>2026-05-03T13:12:30.231Z</time></trkpt><trkpt lat="45.2030567" lon="7.3762233"><ele>1140.0</ele><time>2026-05-03T13:12:31.232Z</time></trkpt><trkpt lat="45.2029633" lon="7.37612"><ele>1140.0</ele><time>2026-05-03T13:12:32.232Z</time></trkpt><trkpt lat="45.2028683" lon="7.37601"><ele>1140.0</ele><time>2026-05-03T13:12:33.232Z</time></trkpt><trkpt lat="45.2027767" lon="7.375915"><ele>1140.0</ele><time>2026-05-03T13:12:34.232Z</time></trkpt><trkpt lat="45.2026867" lon="7.3758283"><ele>1140.0</ele><time>2026-05-03T13:12:35.232Z</time></trkpt><trkpt lat="45.202605" lon="7.37574"><ele>1140.0</ele><time>2026-05-03T13:12:36.232Z</time></trkpt><trkpt lat="45.2025417" lon="7.37564"><ele>1140.0</ele><time>2026-05-03T13:12:37.232Z</time></trkpt><trkpt lat="45.2024817" lon="7.3755233"><ele>1140.0</ele><time>2026-05-03T13:12:38.232Z</time></trkpt><trkpt lat="45.2024133" lon="7.3754117"><ele>1138.5</ele><time>2026-05-03T13:12:39.232Z</time></trkpt><trkpt lat="45.2023367" lon="7.37532"><ele>1137.0</ele><time>2026-05-03T13:12:40.232Z</time></trkpt><trkpt lat="45.2022483" lon="7.3752617"><ele>1135.5</ele><time>2026-05-03T13:12:41.232Z</time></trkpt><trkpt lat="45.2021683" lon="7.3752533"><ele>1134.0</ele><time>2026-05-03T13:12:42.231Z</time></trkpt><trkpt lat="45.2020933" lon="7.375295"><ele>1132.5</ele><time>2026-05-03T13:12:43.232Z</time></trkpt><trkpt lat="45.20202" lon="7.3753617"><ele>1131.0</ele><time>2026-05-03T13:12:44.232Z</time></trkpt><trkpt lat="45.2019417" lon="7.3754033"><ele>1131.0</ele><time>2026-05-03T13:12:45.232Z</time></trkpt><trkpt lat="45.2018733" lon="7.3754133"><ele>1131.0</ele><time>2026-05-03T13:12:46.232Z</time></trkpt><trkpt lat="45.2017783" lon="7.37533"><ele>1131.0</ele><time>2026-05-03T13:12:48.232Z</time></trkpt><trkpt lat="45.2017517" lon="7.3751567"><ele>1131.0</ele><time>2026-05-03T13:12:50.232Z</time></trkpt><trkpt lat="45.2017567" lon="7.3750317"><ele>1131.0</ele><time>2026-05-03T13:12:51.232Z</time></trkpt><trkpt lat="45.20176" lon="7.3748817"><ele>1131.0</ele><time>2026-05-03T13:12:52.232Z</time></trkpt><trkpt lat="45.201785" lon="7.37471"><ele>1131.0</ele><time>2026-05-03T13:12:53.232Z</time></trkpt><trkpt lat="45.2018133" lon="7.3745567"><ele>1131.0</ele><time>2026-05-03T13:12:54.232Z</time></trkpt><trkpt lat="45.2018483" lon="7.3744317"><ele>1131.0</ele><time>2026-05-03T13:12:55.232Z</time></trkpt><trkpt lat="45.2018967" lon="7.374325"><ele>1131.0</ele><time>2026-05-03T13:12:56.232Z</time></trkpt><trkpt lat="45.20196" lon="7.3742217"><ele>1129.6</ele><time>2026-05-03T13:12:57.232Z</time></trkpt><trkpt lat="45.2020383" lon="7.3741367"><ele>1128.1999999999998</ele><time>2026-05-03T13:12:58.232Z</time></trkpt><trkpt lat="45.2021283" lon="7.3740583"><ele>1126.8000000000002</ele><time>2026-05-03T13:12:59.232Z</time></trkpt><trkpt lat="45.2022167" lon="7.3739817"><ele>1125.4</ele><time>2026-05-03T13:13:00.232Z</time></trkpt><trkpt lat="45.202305" lon="7.3739233"><ele>1124.0</ele><time>2026-05-03T13:13:01.232Z</time></trkpt><trkpt lat="45.2023817" lon="7.37386"><ele>1128.4</ele><time>2026-05-03T13:13:02.232Z</time></trkpt><trkpt lat="45.2024567" lon="7.3737883"><ele>1132.8000000000002</ele><time>2026-05-03T13:13:03.232Z</time></trkpt><trkpt lat="45.202525" lon="7.3737033"><ele>1137.1999999999998</ele><time>2026-05-03T13:13:04.231Z</time></trkpt><trkpt lat="45.2025617" lon="7.37359"><ele>1141.6</ele><time>2026-05-03T13:13:05.232Z</time></trkpt><trkpt lat="45.20258" lon="7.37346"><ele>1146.0</ele><time>2026-05-03T13:13:06.232Z</time></trkpt><trkpt lat="45.2026083" lon="7.37333"><ele>1146.0</ele><time>2026-05-03T13:13:07.232Z</time></trkpt><trkpt lat="45.20263" lon="7.3731767"><ele>1146.0</ele><time>2026-05-03T13:13:08.232Z</time></trkpt><trkpt lat="45.20267" lon="7.3730483"><ele>1146.0</ele><time>2026-05-03T13:13:09.232Z</time></trkpt><trkpt lat="45.2027033" lon="7.37292"><ele>1146.0</ele><time>2026-05-03T13:13:10.232Z</time></trkpt><trkpt lat="45.2027267" lon="7.3727917"><ele>1146.0</ele><time>2026-05-03T13:13:11.231Z</time></trkpt><trkpt lat="45.2027267" lon="7.3726533"><ele>1146.0</ele><time>2026-05-03T13:13:12.232Z</time></trkpt><trkpt lat="45.202695" lon="7.372525"><ele>1146.0</ele><time>2026-05-03T13:13:13.231Z</time></trkpt><trkpt lat="45.2026517" lon="7.3724183"><ele>1146.0</ele><time>2026-05-03T13:13:14.232Z</time></trkpt><trkpt lat="45.202595" lon="7.3723"><ele>1146.0</ele><time>2026-05-03T13:13:15.232Z</time></trkpt><trkpt lat="45.202555" lon="7.3721667"><ele>1146.0</ele><time>2026-05-03T13:13:16.232Z</time></trkpt><trkpt lat="45.2025283" lon="7.3720417"><ele>1147.8333333333333</ele><time>2026-05-03T13:13:17.232Z</time></trkpt><trkpt lat="45.2025117" lon="7.3719067"><ele>1149.6666666666667</ele><time>2026-05-03T13:13:18.232Z</time></trkpt><trkpt lat="45.2024983" lon="7.3717833"><ele>1151.5</ele><time>2026-05-03T13:13:19.232Z</time></trkpt><trkpt lat="45.202495" lon="7.3716533"><ele>1153.3333333333335</ele><time>2026-05-03T13:13:20.232Z</time></trkpt><trkpt lat="45.20248" lon="7.3715333"><ele>1155.1666666666667</ele><time>2026-05-03T13:13:21.232Z</time></trkpt><trkpt lat="45.2024433" lon="7.3714367"><ele>1157.0</ele><time>2026-05-03T13:13:22.232Z</time></trkpt><trkpt lat="45.2023733" lon="7.3713433"><ele>1150.3333333333335</ele><time>2026-05-03T13:13:23.232Z</time></trkpt><trkpt lat="45.2023117" lon="7.371245"><ele>1143.6666666666667</ele><time>2026-05-03T13:13:24.232Z</time></trkpt><trkpt lat="45.2022717" lon="7.3711433"><ele>1137.0</ele><time>2026-05-03T13:13:25.232Z</time></trkpt><trkpt lat="45.202245" lon="7.3710283"><ele>1130.3333333333333</ele><time>2026-05-03T13:13:26.232Z</time></trkpt><trkpt lat="45.202225" lon="7.3709067"><ele>1123.6666666666665</ele><time>2026-05-03T13:13:27.232Z</time></trkpt><trkpt lat="45.202235" lon="7.3707717"><ele>1117.0</ele><time>2026-05-03T13:13:28.232Z</time></trkpt><trkpt lat="45.2022517" lon="7.3706267"><ele>1117.0</ele><time>2026-05-03T13:13:29.231Z</time></trkpt><trkpt lat="45.202275" lon="7.37049"><ele>1117.0</ele><time>2026-05-03T13:13:30.231Z</time></trkpt><trkpt lat="45.2023067" lon="7.37035"><ele>1117.0</ele><time>2026-05-03T13:13:31.232Z</time></trkpt><trkpt lat="45.20235" lon="7.3702317"><ele>1117.0</ele><time>2026-05-03T13:13:32.232Z</time></trkpt><trkpt lat="45.2023983" lon="7.3701333"><ele>1117.0</ele><time>2026-05-03T13:13:33.232Z</time></trkpt><trkpt lat="45.2024417" lon="7.3700317"><ele>1119.3333333333333</ele><time>2026-05-03T13:13:34.231Z</time></trkpt><trkpt lat="45.2024683" lon="7.3699217"><ele>1121.6666666666665</ele><time>2026-05-03T13:13:35.232Z</time></trkpt><trkpt lat="45.2024767" lon="7.36982"><ele>1124.0</ele><time>2026-05-03T13:13:36.232Z</time></trkpt><trkpt lat="45.2024583" lon="7.36972"><ele>1126.3333333333333</ele><time>2026-05-03T13:13:37.232Z</time></trkpt><trkpt lat="45.2024" lon="7.3696367"><ele>1128.6666666666667</ele><time>2026-05-03T13:13:38.232Z</time></trkpt><trkpt lat="45.2023" lon="7.369555"><ele>1131.0</ele><time>2026-05-03T13:13:39.232Z</time></trkpt><trkpt lat="45.20219" lon="7.369455"><ele>1131.0</ele><time>2026-05-03T13:13:40.232Z</time></trkpt><trkpt lat="45.2021017" lon="7.3693433"><ele>1131.0</ele><time>2026-05-03T13:13:41.232Z</time></trkpt><trkpt lat="45.202045" lon="7.3692167"><ele>1131.0</ele><time>2026-05-03T13:13:42.232Z</time></trkpt><trkpt lat="45.2020083" lon="7.3691"><ele>1131.0</ele><time>2026-05-03T13:13:43.232Z</time></trkpt><trkpt lat="45.202005" lon="7.3689233"><ele>1131.0</ele><time>2026-05-03T13:13:44.232Z</time></trkpt><trkpt lat="45.2019817" lon="7.3687833"><ele>1133.3333333333333</ele><time>2026-05-03T13:13:45.232Z</time></trkpt><trkpt lat="45.2019517" lon="7.368665"><ele>1135.6666666666667</ele><time>2026-05-03T13:13:46.232Z</time></trkpt><trkpt lat="45.2019133" lon="7.36856"><ele>1138.0</ele><time>2026-05-03T13:13:47.232Z</time></trkpt><trkpt lat="45.2018583" lon="7.3684767"><ele>1140.3333333333335</ele><time>2026-05-03T13:13:48.231Z</time></trkpt><trkpt lat="45.2018067" lon="7.3684033"><ele>1142.6666666666667</ele><time>2026-05-03T13:13:49.232Z</time></trkpt><trkpt lat="45.2017617" lon="7.3683117"><ele>1145.0</ele><time>2026-05-03T13:13:50.232Z</time></trkpt><trkpt lat="45.2017267" lon="7.3682167"><ele>1145.0</ele><time>2026-05-03T13:13:51.232Z</time></trkpt><trkpt lat="45.2017083" lon="7.368105"><ele>1145.0</ele><time>2026-05-03T13:13:52.232Z</time></trkpt><trkpt lat="45.20168" lon="7.3679933"><ele>1145.0</ele><time>2026-05-03T13:13:53.232Z</time></trkpt><trkpt lat="45.2016467" lon="7.3678817"><ele>1145.0</ele><time>2026-05-03T13:13:54.232Z</time></trkpt><trkpt lat="45.20159" lon="7.367785"><ele>1145.0</ele><time>2026-05-03T13:13:55.231Z</time></trkpt><trkpt lat="45.20152" lon="7.36769"><ele>1145.0</ele><time>2026-05-03T13:13:56.232Z</time></trkpt><trkpt lat="45.2014267" lon="7.36761"><ele>1146.5</ele><time>2026-05-03T13:13:57.232Z</time></trkpt><trkpt lat="45.2013117" lon="7.367555"><ele>1148.0</ele><time>2026-05-03T13:13:58.232Z</time></trkpt><trkpt lat="45.2011667" lon="7.3675233"><ele>1149.5</ele><time>2026-05-03T13:13:59.232Z</time></trkpt><trkpt lat="45.2010083" lon="7.3675017"><ele>1151.0</ele><time>2026-05-03T13:14:00.232Z</time></trkpt><trkpt lat="45.2008667" lon="7.3674867"><ele>1151.0</ele><time>2026-05-03T13:14:01.232Z</time></trkpt><trkpt lat="45.20073" lon="7.3674717"><ele>1151.0</ele><time>2026-05-03T13:14:02.232Z</time></trkpt><trkpt lat="45.2006033" lon="7.3674517"><ele>1151.0</ele><time>2026-05-03T13:14:03.232Z</time></trkpt><trkpt lat="45.2004817" lon="7.3674483"><ele>1151.0</ele><time>2026-05-03T13:14:04.232Z</time></trkpt><trkpt lat="45.2003733" lon="7.3674417"><ele>1156.25</ele><time>2026-05-03T13:14:05.232Z</time></trkpt><trkpt lat="45.20027" lon="7.36748"><ele>1161.5</ele><time>2026-05-03T13:14:06.232Z</time></trkpt><trkpt lat="45.2001783" lon="7.3675817"><ele>1166.75</ele><time>2026-05-03T13:14:07.232Z</time></trkpt><trkpt lat="45.2000917" lon="7.3677233"><ele>1172.0</ele><time>2026-05-03T13:14:08.232Z</time></trkpt><trkpt lat="45.2000183" lon="7.3678767"><ele>1172.0</ele><time>2026-05-03T13:14:09.232Z</time></trkpt><trkpt lat="45.1999767" lon="7.3680217"><ele>1172.0</ele><time>2026-05-03T13:14:10.232Z</time></trkpt><trkpt lat="45.19997" lon="7.3681833"><ele>1172.0</ele><time>2026-05-03T13:14:11.232Z</time></trkpt><trkpt lat="45.1999667" lon="7.36835"><ele>1172.0</ele><time>2026-05-03T13:14:12.232Z</time></trkpt><trkpt lat="45.1999467" lon="7.3685067"><ele>1170.0</ele><time>2026-05-03T13:14:13.231Z</time></trkpt><trkpt lat="45.1998983" lon="7.3686417"><ele>1168.0</ele><time>2026-05-03T13:14:14.232Z</time></trkpt><trkpt lat="45.199835" lon="7.3687517"><ele>1166.0</ele><time>2026-05-03T13:14:15.232Z</time></trkpt><trkpt lat="45.1997583" lon="7.3688517"><ele>1164.0</ele><time>2026-05-03T13:14:16.232Z</time></trkpt><trkpt lat="45.199705" lon="7.3689917"><ele>1162.0</ele><time>2026-05-03T13:14:17.231Z</time></trkpt><trkpt lat="45.1996667" lon="7.369145"><ele>1168.25</ele><time>2026-05-03T13:14:18.232Z</time></trkpt><trkpt lat="45.199625" lon="7.3693133"><ele>1174.5</ele><time>2026-05-03T13:14:19.232Z</time></trkpt><trkpt lat="45.19958" lon="7.3694867"><ele>1180.75</ele><time>2026-05-03T13:14:20.232Z</time></trkpt><trkpt lat="45.19952" lon="7.369635"><ele>1187.0</ele><time>2026-05-03T13:14:21.232Z</time></trkpt><trkpt lat="45.1994417" lon="7.3697767"><ele>1187.0</ele><time>2026-05-03T13:14:22.231Z</time></trkpt><trkpt lat="45.1993783" lon="7.3699283"><ele>1187.0</ele><time>2026-05-03T13:14:23.231Z</time></trkpt><trkpt lat="45.1993233" lon="7.3700833"><ele>1187.0</ele><time>2026-05-03T13:14:24.232Z</time></trkpt><trkpt lat="45.1992617" lon="7.3702233"><ele>1187.0</ele><time>2026-05-03T13:14:25.232Z</time></trkpt><trkpt lat="45.1991867" lon="7.3703283"><ele>1187.0</ele><time>2026-05-03T13:14:26.232Z</time></trkpt><trkpt lat="45.1990767" lon="7.3704"><ele>1187.0</ele><time>2026-05-03T13:14:27.232Z</time></trkpt><trkpt lat="45.1989733" lon="7.3704667"><ele>1187.0</ele><time>2026-05-03T13:14:28.232Z</time></trkpt><trkpt lat="45.19887" lon="7.37054"><ele>1187.0</ele><time>2026-05-03T13:14:29.232Z</time></trkpt><trkpt lat="45.198765" lon="7.370645"><ele>1187.0</ele><time>2026-05-03T13:14:30.232Z</time></trkpt><trkpt lat="45.198685" lon="7.37078"><ele>1187.0</ele><time>2026-05-03T13:14:31.232Z</time></trkpt><trkpt lat="45.1986167" lon="7.3709067"><ele>1187.0</ele><time>2026-05-03T13:14:32.232Z</time></trkpt><trkpt lat="45.1985517" lon="7.3710183"><ele>1187.0</ele><time>2026-05-03T13:14:33.232Z</time></trkpt><trkpt lat="45.1984783" lon="7.3711117"><ele>1187.0</ele><time>2026-05-03T13:14:34.232Z</time></trkpt><trkpt lat="45.1983933" lon="7.3711917"><ele>1187.0</ele><time>2026-05-03T13:14:35.232Z</time></trkpt><trkpt lat="45.1982867" lon="7.371215"><ele>1187.0</ele><time>2026-05-03T13:14:36.232Z</time></trkpt><trkpt lat="45.1981733" lon="7.3712233"><ele>1187.0</ele><time>2026-05-03T13:14:37.232Z</time></trkpt><trkpt lat="45.198055" lon="7.37126"><ele>1187.0</ele><time>2026-05-03T13:14:38.232Z</time></trkpt><trkpt lat="45.1979133" lon="7.37133"><ele>1184.25</ele><time>2026-05-03T13:14:39.232Z</time></trkpt><trkpt lat="45.1977867" lon="7.371415"><ele>1181.5</ele><time>2026-05-03T13:14:40.232Z</time></trkpt><trkpt lat="45.1976783" lon="7.3714967"><ele>1178.75</ele><time>2026-05-03T13:14:41.232Z</time></trkpt><trkpt lat="45.1975717" lon="7.3715733"><ele>1176.0</ele><time>2026-05-03T13:14:42.232Z</time></trkpt><trkpt lat="45.1974617" lon="7.3716367"><ele>1176.0</ele><time>2026-05-03T13:14:43.232Z</time></trkpt><trkpt lat="45.1973733" lon="7.371655"><ele>1176.0</ele><time>2026-05-03T13:14:44.232Z</time></trkpt><trkpt lat="45.197285" lon="7.3716383"><ele>1176.0</ele><time>2026-05-03T13:14:45.232Z</time></trkpt><trkpt lat="45.1972133" lon="7.3715817"><ele>1176.0</ele><time>2026-05-03T13:14:46.232Z</time></trkpt><trkpt lat="45.1971517" lon="7.371485"><ele>1176.0</ele><time>2026-05-03T13:14:47.232Z</time></trkpt><trkpt lat="45.197105" lon="7.371355"><ele>1174.0</ele><time>2026-05-03T13:14:48.232Z</time></trkpt><trkpt lat="45.1970883" lon="7.3712133"><ele>1172.0</ele><time>2026-05-03T13:14:49.232Z</time></trkpt><trkpt lat="45.1970717" lon="7.37106"><ele>1170.0</ele><time>2026-05-03T13:14:50.232Z</time></trkpt><trkpt lat="45.1970633" lon="7.3709067"><ele>1168.0</ele><time>2026-05-03T13:14:51.232Z</time></trkpt><trkpt lat="45.197055" lon="7.3707567"><ele>1166.0</ele><time>2026-05-03T13:14:52.232Z</time></trkpt><trkpt lat="45.1970483" lon="7.37062"><ele>1168.8333333333335</ele><time>2026-05-03T13:14:53.232Z</time></trkpt><trkpt lat="45.197035" lon="7.3704833"><ele>1171.6666666666667</ele><time>2026-05-03T13:14:54.231Z</time></trkpt><trkpt lat="45.1970183" lon="7.3703567"><ele>1174.5</ele><time>2026-05-03T13:14:55.232Z</time></trkpt><trkpt lat="45.196995" lon="7.3702367"><ele>1177.3333333333333</ele><time>2026-05-03T13:14:56.232Z</time></trkpt><trkpt lat="45.1969667" lon="7.37012"><ele>1180.1666666666665</ele><time>2026-05-03T13:14:57.232Z</time></trkpt><trkpt lat="45.1969317" lon="7.370025"><ele>1183.0</ele><time>2026-05-03T13:14:58.232Z</time></trkpt><trkpt lat="45.1968817" lon="7.36995"><ele>1183.0</ele><time>2026-05-03T13:14:59.232Z</time></trkpt><trkpt lat="45.19682" lon="7.3699217"><ele>1183.0</ele><time>2026-05-03T13:15:00.232Z</time></trkpt><trkpt lat="45.196735" lon="7.36993"><ele>1183.0</ele><time>2026-05-03T13:15:01.232Z</time></trkpt><trkpt lat="45.19664" lon="7.36998"><ele>1183.0</ele><time>2026-05-03T13:15:02.232Z</time></trkpt><trkpt lat="45.196545" lon="7.370005"><ele>1183.0</ele><time>2026-05-03T13:15:03.232Z</time></trkpt><trkpt lat="45.1964533" lon="7.3699917"><ele>1183.0</ele><time>2026-05-03T13:15:04.232Z</time></trkpt><trkpt lat="45.19636" lon="7.3699367"><ele>1184.8</ele><time>2026-05-03T13:15:05.232Z</time></trkpt><trkpt lat="45.1962633" lon="7.3698717"><ele>1186.6</ele><time>2026-05-03T13:15:06.232Z</time></trkpt><trkpt lat="45.1961633" lon="7.3698033"><ele>1188.4</ele><time>2026-05-03T13:15:07.232Z</time></trkpt><trkpt lat="45.1960617" lon="7.3697333"><ele>1190.2</ele><time>2026-05-03T13:15:08.232Z</time></trkpt><trkpt lat="45.1959567" lon="7.3696583"><ele>1192.0</ele><time>2026-05-03T13:15:09.232Z</time></trkpt><trkpt lat="45.1958467" lon="7.3695767"><ele>1192.0</ele><time>2026-05-03T13:15:10.232Z</time></trkpt><trkpt lat="45.195735" lon="7.3695"><ele>1192.0</ele><time>2026-05-03T13:15:11.232Z</time></trkpt><trkpt lat="45.1956283" lon="7.3694183"><ele>1192.0</ele><time>2026-05-03T13:15:12.232Z</time></trkpt><trkpt lat="45.1955317" lon="7.3693383"><ele>1192.0</ele><time>2026-05-03T13:15:13.232Z</time></trkpt><trkpt lat="45.1954317" lon="7.369265"><ele>1189.25</ele><time>2026-05-03T13:15:14.232Z</time></trkpt><trkpt lat="45.1953267" lon="7.3691933"><ele>1186.5</ele><time>2026-05-03T13:15:15.232Z</time></trkpt><trkpt lat="45.1952217" lon="7.3691333"><ele>1183.75</ele><time>2026-05-03T13:15:16.231Z</time></trkpt><trkpt lat="45.1951083" lon="7.3690967"><ele>1181.0</ele><time>2026-05-03T13:15:17.232Z</time></trkpt><trkpt lat="45.1949933" lon="7.369075"><ele>1181.0</ele><time>2026-05-03T13:15:18.232Z</time></trkpt><trkpt lat="45.194875" lon="7.3690583"><ele>1181.0</ele><time>2026-05-03T13:15:19.232Z</time></trkpt><trkpt lat="45.194755" lon="7.369045"><ele>1181.0</ele><time>2026-05-03T13:15:20.232Z</time></trkpt><trkpt lat="45.1946367" lon="7.369035"><ele>1181.0</ele><time>2026-05-03T13:15:21.232Z</time></trkpt><trkpt lat="45.1945167" lon="7.3690233"><ele>1181.3999999999999</ele><time>2026-05-03T13:15:22.232Z</time></trkpt><trkpt lat="45.1944017" lon="7.36902"><ele>1181.8</ele><time>2026-05-03T13:15:23.232Z</time></trkpt><trkpt lat="45.1942883" lon="7.36903"><ele>1182.1999999999998</ele><time>2026-05-03T13:15:24.231Z</time></trkpt><trkpt lat="45.1941833" lon="7.369065"><ele>1182.6</ele><time>2026-05-03T13:15:25.232Z</time></trkpt><trkpt lat="45.1940867" lon="7.3691183"><ele>1183.0</ele><time>2026-05-03T13:15:26.231Z</time></trkpt><trkpt lat="45.1940017" lon="7.3692033"><ele>1182.6</ele><time>2026-05-03T13:15:27.232Z</time></trkpt><trkpt lat="45.193935" lon="7.3693233"><ele>1182.1999999999998</ele><time>2026-05-03T13:15:28.232Z</time></trkpt><trkpt lat="45.1938917" lon="7.3694617"><ele>1181.8</ele><time>2026-05-03T13:15:29.232Z</time></trkpt><trkpt lat="45.1938617" lon="7.36961"><ele>1181.3999999999999</ele><time>2026-05-03T13:15:30.232Z</time></trkpt><trkpt lat="45.193835" lon="7.3697617"><ele>1181.0</ele><time>2026-05-03T13:15:31.232Z</time></trkpt><trkpt lat="45.1937983" lon="7.369895"><ele>1181.0</ele><time>2026-05-03T13:15:32.232Z</time></trkpt><trkpt lat="45.1937517" lon="7.3700167"><ele>1181.0</ele><time>2026-05-03T13:15:33.232Z</time></trkpt><trkpt lat="45.1937" lon="7.370125"><ele>1181.0</ele><time>2026-05-03T13:15:34.232Z</time></trkpt><trkpt lat="45.1936217" lon="7.370195"><ele>1181.0</ele><time>2026-05-03T13:15:35.232Z</time></trkpt><trkpt lat="45.1935233" lon="7.3702333"><ele>1181.0</ele><time>2026-05-03T13:15:36.232Z</time></trkpt><trkpt lat="45.1934217" lon="7.370235"><ele>1181.0</ele><time>2026-05-03T13:15:37.232Z</time></trkpt><trkpt lat="45.1933217" lon="7.3701967"><ele>1181.0</ele><time>2026-05-03T13:15:38.232Z</time></trkpt><trkpt lat="45.19322" lon="7.3701317"><ele>1181.0</ele><time>2026-05-03T13:15:39.232Z</time></trkpt><trkpt lat="45.1931117" lon="7.37007"><ele>1181.0</ele><time>2026-05-03T13:15:40.232Z</time></trkpt><trkpt lat="45.1930033" lon="7.3700183"><ele>1181.0</ele><time>2026-05-03T13:15:41.232Z</time></trkpt><trkpt lat="45.192895" lon="7.36996"><ele>1180.8</ele><time>2026-05-03T13:15:42.231Z</time></trkpt><trkpt lat="45.1927883" lon="7.3698933"><ele>1180.6</ele><time>2026-05-03T13:15:43.232Z</time></trkpt><trkpt lat="45.19269" lon="7.3698167"><ele>1180.4</ele><time>2026-05-03T13:15:44.232Z</time></trkpt><trkpt lat="45.1926" lon="7.369725"><ele>1180.2</ele><time>2026-05-03T13:15:45.232Z</time></trkpt><trkpt lat="45.192515" lon="7.3696283"><ele>1180.0</ele><time>2026-05-03T13:15:46.232Z</time></trkpt><trkpt lat="45.1924417" lon="7.3695283"><ele>1180.0</ele><time>2026-05-03T13:15:47.232Z</time></trkpt><trkpt lat="45.192375" lon="7.3694133"><ele>1180.0</ele><time>2026-05-03T13:15:48.232Z</time></trkpt><trkpt lat="45.1923183" lon="7.3692783"><ele>1180.0</ele><time>2026-05-03T13:15:49.232Z</time></trkpt><trkpt lat="45.1922667" lon="7.3691417"><ele>1180.0</ele><time>2026-05-03T13:15:50.232Z</time></trkpt><trkpt lat="45.19222" lon="7.368995"><ele>1180.0</ele><time>2026-05-03T13:15:51.232Z</time></trkpt><trkpt lat="45.1921767" lon="7.3688383"><ele>1175.8</ele><time>2026-05-03T13:15:52.232Z</time></trkpt><trkpt lat="45.1921233" lon="7.3686967"><ele>1171.6</ele><time>2026-05-03T13:15:53.232Z</time></trkpt><trkpt lat="45.1920733" lon="7.3685533"><ele>1167.4</ele><time>2026-05-03T13:15:54.232Z</time></trkpt><trkpt lat="45.1920233" lon="7.36842"><ele>1163.2</ele><time>2026-05-03T13:15:55.232Z</time></trkpt><trkpt lat="45.19198" lon="7.3683"><ele>1159.0</ele><time>2026-05-03T13:15:56.232Z</time></trkpt><trkpt lat="45.19193" lon="7.3681883"><ele>1159.0</ele><time>2026-05-03T13:15:57.232Z</time></trkpt><trkpt lat="45.191885" lon="7.3680783"><ele>1159.0</ele><time>2026-05-03T13:15:58.231Z</time></trkpt><trkpt lat="45.1918533" lon="7.3679767"><ele>1159.0</ele><time>2026-05-03T13:15:59.232Z</time></trkpt><trkpt lat="45.1918217" lon="7.367875"><ele>1159.0</ele><time>2026-05-03T13:16:00.232Z</time></trkpt><trkpt lat="45.1917817" lon="7.3677817"><ele>1159.0</ele><time>2026-05-03T13:16:01.232Z</time></trkpt><trkpt lat="45.1917417" lon="7.36768"><ele>1159.0</ele><time>2026-05-03T13:16:02.231Z</time></trkpt><trkpt lat="45.1916883" lon="7.3675883"><ele>1158.2</ele><time>2026-05-03T13:16:03.232Z</time></trkpt><trkpt lat="45.19165" lon="7.3674967"><ele>1157.4</ele><time>2026-05-03T13:16:04.232Z</time></trkpt><trkpt lat="45.1915967" lon="7.3674"><ele>1156.6</ele><time>2026-05-03T13:16:05.232Z</time></trkpt><trkpt lat="45.1915383" lon="7.3673183"><ele>1155.8</ele><time>2026-05-03T13:16:06.231Z</time></trkpt><trkpt lat="45.19146" lon="7.3672183"><ele>1155.0</ele><time>2026-05-03T13:16:07.232Z</time></trkpt><trkpt lat="45.1913733" lon="7.3671133"><ele>1155.0</ele><time>2026-05-03T13:16:08.232Z</time></trkpt><trkpt lat="45.191295" lon="7.3670067"><ele>1155.0</ele><time>2026-05-03T13:16:09.232Z</time></trkpt><trkpt lat="45.1912233" lon="7.3669067"><ele>1155.0</ele><time>2026-05-03T13:16:10.232Z</time></trkpt><trkpt lat="45.191165" lon="7.3667917"><ele>1155.0</ele><time>2026-05-03T13:16:11.232Z</time></trkpt><trkpt lat="45.1911183" lon="7.3666733"><ele>1155.0</ele><time>2026-05-03T13:16:12.232Z</time></trkpt><trkpt lat="45.1910883" lon="7.3665483"><ele>1155.0</ele><time>2026-05-03T13:16:13.232Z</time></trkpt><trkpt lat="45.1910667" lon="7.3664083"><ele>1155.0</ele><time>2026-05-03T13:16:14.231Z</time></trkpt><trkpt lat="45.1910533" lon="7.3662583"><ele>1155.0</ele><time>2026-05-03T13:16:15.232Z</time></trkpt><trkpt lat="45.19105" lon="7.366095"><ele>1155.0</ele><time>2026-05-03T13:16:16.231Z</time></trkpt><trkpt lat="45.1910483" lon="7.3659283"><ele>1155.0</ele><time>2026-05-03T13:16:17.232Z</time></trkpt><trkpt lat="45.19105" lon="7.3657517"><ele>1157.25</ele><time>2026-05-03T13:16:18.232Z</time></trkpt><trkpt lat="45.1910517" lon="7.36557"><ele>1159.5</ele><time>2026-05-03T13:16:19.232Z</time></trkpt><trkpt lat="45.1910583" lon="7.3653833"><ele>1161.75</ele><time>2026-05-03T13:16:20.232Z</time></trkpt><trkpt lat="45.1910617" lon="7.3652"><ele>1164.0</ele><time>2026-05-03T13:16:21.232Z</time></trkpt><trkpt lat="45.1910583" lon="7.3650133"><ele>1165.0</ele><time>2026-05-03T13:16:22.232Z</time></trkpt><trkpt lat="45.1910417" lon="7.36482"><ele>1166.0</ele><time>2026-05-03T13:16:23.232Z</time></trkpt><trkpt lat="45.1910233" lon="7.3646267"><ele>1167.0</ele><time>2026-05-03T13:16:24.232Z</time></trkpt><trkpt lat="45.1909967" lon="7.36444"><ele>1168.0</ele><time>2026-05-03T13:16:25.232Z</time></trkpt><trkpt lat="45.1909783" lon="7.36426"><ele>1170.6</ele><time>2026-05-03T13:16:26.232Z</time></trkpt><trkpt lat="45.1909567" lon="7.36409"><ele>1173.1999999999998</ele><time>2026-05-03T13:16:27.232Z</time></trkpt><trkpt lat="45.190935" lon="7.3639333"><ele>1175.8</ele><time>2026-05-03T13:16:28.232Z</time></trkpt><trkpt lat="45.19091" lon="7.36379"><ele>1178.3999999999999</ele><time>2026-05-03T13:16:29.232Z</time></trkpt><trkpt lat="45.19087" lon="7.3636717"><ele>1181.0</ele><time>2026-05-03T13:16:30.232Z</time></trkpt><trkpt lat="45.19077" lon="7.3635867"><ele>1186.75</ele><time>2026-05-03T13:16:31.232Z</time></trkpt><trkpt lat="45.1906483" lon="7.3635467"><ele>1192.5</ele><time>2026-05-03T13:16:32.232Z</time></trkpt><trkpt lat="45.19053" lon="7.36352"><ele>1198.25</ele><time>2026-05-03T13:16:33.232Z</time></trkpt><trkpt lat="45.1904217" lon="7.3634883"><ele>1204.0</ele><time>2026-05-03T13:16:34.232Z</time></trkpt><trkpt lat="45.1903217" lon="7.3634683"><ele>1204.0</ele><time>2026-05-03T13:16:35.232Z</time></trkpt><trkpt lat="45.1902167" lon="7.3634917"><ele>1204.0</ele><time>2026-05-03T13:16:36.232Z</time></trkpt><trkpt lat="45.1901233" lon="7.3635617"><ele>1204.0</ele><time>2026-05-03T13:16:37.231Z</time></trkpt><trkpt lat="45.1900467" lon="7.363675"><ele>1204.0</ele><time>2026-05-03T13:16:38.232Z</time></trkpt><trkpt lat="45.1899817" lon="7.3638117"><ele>1204.0</ele><time>2026-05-03T13:16:39.231Z</time></trkpt><trkpt lat="45.1899133" lon="7.3639583"><ele>1208.25</ele><time>2026-05-03T13:16:40.232Z</time></trkpt><trkpt lat="45.1898417" lon="7.3640983"><ele>1212.5</ele><time>2026-05-03T13:16:41.231Z</time></trkpt><trkpt lat="45.1897583" lon="7.3642533"><ele>1216.75</ele><time>2026-05-03T13:16:42.232Z</time></trkpt><trkpt lat="45.1896783" lon="7.364425"><ele>1221.0</ele><time>2026-05-03T13:16:43.232Z</time></trkpt><trkpt lat="45.1896017" lon="7.3645917"><ele>1215.25</ele><time>2026-05-03T13:16:44.232Z</time></trkpt><trkpt lat="45.1895283" lon="7.36475"><ele>1209.5</ele><time>2026-05-03T13:16:45.232Z</time></trkpt><trkpt lat="45.1894567" lon="7.3649"><ele>1203.75</ele><time>2026-05-03T13:16:46.232Z</time></trkpt><trkpt lat="45.1893833" lon="7.3650433"><ele>1198.0</ele><time>2026-05-03T13:16:47.232Z</time></trkpt><trkpt lat="45.1893083" lon="7.365175"><ele>1198.0</ele><time>2026-05-03T13:16:48.232Z</time></trkpt><trkpt lat="45.18923" lon="7.365285"><ele>1198.0</ele><time>2026-05-03T13:16:49.232Z</time></trkpt><trkpt lat="45.1891333" lon="7.3653617"><ele>1198.0</ele><time>2026-05-03T13:16:50.232Z</time></trkpt><trkpt lat="45.1890233" lon="7.3654267"><ele>1198.0</ele><time>2026-05-03T13:16:51.232Z</time></trkpt><trkpt lat="45.1889133" lon="7.36545"><ele>1201.5</ele><time>2026-05-03T13:16:52.232Z</time></trkpt><trkpt lat="45.1888017" lon="7.365445"><ele>1205.0</ele><time>2026-05-03T13:16:53.232Z</time></trkpt><trkpt lat="45.1886883" lon="7.3654267"><ele>1208.5</ele><time>2026-05-03T13:16:54.232Z</time></trkpt><trkpt lat="45.18857" lon="7.3653933"><ele>1212.0</ele><time>2026-05-03T13:16:55.232Z</time></trkpt><trkpt lat="45.1884567" lon="7.3653433"><ele>1212.0</ele><time>2026-05-03T13:16:56.232Z</time></trkpt><trkpt lat="45.18833" lon="7.3652933"><ele>1212.0</ele><time>2026-05-03T13:16:57.232Z</time></trkpt><trkpt lat="45.1881967" lon="7.3652717"><ele>1212.0</ele><time>2026-05-03T13:16:58.232Z</time></trkpt><trkpt lat="45.1880667" lon="7.3652533"><ele>1212.0</ele><time>2026-05-03T13:16:59.232Z</time></trkpt><trkpt lat="45.187925" lon="7.3652583"><ele>1211.0</ele><time>2026-05-03T13:17:00.232Z</time></trkpt><trkpt lat="45.1877817" lon="7.36525"><ele>1210.0</ele><time>2026-05-03T13:17:01.232Z</time></trkpt><trkpt lat="45.18765" lon="7.3652483"><ele>1209.0</ele><time>2026-05-03T13:17:02.232Z</time></trkpt><trkpt lat="45.1875083" lon="7.3652733"><ele>1208.0</ele><time>2026-05-03T13:17:03.231Z</time></trkpt><trkpt lat="45.1873733" lon="7.3652833"><ele>1212.75</ele><time>2026-05-03T13:17:04.232Z</time></trkpt><trkpt lat="45.1872483" lon="7.3653017"><ele>1217.5</ele><time>2026-05-03T13:17:05.231Z</time></trkpt><trkpt lat="45.187135" lon="7.3653267"><ele>1222.25</ele><time>2026-05-03T13:17:06.232Z</time></trkpt><trkpt lat="45.1870267" lon="7.3654033"><ele>1227.0</ele><time>2026-05-03T13:17:07.232Z</time></trkpt><trkpt lat="45.1869283" lon="7.3655"><ele>1224.2</ele><time>2026-05-03T13:17:08.232Z</time></trkpt><trkpt lat="45.18685" lon="7.3656183"><ele>1221.4</ele><time>2026-05-03T13:17:09.232Z</time></trkpt><trkpt lat="45.186775" lon="7.3657317"><ele>1218.6</ele><time>2026-05-03T13:17:10.232Z</time></trkpt><trkpt lat="45.1867" lon="7.3658233"><ele>1215.8</ele><time>2026-05-03T13:17:11.232Z</time></trkpt><trkpt lat="45.186615" lon="7.3658933"><ele>1213.0</ele><time>2026-05-03T13:17:12.232Z</time></trkpt><trkpt lat="45.1865067" lon="7.365935"><ele>1213.0</ele><time>2026-05-03T13:17:13.232Z</time></trkpt><trkpt lat="45.1863917" lon="7.3659717"><ele>1213.0</ele><time>2026-05-03T13:17:14.232Z</time></trkpt><trkpt lat="45.1862783" lon="7.3660133"><ele>1213.0</ele><time>2026-05-03T13:17:15.232Z</time></trkpt><trkpt lat="45.18617" lon="7.3660317"><ele>1213.0</ele><time>2026-05-03T13:17:16.232Z</time></trkpt><trkpt lat="45.1860567" lon="7.366045"><ele>1213.0</ele><time>2026-05-03T13:17:17.232Z</time></trkpt><trkpt lat="45.185945" lon="7.366015"><ele>1213.0</ele><time>2026-05-03T13:17:18.232Z</time></trkpt><trkpt lat="45.1858433" lon="7.3659467"><ele>1213.0</ele><time>2026-05-03T13:17:19.232Z</time></trkpt><trkpt lat="45.1857417" lon="7.36588"><ele>1213.0</ele><time>2026-05-03T13:17:20.232Z</time></trkpt><trkpt lat="45.18563" lon="7.36583"><ele>1215.0</ele><time>2026-05-03T13:17:21.232Z</time></trkpt><trkpt lat="45.18551" lon="7.365765"><ele>1217.0</ele><time>2026-05-03T13:17:22.232Z</time></trkpt><trkpt lat="45.1853933" lon="7.3657017"><ele>1219.0</ele><time>2026-05-03T13:17:23.232Z</time></trkpt><trkpt lat="45.1852817" lon="7.3656617"><ele>1221.0</ele><time>2026-05-03T13:17:24.232Z</time></trkpt><trkpt lat="45.1851733" lon="7.3656367"><ele>1221.0</ele><time>2026-05-03T13:17:25.232Z</time></trkpt><trkpt lat="45.185075" lon="7.365645"><ele>1221.0</ele><time>2026-05-03T13:17:26.232Z</time></trkpt><trkpt lat="45.18499" lon="7.36571"><ele>1221.0</ele><time>2026-05-03T13:17:27.232Z</time></trkpt><trkpt lat="45.18492" lon="7.3657617"><ele>1221.0</ele><time>2026-05-03T13:17:28.232Z</time></trkpt><trkpt lat="45.1848567" lon="7.36588"><ele>1221.0</ele><time>2026-05-03T13:17:29.232Z</time></trkpt><trkpt lat="45.1848217" lon="7.3660383"><ele>1222.75</ele><time>2026-05-03T13:17:30.232Z</time></trkpt><trkpt lat="45.184815" lon="7.3661983"><ele>1224.5</ele><time>2026-05-03T13:17:31.232Z</time></trkpt><trkpt lat="45.184845" lon="7.366385"><ele>1226.25</ele><time>2026-05-03T13:17:32.232Z</time></trkpt><trkpt lat="45.1849083" lon="7.3666033"><ele>1228.0</ele><time>2026-05-03T13:17:33.232Z</time></trkpt><trkpt lat="45.1849833" lon="7.3668267"><ele>1228.0</ele><time>2026-05-03T13:17:34.232Z</time></trkpt><trkpt lat="45.1850467" lon="7.3670183"><ele>1228.0</ele><time>2026-05-03T13:17:35.232Z</time></trkpt><trkpt lat="45.1850783" lon="7.3671983"><ele>1228.0</ele><time>2026-05-03T13:17:36.232Z</time></trkpt><trkpt lat="45.1851017" lon="7.3673733"><ele>1228.0</ele><time>2026-05-03T13:17:37.231Z</time></trkpt><trkpt lat="45.1851017" lon="7.3675217"><ele>1230.0</ele><time>2026-05-03T13:17:38.232Z</time></trkpt><trkpt lat="45.185085" lon="7.36767"><ele>1232.0</ele><time>2026-05-03T13:17:39.232Z</time></trkpt><trkpt lat="45.185055" lon="7.3678233"><ele>1234.0</ele><time>2026-05-03T13:17:40.232Z</time></trkpt><trkpt lat="45.1850383" lon="7.3679883"><ele>1236.0</ele><time>2026-05-03T13:17:41.231Z</time></trkpt><trkpt lat="45.1850183" lon="7.36816"><ele>1236.5</ele><time>2026-05-03T13:17:42.232Z</time></trkpt><trkpt lat="45.18501" lon="7.3683283"><ele>1237.0</ele><time>2026-05-03T13:17:43.231Z</time></trkpt><trkpt lat="45.18505" lon="7.36849"><ele>1237.5</ele><time>2026-05-03T13:17:44.231Z</time></trkpt><trkpt lat="45.1851133" lon="7.3686367"><ele>1238.0</ele><time>2026-05-03T13:17:45.232Z</time></trkpt><trkpt lat="45.185205" lon="7.3687733"><ele>1240.5</ele><time>2026-05-03T13:17:46.232Z</time></trkpt><trkpt lat="45.18531" lon="7.3689167"><ele>1243.0</ele><time>2026-05-03T13:17:47.232Z</time></trkpt><trkpt lat="45.1854183" lon="7.3690667"><ele>1245.5</ele><time>2026-05-03T13:17:48.231Z</time></trkpt><trkpt lat="45.185515" lon="7.369215"><ele>1248.0</ele><time>2026-05-03T13:17:49.232Z</time></trkpt><trkpt lat="45.1855917" lon="7.3693683"><ele>1248.0</ele><time>2026-05-03T13:17:50.232Z</time></trkpt><trkpt lat="45.1856583" lon="7.36952"><ele>1248.0</ele><time>2026-05-03T13:17:51.232Z</time></trkpt><trkpt lat="45.185725" lon="7.3696683"><ele>1248.0</ele><time>2026-05-03T13:17:52.232Z</time></trkpt><trkpt lat="45.1857883" lon="7.3698167"><ele>1248.0</ele><time>2026-05-03T13:17:53.232Z</time></trkpt><trkpt lat="45.1858533" lon="7.369975"><ele>1248.5</ele><time>2026-05-03T13:17:54.232Z</time></trkpt><trkpt lat="45.1859183" lon="7.3701317"><ele>1249.0</ele><time>2026-05-03T13:17:55.232Z</time></trkpt><trkpt lat="45.1859783" lon="7.3702933"><ele>1249.5</ele><time>2026-05-03T13:17:56.232Z</time></trkpt><trkpt lat="45.1860333" lon="7.37045"><ele>1250.0</ele><time>2026-05-03T13:17:57.231Z</time></trkpt><trkpt lat="45.1860867" lon="7.3705933"><ele>1250.0</ele><time>2026-05-03T13:17:58.232Z</time></trkpt><trkpt lat="45.1861317" lon="7.370735"><ele>1250.0</ele><time>2026-05-03T13:17:59.232Z</time></trkpt><trkpt lat="45.1861617" lon="7.3708967"><ele>1250.0</ele><time>2026-05-03T13:18:00.231Z</time></trkpt><trkpt lat="45.1861583" lon="7.3710417"><ele>1250.0</ele><time>2026-05-03T13:18:01.232Z</time></trkpt><trkpt lat="45.1861317" lon="7.3711717"><ele>1250.0</ele><time>2026-05-03T13:18:02.232Z</time></trkpt><trkpt lat="45.186095" lon="7.3713033"><ele>1248.8</ele><time>2026-05-03T13:18:03.232Z</time></trkpt><trkpt lat="45.1860383" lon="7.371415"><ele>1247.6</ele><time>2026-05-03T13:18:04.232Z</time></trkpt><trkpt lat="45.1859517" lon="7.3715017"><ele>1246.4</ele><time>2026-05-03T13:18:05.232Z</time></trkpt><trkpt lat="45.1858783" lon="7.3715817"><ele>1245.2</ele><time>2026-05-03T13:18:06.232Z</time></trkpt><trkpt lat="45.18578" lon="7.3716383"><ele>1244.0</ele><time>2026-05-03T13:18:07.232Z</time></trkpt><trkpt lat="45.1856733" lon="7.3716783"><ele>1244.0</ele><time>2026-05-03T13:18:08.232Z</time></trkpt><trkpt lat="45.185565" lon="7.3717133"><ele>1244.0</ele><time>2026-05-03T13:18:09.232Z</time></trkpt><trkpt lat="45.1854583" lon="7.3717383"><ele>1244.0</ele><time>2026-05-03T13:18:10.232Z</time></trkpt><trkpt lat="45.185345" lon="7.371755"><ele>1244.0</ele><time>2026-05-03T13:18:11.232Z</time></trkpt><trkpt lat="45.1852217" lon="7.3717667"><ele>1244.0</ele><time>2026-05-03T13:18:12.232Z</time></trkpt><trkpt lat="45.1851183" lon="7.3717717"><ele>1244.0</ele><time>2026-05-03T13:18:13.231Z</time></trkpt><trkpt lat="45.1850283" lon="7.3717533"><ele>1244.0</ele><time>2026-05-03T13:18:14.232Z</time></trkpt><trkpt lat="45.184925" lon="7.3717283"><ele>1244.0</ele><time>2026-05-03T13:18:15.232Z</time></trkpt><trkpt lat="45.18482" lon="7.3716917"><ele>1244.0</ele><time>2026-05-03T13:18:16.232Z</time></trkpt><trkpt lat="45.1847183" lon="7.3716433"><ele>1242.4</ele><time>2026-05-03T13:18:17.232Z</time></trkpt><trkpt lat="45.1846133" lon="7.3715917"><ele>1240.8000000000002</ele><time>2026-05-03T13:18:18.232Z</time></trkpt><trkpt lat="45.184505" lon="7.371535"><ele>1239.1999999999998</ele><time>2026-05-03T13:18:19.232Z</time></trkpt><trkpt lat="45.1844017" lon="7.371485"><ele>1237.6</ele><time>2026-05-03T13:18:20.232Z</time></trkpt><trkpt lat="45.1842967" lon="7.3714417"><ele>1236.0</ele><time>2026-05-03T13:18:21.232Z</time></trkpt><trkpt lat="45.1841867" lon="7.371395"><ele>1239.25</ele><time>2026-05-03T13:18:22.232Z</time></trkpt><trkpt lat="45.1840733" lon="7.3713533"><ele>1242.5</ele><time>2026-05-03T13:18:23.232Z</time></trkpt><trkpt lat="45.1839517" lon="7.3712967"><ele>1245.75</ele><time>2026-05-03T13:18:24.232Z</time></trkpt><trkpt lat="45.1838417" lon="7.3712367"><ele>1249.0</ele><time>2026-05-03T13:18:25.232Z</time></trkpt><trkpt lat="45.18374" lon="7.3711767"><ele>1249.0</ele><time>2026-05-03T13:18:26.231Z</time></trkpt><trkpt lat="45.18364" lon="7.3711167"><ele>1249.0</ele><time>2026-05-03T13:18:27.231Z</time></trkpt><trkpt lat="45.183535" lon="7.3710667"><ele>1249.0</ele><time>2026-05-03T13:18:28.231Z</time></trkpt><trkpt lat="45.1834417" lon="7.37101"><ele>1249.0</ele><time>2026-05-03T13:18:29.232Z</time></trkpt><trkpt lat="45.18334" lon="7.3709767"><ele>1249.0</ele><time>2026-05-03T13:18:30.232Z</time></trkpt><trkpt lat="45.1832433" lon="7.370925"><ele>1249.5</ele><time>2026-05-03T13:18:31.232Z</time></trkpt><trkpt lat="45.1831367" lon="7.37087"><ele>1250.0</ele><time>2026-05-03T13:18:32.232Z</time></trkpt><trkpt lat="45.1830317" lon="7.37083"><ele>1250.5</ele><time>2026-05-03T13:18:33.232Z</time></trkpt><trkpt lat="45.18292" lon="7.3708117"><ele>1251.0</ele><time>2026-05-03T13:18:34.231Z</time></trkpt><trkpt lat="45.1828" lon="7.3708"><ele>1251.0</ele><time>2026-05-03T13:18:35.232Z</time></trkpt><trkpt lat="45.182665" lon="7.3708033"><ele>1251.0</ele><time>2026-05-03T13:18:36.232Z</time></trkpt><trkpt lat="45.182535" lon="7.3708117"><ele>1251.0</ele><time>2026-05-03T13:18:37.232Z</time></trkpt><trkpt lat="45.18241" lon="7.37083"><ele>1251.0</ele><time>2026-05-03T13:18:38.232Z</time></trkpt><trkpt lat="45.1822933" lon="7.37085"><ele>1252.6</ele><time>2026-05-03T13:18:39.232Z</time></trkpt><trkpt lat="45.1821917" lon="7.370875"><ele>1254.1999999999998</ele><time>2026-05-03T13:18:40.232Z</time></trkpt><trkpt lat="45.18211" lon="7.3709217"><ele>1255.8000000000002</ele><time>2026-05-03T13:18:41.232Z</time></trkpt><trkpt lat="45.1820333" lon="7.3710317"><ele>1257.4</ele><time>2026-05-03T13:18:42.233Z</time></trkpt><trkpt lat="45.18198" lon="7.37118"><ele>1259.0</ele><time>2026-05-03T13:18:43.233Z</time></trkpt><trkpt lat="45.18196" lon="7.3713433"><ele>1257.5</ele><time>2026-05-03T13:18:44.233Z</time></trkpt><trkpt lat="45.18196" lon="7.3714983"><ele>1256.0</ele><time>2026-05-03T13:18:45.233Z</time></trkpt><trkpt lat="45.1819883" lon="7.3716467"><ele>1254.5</ele><time>2026-05-03T13:18:46.233Z</time></trkpt><trkpt lat="45.18205" lon="7.3718117"><ele>1253.0</ele><time>2026-05-03T13:18:47.233Z</time></trkpt><trkpt lat="45.1821433" lon="7.372"><ele>1253.0</ele><time>2026-05-03T13:18:48.233Z</time></trkpt><trkpt lat="45.1822417" lon="7.37218"><ele>1253.0</ele><time>2026-05-03T13:18:49.233Z</time></trkpt><trkpt lat="45.1823133" lon="7.3723267"><ele>1253.0</ele><time>2026-05-03T13:18:50.233Z</time></trkpt><trkpt lat="45.1823783" lon="7.3724683"><ele>1253.0</ele><time>2026-05-03T13:18:51.233Z</time></trkpt><trkpt lat="45.1824433" lon="7.372605"><ele>1253.0</ele><time>2026-05-03T13:18:52.232Z</time></trkpt><trkpt lat="45.1824933" lon="7.3727533"><ele>1253.0</ele><time>2026-05-03T13:18:53.232Z</time></trkpt><trkpt lat="45.1825433" lon="7.3729067"><ele>1253.0</ele><time>2026-05-03T13:18:54.233Z</time></trkpt><trkpt lat="45.1825867" lon="7.37307"><ele>1253.0</ele><time>2026-05-03T13:18:55.233Z</time></trkpt><trkpt lat="45.18262" lon="7.3732417"><ele>1253.0</ele><time>2026-05-03T13:18:56.233Z</time></trkpt><trkpt lat="45.1826467" lon="7.3734083"><ele>1253.0</ele><time>2026-05-03T13:18:57.233Z</time></trkpt><trkpt lat="45.1826733" lon="7.37358"><ele>1253.0</ele><time>2026-05-03T13:18:58.233Z</time></trkpt><trkpt lat="45.1827017" lon="7.3737617"><ele>1253.0</ele><time>2026-05-03T13:18:59.233Z</time></trkpt><trkpt lat="45.1827217" lon="7.3739533"><ele>1254.5</ele><time>2026-05-03T13:19:00.233Z</time></trkpt><trkpt lat="45.182745" lon="7.3741333"><ele>1256.0</ele><time>2026-05-03T13:19:01.233Z</time></trkpt><trkpt lat="45.1827433" lon="7.3743283"><ele>1257.5</ele><time>2026-05-03T13:19:02.233Z</time></trkpt><trkpt lat="45.1827367" lon="7.3745017"><ele>1259.0</ele><time>2026-05-03T13:19:03.233Z</time></trkpt><trkpt lat="45.182705" lon="7.3746517"><ele>1257.75</ele><time>2026-05-03T13:19:04.233Z</time></trkpt><trkpt lat="45.182635" lon="7.3747667"><ele>1256.5</ele><time>2026-05-03T13:19:05.233Z</time></trkpt><trkpt lat="45.1825467" lon="7.374845"><ele>1255.25</ele><time>2026-05-03T13:19:06.233Z</time></trkpt><trkpt lat="45.1824267" lon="7.3748883"><ele>1254.0</ele><time>2026-05-03T13:19:07.233Z</time></trkpt><trkpt lat="45.1822983" lon="7.3749233"><ele>1261.25</ele><time>2026-05-03T13:19:08.233Z</time></trkpt><trkpt lat="45.1821667" lon="7.3749533"><ele>1268.5</ele><time>2026-05-03T13:19:09.233Z</time></trkpt><trkpt lat="45.1820483" lon="7.3749817"><ele>1275.75</ele><time>2026-05-03T13:19:10.233Z</time></trkpt><trkpt lat="45.1819367" lon="7.37503"><ele>1283.0</ele><time>2026-05-03T13:19:11.233Z</time></trkpt><trkpt lat="45.1818317" lon="7.3751183"><ele>1283.0</ele><time>2026-05-03T13:19:12.233Z</time></trkpt><trkpt lat="45.1817283" lon="7.375235"><ele>1283.0</ele><time>2026-05-03T13:19:13.233Z</time></trkpt><trkpt lat="45.1816567" lon="7.3753733"><ele>1283.0</ele><time>2026-05-03T13:19:14.233Z</time></trkpt><trkpt lat="45.1816017" lon="7.375535"><ele>1283.0</ele><time>2026-05-03T13:19:15.233Z</time></trkpt><trkpt lat="45.18155" lon="7.3757167"><ele>1285.75</ele><time>2026-05-03T13:19:16.233Z</time></trkpt><trkpt lat="45.181495" lon="7.375895"><ele>1288.5</ele><time>2026-05-03T13:19:17.233Z</time></trkpt><trkpt lat="45.1814483" lon="7.3760833"><ele>1291.25</ele><time>2026-05-03T13:19:18.233Z</time></trkpt><trkpt lat="45.18142" lon="7.3762667"><ele>1294.0</ele><time>2026-05-03T13:19:19.233Z</time></trkpt><trkpt lat="45.1814" lon="7.3764533"><ele>1294.0</ele><time>2026-05-03T13:19:20.233Z</time></trkpt><trkpt lat="45.1813967" lon="7.3766517"><ele>1294.0</ele><time>2026-05-03T13:19:21.233Z</time></trkpt><trkpt lat="45.18141" lon="7.3768583"><ele>1294.0</ele><time>2026-05-03T13:19:22.233Z</time></trkpt><trkpt lat="45.1814317" lon="7.3770733"><ele>1294.0</ele><time>2026-05-03T13:19:23.233Z</time></trkpt><trkpt lat="45.1814567" lon="7.3772733"><ele>1295.5</ele><time>2026-05-03T13:19:24.233Z</time></trkpt><trkpt lat="45.1814667" lon="7.37747"><ele>1297.0</ele><time>2026-05-03T13:19:25.233Z</time></trkpt><trkpt lat="45.1814733" lon="7.3776617"><ele>1298.5</ele><time>2026-05-03T13:19:26.233Z</time></trkpt><trkpt lat="45.181475" lon="7.377855"><ele>1300.0</ele><time>2026-05-03T13:19:27.233Z</time></trkpt><trkpt lat="45.1814683" lon="7.378055"><ele>1300.0</ele><time>2026-05-03T13:19:28.233Z</time></trkpt><trkpt lat="45.1814233" lon="7.3782567"><ele>1300.0</ele><time>2026-05-03T13:19:29.233Z</time></trkpt><trkpt lat="45.1813683" lon="7.3784483"><ele>1300.0</ele><time>2026-05-03T13:19:30.233Z</time></trkpt><trkpt lat="45.1813233" lon="7.3786567"><ele>1300.0</ele><time>2026-05-03T13:19:31.233Z</time></trkpt><trkpt lat="45.18127" lon="7.37886"><ele>1300.0</ele><time>2026-05-03T13:19:32.233Z</time></trkpt><trkpt lat="45.1812233" lon="7.3790567"><ele>1300.0</ele><time>2026-05-03T13:19:33.232Z</time></trkpt><trkpt lat="45.181185" lon="7.3792633"><ele>1300.0</ele><time>2026-05-03T13:19:34.233Z</time></trkpt><trkpt lat="45.1811467" lon="7.379435"><ele>1300.0</ele><time>2026-05-03T13:19:35.233Z</time></trkpt><trkpt lat="45.18111" lon="7.3795883"><ele>1298.0</ele><time>2026-05-03T13:19:36.233Z</time></trkpt><trkpt lat="45.1810567" lon="7.3797217"><ele>1296.0</ele><time>2026-05-03T13:19:37.233Z</time></trkpt><trkpt lat="45.180995" lon="7.379825"><ele>1294.0</ele><time>2026-05-03T13:19:38.233Z</time></trkpt><trkpt lat="45.1809133" lon="7.3798917"><ele>1292.0</ele><time>2026-05-03T13:19:39.233Z</time></trkpt><trkpt lat="45.180815" lon="7.3799283"><ele>1290.0</ele><time>2026-05-03T13:19:40.233Z</time></trkpt><trkpt lat="45.180695" lon="7.3799233"><ele>1294.0</ele><time>2026-05-03T13:19:41.233Z</time></trkpt><trkpt lat="45.1805667" lon="7.37992"><ele>1298.0</ele><time>2026-05-03T13:19:42.233Z</time></trkpt><trkpt lat="45.1804383" lon="7.379915"><ele>1302.0</ele><time>2026-05-03T13:19:43.233Z</time></trkpt><trkpt lat="45.1803033" lon="7.3799133"><ele>1306.0</ele><time>2026-05-03T13:19:44.233Z</time></trkpt><trkpt lat="45.1801683" lon="7.3799283"><ele>1306.0</ele><time>2026-05-03T13:19:45.233Z</time></trkpt><trkpt lat="45.1800433" lon="7.3799467"><ele>1306.0</ele><time>2026-05-03T13:19:46.233Z</time></trkpt><trkpt lat="45.1799217" lon="7.3799883"><ele>1306.0</ele><time>2026-05-03T13:19:47.232Z</time></trkpt><trkpt lat="45.1798083" lon="7.380045"><ele>1306.0</ele><time>2026-05-03T13:19:48.232Z</time></trkpt><trkpt lat="45.1796933" lon="7.380125"><ele>1305.25</ele><time>2026-05-03T13:19:49.233Z</time></trkpt><trkpt lat="45.179585" lon="7.3802267"><ele>1304.5</ele><time>2026-05-03T13:19:50.232Z</time></trkpt><trkpt lat="45.1794783" lon="7.3803467"><ele>1303.75</ele><time>2026-05-03T13:19:51.233Z</time></trkpt><trkpt lat="45.179365" lon="7.3804867"><ele>1303.0</ele><time>2026-05-03T13:19:52.233Z</time></trkpt><trkpt lat="45.1792483" lon="7.3806317"><ele>1303.0</ele><time>2026-05-03T13:19:53.233Z</time></trkpt><trkpt lat="45.1791283" lon="7.38078"><ele>1303.0</ele><time>2026-05-03T13:19:54.233Z</time></trkpt><trkpt lat="45.1790083" lon="7.38094"><ele>1303.0</ele><time>2026-05-03T13:19:55.232Z</time></trkpt><trkpt lat="45.1788917" lon="7.3811533"><ele>1305.0</ele><time>2026-05-03T13:19:56.233Z</time></trkpt><trkpt lat="45.1787767" lon="7.3813483"><ele>1307.0</ele><time>2026-05-03T13:19:57.233Z</time></trkpt><trkpt lat="45.17867" lon="7.3815233"><ele>1309.0</ele><time>2026-05-03T13:19:58.233Z</time></trkpt><trkpt lat="45.1785567" lon="7.3816733"><ele>1309.0</ele><time>2026-05-03T13:19:59.232Z</time></trkpt><trkpt lat="45.1784567" lon="7.3818117"><ele>1309.0</ele><time>2026-05-03T13:20:00.232Z</time></trkpt><trkpt lat="45.178365" lon="7.3819433"><ele>1309.0</ele><time>2026-05-03T13:20:01.233Z</time></trkpt><trkpt lat="45.1782683" lon="7.3820733"><ele>1309.0</ele><time>2026-05-03T13:20:02.233Z</time></trkpt><trkpt lat="45.1781667" lon="7.3822017"><ele>1308.25</ele><time>2026-05-03T13:20:03.233Z</time></trkpt><trkpt lat="45.17808" lon="7.3823333"><ele>1307.5</ele><time>2026-05-03T13:20:04.233Z</time></trkpt><trkpt lat="45.1779817" lon="7.38245"><ele>1306.75</ele><time>2026-05-03T13:20:05.233Z</time></trkpt><trkpt lat="45.177885" lon="7.382585"><ele>1306.0</ele><time>2026-05-03T13:20:06.233Z</time></trkpt><trkpt lat="45.1777867" lon="7.3827083"><ele>1306.0</ele><time>2026-05-03T13:20:07.233Z</time></trkpt><trkpt lat="45.17769" lon="7.3828317"><ele>1306.0</ele><time>2026-05-03T13:20:08.233Z</time></trkpt><trkpt lat="45.177585" lon="7.3829667"><ele>1306.0</ele><time>2026-05-03T13:20:09.233Z</time></trkpt><trkpt lat="45.1774817" lon="7.3831083"><ele>1306.0</ele><time>2026-05-03T13:20:10.233Z</time></trkpt><trkpt lat="45.1773783" lon="7.38327"><ele>1297.6666666666665</ele><time>2026-05-03T13:20:11.233Z</time></trkpt><trkpt lat="45.1772733" lon="7.383435"><ele>1289.3333333333333</ele><time>2026-05-03T13:20:12.233Z</time></trkpt><trkpt lat="45.177175" lon="7.3836133"><ele>1281.0</ele><time>2026-05-03T13:20:13.232Z</time></trkpt><trkpt lat="45.1770767" lon="7.383805"><ele>1285.0</ele><time>2026-05-03T13:20:14.233Z</time></trkpt><trkpt lat="45.1769717" lon="7.3839967"><ele>1289.0</ele><time>2026-05-03T13:20:15.233Z</time></trkpt><trkpt lat="45.1768817" lon="7.3841767"><ele>1293.0</ele><time>2026-05-03T13:20:16.233Z</time></trkpt><trkpt lat="45.17678" lon="7.3843583"><ele>1293.0</ele><time>2026-05-03T13:20:17.233Z</time></trkpt><trkpt lat="45.17668" lon="7.384525"><ele>1293.0</ele><time>2026-05-03T13:20:18.233Z</time></trkpt><trkpt lat="45.17655" lon="7.3846917"><ele>1293.0</ele><time>2026-05-03T13:20:19.233Z</time></trkpt><trkpt lat="45.17643" lon="7.3848467"><ele>1286.6666666666667</ele><time>2026-05-03T13:20:20.233Z</time></trkpt><trkpt lat="45.1763083" lon="7.3850217"><ele>1280.3333333333335</ele><time>2026-05-03T13:20:21.233Z</time></trkpt><trkpt lat="45.176185" lon="7.3851967"><ele>1274.0</ele><time>2026-05-03T13:20:22.233Z</time></trkpt><trkpt lat="45.17606" lon="7.38537"><ele>1280.0</ele><time>2026-05-03T13:20:23.233Z</time></trkpt><trkpt lat="45.1759333" lon="7.3855433"><ele>1286.0</ele><time>2026-05-03T13:20:24.233Z</time></trkpt><trkpt lat="45.1758167" lon="7.385715"><ele>1292.0</ele><time>2026-05-03T13:20:25.233Z</time></trkpt><trkpt lat="45.1756933" lon="7.38587"><ele>1286.6666666666667</ele><time>2026-05-03T13:20:26.233Z</time></trkpt><trkpt lat="45.17558" lon="7.3860417"><ele>1281.3333333333333</ele><time>2026-05-03T13:20:27.233Z</time></trkpt><trkpt lat="45.1754617" lon="7.3862133"><ele>1276.0</ele><time>2026-05-03T13:20:28.233Z</time></trkpt><trkpt lat="45.1753433" lon="7.386365"><ele>1276.0</ele><time>2026-05-03T13:20:29.233Z</time></trkpt><trkpt lat="45.1752317" lon="7.3865217"><ele>1276.0</ele><time>2026-05-03T13:20:30.233Z</time></trkpt><trkpt lat="45.175115" lon="7.3866617"><ele>1276.0</ele><time>2026-05-03T13:20:31.233Z</time></trkpt><trkpt lat="45.1749967" lon="7.386795"><ele>1276.0</ele><time>2026-05-03T13:20:32.233Z</time></trkpt><trkpt lat="45.1748883" lon="7.3869267"><ele>1276.0</ele><time>2026-05-03T13:20:33.233Z</time></trkpt><trkpt lat="45.174765" lon="7.38706"><ele>1276.0</ele><time>2026-05-03T13:20:34.232Z</time></trkpt><trkpt lat="45.1746383" lon="7.3871883"><ele>1272.75</ele><time>2026-05-03T13:20:35.233Z</time></trkpt><trkpt lat="45.1745267" lon="7.3873167"><ele>1269.5</ele><time>2026-05-03T13:20:36.233Z</time></trkpt><trkpt lat="45.1744167" lon="7.3874367"><ele>1266.25</ele><time>2026-05-03T13:20:37.233Z</time></trkpt><trkpt lat="45.1743183" lon="7.3875583"><ele>1263.0</ele><time>2026-05-03T13:20:38.233Z</time></trkpt><trkpt lat="45.1742333" lon="7.3876733"><ele>1263.0</ele><time>2026-05-03T13:20:39.233Z</time></trkpt><trkpt lat="45.1741567" lon="7.3877767"><ele>1263.0</ele><time>2026-05-03T13:20:40.232Z</time></trkpt><trkpt lat="45.1740867" lon="7.3878717"><ele>1263.0</ele><time>2026-05-03T13:20:41.233Z</time></trkpt><trkpt lat="45.1740183" lon="7.3879417"><ele>1263.0</ele><time>2026-05-03T13:20:42.233Z</time></trkpt><trkpt lat="45.1739117" lon="7.3879717"><ele>1263.0</ele><time>2026-05-03T13:20:44.233Z</time></trkpt><trkpt lat="45.1739017" lon="7.387855"><ele>1263.0</ele><time>2026-05-03T13:20:46.233Z</time></trkpt><trkpt lat="45.173945" lon="7.3877483"><ele>1263.0</ele><time>2026-05-03T13:20:47.233Z</time></trkpt><trkpt lat="45.174025" lon="7.3876283"><ele>1263.0</ele><time>2026-05-03T13:20:48.233Z</time></trkpt><trkpt lat="45.1741117" lon="7.3875267"><ele>1263.0</ele><time>2026-05-03T13:20:49.233Z</time></trkpt><trkpt lat="45.1741967" lon="7.38741"><ele>1263.0</ele><time>2026-05-03T13:20:50.233Z</time></trkpt><trkpt lat="45.1742767" lon="7.3872783"><ele>1258.75</ele><time>2026-05-03T13:20:51.233Z</time></trkpt><trkpt lat="45.1743517" lon="7.3871417"><ele>1254.5</ele><time>2026-05-03T13:20:52.232Z</time></trkpt><trkpt lat="45.1744183" lon="7.3869883"><ele>1250.25</ele><time>2026-05-03T13:20:53.233Z</time></trkpt><trkpt lat="45.1744717" lon="7.3868317"><ele>1246.0</ele><time>2026-05-03T13:20:54.233Z</time></trkpt><trkpt lat="45.1745267" lon="7.3866817"><ele>1246.0</ele><time>2026-05-03T13:20:55.233Z</time></trkpt><trkpt lat="45.17458" lon="7.3865283"><ele>1246.0</ele><time>2026-05-03T13:20:56.233Z</time></trkpt><trkpt lat="45.1746417" lon="7.3863783"><ele>1246.0</ele><time>2026-05-03T13:20:57.233Z</time></trkpt><trkpt lat="45.174705" lon="7.3862217"><ele>1246.0</ele><time>2026-05-03T13:20:58.233Z</time></trkpt><trkpt lat="45.174765" lon="7.38607"><ele>1244.25</ele><time>2026-05-03T13:20:59.233Z</time></trkpt><trkpt lat="45.1748267" lon="7.385925"><ele>1242.5</ele><time>2026-05-03T13:21:00.233Z</time></trkpt><trkpt lat="45.1748933" lon="7.3857817"><ele>1240.75</ele><time>2026-05-03T13:21:01.233Z</time></trkpt><trkpt lat="45.1749633" lon="7.3856383"><ele>1239.0</ele><time>2026-05-03T13:21:02.233Z</time></trkpt><trkpt lat="45.1750167" lon="7.385485"><ele>1239.0</ele><time>2026-05-03T13:21:03.233Z</time></trkpt><trkpt lat="45.175075" lon="7.38532"><ele>1239.0</ele><time>2026-05-03T13:21:04.233Z</time></trkpt><trkpt lat="45.1751283" lon="7.3851733"><ele>1239.0</ele><time>2026-05-03T13:21:05.232Z</time></trkpt><trkpt lat="45.1751867" lon="7.38501"><ele>1239.0</ele><time>2026-05-03T13:21:06.233Z</time></trkpt><trkpt lat="45.17522" lon="7.3848433"><ele>1234.5</ele><time>2026-05-03T13:21:07.233Z</time></trkpt><trkpt lat="45.1752583" lon="7.3846767"><ele>1230.0</ele><time>2026-05-03T13:21:08.233Z</time></trkpt><trkpt lat="45.1753" lon="7.384505"><ele>1225.5</ele><time>2026-05-03T13:21:09.233Z</time></trkpt><trkpt lat="45.175355" lon="7.384335"><ele>1221.0</ele><time>2026-05-03T13:21:10.233Z</time></trkpt><trkpt lat="45.1754017" lon="7.3841517"><ele>1221.0</ele><time>2026-05-03T13:21:11.233Z</time></trkpt><trkpt lat="45.17544" lon="7.3839617"><ele>1221.0</ele><time>2026-05-03T13:21:12.232Z</time></trkpt><trkpt lat="45.17546" lon="7.3837733"><ele>1221.0</ele><time>2026-05-03T13:21:13.233Z</time></trkpt><trkpt lat="45.1754533" lon="7.3835667"><ele>1221.0</ele><time>2026-05-03T13:21:14.233Z</time></trkpt><trkpt lat="45.1754333" lon="7.3833667"><ele>1217.75</ele><time>2026-05-03T13:21:15.233Z</time></trkpt><trkpt lat="45.1754" lon="7.383175"><ele>1214.5</ele><time>2026-05-03T13:21:16.233Z</time></trkpt><trkpt lat="45.1753633" lon="7.3829833"><ele>1211.25</ele><time>2026-05-03T13:21:17.233Z</time></trkpt><trkpt lat="45.1753283" lon="7.3828017"><ele>1208.0</ele><time>2026-05-03T13:21:18.232Z</time></trkpt><trkpt lat="45.1753017" lon="7.3826083"><ele>1208.0</ele><time>2026-05-03T13:21:19.233Z</time></trkpt><trkpt lat="45.1752917" lon="7.3824283"><ele>1208.0</ele><time>2026-05-03T13:21:20.233Z</time></trkpt><trkpt lat="45.17528" lon="7.3822483"><ele>1208.0</ele><time>2026-05-03T13:21:21.233Z</time></trkpt><trkpt lat="45.1752767" lon="7.3820667"><ele>1208.0</ele><time>2026-05-03T13:21:22.233Z</time></trkpt><trkpt lat="45.1752733" lon="7.381895"><ele>1207.5</ele><time>2026-05-03T13:21:23.232Z</time></trkpt><trkpt lat="45.1752733" lon="7.3817067"><ele>1207.0</ele><time>2026-05-03T13:21:24.233Z</time></trkpt><trkpt lat="45.1752717" lon="7.3815233"><ele>1206.5</ele><time>2026-05-03T13:21:25.233Z</time></trkpt><trkpt lat="45.175265" lon="7.3813367"><ele>1206.0</ele><time>2026-05-03T13:21:26.232Z</time></trkpt><trkpt lat="45.1752467" lon="7.3811567"><ele>1204.0</ele><time>2026-05-03T13:21:27.233Z</time></trkpt><trkpt lat="45.1752317" lon="7.380975"><ele>1202.0</ele><time>2026-05-03T13:21:28.233Z</time></trkpt><trkpt lat="45.175225" lon="7.3807933"><ele>1200.0</ele><time>2026-05-03T13:21:29.233Z</time></trkpt><trkpt lat="45.1752033" lon="7.3806017"><ele>1198.0</ele><time>2026-05-03T13:21:30.233Z</time></trkpt><trkpt lat="45.1751783" lon="7.38039"><ele>1198.0</ele><time>2026-05-03T13:21:31.233Z</time></trkpt><trkpt lat="45.17515" lon="7.380185"><ele>1198.0</ele><time>2026-05-03T13:21:32.233Z</time></trkpt><trkpt lat="45.1751167" lon="7.3799717"><ele>1198.0</ele><time>2026-05-03T13:21:33.233Z</time></trkpt><trkpt lat="45.1750817" lon="7.3797717"><ele>1198.0</ele><time>2026-05-03T13:21:34.232Z</time></trkpt><trkpt lat="45.1750617" lon="7.3795817"><ele>1198.0</ele><time>2026-05-03T13:21:35.233Z</time></trkpt><trkpt lat="45.175035" lon="7.3793833"><ele>1198.0</ele><time>2026-05-03T13:21:36.232Z</time></trkpt><trkpt lat="45.1750167" lon="7.3791867"><ele>1198.0</ele><time>2026-05-03T13:21:37.232Z</time></trkpt><trkpt lat="45.1749933" lon="7.3790033"><ele>1198.0</ele><time>2026-05-03T13:21:38.233Z</time></trkpt><trkpt lat="45.17497" lon="7.378815"><ele>1199.0</ele><time>2026-05-03T13:21:39.233Z</time></trkpt><trkpt lat="45.1749367" lon="7.37863"><ele>1200.0</ele><time>2026-05-03T13:21:40.233Z</time></trkpt><trkpt lat="45.1748967" lon="7.3784567"><ele>1201.0</ele><time>2026-05-03T13:21:41.233Z</time></trkpt><trkpt lat="45.17484" lon="7.3782933"><ele>1202.0</ele><time>2026-05-03T13:21:42.233Z</time></trkpt><trkpt lat="45.1747617" lon="7.37816"><ele>1202.5</ele><time>2026-05-03T13:21:43.233Z</time></trkpt><trkpt lat="45.1746583" lon="7.3780517"><ele>1203.0</ele><time>2026-05-03T13:21:44.233Z</time></trkpt><trkpt lat="45.1745383" lon="7.377945"><ele>1203.5</ele><time>2026-05-03T13:21:45.232Z</time></trkpt><trkpt lat="45.17441" lon="7.3779033"><ele>1204.0</ele><time>2026-05-03T13:21:46.232Z</time></trkpt><trkpt lat="45.17426" lon="7.377915"><ele>1204.0</ele><time>2026-05-03T13:21:47.233Z</time></trkpt><trkpt lat="45.1741083" lon="7.3779533"><ele>1204.0</ele><time>2026-05-03T13:21:48.232Z</time></trkpt><trkpt lat="45.173955" lon="7.37798"><ele>1204.0</ele><time>2026-05-03T13:21:49.233Z</time></trkpt><trkpt lat="45.1738083" lon="7.3780183"><ele>1198.5</ele><time>2026-05-03T13:21:50.233Z</time></trkpt><trkpt lat="45.17368" lon="7.3780467"><ele>1193.0</ele><time>2026-05-03T13:21:51.233Z</time></trkpt><trkpt lat="45.17357" lon="7.3780283"><ele>1187.5</ele><time>2026-05-03T13:21:52.232Z</time></trkpt><trkpt lat="45.1734567" lon="7.377995"><ele>1182.0</ele><time>2026-05-03T13:21:53.233Z</time></trkpt><trkpt lat="45.1733667" lon="7.377905"><ele>1182.0</ele><time>2026-05-03T13:21:54.233Z</time></trkpt><trkpt lat="45.173295" lon="7.377785"><ele>1182.0</ele><time>2026-05-03T13:21:55.233Z</time></trkpt><trkpt lat="45.1732233" lon="7.3776467"><ele>1182.0</ele><time>2026-05-03T13:21:56.233Z</time></trkpt><trkpt lat="45.17315" lon="7.3775367"><ele>1182.0</ele><time>2026-05-03T13:21:57.233Z</time></trkpt><trkpt lat="45.173055" lon="7.377455"><ele>1178.25</ele><time>2026-05-03T13:21:58.233Z</time></trkpt><trkpt lat="45.17295" lon="7.377405"><ele>1174.5</ele><time>2026-05-03T13:21:59.233Z</time></trkpt><trkpt lat="45.1728267" lon="7.3773667"><ele>1170.75</ele><time>2026-05-03T13:22:00.233Z</time></trkpt><trkpt lat="45.1727133" lon="7.37734"><ele>1167.0</ele><time>2026-05-03T13:22:01.233Z</time></trkpt><trkpt lat="45.1725983" lon="7.37732"><ele>1167.0</ele><time>2026-05-03T13:22:02.233Z</time></trkpt><trkpt lat="45.1724933" lon="7.3772883"><ele>1167.0</ele><time>2026-05-03T13:22:03.232Z</time></trkpt><trkpt lat="45.1723933" lon="7.3772417"><ele>1167.0</ele><time>2026-05-03T13:22:04.233Z</time></trkpt><trkpt lat="45.172295" lon="7.3771817"><ele>1167.0</ele><time>2026-05-03T13:22:05.233Z</time></trkpt><trkpt lat="45.1722033" lon="7.3771333"><ele>1167.0</ele><time>2026-05-03T13:22:06.233Z</time></trkpt><trkpt lat="45.1721167" lon="7.3770417"><ele>1163.25</ele><time>2026-05-03T13:22:07.232Z</time></trkpt><trkpt lat="45.1720367" lon="7.3769367"><ele>1159.5</ele><time>2026-05-03T13:22:08.233Z</time></trkpt><trkpt lat="45.17197" lon="7.3768"><ele>1155.75</ele><time>2026-05-03T13:22:09.233Z</time></trkpt><trkpt lat="45.1719133" lon="7.3766417"><ele>1152.0</ele><time>2026-05-03T13:22:10.233Z</time></trkpt><trkpt lat="45.1718567" lon="7.3764767"><ele>1153.75</ele><time>2026-05-03T13:22:11.233Z</time></trkpt><trkpt lat="45.1717983" lon="7.3763"><ele>1155.5</ele><time>2026-05-03T13:22:12.233Z</time></trkpt><trkpt lat="45.1717433" lon="7.376135"><ele>1157.25</ele><time>2026-05-03T13:22:13.233Z</time></trkpt><trkpt lat="45.171695" lon="7.375975"><ele>1159.0</ele><time>2026-05-03T13:22:14.233Z</time></trkpt><trkpt lat="45.17164" lon="7.3758233"><ele>1159.0</ele><time>2026-05-03T13:22:15.233Z</time></trkpt><trkpt lat="45.1715717" lon="7.37569"><ele>1159.0</ele><time>2026-05-03T13:22:16.233Z</time></trkpt><trkpt lat="45.1714867" lon="7.37558"><ele>1159.0</ele><time>2026-05-03T13:22:17.232Z</time></trkpt><trkpt lat="45.171385" lon="7.37551"><ele>1159.0</ele><time>2026-05-03T13:22:18.233Z</time></trkpt><trkpt lat="45.171265" lon="7.3754817"><ele>1160.5</ele><time>2026-05-03T13:22:19.232Z</time></trkpt><trkpt lat="45.171125" lon="7.3755033"><ele>1162.0</ele><time>2026-05-03T13:22:20.233Z</time></trkpt><trkpt lat="45.1709833" lon="7.3755417"><ele>1163.5</ele><time>2026-05-03T13:22:21.233Z</time></trkpt><trkpt lat="45.17085" lon="7.3755567"><ele>1165.0</ele><time>2026-05-03T13:22:22.233Z</time></trkpt><trkpt lat="45.17073" lon="7.37557"><ele>1161.0</ele><time>2026-05-03T13:22:23.233Z</time></trkpt><trkpt lat="45.1706117" lon="7.375575"><ele>1157.0</ele><time>2026-05-03T13:22:24.233Z</time></trkpt><trkpt lat="45.1705" lon="7.3755667"><ele>1153.0</ele><time>2026-05-03T13:22:25.233Z</time></trkpt><trkpt lat="45.1703817" lon="7.37553"><ele>1149.0</ele><time>2026-05-03T13:22:26.233Z</time></trkpt><trkpt lat="45.1702633" lon="7.3755167"><ele>1149.0</ele><time>2026-05-03T13:22:27.233Z</time></trkpt><trkpt lat="45.1701433" lon="7.3755017"><ele>1149.0</ele><time>2026-05-03T13:22:28.233Z</time></trkpt><trkpt lat="45.1700217" lon="7.3754783"><ele>1149.0</ele><time>2026-05-03T13:22:29.233Z</time></trkpt><trkpt lat="45.1698933" lon="7.37546"><ele>1149.0</ele><time>2026-05-03T13:22:30.233Z</time></trkpt><trkpt lat="45.1697817" lon="7.3754367"><ele>1144.4</ele><time>2026-05-03T13:22:31.233Z</time></trkpt><trkpt lat="45.1696767" lon="7.3754133"><ele>1139.8000000000002</ele><time>2026-05-03T13:22:32.232Z</time></trkpt><trkpt lat="45.1695833" lon="7.37535"><ele>1135.1999999999998</ele><time>2026-05-03T13:22:33.233Z</time></trkpt><trkpt lat="45.169505" lon="7.3752467"><ele>1130.6</ele><time>2026-05-03T13:22:34.233Z</time></trkpt><trkpt lat="45.1694367" lon="7.3751333"><ele>1126.0</ele><time>2026-05-03T13:22:35.233Z</time></trkpt><trkpt lat="45.169375" lon="7.375025"><ele>1126.0</ele><time>2026-05-03T13:22:36.233Z</time></trkpt><trkpt lat="45.1693083" lon="7.3749117"><ele>1126.0</ele><time>2026-05-03T13:22:37.233Z</time></trkpt><trkpt lat="45.16923" lon="7.3748133"><ele>1126.0</ele><time>2026-05-03T13:22:38.233Z</time></trkpt><trkpt lat="45.1691333" lon="7.3747383"><ele>1126.0</ele><time>2026-05-03T13:22:39.233Z</time></trkpt><trkpt lat="45.1690333" lon="7.37469"><ele>1126.0</ele><time>2026-05-03T13:22:40.233Z</time></trkpt><trkpt lat="45.1689233" lon="7.3746583"><ele>1122.75</ele><time>2026-05-03T13:22:41.233Z</time></trkpt><trkpt lat="45.1688033" lon="7.3746183"><ele>1119.5</ele><time>2026-05-03T13:22:42.233Z</time></trkpt><trkpt lat="45.1686767" lon="7.3745933"><ele>1116.25</ele><time>2026-05-03T13:22:43.233Z</time></trkpt><trkpt lat="45.168565" lon="7.3745483"><ele>1113.0</ele><time>2026-05-03T13:22:44.233Z</time></trkpt><trkpt lat="45.16846" lon="7.374505"><ele>1113.0</ele><time>2026-05-03T13:22:45.233Z</time></trkpt><trkpt lat="45.1683667" lon="7.3744633"><ele>1113.0</ele><time>2026-05-03T13:22:46.232Z</time></trkpt><trkpt lat="45.16829" lon="7.3743883"><ele>1113.0</ele><time>2026-05-03T13:22:47.233Z</time></trkpt><trkpt lat="45.16823" lon="7.3743017"><ele>1113.0</ele><time>2026-05-03T13:22:48.233Z</time></trkpt><trkpt lat="45.1681917" lon="7.374195"><ele>1113.0</ele><time>2026-05-03T13:22:49.233Z</time></trkpt><trkpt lat="45.1681833" lon="7.374065"><ele>1107.4</ele><time>2026-05-03T13:22:50.233Z</time></trkpt><trkpt lat="45.1681833" lon="7.373925"><ele>1101.8</ele><time>2026-05-03T13:22:51.232Z</time></trkpt><trkpt lat="45.1681917" lon="7.373775"><ele>1096.2</ele><time>2026-05-03T13:22:52.233Z</time></trkpt><trkpt lat="45.16819" lon="7.373615"><ele>1090.6</ele><time>2026-05-03T13:22:53.233Z</time></trkpt><trkpt lat="45.1681667" lon="7.37346"><ele>1085.0</ele><time>2026-05-03T13:22:54.233Z</time></trkpt><trkpt lat="45.1681283" lon="7.3733117"><ele>1085.0</ele><time>2026-05-03T13:22:55.233Z</time></trkpt><trkpt lat="45.16808" lon="7.3731767"><ele>1085.0</ele><time>2026-05-03T13:22:56.233Z</time></trkpt><trkpt lat="45.1680067" lon="7.3730517"><ele>1085.0</ele><time>2026-05-03T13:22:57.233Z</time></trkpt><trkpt lat="45.1679383" lon="7.3729533"><ele>1085.0</ele><time>2026-05-03T13:22:58.232Z</time></trkpt><trkpt lat="45.1678617" lon="7.372875"><ele>1085.0</ele><time>2026-05-03T13:22:59.233Z</time></trkpt><trkpt lat="45.167805" lon="7.3727867"><ele>1085.8333333333335</ele><time>2026-05-03T13:23:00.233Z</time></trkpt><trkpt lat="45.1677933" lon="7.3726917"><ele>1086.6666666666667</ele><time>2026-05-03T13:23:01.233Z</time></trkpt><trkpt lat="45.16781" lon="7.3726033"><ele>1087.5</ele><time>2026-05-03T13:23:02.232Z</time></trkpt><trkpt lat="45.1678433" lon="7.3725133"><ele>1088.3333333333333</ele><time>2026-05-03T13:23:03.233Z</time></trkpt><trkpt lat="45.16792" lon="7.3724267"><ele>1089.1666666666665</ele><time>2026-05-03T13:23:04.233Z</time></trkpt><trkpt lat="45.1680017" lon="7.37232"><ele>1090.0</ele><time>2026-05-03T13:23:05.233Z</time></trkpt><trkpt lat="45.1680667" lon="7.3721867"><ele>1091.4</ele><time>2026-05-03T13:23:06.233Z</time></trkpt><trkpt lat="45.1681133" lon="7.37205"><ele>1092.8</ele><time>2026-05-03T13:23:07.233Z</time></trkpt><trkpt lat="45.16816" lon="7.371925"><ele>1094.2</ele><time>2026-05-03T13:23:08.233Z</time></trkpt><trkpt lat="45.168225" lon="7.3718333"><ele>1095.6</ele><time>2026-05-03T13:23:09.233Z</time></trkpt><trkpt lat="45.1682933" lon="7.371765"><ele>1097.0</ele><time>2026-05-03T13:23:10.233Z</time></trkpt><trkpt lat="45.168375" lon="7.3717417"><ele>1097.0</ele><time>2026-05-03T13:23:11.232Z</time></trkpt><trkpt lat="45.1684683" lon="7.3717517"><ele>1097.0</ele><time>2026-05-03T13:23:12.232Z</time></trkpt><trkpt lat="45.16856" lon="7.371765"><ele>1097.0</ele><time>2026-05-03T13:23:13.233Z</time></trkpt><trkpt lat="45.168655" lon="7.3717717"><ele>1097.0</ele><time>2026-05-03T13:23:14.233Z</time></trkpt><trkpt lat="45.1687417" lon="7.3717617"><ele>1097.0</ele><time>2026-05-03T13:23:15.233Z</time></trkpt><trkpt lat="45.1688317" lon="7.3717417"><ele>1097.0</ele><time>2026-05-03T13:23:16.232Z</time></trkpt><trkpt lat="45.168915" lon="7.37171"><ele>1097.0</ele><time>2026-05-03T13:23:17.233Z</time></trkpt><trkpt lat="45.1689867" lon="7.3716333"><ele>1097.0</ele><time>2026-05-03T13:23:18.233Z</time></trkpt><trkpt lat="45.16905" lon="7.3715783"><ele>1097.0</ele><time>2026-05-03T13:23:19.233Z</time></trkpt><trkpt lat="45.1690933" lon="7.3714733"><ele>1097.0</ele><time>2026-05-03T13:23:20.233Z</time></trkpt><trkpt lat="45.1691317" lon="7.3713317"><ele>1097.0</ele><time>2026-05-03T13:23:21.233Z</time></trkpt><trkpt lat="45.1691783" lon="7.3712033"><ele>1094.0</ele><time>2026-05-03T13:23:22.233Z</time></trkpt><trkpt lat="45.1692333" lon="7.3710633"><ele>1091.0</ele><time>2026-05-03T13:23:23.233Z</time></trkpt><trkpt lat="45.1692867" lon="7.3709167"><ele>1088.0</ele><time>2026-05-03T13:23:24.233Z</time></trkpt><trkpt lat="45.1693533" lon="7.3707883"><ele>1085.0</ele><time>2026-05-03T13:23:25.233Z</time></trkpt><trkpt lat="45.1694233" lon="7.3706617"><ele>1085.0</ele><time>2026-05-03T13:23:26.233Z</time></trkpt><trkpt lat="45.169495" lon="7.3705333"><ele>1085.0</ele><time>2026-05-03T13:23:27.233Z</time></trkpt><trkpt lat="45.1695733" lon="7.3703933"><ele>1085.0</ele><time>2026-05-03T13:23:28.233Z</time></trkpt><trkpt lat="45.1696517" lon="7.3702533"><ele>1085.0</ele><time>2026-05-03T13:23:29.233Z</time></trkpt><trkpt lat="45.16973" lon="7.3701233"><ele>1087.4</ele><time>2026-05-03T13:23:30.233Z</time></trkpt><trkpt lat="45.169805" lon="7.369995"><ele>1089.8</ele><time>2026-05-03T13:23:31.233Z</time></trkpt><trkpt lat="45.1698817" lon="7.3698933"><ele>1092.2</ele><time>2026-05-03T13:23:32.233Z</time></trkpt><trkpt lat="45.1699567" lon="7.3697833"><ele>1094.6</ele><time>2026-05-03T13:23:33.233Z</time></trkpt><trkpt lat="45.1700283" lon="7.36966"><ele>1097.0</ele><time>2026-05-03T13:23:34.233Z</time></trkpt><trkpt lat="45.1701083" lon="7.3695567"><ele>1090.6</ele><time>2026-05-03T13:23:35.233Z</time></trkpt><trkpt lat="45.1701983" lon="7.3694533"><ele>1084.2</ele><time>2026-05-03T13:23:36.233Z</time></trkpt><trkpt lat="45.170295" lon="7.3693683"><ele>1077.8</ele><time>2026-05-03T13:23:37.232Z</time></trkpt><trkpt lat="45.1703833" lon="7.36927"><ele>1071.4</ele><time>2026-05-03T13:23:38.233Z</time></trkpt><trkpt lat="45.1704417" lon="7.3691583"><ele>1065.0</ele><time>2026-05-03T13:23:39.233Z</time></trkpt><trkpt lat="45.17048" lon="7.3690383"><ele>1065.0</ele><time>2026-05-03T13:23:40.233Z</time></trkpt><trkpt lat="45.170505" lon="7.3689217"><ele>1065.0</ele><time>2026-05-03T13:23:41.233Z</time></trkpt><trkpt lat="45.1704967" lon="7.3688117"><ele>1065.0</ele><time>2026-05-03T13:23:42.233Z</time></trkpt><trkpt lat="45.1704567" lon="7.3686983"><ele>1065.0</ele><time>2026-05-03T13:23:43.233Z</time></trkpt><trkpt lat="45.1704017" lon="7.368585"><ele>1065.0</ele><time>2026-05-03T13:23:44.233Z</time></trkpt><trkpt lat="45.1703767" lon="7.3684683"><ele>1065.0</ele><time>2026-05-03T13:23:45.233Z</time></trkpt><trkpt lat="45.1703817" lon="7.3683433"><ele>1044.0</ele><time>2026-05-03T13:23:46.233Z</time></trkpt><trkpt lat="45.1704167" lon="7.3682117"><ele>1044.0</ele><time>2026-05-03T13:23:47.233Z</time></trkpt><trkpt lat="45.1704767" lon="7.3680733"><ele>1044.0</ele><time>2026-05-03T13:23:48.233Z</time></trkpt><trkpt lat="45.170545" lon="7.367955"><ele>1033.0</ele><time>2026-05-03T13:23:49.233Z</time></trkpt></trkseg><trkseg><trkpt lat="45.159645" lon="7.3695333"><ele>939.0</ele><time>2026-05-03T13:29:11.235Z</time></trkpt><trkpt lat="45.1595867" lon="7.3696033"><ele>939.0</ele><time>2026-05-03T13:29:12.235Z</time></trkpt><trkpt lat="45.1595367" lon="7.3696683"><ele>939.0</ele><time>2026-05-03T13:29:13.235Z</time></trkpt><trkpt lat="45.1594917" lon="7.369755"><ele>939.0</ele><time>2026-05-03T13:29:14.235Z</time></trkpt><trkpt lat="45.159455" lon="7.3698967"><ele>939.0</ele><time>2026-05-03T13:29:16.235Z</time></trkpt><trkpt lat="45.1594517" lon="7.3699983"><ele>939.0</ele><time>2026-05-03T13:29:17.235Z</time></trkpt><trkpt lat="45.15945" lon="7.3701033"><ele>938.8000000000001</ele><time>2026-05-03T13:29:18.235Z</time></trkpt><trkpt lat="45.159455" lon="7.37024"><ele>938.6000000000001</ele><time>2026-05-03T13:29:19.235Z</time></trkpt><trkpt lat="45.159455" lon="7.370375"><ele>938.4</ele><time>2026-05-03T13:29:20.235Z</time></trkpt><trkpt lat="45.1594467" lon="7.370525"><ele>938.2</ele><time>2026-05-03T13:29:21.235Z</time></trkpt><trkpt lat="45.1594317" lon="7.3706933"><ele>938.0</ele><time>2026-05-03T13:29:22.235Z</time></trkpt><trkpt lat="45.1594333" lon="7.3708767"><ele>937.25</ele><time>2026-05-03T13:29:23.235Z</time></trkpt><trkpt lat="45.1594267" lon="7.3710517"><ele>936.5</ele><time>2026-05-03T13:29:24.235Z</time></trkpt><trkpt lat="45.15943" lon="7.3712267"><ele>935.75</ele><time>2026-05-03T13:29:25.235Z</time></trkpt><trkpt lat="45.15942" lon="7.3714"><ele>935.0</ele><time>2026-05-03T13:29:26.235Z</time></trkpt><trkpt lat="45.1594017" lon="7.3715567"><ele>931.8</ele><time>2026-05-03T13:29:27.235Z</time></trkpt><trkpt lat="45.1593583" lon="7.3717"><ele>928.6</ele><time>2026-05-03T13:29:28.235Z</time></trkpt><trkpt lat="45.1593117" lon="7.371835"><ele>925.4000000000001</ele><time>2026-05-03T13:29:29.235Z</time></trkpt><trkpt lat="45.159255" lon="7.371965"><ele>922.2</ele><time>2026-05-03T13:29:30.234Z</time></trkpt><trkpt lat="45.1592017" lon="7.3720967"><ele>919.0</ele><time>2026-05-03T13:29:31.235Z</time></trkpt><trkpt lat="45.1591517" lon="7.3722333"><ele>915.0</ele><time>2026-05-03T13:29:32.235Z</time></trkpt><trkpt lat="45.1591183" lon="7.3723783"><ele>911.0</ele><time>2026-05-03T13:29:33.235Z</time></trkpt><trkpt lat="45.1590933" lon="7.37253"><ele>907.0</ele><time>2026-05-03T13:29:34.235Z</time></trkpt><trkpt lat="45.1590933" lon="7.3726933"><ele>903.0</ele><time>2026-05-03T13:29:35.235Z</time></trkpt><trkpt lat="45.15911" lon="7.3728683"><ele>901.5</ele><time>2026-05-03T13:29:36.235Z</time></trkpt><trkpt lat="45.1591483" lon="7.3730433"><ele>900.0</ele><time>2026-05-03T13:29:37.235Z</time></trkpt><trkpt lat="45.1591867" lon="7.3732"><ele>898.5</ele><time>2026-05-03T13:29:38.235Z</time></trkpt><trkpt lat="45.1592233" lon="7.3733467"><ele>897.0</ele><time>2026-05-03T13:29:39.234Z</time></trkpt><trkpt lat="45.1592517" lon="7.3734767"><ele>897.0</ele><time>2026-05-03T13:29:40.235Z</time></trkpt><trkpt lat="45.1592783" lon="7.373605"><ele>897.0</ele><time>2026-05-03T13:29:41.235Z</time></trkpt><trkpt lat="45.15928" lon="7.3737417"><ele>897.0</ele><time>2026-05-03T13:29:42.235Z</time></trkpt><trkpt lat="45.1592467" lon="7.3738533"><ele>897.0</ele><time>2026-05-03T13:29:43.235Z</time></trkpt><trkpt lat="45.159185" lon="7.373955"><ele>897.0</ele><time>2026-05-03T13:29:44.235Z</time></trkpt><trkpt lat="45.159095" lon="7.37404"><ele>898.5</ele><time>2026-05-03T13:29:45.235Z</time></trkpt><trkpt lat="45.1590083" lon="7.3741133"><ele>900.0</ele><time>2026-05-03T13:29:46.235Z</time></trkpt><trkpt lat="45.158935" lon="7.37419"><ele>901.5</ele><time>2026-05-03T13:29:47.235Z</time></trkpt><trkpt lat="45.158875" lon="7.374285"><ele>903.0</ele><time>2026-05-03T13:29:48.235Z</time></trkpt><trkpt lat="45.1588417" lon="7.3743933"><ele>904.5</ele><time>2026-05-03T13:29:49.234Z</time></trkpt><trkpt lat="45.1588217" lon="7.3745017"><ele>906.0</ele><time>2026-05-03T13:29:50.235Z</time></trkpt><trkpt lat="45.1588233" lon="7.3746367"><ele>903.1999999999999</ele><time>2026-05-03T13:29:51.235Z</time></trkpt><trkpt lat="45.1588683" lon="7.3747733"><ele>900.3999999999999</ele><time>2026-05-03T13:29:52.235Z</time></trkpt><trkpt lat="45.1588917" lon="7.3749083"><ele>897.6</ele><time>2026-05-03T13:29:53.235Z</time></trkpt><trkpt lat="45.1589167" lon="7.3750333"><ele>894.8</ele><time>2026-05-03T13:29:54.235Z</time></trkpt><trkpt lat="45.1589333" lon="7.3751667"><ele>892.0</ele><time>2026-05-03T13:29:55.235Z</time></trkpt><trkpt lat="45.1589217" lon="7.375295"><ele>892.0</ele><time>2026-05-03T13:29:56.235Z</time></trkpt><trkpt lat="45.1588833" lon="7.3754167"><ele>892.0</ele><time>2026-05-03T13:29:57.235Z</time></trkpt><trkpt lat="45.15883" lon="7.3755317"><ele>892.0</ele><time>2026-05-03T13:29:58.235Z</time></trkpt><trkpt lat="45.15877" lon="7.3756567"><ele>892.0</ele><time>2026-05-03T13:29:59.235Z</time></trkpt><trkpt lat="45.1587083" lon="7.3757867"><ele>892.0</ele><time>2026-05-03T13:30:00.235Z</time></trkpt><trkpt lat="45.1586367" lon="7.3759033"><ele>889.8</ele><time>2026-05-03T13:30:01.234Z</time></trkpt><trkpt lat="45.1585617" lon="7.3759983"><ele>887.6</ele><time>2026-05-03T13:30:02.235Z</time></trkpt><trkpt lat="45.1584633" lon="7.37608"><ele>885.3999999999999</ele><time>2026-05-03T13:30:03.235Z</time></trkpt><trkpt lat="45.1583683" lon="7.37616"><ele>883.1999999999999</ele><time>2026-05-03T13:30:04.235Z</time></trkpt><trkpt lat="45.1582733" lon="7.3762433"><ele>881.0</ele><time>2026-05-03T13:30:05.235Z</time></trkpt><trkpt lat="45.1581833" lon="7.3763317"><ele>877.0</ele><time>2026-05-03T13:30:06.235Z</time></trkpt><trkpt lat="45.1580967" lon="7.376435"><ele>873.0</ele><time>2026-05-03T13:30:07.235Z</time></trkpt><trkpt lat="45.158015" lon="7.376545"><ele>869.0</ele><time>2026-05-03T13:30:08.235Z</time></trkpt><trkpt lat="45.1579383" lon="7.3766667"><ele>865.0</ele><time>2026-05-03T13:30:09.235Z</time></trkpt><trkpt lat="45.1578583" lon="7.3767817"><ele>865.0</ele><time>2026-05-03T13:30:10.234Z</time></trkpt><trkpt lat="45.1577733" lon="7.3768933"><ele>865.0</ele><time>2026-05-03T13:30:11.235Z</time></trkpt><trkpt lat="45.157675" lon="7.3769833"><ele>865.0</ele><time>2026-05-03T13:30:12.235Z</time></trkpt><trkpt lat="45.157575" lon="7.3770417"><ele>865.0</ele><time>2026-05-03T13:30:13.235Z</time></trkpt><trkpt lat="45.15746" lon="7.3770783"><ele>867.4</ele><time>2026-05-03T13:30:14.235Z</time></trkpt><trkpt lat="45.1573383" lon="7.3771033"><ele>869.8</ele><time>2026-05-03T13:30:15.235Z</time></trkpt><trkpt lat="45.1572333" lon="7.3770983"><ele>872.2</ele><time>2026-05-03T13:30:16.235Z</time></trkpt><trkpt lat="45.1571383" lon="7.3771033"><ele>874.6</ele><time>2026-05-03T13:30:17.235Z</time></trkpt><trkpt lat="45.157055" lon="7.3771233"><ele>877.0</ele><time>2026-05-03T13:30:18.235Z</time></trkpt><trkpt lat="45.1569817" lon="7.3771783"><ele>873.0</ele><time>2026-05-03T13:30:19.235Z</time></trkpt><trkpt lat="45.15691" lon="7.3772567"><ele>869.0</ele><time>2026-05-03T13:30:20.235Z</time></trkpt><trkpt lat="45.1568383" lon="7.377335"><ele>865.0</ele><time>2026-05-03T13:30:21.235Z</time></trkpt><trkpt lat="45.15676" lon="7.3774117"><ele>861.0</ele><time>2026-05-03T13:30:22.235Z</time></trkpt><trkpt lat="45.156665" lon="7.3774883"><ele>857.0</ele><time>2026-05-03T13:30:23.235Z</time></trkpt><trkpt lat="45.1565683" lon="7.3775633"><ele>858.0</ele><time>2026-05-03T13:30:24.235Z</time></trkpt><trkpt lat="45.1564617" lon="7.3776333"><ele>859.0</ele><time>2026-05-03T13:30:25.234Z</time></trkpt><trkpt lat="45.15636" lon="7.377725"><ele>860.0</ele><time>2026-05-03T13:30:26.235Z</time></trkpt><trkpt lat="45.1562783" lon="7.37783"><ele>861.0</ele><time>2026-05-03T13:30:27.235Z</time></trkpt><trkpt lat="45.1562033" lon="7.377945"><ele>857.0</ele><time>2026-05-03T13:30:28.235Z</time></trkpt><trkpt lat="45.1561367" lon="7.37807"><ele>852.9999999999999</ele><time>2026-05-03T13:30:29.235Z</time></trkpt><trkpt lat="45.1560717" lon="7.378195"><ele>849.0</ele><time>2026-05-03T13:30:30.235Z</time></trkpt><trkpt lat="45.155995" lon="7.3782917"><ele>845.0</ele><time>2026-05-03T13:30:31.235Z</time></trkpt><trkpt lat="45.1559167" lon="7.37837"><ele>841.0</ele><time>2026-05-03T13:30:32.235Z</time></trkpt><trkpt lat="45.155825" lon="7.37841"><ele>841.0</ele><time>2026-05-03T13:30:33.235Z</time></trkpt><trkpt lat="45.1557333" lon="7.3784217"><ele>841.0</ele><time>2026-05-03T13:30:34.234Z</time></trkpt><trkpt lat="45.15564" lon="7.378415"><ele>841.0</ele><time>2026-05-03T13:30:35.235Z</time></trkpt><trkpt lat="45.1555467" lon="7.3783817"><ele>841.0</ele><time>2026-05-03T13:30:36.235Z</time></trkpt><trkpt lat="45.1554583" lon="7.3783283"><ele>841.0</ele><time>2026-05-03T13:30:37.235Z</time></trkpt><trkpt lat="45.155385" lon="7.378255"><ele>840.4</ele><time>2026-05-03T13:30:38.235Z</time></trkpt><trkpt lat="45.1553267" lon="7.37815"><ele>839.8</ele><time>2026-05-03T13:30:39.235Z</time></trkpt><trkpt lat="45.1552833" lon="7.3780217"><ele>839.1999999999999</ele><time>2026-05-03T13:30:40.235Z</time></trkpt><trkpt lat="45.155235" lon="7.3779"><ele>838.5999999999999</ele><time>2026-05-03T13:30:41.235Z</time></trkpt><trkpt lat="45.1551683" lon="7.377785"><ele>838.0</ele><time>2026-05-03T13:30:42.235Z</time></trkpt><trkpt lat="45.15509" lon="7.3776767"><ele>838.0</ele><time>2026-05-03T13:30:43.235Z</time></trkpt><trkpt lat="45.1550067" lon="7.3775683"><ele>838.0</ele><time>2026-05-03T13:30:44.235Z</time></trkpt><trkpt lat="45.1549167" lon="7.3775167"><ele>838.0</ele><time>2026-05-03T13:30:45.234Z</time></trkpt><trkpt lat="45.1548167" lon="7.3774717"><ele>838.0</ele><time>2026-05-03T13:30:46.235Z</time></trkpt><trkpt lat="45.1547083" lon="7.37744"><ele>838.0</ele><time>2026-05-03T13:30:47.235Z</time></trkpt><trkpt lat="45.154605" lon="7.3774033"><ele>834.5999999999999</ele><time>2026-05-03T13:30:48.235Z</time></trkpt><trkpt lat="45.1545033" lon="7.377365"><ele>831.1999999999999</ele><time>2026-05-03T13:30:49.235Z</time></trkpt><trkpt lat="45.1544033" lon="7.377325"><ele>827.8</ele><time>2026-05-03T13:30:50.234Z</time></trkpt><trkpt lat="45.1543" lon="7.3772867"><ele>824.4</ele><time>2026-05-03T13:30:51.235Z</time></trkpt><trkpt lat="45.1541967" lon="7.3772683"><ele>821.0</ele><time>2026-05-03T13:30:52.235Z</time></trkpt><trkpt lat="45.1541067" lon="7.3772517"><ele>818.5999999999999</ele><time>2026-05-03T13:30:53.235Z</time></trkpt><trkpt lat="45.154025" lon="7.3772367"><ele>816.2</ele><time>2026-05-03T13:30:54.235Z</time></trkpt><trkpt lat="45.1539183" lon="7.3773017"><ele>813.8</ele><time>2026-05-03T13:30:56.235Z</time></trkpt><trkpt lat="45.15387" lon="7.3774267"><ele>811.4000000000001</ele><time>2026-05-03T13:30:58.235Z</time></trkpt><trkpt lat="45.1539267" lon="7.377525"><ele>809.0</ele><time>2026-05-03T13:31:00.235Z</time></trkpt><trkpt lat="45.1539933" lon="7.3775817"><ele>808.25</ele><time>2026-05-03T13:31:01.235Z</time></trkpt><trkpt lat="45.1540833" lon="7.3776717"><ele>807.5</ele><time>2026-05-03T13:31:02.235Z</time></trkpt><trkpt lat="45.15419" lon="7.3778117"><ele>806.75</ele><time>2026-05-03T13:31:03.235Z</time></trkpt><trkpt lat="45.1542817" lon="7.3779183"><ele>806.0</ele><time>2026-05-03T13:31:04.235Z</time></trkpt><trkpt lat="45.1543633" lon="7.378025"><ele>806.0000000000001</ele><time>2026-05-03T13:31:05.235Z</time></trkpt><trkpt lat="45.1544133" lon="7.3781183"><ele>806.0</ele><time>2026-05-03T13:31:06.235Z</time></trkpt><trkpt lat="45.1544433" lon="7.3781983"><ele>806.0</ele><time>2026-05-03T13:31:07.234Z</time></trkpt><trkpt lat="45.1544867" lon="7.37834"><ele>806.0</ele><time>2026-05-03T13:31:09.234Z</time></trkpt><trkpt lat="45.15441" lon="7.3782917"><ele>806.0000000000001</ele><time>2026-05-03T13:31:12.235Z</time></trkpt><trkpt lat="45.1543483" lon="7.3782517"><ele>806.0</ele><time>2026-05-03T13:31:13.235Z</time></trkpt><trkpt lat="45.154275" lon="7.37823"><ele>806.0000000000001</ele><time>2026-05-03T13:31:14.235Z</time></trkpt><trkpt lat="45.1541967" lon="7.378245"><ele>806.0</ele><time>2026-05-03T13:31:15.235Z</time></trkpt><trkpt lat="45.1541333" lon="7.378275"><ele>806.0</ele><time>2026-05-03T13:31:16.235Z</time></trkpt><trkpt lat="45.1540683" lon="7.3782917"><ele>806.0</ele><time>2026-05-03T13:31:17.235Z</time></trkpt><trkpt lat="45.15399" lon="7.378295"><ele>806.0000000000001</ele><time>2026-05-03T13:31:18.235Z</time></trkpt><trkpt lat="45.153895" lon="7.3782667"><ele>806.0</ele><time>2026-05-03T13:31:19.235Z</time></trkpt><trkpt lat="45.1537917" lon="7.3782217"><ele>803.75</ele><time>2026-05-03T13:31:20.235Z</time></trkpt><trkpt lat="45.1536783" lon="7.3781917"><ele>801.5</ele><time>2026-05-03T13:31:21.235Z</time></trkpt><trkpt lat="45.1535667" lon="7.3781533"><ele>799.25</ele><time>2026-05-03T13:31:22.235Z</time></trkpt><trkpt lat="45.1534533" lon="7.3781133"><ele>797.0</ele><time>2026-05-03T13:31:23.235Z</time></trkpt><trkpt lat="45.15335" lon="7.37806"><ele>796.2</ele><time>2026-05-03T13:31:24.234Z</time></trkpt><trkpt lat="45.15326" lon="7.37798"><ele>795.4000000000001</ele><time>2026-05-03T13:31:25.235Z</time></trkpt><trkpt lat="45.153185" lon="7.3778983"><ele>794.5999999999999</ele><time>2026-05-03T13:31:26.235Z</time></trkpt><trkpt lat="45.1531117" lon="7.3778067"><ele>793.8</ele><time>2026-05-03T13:31:27.235Z</time></trkpt><trkpt lat="45.1530383" lon="7.377705"><ele>793.0</ele><time>2026-05-03T13:31:28.235Z</time></trkpt><trkpt lat="45.1529767" lon="7.3775967"><ele>793.0</ele><time>2026-05-03T13:31:29.235Z</time></trkpt><trkpt lat="45.1529267" lon="7.3774817"><ele>793.0</ele><time>2026-05-03T13:31:30.234Z</time></trkpt><trkpt lat="45.1528783" lon="7.37736"><ele>793.0</ele><time>2026-05-03T13:31:31.235Z</time></trkpt><trkpt lat="45.1528433" lon="7.3772217"><ele>793.0</ele><time>2026-05-03T13:31:32.235Z</time></trkpt><trkpt lat="45.1528267" lon="7.3770817"><ele>793.0</ele><time>2026-05-03T13:31:33.235Z</time></trkpt><trkpt lat="45.152825" lon="7.3769317"><ele>795.4</ele><time>2026-05-03T13:31:34.235Z</time></trkpt><trkpt lat="45.1527983" lon="7.3767783"><ele>797.8</ele><time>2026-05-03T13:31:35.235Z</time></trkpt><trkpt lat="45.1527617" lon="7.376625"><ele>800.2</ele><time>2026-05-03T13:31:36.235Z</time></trkpt><trkpt lat="45.152725" lon="7.37648"><ele>802.6</ele><time>2026-05-03T13:31:37.235Z</time></trkpt><trkpt lat="45.1527033" lon="7.37633"><ele>805.0</ele><time>2026-05-03T13:31:38.235Z</time></trkpt><trkpt lat="45.152675" lon="7.3762017"><ele>805.4999999999999</ele><time>2026-05-03T13:31:39.235Z</time></trkpt><trkpt lat="45.1526417" lon="7.3760933"><ele>806.0</ele><time>2026-05-03T13:31:40.235Z</time></trkpt><trkpt lat="45.152585" lon="7.3760017"><ele>806.5</ele><time>2026-05-03T13:31:41.235Z</time></trkpt><trkpt lat="45.1525217" lon="7.375935"><ele>807.0</ele><time>2026-05-03T13:31:42.235Z</time></trkpt><trkpt lat="45.1524517" lon="7.3759283"><ele>807.4999999999999</ele><time>2026-05-03T13:31:43.235Z</time></trkpt><trkpt lat="45.1523883" lon="7.3759733"><ele>808.0</ele><time>2026-05-03T13:31:44.235Z</time></trkpt><trkpt lat="45.152335" lon="7.3760733"><ele>815.0</ele><time>2026-05-03T13:31:45.235Z</time></trkpt><trkpt lat="45.1523" lon="7.3762217"><ele>822.0</ele><time>2026-05-03T13:31:46.235Z</time></trkpt><trkpt lat="45.1522617" lon="7.3763883"><ele>829.0</ele><time>2026-05-03T13:31:47.235Z</time></trkpt><trkpt lat="45.152205" lon="7.3765533"><ele>836.0</ele><time>2026-05-03T13:31:48.235Z</time></trkpt><trkpt lat="45.1521417" lon="7.3767017"><ele>836.0</ele><time>2026-05-03T13:31:49.235Z</time></trkpt><trkpt lat="45.152065" lon="7.3768367"><ele>836.0</ele><time>2026-05-03T13:31:50.235Z</time></trkpt><trkpt lat="45.1519883" lon="7.37698"><ele>836.0</ele><time>2026-05-03T13:31:51.235Z</time></trkpt><trkpt lat="45.1519083" lon="7.3771283"><ele>836.0</ele><time>2026-05-03T13:31:52.235Z</time></trkpt><trkpt lat="45.1518283" lon="7.3772767"><ele>830.75</ele><time>2026-05-03T13:31:53.235Z</time></trkpt><trkpt lat="45.151755" lon="7.3774233"><ele>825.5</ele><time>2026-05-03T13:31:54.235Z</time></trkpt><trkpt lat="45.1516933" lon="7.37758"><ele>820.25</ele><time>2026-05-03T13:31:55.235Z</time></trkpt><trkpt lat="45.1516367" lon="7.377745"><ele>815.0</ele><time>2026-05-03T13:31:56.235Z</time></trkpt><trkpt lat="45.1515883" lon="7.377905"><ele>819.25</ele><time>2026-05-03T13:31:57.235Z</time></trkpt><trkpt lat="45.1515383" lon="7.3780583"><ele>823.5</ele><time>2026-05-03T13:31:58.235Z</time></trkpt><trkpt lat="45.151475" lon="7.3782083"><ele>827.75</ele><time>2026-05-03T13:31:59.235Z</time></trkpt><trkpt lat="45.1514117" lon="7.3783467"><ele>832.0</ele><time>2026-05-03T13:32:00.235Z</time></trkpt><trkpt lat="45.1513517" lon="7.3784767"><ele>832.0</ele><time>2026-05-03T13:32:01.235Z</time></trkpt><trkpt lat="45.1513" lon="7.3786133"><ele>832.0</ele><time>2026-05-03T13:32:02.235Z</time></trkpt><trkpt lat="45.1512633" lon="7.3787567"><ele>832.0</ele><time>2026-05-03T13:32:03.235Z</time></trkpt><trkpt lat="45.151215" lon="7.378915"><ele>832.0</ele><time>2026-05-03T13:32:04.235Z</time></trkpt><trkpt lat="45.1511717" lon="7.3790533"><ele>832.0</ele><time>2026-05-03T13:32:05.235Z</time></trkpt><trkpt lat="45.1511183" lon="7.3791567"><ele>828.2</ele><time>2026-05-03T13:32:06.235Z</time></trkpt><trkpt lat="45.1510467" lon="7.3792383"><ele>824.4000000000001</ele><time>2026-05-03T13:32:07.235Z</time></trkpt><trkpt lat="45.15097" lon="7.3792983"><ele>820.5999999999999</ele><time>2026-05-03T13:32:08.235Z</time></trkpt><trkpt lat="45.1509133" lon="7.3793817"><ele>816.8</ele><time>2026-05-03T13:32:09.235Z</time></trkpt><trkpt lat="45.1508767" lon="7.3795117"><ele>813.0</ele><time>2026-05-03T13:32:10.235Z</time></trkpt><trkpt lat="45.1508583" lon="7.3796533"><ele>811.5999999999999</ele><time>2026-05-03T13:32:11.235Z</time></trkpt><trkpt lat="45.1508667" lon="7.379795"><ele>810.1999999999999</ele><time>2026-05-03T13:32:12.235Z</time></trkpt><trkpt lat="45.150895" lon="7.379935"><ele>808.8</ele><time>2026-05-03T13:32:13.235Z</time></trkpt><trkpt lat="45.1509333" lon="7.3800867"><ele>807.4</ele><time>2026-05-03T13:32:14.235Z</time></trkpt><trkpt lat="45.1509633" lon="7.380245"><ele>806.0</ele><time>2026-05-03T13:32:15.235Z</time></trkpt><trkpt lat="45.1509967" lon="7.380395"><ele>808.1999999999999</ele><time>2026-05-03T13:32:16.235Z</time></trkpt><trkpt lat="45.1510283" lon="7.38055"><ele>810.4</ele><time>2026-05-03T13:32:17.234Z</time></trkpt><trkpt lat="45.1510533" lon="7.3807083"><ele>812.6</ele><time>2026-05-03T13:32:18.234Z</time></trkpt><trkpt lat="45.1510633" lon="7.38087"><ele>814.8</ele><time>2026-05-03T13:32:19.235Z</time></trkpt><trkpt lat="45.15107" lon="7.38102"><ele>817.0</ele><time>2026-05-03T13:32:20.235Z</time></trkpt><trkpt lat="45.1510833" lon="7.38117"><ele>817.0</ele><time>2026-05-03T13:32:21.235Z</time></trkpt><trkpt lat="45.151105" lon="7.3813067"><ele>817.0</ele><time>2026-05-03T13:32:22.234Z</time></trkpt><trkpt lat="45.15112" lon="7.3814517"><ele>817.0</ele><time>2026-05-03T13:32:23.235Z</time></trkpt><trkpt lat="45.1511367" lon="7.3815933"><ele>817.0</ele><time>2026-05-03T13:32:24.234Z</time></trkpt><trkpt lat="45.1511267" lon="7.38173"><ele>817.0</ele><time>2026-05-03T13:32:25.234Z</time></trkpt><trkpt lat="45.151095" lon="7.3818517"><ele>816.8</ele><time>2026-05-03T13:32:26.235Z</time></trkpt><trkpt lat="45.1510433" lon="7.3819367"><ele>816.6</ele><time>2026-05-03T13:32:27.235Z</time></trkpt><trkpt lat="45.1509667" lon="7.3819933"><ele>816.4</ele><time>2026-05-03T13:32:28.235Z</time></trkpt><trkpt lat="45.1508833" lon="7.382045"><ele>816.1999999999999</ele><time>2026-05-03T13:32:29.235Z</time></trkpt><trkpt lat="45.1507817" lon="7.38207"><ele>816.0</ele><time>2026-05-03T13:32:30.235Z</time></trkpt><trkpt lat="45.1506833" lon="7.3820767"><ele>817.6666666666666</ele><time>2026-05-03T13:32:31.235Z</time></trkpt><trkpt lat="45.150595" lon="7.382105"><ele>819.3333333333333</ele><time>2026-05-03T13:32:32.235Z</time></trkpt><trkpt lat="45.1505117" lon="7.3821467"><ele>821.0</ele><time>2026-05-03T13:32:33.234Z</time></trkpt><trkpt lat="45.15044" lon="7.3822167"><ele>822.6666666666666</ele><time>2026-05-03T13:32:34.235Z</time></trkpt><trkpt lat="45.1503917" lon="7.3823133"><ele>824.3333333333333</ele><time>2026-05-03T13:32:35.235Z</time></trkpt><trkpt lat="45.150385" lon="7.38245"><ele>826.0</ele><time>2026-05-03T13:32:36.235Z</time></trkpt><trkpt lat="45.1503933" lon="7.3826033"><ele>826.0</ele><time>2026-05-03T13:32:37.235Z</time></trkpt><trkpt lat="45.1504033" lon="7.3827717"><ele>826.0</ele><time>2026-05-03T13:32:38.235Z</time></trkpt><trkpt lat="45.150395" lon="7.3829233"><ele>826.0</ele><time>2026-05-03T13:32:39.235Z</time></trkpt><trkpt lat="45.1503467" lon="7.3830583"><ele>826.0</ele><time>2026-05-03T13:32:40.235Z</time></trkpt><trkpt lat="45.1502767" lon="7.3831533"><ele>826.0</ele><time>2026-05-03T13:32:41.235Z</time></trkpt><trkpt lat="45.1501917" lon="7.3832167"><ele>822.0</ele><time>2026-05-03T13:32:42.235Z</time></trkpt><trkpt lat="45.15009" lon="7.3832683"><ele>818.0</ele><time>2026-05-03T13:32:43.235Z</time></trkpt><trkpt lat="45.1499867" lon="7.3833133"><ele>814.0</ele><time>2026-05-03T13:32:44.235Z</time></trkpt><trkpt lat="45.149885" lon="7.383355"><ele>810.0</ele><time>2026-05-03T13:32:45.235Z</time></trkpt><trkpt lat="45.1497817" lon="7.3833783"><ele>806.0</ele><time>2026-05-03T13:32:46.235Z</time></trkpt><trkpt lat="45.1496833" lon="7.3833783"><ele>805.8</ele><time>2026-05-03T13:32:47.235Z</time></trkpt><trkpt lat="45.149595" lon="7.383325"><ele>805.5999999999999</ele><time>2026-05-03T13:32:48.235Z</time></trkpt><trkpt lat="45.1495033" lon="7.383255"><ele>805.4</ele><time>2026-05-03T13:32:49.235Z</time></trkpt><trkpt lat="45.1493933" lon="7.3832183"><ele>805.2</ele><time>2026-05-03T13:32:50.235Z</time></trkpt><trkpt lat="45.14928" lon="7.38323"><ele>805.0</ele><time>2026-05-03T13:32:51.235Z</time></trkpt><trkpt lat="45.1491717" lon="7.383235"><ele>804.9999999999999</ele><time>2026-05-03T13:32:52.235Z</time></trkpt><trkpt lat="45.1490717" lon="7.3832417"><ele>805.0</ele><time>2026-05-03T13:32:53.235Z</time></trkpt><trkpt lat="45.1489883" lon="7.3832067"><ele>805.0</ele><time>2026-05-03T13:32:54.235Z</time></trkpt><trkpt lat="45.1489233" lon="7.3831567"><ele>805.0</ele><time>2026-05-03T13:32:55.235Z</time></trkpt><trkpt lat="45.1488683" lon="7.3830783"><ele>804.9999999999999</ele><time>2026-05-03T13:32:56.234Z</time></trkpt><trkpt lat="45.1488117" lon="7.38299"><ele>805.0</ele><time>2026-05-03T13:32:57.235Z</time></trkpt><trkpt lat="45.148755" lon="7.38292"><ele>804.4</ele><time>2026-05-03T13:32:58.235Z</time></trkpt><trkpt lat="45.148695" lon="7.3828733"><ele>803.8</ele><time>2026-05-03T13:32:59.235Z</time></trkpt><trkpt lat="45.1486" lon="7.382905"><ele>803.2</ele><time>2026-05-03T13:33:00.235Z</time></trkpt><trkpt lat="45.1484983" lon="7.3829317"><ele>802.6</ele><time>2026-05-03T13:33:01.235Z</time></trkpt><trkpt lat="45.1484" lon="7.3829733"><ele>802.0</ele><time>2026-05-03T13:33:02.235Z</time></trkpt><trkpt lat="45.1483033" lon="7.3830333"><ele>802.0</ele><time>2026-05-03T13:33:03.234Z</time></trkpt><trkpt lat="45.14822" lon="7.3831333"><ele>802.0</ele><time>2026-05-03T13:33:04.235Z</time></trkpt><trkpt lat="45.1481483" lon="7.383265"><ele>802.0</ele><time>2026-05-03T13:33:05.235Z</time></trkpt><trkpt lat="45.1480883" lon="7.3833883"><ele>802.0</ele><time>2026-05-03T13:33:06.235Z</time></trkpt><trkpt lat="45.148015" lon="7.3834833"><ele>802.0</ele><time>2026-05-03T13:33:07.235Z</time></trkpt><trkpt lat="45.14793" lon="7.3835517"><ele>801.0</ele><time>2026-05-03T13:33:08.235Z</time></trkpt><trkpt lat="45.1478383" lon="7.383605"><ele>800.0</ele><time>2026-05-03T13:33:09.235Z</time></trkpt><trkpt lat="45.1477533" lon="7.3836533"><ele>799.0</ele><time>2026-05-03T13:33:10.235Z</time></trkpt><trkpt lat="45.1476667" lon="7.3836917"><ele>798.0</ele><time>2026-05-03T13:33:11.235Z</time></trkpt><trkpt lat="45.147585" lon="7.38372"><ele>797.0</ele><time>2026-05-03T13:33:12.234Z</time></trkpt><trkpt lat="45.1474967" lon="7.383705"><ele>797.0000000000001</ele><time>2026-05-03T13:33:13.235Z</time></trkpt><trkpt lat="45.1474183" lon="7.3836633"><ele>797.0</ele><time>2026-05-03T13:33:14.234Z</time></trkpt><trkpt lat="45.147355" lon="7.3835733"><ele>797.0</ele><time>2026-05-03T13:33:15.235Z</time></trkpt><trkpt lat="45.14731" lon="7.3834783"><ele>797.0</ele><time>2026-05-03T13:33:16.235Z</time></trkpt><trkpt lat="45.147285" lon="7.383345"><ele>797.0000000000001</ele><time>2026-05-03T13:33:17.235Z</time></trkpt><trkpt lat="45.147285" lon="7.3832133"><ele>797.0</ele><time>2026-05-03T13:33:18.234Z</time></trkpt><trkpt lat="45.1473083" lon="7.3830917"><ele>796.0</ele><time>2026-05-03T13:33:19.235Z</time></trkpt><trkpt lat="45.14735" lon="7.3829767"><ele>795.0</ele><time>2026-05-03T13:33:20.235Z</time></trkpt><trkpt lat="45.1473883" lon="7.382855"><ele>794.0</ele><time>2026-05-03T13:33:21.235Z</time></trkpt><trkpt lat="45.1474083" lon="7.38273"><ele>793.0</ele><time>2026-05-03T13:33:22.235Z</time></trkpt><trkpt lat="45.1473967" lon="7.3825983"><ele>792.0</ele><time>2026-05-03T13:33:23.235Z</time></trkpt><trkpt lat="45.1473833" lon="7.3824683"><ele>792.0</ele><time>2026-05-03T13:33:24.234Z</time></trkpt><trkpt lat="45.1473967" lon="7.382335"><ele>792.0</ele><time>2026-05-03T13:33:25.235Z</time></trkpt><trkpt lat="45.1474283" lon="7.382215"><ele>792.0</ele><time>2026-05-03T13:33:26.235Z</time></trkpt><trkpt lat="45.147475" lon="7.3820967"><ele>792.0</ele><time>2026-05-03T13:33:27.235Z</time></trkpt><trkpt lat="45.1475217" lon="7.3819817"><ele>792.0</ele><time>2026-05-03T13:33:28.235Z</time></trkpt><trkpt lat="45.1475617" lon="7.3818633"><ele>792.1666666666666</ele><time>2026-05-03T13:33:29.234Z</time></trkpt><trkpt lat="45.147565" lon="7.3817483"><ele>792.3333333333333</ele><time>2026-05-03T13:33:30.235Z</time></trkpt><trkpt lat="45.1475517" lon="7.3816483"><ele>792.5</ele><time>2026-05-03T13:33:31.235Z</time></trkpt><trkpt lat="45.14751" lon="7.3815617"><ele>792.6666666666666</ele><time>2026-05-03T13:33:32.235Z</time></trkpt><trkpt lat="45.147425" lon="7.3814967"><ele>792.8333333333333</ele><time>2026-05-03T13:33:33.234Z</time></trkpt><trkpt lat="45.147325" lon="7.3814333"><ele>793.0</ele><time>2026-05-03T13:33:34.235Z</time></trkpt><trkpt lat="45.147235" lon="7.3813683"><ele>790.2</ele><time>2026-05-03T13:33:35.235Z</time></trkpt><trkpt lat="45.1471383" lon="7.381325"><ele>787.4</ele><time>2026-05-03T13:33:36.235Z</time></trkpt><trkpt lat="45.1470583" lon="7.3812517"><ele>784.6</ele><time>2026-05-03T13:33:37.234Z</time></trkpt><trkpt lat="45.1469683" lon="7.3811983"><ele>781.8000000000001</ele><time>2026-05-03T13:33:38.235Z</time></trkpt><trkpt lat="45.1468833" lon="7.3811483"><ele>779.0</ele><time>2026-05-03T13:33:39.235Z</time></trkpt><trkpt lat="45.146805" lon="7.381095"><ele>779.0</ele><time>2026-05-03T13:33:40.235Z</time></trkpt><trkpt lat="45.14673" lon="7.3810333"><ele>779.0</ele><time>2026-05-03T13:33:41.235Z</time></trkpt><trkpt lat="45.146665" lon="7.3809517"><ele>779.0</ele><time>2026-05-03T13:33:42.234Z</time></trkpt><trkpt lat="45.1466067" lon="7.3808567"><ele>779.0</ele><time>2026-05-03T13:33:43.235Z</time></trkpt><trkpt lat="45.1465483" lon="7.3807467"><ele>779.0</ele><time>2026-05-03T13:33:44.235Z</time></trkpt><trkpt lat="45.1465" lon="7.380625"><ele>778.8000000000001</ele><time>2026-05-03T13:33:45.235Z</time></trkpt><trkpt lat="45.146455" lon="7.3805067"><ele>778.6</ele><time>2026-05-03T13:33:46.235Z</time></trkpt><trkpt lat="45.1464217" lon="7.3803833"><ele>778.4</ele><time>2026-05-03T13:33:47.235Z</time></trkpt><trkpt lat="45.1463883" lon="7.3802567"><ele>778.2</ele><time>2026-05-03T13:33:48.235Z</time></trkpt><trkpt lat="45.1463417" lon="7.380145"><ele>778.0</ele><time>2026-05-03T13:33:49.234Z</time></trkpt><trkpt lat="45.1462967" lon="7.3800433"><ele>778.0</ele><time>2026-05-03T13:33:50.235Z</time></trkpt><trkpt lat="45.1462283" lon="7.38"><ele>778.0</ele><time>2026-05-03T13:33:51.235Z</time></trkpt><trkpt lat="45.14615" lon="7.3800233"><ele>778.0</ele><time>2026-05-03T13:33:52.235Z</time></trkpt><trkpt lat="45.14607" lon="7.380095"><ele>778.0</ele><time>2026-05-03T13:33:53.235Z</time></trkpt><trkpt lat="45.1459983" lon="7.3801933"><ele>778.0</ele><time>2026-05-03T13:33:54.235Z</time></trkpt><trkpt lat="45.145935" lon="7.380305"><ele>777.9999999999999</ele><time>2026-05-03T13:33:55.234Z</time></trkpt><trkpt lat="45.145875" lon="7.3804167"><ele>778.0</ele><time>2026-05-03T13:33:56.235Z</time></trkpt><trkpt lat="45.1458167" lon="7.3805133"><ele>778.0</ele><time>2026-05-03T13:33:57.235Z</time></trkpt><trkpt lat="45.1457533" lon="7.3805833"><ele>778.0</ele><time>2026-05-03T13:33:58.235Z</time></trkpt><trkpt lat="45.1456983" lon="7.380635"><ele>777.9999999999999</ele><time>2026-05-03T13:33:59.235Z</time></trkpt><trkpt lat="45.1456283" lon="7.3806717"><ele>778.0</ele><time>2026-05-03T13:34:00.235Z</time></trkpt><trkpt lat="45.1455583" lon="7.38067"><ele>774.2857142857143</ele><time>2026-05-03T13:34:01.235Z</time></trkpt><trkpt lat="45.14549" lon="7.38065"><ele>770.5714285714286</ele><time>2026-05-03T13:34:02.235Z</time></trkpt><trkpt lat="45.1454267" lon="7.3806133"><ele>766.8571428571429</ele><time>2026-05-03T13:34:03.235Z</time></trkpt><trkpt lat="45.1453633" lon="7.3805583"><ele>763.1428571428571</ele><time>2026-05-03T13:34:04.235Z</time></trkpt><trkpt lat="45.145305" lon="7.3804883"><ele>759.4285714285713</ele><time>2026-05-03T13:34:05.235Z</time></trkpt><trkpt lat="45.14526" lon="7.3804083"><ele>755.7142857142857</ele><time>2026-05-03T13:34:06.235Z</time></trkpt><trkpt lat="45.1452283" lon="7.3803167"><ele>752.0</ele><time>2026-05-03T13:34:07.235Z</time></trkpt><trkpt lat="45.1452183" lon="7.380225"><ele>752.0</ele><time>2026-05-03T13:34:08.235Z</time></trkpt><trkpt lat="45.1452183" lon="7.3801133"><ele>752.0</ele><time>2026-05-03T13:34:09.235Z</time></trkpt><trkpt lat="45.14521" lon="7.3800133"><ele>752.0</ele><time>2026-05-03T13:34:10.235Z</time></trkpt><trkpt lat="45.1451533" lon="7.3798633"><ele>752.0</ele><time>2026-05-03T13:34:12.234Z</time></trkpt><trkpt lat="45.1450767" lon="7.3797933"><ele>752.0</ele><time>2026-05-03T13:34:14.235Z</time></trkpt><trkpt lat="45.1449917" lon="7.3797383"><ele>751.3333333333333</ele><time>2026-05-03T13:34:17.235Z</time></trkpt><trkpt lat="45.14494" lon="7.3796717"><ele>750.6666666666666</ele><time>2026-05-03T13:34:19.235Z</time></trkpt><trkpt lat="45.1449017" lon="7.3795783"><ele>750.0</ele><time>2026-05-03T13:34:21.235Z</time></trkpt><trkpt lat="45.1448567" lon="7.37945"><ele>749.3333333333334</ele><time>2026-05-03T13:34:23.235Z</time></trkpt><trkpt lat="45.1448333" lon="7.3793583"><ele>748.6666666666667</ele><time>2026-05-03T13:34:24.235Z</time></trkpt><trkpt lat="45.1448033" lon="7.3792733"><ele>748.0</ele><time>2026-05-03T13:34:25.235Z</time></trkpt><trkpt lat="45.14472" lon="7.3791483"><ele>748.0</ele><time>2026-05-03T13:34:27.235Z</time></trkpt><trkpt lat="45.1446567" lon="7.3790117"><ele>748.0</ele><time>2026-05-03T13:34:29.235Z</time></trkpt><trkpt lat="45.14456" lon="7.37897"><ele>748.0</ele><time>2026-05-03T13:34:31.235Z</time></trkpt><trkpt lat="45.1444617" lon="7.3790417"><ele>748.0</ele><time>2026-05-03T13:34:33.235Z</time></trkpt><trkpt lat="45.144405" lon="7.3790917"><ele>748.0</ele><time>2026-05-03T13:34:34.235Z</time></trkpt><trkpt lat="45.1443467" lon="7.37913"><ele>748.0</ele><time>2026-05-03T13:34:35.235Z</time></trkpt><trkpt lat="45.144295" lon="7.379185"><ele>748.0</ele><time>2026-05-03T13:34:36.235Z</time></trkpt><trkpt lat="45.1442417" lon="7.37924"><ele>748.0</ele><time>2026-05-03T13:34:37.235Z</time></trkpt><trkpt lat="45.14415" lon="7.3793533"><ele>748.0</ele><time>2026-05-03T13:34:39.235Z</time></trkpt><trkpt lat="45.144045" lon="7.3794433"><ele>748.0</ele><time>2026-05-03T13:34:41.235Z</time></trkpt><trkpt lat="45.1439783" lon="7.3794667"><ele>748.0</ele><time>2026-05-03T13:34:42.234Z</time></trkpt><trkpt lat="45.1439067" lon="7.3794783"><ele>745.5</ele><time>2026-05-03T13:34:43.234Z</time></trkpt><trkpt lat="45.1438383" lon="7.3794867"><ele>743.0</ele><time>2026-05-03T13:34:44.235Z</time></trkpt><trkpt lat="45.14376" lon="7.37948"><ele>740.5</ele><time>2026-05-03T13:34:45.235Z</time></trkpt><trkpt lat="45.1436817" lon="7.37946"><ele>738.0</ele><time>2026-05-03T13:34:46.235Z</time></trkpt><trkpt lat="45.1436033" lon="7.379435"><ele>735.5</ele><time>2026-05-03T13:34:47.235Z</time></trkpt><trkpt lat="45.1435283" lon="7.3794083"><ele>733.0</ele><time>2026-05-03T13:34:48.235Z</time></trkpt><trkpt lat="45.1434433" lon="7.37938"><ele>733.0</ele><time>2026-05-03T13:34:49.235Z</time></trkpt><trkpt lat="45.1433617" lon="7.3793483"><ele>733.0</ele><time>2026-05-03T13:34:50.235Z</time></trkpt><trkpt lat="45.1432883" lon="7.379305"><ele>733.0</ele><time>2026-05-03T13:34:51.235Z</time></trkpt><trkpt lat="45.1432117" lon="7.379255"><ele>733.0</ele><time>2026-05-03T13:34:52.234Z</time></trkpt><trkpt lat="45.1431433" lon="7.3791933"><ele>733.0</ele><time>2026-05-03T13:34:53.235Z</time></trkpt><trkpt lat="45.14308" lon="7.3791233"><ele>733.0</ele><time>2026-05-03T13:34:54.235Z</time></trkpt><trkpt lat="45.143015" lon="7.37905"><ele>733.6666666666667</ele><time>2026-05-03T13:34:55.235Z</time></trkpt><trkpt lat="45.14295" lon="7.3789817"><ele>734.3333333333334</ele><time>2026-05-03T13:34:56.235Z</time></trkpt><trkpt lat="45.1428833" lon="7.3789217"><ele>735.0</ele><time>2026-05-03T13:34:57.235Z</time></trkpt><trkpt lat="45.1428133" lon="7.3788617"><ele>735.6666666666666</ele><time>2026-05-03T13:34:58.235Z</time></trkpt><trkpt lat="45.142745" lon="7.3788133"><ele>736.3333333333333</ele><time>2026-05-03T13:34:59.234Z</time></trkpt><trkpt lat="45.14267" lon="7.378785"><ele>737.0</ele><time>2026-05-03T13:35:00.234Z</time></trkpt><trkpt lat="45.14259" lon="7.3787767"><ele>737.0</ele><time>2026-05-03T13:35:01.235Z</time></trkpt><trkpt lat="45.1425133" lon="7.3787933"><ele>737.0</ele><time>2026-05-03T13:35:02.235Z</time></trkpt><trkpt lat="45.14243" lon="7.3788267"><ele>737.0</ele><time>2026-05-03T13:35:03.235Z</time></trkpt><trkpt lat="45.1423467" lon="7.37886"><ele>737.0</ele><time>2026-05-03T13:35:04.235Z</time></trkpt><trkpt lat="45.1422633" lon="7.378885"><ele>737.0</ele><time>2026-05-03T13:35:05.234Z</time></trkpt><trkpt lat="45.1421833" lon="7.378905"><ele>737.0</ele><time>2026-05-03T13:35:06.235Z</time></trkpt><trkpt lat="45.14211" lon="7.3789167"><ele>733.8333333333333</ele><time>2026-05-03T13:35:07.234Z</time></trkpt><trkpt lat="45.1420433" lon="7.37892"><ele>730.6666666666666</ele><time>2026-05-03T13:35:08.235Z</time></trkpt><trkpt lat="45.14198" lon="7.3789117"><ele>727.5</ele><time>2026-05-03T13:35:09.235Z</time></trkpt><trkpt lat="45.141915" lon="7.37891"><ele>724.3333333333334</ele><time>2026-05-03T13:35:10.235Z</time></trkpt><trkpt lat="45.1418517" lon="7.3789217"><ele>721.1666666666667</ele><time>2026-05-03T13:35:11.235Z</time></trkpt><trkpt lat="45.1417883" lon="7.378935"><ele>718.0</ele><time>2026-05-03T13:35:12.235Z</time></trkpt><trkpt lat="45.1416583" lon="7.3789433"><ele>718.0</ele><time>2026-05-03T13:35:14.235Z</time></trkpt><trkpt lat="45.1415767" lon="7.3789333"><ele>718.0</ele><time>2026-05-03T13:35:15.235Z</time></trkpt><trkpt lat="45.1414833" lon="7.37893"><ele>718.0</ele><time>2026-05-03T13:35:16.235Z</time></trkpt><trkpt lat="45.1413833" lon="7.3789267"><ele>718.0</ele><time>2026-05-03T13:35:17.234Z</time></trkpt><trkpt lat="45.1412833" lon="7.3789317"><ele>718.0</ele><time>2026-05-03T13:35:18.235Z</time></trkpt><trkpt lat="45.1411817" lon="7.3789283"><ele>718.5999999999999</ele><time>2026-05-03T13:35:19.235Z</time></trkpt><trkpt lat="45.1410883" lon="7.378915"><ele>719.1999999999999</ele><time>2026-05-03T13:35:20.235Z</time></trkpt><trkpt lat="45.140985" lon="7.3788833"><ele>719.8</ele><time>2026-05-03T13:35:21.234Z</time></trkpt><trkpt lat="45.1408867" lon="7.3788583"><ele>720.4</ele><time>2026-05-03T13:35:22.235Z</time></trkpt><trkpt lat="45.1407967" lon="7.37883"><ele>721.0</ele><time>2026-05-03T13:35:23.235Z</time></trkpt><trkpt lat="45.14071" lon="7.3788067"><ele>719.1666666666667</ele><time>2026-05-03T13:35:24.235Z</time></trkpt><trkpt lat="45.140625" lon="7.3787767"><ele>717.3333333333334</ele><time>2026-05-03T13:35:25.235Z</time></trkpt><trkpt lat="45.1405467" lon="7.378745"><ele>715.5</ele><time>2026-05-03T13:35:26.235Z</time></trkpt><trkpt lat="45.1404767" lon="7.3787067"><ele>713.6666666666666</ele><time>2026-05-03T13:35:27.235Z</time></trkpt><trkpt lat="45.1404133" lon="7.37864"><ele>711.8333333333333</ele><time>2026-05-03T13:35:28.235Z</time></trkpt><trkpt lat="45.140345" lon="7.3785717"><ele>710.0</ele><time>2026-05-03T13:35:29.235Z</time></trkpt><trkpt lat="45.1402783" lon="7.3784933"><ele>710.0</ele><time>2026-05-03T13:35:30.235Z</time></trkpt><trkpt lat="45.1402183" lon="7.3784017"><ele>710.0</ele><time>2026-05-03T13:35:31.235Z</time></trkpt><trkpt lat="45.1401533" lon="7.3783083"><ele>710.0</ele><time>2026-05-03T13:35:32.235Z</time></trkpt><trkpt lat="45.14008" lon="7.378215"><ele>710.0</ele><time>2026-05-03T13:35:33.235Z</time></trkpt><trkpt lat="45.1400017" lon="7.3781333"><ele>710.0</ele><time>2026-05-03T13:35:34.235Z</time></trkpt><trkpt lat="45.1399283" lon="7.3780383"><ele>710.4</ele><time>2026-05-03T13:35:35.235Z</time></trkpt><trkpt lat="45.139865" lon="7.377935"><ele>710.8</ele><time>2026-05-03T13:35:36.235Z</time></trkpt><trkpt lat="45.1398117" lon="7.377825"><ele>711.2</ele><time>2026-05-03T13:35:37.235Z</time></trkpt><trkpt lat="45.1397567" lon="7.3777167"><ele>711.6</ele><time>2026-05-03T13:35:38.235Z</time></trkpt><trkpt lat="45.13971" lon="7.3776067"><ele>712.0</ele><time>2026-05-03T13:35:39.235Z</time></trkpt><trkpt lat="45.1396667" lon="7.3774817"><ele>712.0</ele><time>2026-05-03T13:35:40.235Z</time></trkpt><trkpt lat="45.1396167" lon="7.3773533"><ele>712.0</ele><time>2026-05-03T13:35:41.235Z</time></trkpt><trkpt lat="45.139565" lon="7.3772167"><ele>712.0</ele><time>2026-05-03T13:35:42.235Z</time></trkpt><trkpt lat="45.13952" lon="7.3770883"><ele>712.0</ele><time>2026-05-03T13:35:43.235Z</time></trkpt><trkpt lat="45.1394767" lon="7.3769767"><ele>712.0</ele><time>2026-05-03T13:35:44.235Z</time></trkpt><trkpt lat="45.13944" lon="7.376865"><ele>715.6</ele><time>2026-05-03T13:35:45.235Z</time></trkpt><trkpt lat="45.1394117" lon="7.3767533"><ele>719.2</ele><time>2026-05-03T13:35:46.235Z</time></trkpt><trkpt lat="45.1393633" lon="7.3766433"><ele>722.8</ele><time>2026-05-03T13:35:47.235Z</time></trkpt><trkpt lat="45.1393067" lon="7.37653"><ele>726.4</ele><time>2026-05-03T13:35:48.234Z</time></trkpt><trkpt lat="45.13924" lon="7.37642"><ele>730.0</ele><time>2026-05-03T13:35:49.235Z</time></trkpt><trkpt lat="45.139165" lon="7.3763267"><ele>732.8</ele><time>2026-05-03T13:35:50.235Z</time></trkpt><trkpt lat="45.1390817" lon="7.3762333"><ele>735.6</ele><time>2026-05-03T13:35:51.235Z</time></trkpt><trkpt lat="45.1389967" lon="7.3761483"><ele>738.4000000000001</ele><time>2026-05-03T13:35:52.235Z</time></trkpt><trkpt lat="45.138905" lon="7.3760917"><ele>741.2</ele><time>2026-05-03T13:35:53.235Z</time></trkpt><trkpt lat="45.13881" lon="7.3760517"><ele>744.0</ele><time>2026-05-03T13:35:54.235Z</time></trkpt><trkpt lat="45.1387133" lon="7.3760233"><ele>744.6</ele><time>2026-05-03T13:35:55.235Z</time></trkpt><trkpt lat="45.1386117" lon="7.37601"><ele>745.2</ele><time>2026-05-03T13:35:56.234Z</time></trkpt><trkpt lat="45.1385183" lon="7.3759667"><ele>745.8000000000001</ele><time>2026-05-03T13:35:57.235Z</time></trkpt><trkpt lat="45.138425" lon="7.3759117"><ele>746.4000000000001</ele><time>2026-05-03T13:35:58.235Z</time></trkpt><trkpt lat="45.1383317" lon="7.3758567"><ele>747.0</ele><time>2026-05-03T13:35:59.235Z</time></trkpt><trkpt lat="45.1382367" lon="7.3758267"><ele>747.4000000000001</ele><time>2026-05-03T13:36:00.235Z</time></trkpt><trkpt lat="45.138125" lon="7.37581"><ele>747.8000000000001</ele><time>2026-05-03T13:36:01.235Z</time></trkpt><trkpt lat="45.138015" lon="7.37579"><ele>748.2</ele><time>2026-05-03T13:36:02.235Z</time></trkpt><trkpt lat="45.13791" lon="7.375765"><ele>748.6</ele><time>2026-05-03T13:36:03.235Z</time></trkpt><trkpt lat="45.1378033" lon="7.3757433"><ele>749.0</ele><time>2026-05-03T13:36:04.235Z</time></trkpt><trkpt lat="45.1377067" lon="7.375735"><ele>749.0</ele><time>2026-05-03T13:36:05.235Z</time></trkpt><trkpt lat="45.1376133" lon="7.3757267"><ele>749.0</ele><time>2026-05-03T13:36:06.235Z</time></trkpt><trkpt lat="45.1375233" lon="7.3757183"><ele>749.0</ele><time>2026-05-03T13:36:07.235Z</time></trkpt><trkpt lat="45.13744" lon="7.3756817"><ele>749.0</ele><time>2026-05-03T13:36:08.235Z</time></trkpt><trkpt lat="45.1373667" lon="7.37563"><ele>749.0</ele><time>2026-05-03T13:36:09.235Z</time></trkpt><trkpt lat="45.1372967" lon="7.37557"><ele>749.0</ele><time>2026-05-03T13:36:10.235Z</time></trkpt><trkpt lat="45.1372267" lon="7.375505"><ele>752.6</ele><time>2026-05-03T13:36:11.235Z</time></trkpt><trkpt lat="45.137155" lon="7.3754383"><ele>756.2</ele><time>2026-05-03T13:36:12.235Z</time></trkpt><trkpt lat="45.1370733" lon="7.37537"><ele>759.8000000000001</ele><time>2026-05-03T13:36:13.235Z</time></trkpt><trkpt lat="45.13699" lon="7.375315"><ele>763.4000000000001</ele><time>2026-05-03T13:36:14.235Z</time></trkpt><trkpt lat="45.1369067" lon="7.3752683"><ele>767.0</ele><time>2026-05-03T13:36:15.235Z</time></trkpt><trkpt lat="45.1368167" lon="7.3752233"><ele>767.0</ele><time>2026-05-03T13:36:16.235Z</time></trkpt><trkpt lat="45.1367283" lon="7.3751933"><ele>767.0</ele><time>2026-05-03T13:36:17.234Z</time></trkpt><trkpt lat="45.1366333" lon="7.3751767"><ele>767.0</ele><time>2026-05-03T13:36:18.235Z</time></trkpt><trkpt lat="45.1365417" lon="7.3751533"><ele>767.0</ele><time>2026-05-03T13:36:19.235Z</time></trkpt><trkpt lat="45.1364567" lon="7.3751533"><ele>767.0</ele><time>2026-05-03T13:36:20.235Z</time></trkpt><trkpt lat="45.1363717" lon="7.3751683"><ele>768.1666666666666</ele><time>2026-05-03T13:36:21.235Z</time></trkpt><trkpt lat="45.1362817" lon="7.3751983"><ele>769.3333333333333</ele><time>2026-05-03T13:36:22.235Z</time></trkpt><trkpt lat="45.1361983" lon="7.3752467"><ele>770.5</ele><time>2026-05-03T13:36:23.235Z</time></trkpt><trkpt lat="45.1361217" lon="7.37528"><ele>771.6666666666666</ele><time>2026-05-03T13:36:24.235Z</time></trkpt><trkpt lat="45.136045" lon="7.37531"><ele>772.8333333333334</ele><time>2026-05-03T13:36:25.235Z</time></trkpt><trkpt lat="45.1359733" lon="7.3753467"><ele>774.0</ele><time>2026-05-03T13:36:26.235Z</time></trkpt><trkpt lat="45.135905" lon="7.3753533"><ele>774.0</ele><time>2026-05-03T13:36:27.235Z</time></trkpt><trkpt lat="45.1357883" lon="7.3753033"><ele>774.0</ele><time>2026-05-03T13:36:29.234Z</time></trkpt><trkpt lat="45.13568" lon="7.3752333"><ele>774.0</ele><time>2026-05-03T13:36:31.235Z</time></trkpt><trkpt lat="45.135625" lon="7.375175"><ele>774.0</ele><time>2026-05-03T13:36:32.235Z</time></trkpt><trkpt lat="45.1355717" lon="7.3750933"><ele>774.0</ele><time>2026-05-03T13:36:33.235Z</time></trkpt><trkpt lat="45.1355167" lon="7.375"><ele>774.6666666666666</ele><time>2026-05-03T13:36:34.235Z</time></trkpt><trkpt lat="45.1354617" lon="7.3749083"><ele>775.3333333333333</ele><time>2026-05-03T13:36:35.235Z</time></trkpt><trkpt lat="45.135415" lon="7.374815"><ele>776.0</ele><time>2026-05-03T13:36:36.235Z</time></trkpt><trkpt lat="45.1353567" lon="7.3747267"><ele>776.6666666666666</ele><time>2026-05-03T13:36:37.234Z</time></trkpt><trkpt lat="45.135305" lon="7.37463"><ele>777.3333333333333</ele><time>2026-05-03T13:36:38.235Z</time></trkpt><trkpt lat="45.13525" lon="7.374545"><ele>778.0</ele><time>2026-05-03T13:36:39.235Z</time></trkpt><trkpt lat="45.1352017" lon="7.3744667"><ele>777.9999999999999</ele><time>2026-05-03T13:36:40.235Z</time></trkpt><trkpt lat="45.1351533" lon="7.37439"><ele>778.0</ele><time>2026-05-03T13:36:41.235Z</time></trkpt><trkpt lat="45.13511" lon="7.3743133"><ele>778.0</ele><time>2026-05-03T13:36:42.235Z</time></trkpt><trkpt lat="45.135055" lon="7.37424"><ele>778.0</ele><time>2026-05-03T13:36:43.235Z</time></trkpt><trkpt lat="45.1350033" lon="7.37418"><ele>777.9999999999999</ele><time>2026-05-03T13:36:44.235Z</time></trkpt><trkpt lat="45.1349517" lon="7.3741283"><ele>778.0</ele><time>2026-05-03T13:36:45.234Z</time></trkpt><trkpt lat="45.13487" lon="7.3740067"><ele>773.6666666666666</ele><time>2026-05-03T13:36:47.235Z</time></trkpt><trkpt lat="45.1348233" lon="7.3738733"><ele>769.3333333333333</ele><time>2026-05-03T13:36:49.235Z</time></trkpt><trkpt lat="45.1347967" lon="7.37379"><ele>765.0</ele><time>2026-05-03T13:36:50.235Z</time></trkpt><trkpt lat="45.1347483" lon="7.373705"><ele>760.6666666666666</ele><time>2026-05-03T13:36:51.235Z</time></trkpt><trkpt lat="45.134715" lon="7.37362"><ele>756.3333333333333</ele><time>2026-05-03T13:36:52.234Z</time></trkpt><trkpt lat="45.1346883" lon="7.3735133"><ele>752.0</ele><time>2026-05-03T13:36:53.235Z</time></trkpt><trkpt lat="45.1346717" lon="7.373405"><ele>752.0</ele><time>2026-05-03T13:36:54.235Z</time></trkpt><trkpt lat="45.13467" lon="7.3732883"><ele>752.0</ele><time>2026-05-03T13:36:55.235Z</time></trkpt><trkpt lat="45.1346783" lon="7.3731733"><ele>752.0</ele><time>2026-05-03T13:36:56.235Z</time></trkpt><trkpt lat="45.134685" lon="7.3730567"><ele>752.0</ele><time>2026-05-03T13:36:57.234Z</time></trkpt><trkpt lat="45.1346883" lon="7.3729333"><ele>752.0</ele><time>2026-05-03T13:36:58.235Z</time></trkpt><trkpt lat="45.1346867" lon="7.372815"><ele>752.0</ele><time>2026-05-03T13:36:59.235Z</time></trkpt><trkpt lat="45.1346883" lon="7.3727067"><ele>752.3333333333333</ele><time>2026-05-03T13:37:00.235Z</time></trkpt><trkpt lat="45.13468" lon="7.3725983"><ele>752.6666666666666</ele><time>2026-05-03T13:37:01.235Z</time></trkpt><trkpt lat="45.1346733" lon="7.3724917"><ele>753.0</ele><time>2026-05-03T13:37:02.235Z</time></trkpt><trkpt lat="45.1346633" lon="7.37238"><ele>753.3333333333334</ele><time>2026-05-03T13:37:03.234Z</time></trkpt><trkpt lat="45.1346583" lon="7.3722733"><ele>753.6666666666667</ele><time>2026-05-03T13:37:04.235Z</time></trkpt><trkpt lat="45.1346533" lon="7.3721567"><ele>754.0</ele><time>2026-05-03T13:37:05.235Z</time></trkpt><trkpt lat="45.13465" lon="7.3720417"><ele>754.6666666666667</ele><time>2026-05-03T13:37:06.235Z</time></trkpt><trkpt lat="45.134645" lon="7.3719233"><ele>755.3333333333334</ele><time>2026-05-03T13:37:07.235Z</time></trkpt><trkpt lat="45.1346417" lon="7.3718017"><ele>756.0</ele><time>2026-05-03T13:37:08.234Z</time></trkpt><trkpt lat="45.1346417" lon="7.371675"><ele>756.6666666666666</ele><time>2026-05-03T13:37:09.235Z</time></trkpt><trkpt lat="45.1346367" lon="7.371545"><ele>757.3333333333333</ele><time>2026-05-03T13:37:10.235Z</time></trkpt><trkpt lat="45.1346283" lon="7.3714117"><ele>758.0</ele><time>2026-05-03T13:37:11.235Z</time></trkpt><trkpt lat="45.1346217" lon="7.371285"><ele>758.8333333333333</ele><time>2026-05-03T13:37:12.235Z</time></trkpt><trkpt lat="45.1346267" lon="7.37117"><ele>759.6666666666666</ele><time>2026-05-03T13:37:13.235Z</time></trkpt><trkpt lat="45.134635" lon="7.3710517"><ele>760.5</ele><time>2026-05-03T13:37:14.235Z</time></trkpt><trkpt lat="45.1346533" lon="7.3709417"><ele>761.3333333333334</ele><time>2026-05-03T13:37:15.235Z</time></trkpt><trkpt lat="45.1346833" lon="7.370845"><ele>762.1666666666667</ele><time>2026-05-03T13:37:16.234Z</time></trkpt><trkpt lat="45.134715" lon="7.370745"><ele>763.0</ele><time>2026-05-03T13:37:17.234Z</time></trkpt><trkpt lat="45.1347433" lon="7.3706417"><ele>763.0</ele><time>2026-05-03T13:37:18.235Z</time></trkpt><trkpt lat="45.1347667" lon="7.37054"><ele>763.0</ele><time>2026-05-03T13:37:19.235Z</time></trkpt><trkpt lat="45.134775" lon="7.37044"><ele>763.0</ele><time>2026-05-03T13:37:20.235Z</time></trkpt><trkpt lat="45.134755" lon="7.3702717"><ele>763.0</ele><time>2026-05-03T13:37:22.235Z</time></trkpt><trkpt lat="45.1346767" lon="7.370155"><ele>763.0</ele><time>2026-05-03T13:37:24.235Z</time></trkpt><trkpt lat="45.1346183" lon="7.3701067"><ele>763.0</ele><time>2026-05-03T13:37:25.235Z</time></trkpt><trkpt lat="45.134555" lon="7.3700717"><ele>764.6666666666667</ele><time>2026-05-03T13:37:26.235Z</time></trkpt><trkpt lat="45.1344783" lon="7.37005"><ele>766.3333333333334</ele><time>2026-05-03T13:37:27.235Z</time></trkpt><trkpt lat="45.1343933" lon="7.37004"><ele>768.0</ele><time>2026-05-03T13:37:28.235Z</time></trkpt><trkpt lat="45.1343117" lon="7.3700283"><ele>769.6666666666667</ele><time>2026-05-03T13:37:29.235Z</time></trkpt><trkpt lat="45.13423" lon="7.37003"><ele>771.3333333333334</ele><time>2026-05-03T13:37:30.235Z</time></trkpt><trkpt lat="45.134155" lon="7.3700183"><ele>773.0</ele><time>2026-05-03T13:37:31.234Z</time></trkpt><trkpt lat="45.13407" lon="7.3700033"><ele>773.1666666666667</ele><time>2026-05-03T13:37:32.235Z</time></trkpt><trkpt lat="45.1339883" lon="7.3699717"><ele>773.3333333333334</ele><time>2026-05-03T13:37:33.235Z</time></trkpt><trkpt lat="45.1339067" lon="7.369935"><ele>773.5</ele><time>2026-05-03T13:37:34.235Z</time></trkpt><trkpt lat="45.1338217" lon="7.369905"><ele>773.6666666666667</ele><time>2026-05-03T13:37:35.235Z</time></trkpt><trkpt lat="45.13375" lon="7.36988"><ele>773.8333333333334</ele><time>2026-05-03T13:37:36.235Z</time></trkpt><trkpt lat="45.1336817" lon="7.3698417"><ele>774.0</ele><time>2026-05-03T13:37:37.235Z</time></trkpt><trkpt lat="45.13361" lon="7.36981"><ele>774.0</ele><time>2026-05-03T13:37:38.235Z</time></trkpt><trkpt lat="45.13354" lon="7.36978"><ele>774.0</ele><time>2026-05-03T13:37:39.235Z</time></trkpt><trkpt lat="45.133465" lon="7.3697533"><ele>774.0</ele><time>2026-05-03T13:37:40.235Z</time></trkpt><trkpt lat="45.1333917" lon="7.3697367"><ele>774.0</ele><time>2026-05-03T13:37:41.235Z</time></trkpt><trkpt lat="45.1333083" lon="7.369725"><ele>774.0</ele><time>2026-05-03T13:37:42.234Z</time></trkpt><trkpt lat="45.1332217" lon="7.3697117"><ele>774.0</ele><time>2026-05-03T13:37:43.235Z</time></trkpt><trkpt lat="45.1331267" lon="7.369695"><ele>775.0</ele><time>2026-05-03T13:37:44.235Z</time></trkpt><trkpt lat="45.1330283" lon="7.3696783"><ele>776.0</ele><time>2026-05-03T13:37:45.235Z</time></trkpt><trkpt lat="45.1329317" lon="7.3696567"><ele>777.0</ele><time>2026-05-03T13:37:46.235Z</time></trkpt><trkpt lat="45.1328383" lon="7.3696417"><ele>778.0</ele><time>2026-05-03T13:37:47.235Z</time></trkpt><trkpt lat="45.13276" lon="7.369625"><ele>779.0</ele><time>2026-05-03T13:37:48.235Z</time></trkpt><trkpt lat="45.1326867" lon="7.3696033"><ele>780.0</ele><time>2026-05-03T13:37:49.235Z</time></trkpt><trkpt lat="45.13262" lon="7.3695667"><ele>780.0</ele><time>2026-05-03T13:37:50.235Z</time></trkpt><trkpt lat="45.132505" lon="7.3694767"><ele>780.0</ele><time>2026-05-03T13:37:52.235Z</time></trkpt><trkpt lat="45.1324433" lon="7.36944"><ele>780.0</ele><time>2026-05-03T13:37:53.234Z</time></trkpt><trkpt lat="45.1323783" lon="7.3694133"><ele>780.0</ele><time>2026-05-03T13:37:54.235Z</time></trkpt><trkpt lat="45.13225" lon="7.3694017"><ele>780.0</ele><time>2026-05-03T13:37:56.235Z</time></trkpt><trkpt lat="45.132175" lon="7.3694017"><ele>780.8</ele><time>2026-05-03T13:37:57.235Z</time></trkpt><trkpt lat="45.1320883" lon="7.36942"><ele>781.6</ele><time>2026-05-03T13:37:58.235Z</time></trkpt><trkpt lat="45.13199" lon="7.3694433"><ele>782.4000000000001</ele><time>2026-05-03T13:37:59.234Z</time></trkpt><trkpt lat="45.1319033" lon="7.369485"><ele>783.2</ele><time>2026-05-03T13:38:00.235Z</time></trkpt><trkpt lat="45.1318067" lon="7.36953"><ele>784.0</ele><time>2026-05-03T13:38:01.235Z</time></trkpt><trkpt lat="45.1317183" lon="7.36959"><ele>784.0</ele><time>2026-05-03T13:38:02.235Z</time></trkpt><trkpt lat="45.13162" lon="7.3696533"><ele>784.0</ele><time>2026-05-03T13:38:03.235Z</time></trkpt><trkpt lat="45.1315267" lon="7.3697233"><ele>784.0</ele><time>2026-05-03T13:38:04.235Z</time></trkpt><trkpt lat="45.131435" lon="7.36979"><ele>784.0</ele><time>2026-05-03T13:38:05.235Z</time></trkpt><trkpt lat="45.1313583" lon="7.3698433"><ele>784.0</ele><time>2026-05-03T13:38:06.235Z</time></trkpt><trkpt lat="45.1312867" lon="7.369885"><ele>783.1666666666666</ele><time>2026-05-03T13:38:07.235Z</time></trkpt><trkpt lat="45.1312117" lon="7.3699117"><ele>782.3333333333333</ele><time>2026-05-03T13:38:08.235Z</time></trkpt><trkpt lat="45.131135" lon="7.3699417"><ele>781.5</ele><time>2026-05-03T13:38:09.235Z</time></trkpt><trkpt lat="45.1310483" lon="7.3699333"><ele>780.6666666666667</ele><time>2026-05-03T13:38:10.235Z</time></trkpt><trkpt lat="45.1309617" lon="7.3699183"><ele>779.8333333333334</ele><time>2026-05-03T13:38:11.235Z</time></trkpt><trkpt lat="45.1308783" lon="7.369885"><ele>779.0</ele><time>2026-05-03T13:38:12.235Z</time></trkpt><trkpt lat="45.1308017" lon="7.3698417"><ele>779.0000000000001</ele><time>2026-05-03T13:38:13.235Z</time></trkpt><trkpt lat="45.1307283" lon="7.369775"><ele>779.0</ele><time>2026-05-03T13:38:14.235Z</time></trkpt><trkpt lat="45.130655" lon="7.369705"><ele>779.0</ele><time>2026-05-03T13:38:15.234Z</time></trkpt><trkpt lat="45.1305883" lon="7.3696333"><ele>779.0</ele><time>2026-05-03T13:38:16.234Z</time></trkpt><trkpt lat="45.1305267" lon="7.3695583"><ele>779.0000000000001</ele><time>2026-05-03T13:38:17.235Z</time></trkpt><trkpt lat="45.1304533" lon="7.3694733"><ele>779.0</ele><time>2026-05-03T13:38:18.235Z</time></trkpt><trkpt lat="45.1303833" lon="7.3693833"><ele>781.8333333333334</ele><time>2026-05-03T13:38:19.235Z</time></trkpt><trkpt lat="45.1303167" lon="7.3693083"><ele>784.6666666666667</ele><time>2026-05-03T13:38:20.235Z</time></trkpt><trkpt lat="45.1302633" lon="7.369245"><ele>787.5</ele><time>2026-05-03T13:38:21.235Z</time></trkpt><trkpt lat="45.1302117" lon="7.3691933"><ele>790.3333333333333</ele><time>2026-05-03T13:38:22.235Z</time></trkpt><trkpt lat="45.13013" lon="7.369155"><ele>793.1666666666666</ele><time>2026-05-03T13:38:24.234Z</time></trkpt><trkpt lat="45.13008" lon="7.369215"><ele>796.0</ele><time>2026-05-03T13:38:26.235Z</time></trkpt><trkpt lat="45.1300083" lon="7.3693383"><ele>796.0</ele><time>2026-05-03T13:38:28.235Z</time></trkpt><trkpt lat="45.1299583" lon="7.36942"><ele>796.0</ele><time>2026-05-03T13:38:29.235Z</time></trkpt><trkpt lat="45.1298983" lon="7.3695233"><ele>796.0</ele><time>2026-05-03T13:38:30.235Z</time></trkpt><trkpt lat="45.12984" lon="7.369625"><ele>796.0</ele><time>2026-05-03T13:38:31.235Z</time></trkpt><trkpt lat="45.1297817" lon="7.369725"><ele>796.0</ele><time>2026-05-03T13:38:32.235Z</time></trkpt><trkpt lat="45.12972" lon="7.36983"><ele>796.9999999999999</ele><time>2026-05-03T13:38:33.235Z</time></trkpt><trkpt lat="45.1296717" lon="7.3699433"><ele>798.0</ele><time>2026-05-03T13:38:34.235Z</time></trkpt><trkpt lat="45.1296233" lon="7.3700467"><ele>799.0</ele><time>2026-05-03T13:38:35.235Z</time></trkpt><trkpt lat="45.129575" lon="7.3701467"><ele>800.0</ele><time>2026-05-03T13:38:36.235Z</time></trkpt><trkpt lat="45.1295267" lon="7.3702383"><ele>800.9999999999999</ele><time>2026-05-03T13:38:37.235Z</time></trkpt><trkpt lat="45.1294767" lon="7.3703117"><ele>802.0</ele><time>2026-05-03T13:38:38.235Z</time></trkpt><trkpt lat="45.1294233" lon="7.3703767"><ele>801.9999999999999</ele><time>2026-05-03T13:38:39.235Z</time></trkpt><trkpt lat="45.1293683" lon="7.3704267"><ele>802.0</ele><time>2026-05-03T13:38:40.235Z</time></trkpt><trkpt lat="45.1292917" lon="7.3705033"><ele>802.0</ele><time>2026-05-03T13:38:42.235Z</time></trkpt><trkpt lat="45.1292067" lon="7.3705283"><ele>802.0</ele><time>2026-05-03T13:38:45.235Z</time></trkpt><trkpt lat="45.1291" lon="7.3704833"><ele>801.9999999999999</ele><time>2026-05-03T13:38:47.235Z</time></trkpt><trkpt lat="45.1290333" lon="7.3704617"><ele>802.0</ele><time>2026-05-03T13:38:48.235Z</time></trkpt><trkpt lat="45.12897" lon="7.3704533"><ele>800.0</ele><time>2026-05-03T13:38:49.235Z</time></trkpt><trkpt lat="45.1289033" lon="7.3704533"><ele>798.0</ele><time>2026-05-03T13:38:50.235Z</time></trkpt><trkpt lat="45.1288383" lon="7.3704633"><ele>796.0</ele><time>2026-05-03T13:38:51.235Z</time></trkpt><trkpt lat="45.12872" lon="7.3705083"><ele>794.0</ele><time>2026-05-03T13:38:53.234Z</time></trkpt><trkpt lat="45.1286217" lon="7.370445"><ele>792.0</ele><time>2026-05-03T13:38:55.235Z</time></trkpt><trkpt lat="45.1285317" lon="7.37034"><ele>792.0</ele><time>2026-05-03T13:38:57.234Z</time></trkpt><trkpt lat="45.128475" lon="7.3702767"><ele>792.0</ele><time>2026-05-03T13:38:58.235Z</time></trkpt><trkpt lat="45.1284167" lon="7.3702183"><ele>792.0</ele><time>2026-05-03T13:38:59.235Z</time></trkpt><trkpt lat="45.1283617" lon="7.3701533"><ele>792.0</ele><time>2026-05-03T13:39:00.235Z</time></trkpt><trkpt lat="45.128315" lon="7.3700917"><ele>792.0</ele><time>2026-05-03T13:39:01.234Z</time></trkpt><trkpt lat="45.1282683" lon="7.37002"><ele>792.0</ele><time>2026-05-03T13:39:02.235Z</time></trkpt><trkpt lat="45.1282267" lon="7.3699467"><ele>792.0</ele><time>2026-05-03T13:39:03.235Z</time></trkpt><trkpt lat="45.128145" lon="7.3698333"><ele>788.1666666666666</ele><time>2026-05-03T13:39:05.235Z</time></trkpt><trkpt lat="45.1281017" lon="7.3697"><ele>784.3333333333333</ele><time>2026-05-03T13:39:07.235Z</time></trkpt><trkpt lat="45.1280867" lon="7.3696083"><ele>780.5</ele><time>2026-05-03T13:39:08.235Z</time></trkpt><trkpt lat="45.128075" lon="7.3695133"><ele>776.6666666666666</ele><time>2026-05-03T13:39:09.235Z</time></trkpt><trkpt lat="45.1280667" lon="7.3694067"><ele>772.8333333333333</ele><time>2026-05-03T13:39:10.235Z</time></trkpt><trkpt lat="45.12806" lon="7.3692933"><ele>769.0</ele><time>2026-05-03T13:39:11.235Z</time></trkpt><trkpt lat="45.1280483" lon="7.36919"><ele>768.9999999999999</ele><time>2026-05-03T13:39:12.235Z</time></trkpt><trkpt lat="45.128045" lon="7.3690967"><ele>769.0</ele><time>2026-05-03T13:39:13.235Z</time></trkpt><trkpt lat="45.1280583" lon="7.368915"><ele>769.0</ele><time>2026-05-03T13:39:15.235Z</time></trkpt><trkpt lat="45.1280683" lon="7.3688217"><ele>769.0</ele><time>2026-05-03T13:39:16.235Z</time></trkpt><trkpt lat="45.1280733" lon="7.36873"><ele>768.9999999999999</ele><time>2026-05-03T13:39:17.235Z</time></trkpt><trkpt lat="45.12807" lon="7.3686017"><ele>769.0</ele><time>2026-05-03T13:39:19.235Z</time></trkpt><trkpt lat="45.1280733" lon="7.3684417"><ele>771.2</ele><time>2026-05-03T13:39:21.235Z</time></trkpt><trkpt lat="45.12808" lon="7.3683333"><ele>773.4000000000001</ele><time>2026-05-03T13:39:22.235Z</time></trkpt><trkpt lat="45.1280783" lon="7.3682183"><ele>775.6</ele><time>2026-05-03T13:39:23.234Z</time></trkpt><trkpt lat="45.1280817" lon="7.368095"><ele>777.8</ele><time>2026-05-03T13:39:24.234Z</time></trkpt><trkpt lat="45.1280483" lon="7.36796"><ele>780.0</ele><time>2026-05-03T13:39:25.235Z</time></trkpt><trkpt lat="45.12799" lon="7.3678267"><ele>786.0</ele><time>2026-05-03T13:39:26.235Z</time></trkpt><trkpt lat="45.1279033" lon="7.3677017"><ele>792.0</ele><time>2026-05-03T13:39:27.235Z</time></trkpt><trkpt lat="45.1278083" lon="7.3675883"><ele>798.0</ele><time>2026-05-03T13:39:28.235Z</time></trkpt><trkpt lat="45.127695" lon="7.3674833"><ele>804.0</ele><time>2026-05-03T13:39:29.235Z</time></trkpt><trkpt lat="45.1275817" lon="7.367395"><ele>804.0</ele><time>2026-05-03T13:39:30.235Z</time></trkpt><trkpt lat="45.1274633" lon="7.3673283"><ele>804.0</ele><time>2026-05-03T13:39:31.235Z</time></trkpt><trkpt lat="45.1273467" lon="7.3672883"><ele>804.0</ele><time>2026-05-03T13:39:32.235Z</time></trkpt><trkpt lat="45.1272183" lon="7.3672533"><ele>804.0</ele><time>2026-05-03T13:39:33.235Z</time></trkpt><trkpt lat="45.1271083" lon="7.3672417"><ele>801.2</ele><time>2026-05-03T13:39:34.235Z</time></trkpt><trkpt lat="45.127005" lon="7.3672133"><ele>798.4000000000001</ele><time>2026-05-03T13:39:35.234Z</time></trkpt><trkpt lat="45.1269133" lon="7.367175"><ele>795.6</ele><time>2026-05-03T13:39:36.235Z</time></trkpt><trkpt lat="45.1268383" lon="7.3671233"><ele>792.8</ele><time>2026-05-03T13:39:37.235Z</time></trkpt><trkpt lat="45.126765" lon="7.3670133"><ele>790.0</ele><time>2026-05-03T13:39:39.235Z</time></trkpt><trkpt lat="45.1267883" lon="7.3668733"><ele>794.9999999999999</ele><time>2026-05-03T13:39:41.235Z</time></trkpt><trkpt lat="45.1268767" lon="7.366855"><ele>800.0</ele><time>2026-05-03T13:39:43.235Z</time></trkpt><trkpt lat="45.1269433" lon="7.366875"><ele>805.0</ele><time>2026-05-03T13:39:44.235Z</time></trkpt><trkpt lat="45.127015" lon="7.36689"><ele>810.0</ele><time>2026-05-03T13:39:45.235Z</time></trkpt><trkpt lat="45.127105" lon="7.3668967"><ele>814.9999999999999</ele><time>2026-05-03T13:39:46.235Z</time></trkpt><trkpt lat="45.12722" lon="7.3668933"><ele>820.0</ele><time>2026-05-03T13:39:47.235Z</time></trkpt><trkpt lat="45.12735" lon="7.3668917"><ele>822.75</ele><time>2026-05-03T13:39:48.234Z</time></trkpt><trkpt lat="45.1275" lon="7.3668817"><ele>825.5</ele><time>2026-05-03T13:39:49.235Z</time></trkpt><trkpt lat="45.1276283" lon="7.366875"><ele>828.25</ele><time>2026-05-03T13:39:50.234Z</time></trkpt><trkpt lat="45.1277417" lon="7.3668983"><ele>831.0</ele><time>2026-05-03T13:39:51.234Z</time></trkpt><trkpt lat="45.1278383" lon="7.36692"><ele>831.0</ele><time>2026-05-03T13:39:52.235Z</time></trkpt><trkpt lat="45.127925" lon="7.36696"><ele>831.0</ele><time>2026-05-03T13:39:53.235Z</time></trkpt><trkpt lat="45.1280033" lon="7.3669483"><ele>831.0</ele><time>2026-05-03T13:39:54.235Z</time></trkpt><trkpt lat="45.1280617" lon="7.366895"><ele>831.0</ele><time>2026-05-03T13:39:55.235Z</time></trkpt><trkpt lat="45.1280883" lon="7.3667683"><ele>831.0</ele><time>2026-05-03T13:39:57.235Z</time></trkpt><trkpt lat="45.1279883" lon="7.3667233"><ele>831.0</ele><time>2026-05-03T13:39:59.235Z</time></trkpt><trkpt lat="45.1278783" lon="7.3666983"><ele>831.0</ele><time>2026-05-03T13:40:00.235Z</time></trkpt><trkpt lat="45.1277433" lon="7.3667017"><ele>831.0</ele><time>2026-05-03T13:40:01.235Z</time></trkpt><trkpt lat="45.1275933" lon="7.366685"><ele>831.0</ele><time>2026-05-03T13:40:02.235Z</time></trkpt><trkpt lat="45.12744" lon="7.3666367"><ele>831.0</ele><time>2026-05-03T13:40:03.235Z</time></trkpt><trkpt lat="45.1273067" lon="7.3665667"><ele>828.25</ele><time>2026-05-03T13:40:04.234Z</time></trkpt><trkpt lat="45.1272" lon="7.36647"><ele>825.5</ele><time>2026-05-03T13:40:05.235Z</time></trkpt><trkpt lat="45.1271017" lon="7.366375"><ele>822.75</ele><time>2026-05-03T13:40:06.235Z</time></trkpt><trkpt lat="45.127005" lon="7.366275"><ele>820.0</ele><time>2026-05-03T13:40:07.235Z</time></trkpt><trkpt lat="45.1268983" lon="7.3662017"><ele>817.4</ele><time>2026-05-03T13:40:08.235Z</time></trkpt><trkpt lat="45.1267883" lon="7.366175"><ele>814.8</ele><time>2026-05-03T13:40:09.235Z</time></trkpt><trkpt lat="45.1266783" lon="7.366175"><ele>812.2</ele><time>2026-05-03T13:40:10.235Z</time></trkpt><trkpt lat="45.1265883" lon="7.3661317"><ele>809.6</ele><time>2026-05-03T13:40:11.235Z</time></trkpt><trkpt lat="45.1265167" lon="7.3660383"><ele>807.0</ele><time>2026-05-03T13:40:12.235Z</time></trkpt><trkpt lat="45.1264483" lon="7.3659133"><ele>807.0</ele><time>2026-05-03T13:40:13.235Z</time></trkpt><trkpt lat="45.12637" lon="7.3657533"><ele>807.0</ele><time>2026-05-03T13:40:14.235Z</time></trkpt><trkpt lat="45.1262767" lon="7.3656317"><ele>807.0</ele><time>2026-05-03T13:40:15.235Z</time></trkpt><trkpt lat="45.1261983" lon="7.3654967"><ele>807.0</ele><time>2026-05-03T13:40:16.235Z</time></trkpt><trkpt lat="45.1261383" lon="7.3653433"><ele>808.0</ele><time>2026-05-03T13:40:17.235Z</time></trkpt><trkpt lat="45.12611" lon="7.3651767"><ele>809.0</ele><time>2026-05-03T13:40:18.235Z</time></trkpt><trkpt lat="45.1261117" lon="7.365"><ele>810.0</ele><time>2026-05-03T13:40:19.234Z</time></trkpt><trkpt lat="45.1261467" lon="7.3648333"><ele>811.0</ele><time>2026-05-03T13:40:20.235Z</time></trkpt><trkpt lat="45.1262017" lon="7.36467"><ele>811.0</ele><time>2026-05-03T13:40:21.235Z</time></trkpt><trkpt lat="45.1262717" lon="7.3645167"><ele>811.0</ele><time>2026-05-03T13:40:22.235Z</time></trkpt><trkpt lat="45.1263667" lon="7.3643733"><ele>811.0</ele><time>2026-05-03T13:40:23.235Z</time></trkpt><trkpt lat="45.1264683" lon="7.3642233"><ele>811.0</ele><time>2026-05-03T13:40:24.235Z</time></trkpt><trkpt lat="45.1265683" lon="7.3640583"><ele>818.3333333333333</ele><time>2026-05-03T13:40:25.235Z</time></trkpt><trkpt lat="45.1266717" lon="7.3638883"><ele>825.6666666666667</ele><time>2026-05-03T13:40:26.235Z</time></trkpt><trkpt lat="45.1267783" lon="7.36371"><ele>833.0</ele><time>2026-05-03T13:40:27.235Z</time></trkpt><trkpt lat="45.1268917" lon="7.3635233"><ele>833.0</ele><time>2026-05-03T13:40:28.235Z</time></trkpt><trkpt lat="45.1270083" lon="7.36335"><ele>833.0</ele><time>2026-05-03T13:40:29.235Z</time></trkpt><trkpt lat="45.1271183" lon="7.3631717"><ele>833.0</ele><time>2026-05-03T13:40:30.235Z</time></trkpt><trkpt lat="45.1272317" lon="7.3630067"><ele>838.3333333333334</ele><time>2026-05-03T13:40:31.235Z</time></trkpt><trkpt lat="45.127345" lon="7.3628417"><ele>843.6666666666667</ele><time>2026-05-03T13:40:32.235Z</time></trkpt><trkpt lat="45.1274467" lon="7.3626767"><ele>849.0</ele><time>2026-05-03T13:40:33.235Z</time></trkpt><trkpt lat="45.12756" lon="7.362515"><ele>849.0</ele><time>2026-05-03T13:40:34.235Z</time></trkpt><trkpt lat="45.12767" lon="7.3623617"><ele>849.0</ele><time>2026-05-03T13:40:35.235Z</time></trkpt><trkpt lat="45.1277467" lon="7.3622083"><ele>849.0</ele><time>2026-05-03T13:40:36.235Z</time></trkpt><trkpt lat="45.1278217" lon="7.3620517"><ele>849.0</ele><time>2026-05-03T13:40:37.235Z</time></trkpt><trkpt lat="45.1279033" lon="7.3619083"><ele>844.25</ele><time>2026-05-03T13:40:38.235Z</time></trkpt><trkpt lat="45.128005" lon="7.3617983"><ele>839.5</ele><time>2026-05-03T13:40:39.234Z</time></trkpt><trkpt lat="45.1281167" lon="7.3617083"><ele>834.75</ele><time>2026-05-03T13:40:40.235Z</time></trkpt><trkpt lat="45.1282383" lon="7.3616367"><ele>830.0</ele><time>2026-05-03T13:40:41.235Z</time></trkpt><trkpt lat="45.1283633" lon="7.3615817"><ele>835.25</ele><time>2026-05-03T13:40:42.235Z</time></trkpt><trkpt lat="45.1284783" lon="7.3614933"><ele>840.5</ele><time>2026-05-03T13:40:43.235Z</time></trkpt><trkpt lat="45.1285717" lon="7.361365"><ele>845.75</ele><time>2026-05-03T13:40:44.235Z</time></trkpt><trkpt lat="45.1286383" lon="7.36118"><ele>851.0</ele><time>2026-05-03T13:40:45.235Z</time></trkpt><trkpt lat="45.1286983" lon="7.36099"><ele>851.0</ele><time>2026-05-03T13:40:46.235Z</time></trkpt><trkpt lat="45.1287667" lon="7.3608033"><ele>851.0</ele><time>2026-05-03T13:40:47.235Z</time></trkpt><trkpt lat="45.1288633" lon="7.3606433"><ele>851.0</ele><time>2026-05-03T13:40:48.235Z</time></trkpt><trkpt lat="45.1289633" lon="7.360485"><ele>851.0</ele><time>2026-05-03T13:40:49.235Z</time></trkpt><trkpt lat="45.1290467" lon="7.36031"><ele>858.3333333333334</ele><time>2026-05-03T13:40:50.235Z</time></trkpt><trkpt lat="45.1291117" lon="7.3601067"><ele>865.6666666666667</ele><time>2026-05-03T13:40:51.235Z</time></trkpt><trkpt lat="45.12918" lon="7.3598833"><ele>873.0</ele><time>2026-05-03T13:40:52.235Z</time></trkpt><trkpt lat="45.1292467" lon="7.3596533"><ele>873.0</ele><time>2026-05-03T13:40:53.235Z</time></trkpt><trkpt lat="45.1293117" lon="7.3594283"><ele>873.0</ele><time>2026-05-03T13:40:54.235Z</time></trkpt><trkpt lat="45.1293767" lon="7.3592"><ele>873.0</ele><time>2026-05-03T13:40:55.235Z</time></trkpt><trkpt lat="45.129435" lon="7.3589617"><ele>871.0</ele><time>2026-05-03T13:40:56.235Z</time></trkpt><trkpt lat="45.1295" lon="7.3587267"><ele>869.0</ele><time>2026-05-03T13:40:57.235Z</time></trkpt><trkpt lat="45.129555" lon="7.3585033"><ele>867.0</ele><time>2026-05-03T13:40:58.235Z</time></trkpt><trkpt lat="45.1296067" lon="7.3582967"><ele>867.0</ele><time>2026-05-03T13:40:59.235Z</time></trkpt><trkpt lat="45.1296533" lon="7.3580967"><ele>867.0</ele><time>2026-05-03T13:41:00.235Z</time></trkpt><trkpt lat="45.1296967" lon="7.3579117"><ele>867.0</ele><time>2026-05-03T13:41:01.235Z</time></trkpt><trkpt lat="45.1297367" lon="7.3577417"><ele>867.0</ele><time>2026-05-03T13:41:02.235Z</time></trkpt><trkpt lat="45.1297583" lon="7.3575783"><ele>866.8333333333334</ele><time>2026-05-03T13:41:03.235Z</time></trkpt><trkpt lat="45.1297733" lon="7.3574267"><ele>866.6666666666667</ele><time>2026-05-03T13:41:04.235Z</time></trkpt><trkpt lat="45.129785" lon="7.35729"><ele>866.5</ele><time>2026-05-03T13:41:05.235Z</time></trkpt><trkpt lat="45.1297967" lon="7.357175"><ele>866.3333333333334</ele><time>2026-05-03T13:41:06.235Z</time></trkpt><trkpt lat="45.1298067" lon="7.3570733"><ele>866.1666666666667</ele><time>2026-05-03T13:41:07.235Z</time></trkpt><trkpt lat="45.1298217" lon="7.3569683"><ele>866.0</ele><time>2026-05-03T13:41:08.235Z</time></trkpt><trkpt lat="45.1298333" lon="7.3568567"><ele>865.25</ele><time>2026-05-03T13:41:09.234Z</time></trkpt><trkpt lat="45.1298633" lon="7.3567217"><ele>864.5</ele><time>2026-05-03T13:41:10.235Z</time></trkpt><trkpt lat="45.1299033" lon="7.3565767"><ele>863.75</ele><time>2026-05-03T13:41:11.235Z</time></trkpt><trkpt lat="45.1299517" lon="7.35642"><ele>863.0</ele><time>2026-05-03T13:41:12.235Z</time></trkpt><trkpt lat="45.130025" lon="7.3562383"><ele>875.0</ele><time>2026-05-03T13:41:13.235Z</time></trkpt><trkpt lat="45.1300933" lon="7.35605"><ele>887.0</ele><time>2026-05-03T13:41:14.235Z</time></trkpt><trkpt lat="45.1301533" lon="7.3558567"><ele>899.0</ele><time>2026-05-03T13:41:15.235Z</time></trkpt><trkpt lat="45.1302167" lon="7.35566"><ele>897.3333333333334</ele><time>2026-05-03T13:41:16.235Z</time></trkpt><trkpt lat="45.1302783" lon="7.3554633"><ele>895.6666666666667</ele><time>2026-05-03T13:41:17.235Z</time></trkpt><trkpt lat="45.1303267" lon="7.3552617"><ele>894.0</ele><time>2026-05-03T13:41:18.235Z</time></trkpt><trkpt lat="45.1303467" lon="7.35505"><ele>894.0</ele><time>2026-05-03T13:41:19.235Z</time></trkpt><trkpt lat="45.1303333" lon="7.3548533"><ele>894.0</ele><time>2026-05-03T13:41:20.234Z</time></trkpt><trkpt lat="45.130305" lon="7.354655"><ele>894.0</ele><time>2026-05-03T13:41:21.235Z</time></trkpt><trkpt lat="45.130295" lon="7.3544567"><ele>894.0</ele><time>2026-05-03T13:41:22.235Z</time></trkpt><trkpt lat="45.1303033" lon="7.35425"><ele>895.25</ele><time>2026-05-03T13:41:23.235Z</time></trkpt><trkpt lat="45.13031" lon="7.35404"><ele>896.5</ele><time>2026-05-03T13:41:24.235Z</time></trkpt><trkpt lat="45.1303017" lon="7.3538483"><ele>897.75</ele><time>2026-05-03T13:41:25.234Z</time></trkpt><trkpt lat="45.1302617" lon="7.3536533"><ele>899.0</ele><time>2026-05-03T13:41:26.235Z</time></trkpt><trkpt lat="45.1302017" lon="7.3534667"><ele>902.5</ele><time>2026-05-03T13:41:27.235Z</time></trkpt><trkpt lat="45.1301417" lon="7.353275"><ele>906.0</ele><time>2026-05-03T13:41:28.235Z</time></trkpt><trkpt lat="45.1301" lon="7.3530833"><ele>909.5</ele><time>2026-05-03T13:41:29.235Z</time></trkpt><trkpt lat="45.1300783" lon="7.352885"><ele>913.0</ele><time>2026-05-03T13:41:30.234Z</time></trkpt><trkpt lat="45.1300767" lon="7.3526983"><ele>913.0</ele><time>2026-05-03T13:41:31.235Z</time></trkpt><trkpt lat="45.130105" lon="7.35252"><ele>913.0</ele><time>2026-05-03T13:41:32.235Z</time></trkpt><trkpt lat="45.13016" lon="7.3523517"><ele>913.0</ele><time>2026-05-03T13:41:33.235Z</time></trkpt><trkpt lat="45.1302417" lon="7.3522017"><ele>913.0</ele><time>2026-05-03T13:41:34.235Z</time></trkpt><trkpt lat="45.1303333" lon="7.3520717"><ele>910.5</ele><time>2026-05-03T13:41:35.235Z</time></trkpt><trkpt lat="45.1304367" lon="7.351955"><ele>908.0</ele><time>2026-05-03T13:41:36.235Z</time></trkpt><trkpt lat="45.1305233" lon="7.3518167"><ele>905.5</ele><time>2026-05-03T13:41:37.234Z</time></trkpt><trkpt lat="45.1306183" lon="7.3516733"><ele>903.0</ele><time>2026-05-03T13:41:38.235Z</time></trkpt><trkpt lat="45.1306983" lon="7.3515017"><ele>911.25</ele><time>2026-05-03T13:41:39.235Z</time></trkpt><trkpt lat="45.1307633" lon="7.3513367"><ele>919.5</ele><time>2026-05-03T13:41:40.235Z</time></trkpt><trkpt lat="45.1308117" lon="7.35116"><ele>927.75</ele><time>2026-05-03T13:41:41.235Z</time></trkpt><trkpt lat="45.1308283" lon="7.350975"><ele>936.0</ele><time>2026-05-03T13:41:42.234Z</time></trkpt><trkpt lat="45.130835" lon="7.35079"><ele>936.0</ele><time>2026-05-03T13:41:43.235Z</time></trkpt><trkpt lat="45.1308417" lon="7.3506033"><ele>936.0</ele><time>2026-05-03T13:41:44.235Z</time></trkpt><trkpt lat="45.1308383" lon="7.350415"><ele>936.0</ele><time>2026-05-03T13:41:45.235Z</time></trkpt><trkpt lat="45.13084" lon="7.3502333"><ele>936.0</ele><time>2026-05-03T13:41:46.235Z</time></trkpt><trkpt lat="45.1308333" lon="7.3500383"><ele>935.75</ele><time>2026-05-03T13:41:47.235Z</time></trkpt><trkpt lat="45.1308167" lon="7.3498517"><ele>935.5</ele><time>2026-05-03T13:41:48.235Z</time></trkpt><trkpt lat="45.1308133" lon="7.34966"><ele>935.25</ele><time>2026-05-03T13:41:49.235Z</time></trkpt><trkpt lat="45.130795" lon="7.3494817"><ele>935.0</ele><time>2026-05-03T13:41:50.235Z</time></trkpt><trkpt lat="45.13078" lon="7.3493183"><ele>936.2</ele><time>2026-05-03T13:41:51.235Z</time></trkpt><trkpt lat="45.130755" lon="7.349165"><ele>937.4</ele><time>2026-05-03T13:41:52.235Z</time></trkpt><trkpt lat="45.130715" lon="7.3490117"><ele>938.5999999999999</ele><time>2026-05-03T13:41:53.235Z</time></trkpt><trkpt lat="45.130675" lon="7.3488717"><ele>939.8</ele><time>2026-05-03T13:41:54.235Z</time></trkpt><trkpt lat="45.13063" lon="7.3487317"><ele>941.0</ele><time>2026-05-03T13:41:55.235Z</time></trkpt><trkpt lat="45.1305967" lon="7.3486"><ele>937.5000000000001</ele><time>2026-05-03T13:41:56.234Z</time></trkpt><trkpt lat="45.1305733" lon="7.3484517"><ele>934.0</ele><time>2026-05-03T13:41:57.235Z</time></trkpt><trkpt lat="45.1305717" lon="7.3483217"><ele>930.5</ele><time>2026-05-03T13:41:58.235Z</time></trkpt><trkpt lat="45.1305783" lon="7.3482033"><ele>927.0</ele><time>2026-05-03T13:41:59.235Z</time></trkpt><trkpt lat="45.13058" lon="7.34809"><ele>923.5000000000001</ele><time>2026-05-03T13:42:00.235Z</time></trkpt><trkpt lat="45.1305817" lon="7.3479883"><ele>920.0</ele><time>2026-05-03T13:42:01.235Z</time></trkpt><trkpt lat="45.1305817" lon="7.3478383"><ele>920.0</ele><time>2026-05-03T13:42:03.235Z</time></trkpt><trkpt lat="45.1305817" lon="7.347745"><ele>920.0</ele><time>2026-05-03T13:42:05.235Z</time></trkpt></trkseg></trk></gpx>